<?xml version="1.0" encoding="UTF-8"?>
<gpx version="1.1" creator="https://www.youtrack.es" xsi:schemaLocation="http://www.topografix.com/GPX/1/1 http://www.topografix.com/GPX/1/1/gpx.xsd http://www.garmin.com/xmlschemas/GpxExtensions/v3 http://www.garmin.com/xmlschemas/GpxExtensionsv3.xsd http://www.garmin.com/xmlschemas/TrackPointExtension/v1 http://www.garmin.com/xmlschemas/TrackPointExtensionv1.xsd" xmlns:gpxtpx="http://www.garmin.com/xmlschemas/TrackPointExtension/v1" xmlns:gpxx="http://www.garmin.com/xmlschemas/GpxExtensions/v3" xmlns:xsi="http://www.w3.org/2001/XMLSchema-instance">
  <metadata>
    <link href="https://www.youtrack.es">
      <text>YouTrack.es</text>
    </link>
    <time>2026-05-09T01:43:45Z</time>
  </metadata>
  <trk>
    <src>https://www.youtrack.es</src>
    <link href="https://www.youtrack.es/ruta/7185-03goizueta-otardi">
      <text>YouTrack.es</text>
    </link>
    <trkseg>
      <trkpt lat="43.17208600" lon="-1.86372300">
        <ele>157.00000</ele>
        <time>2010-01-01T00:00:00Z</time>
      </trkpt>
      <trkpt lat="43.17177800" lon="-1.86378500">
        <ele>159.00000</ele>
        <time>2010-01-01T00:00:12Z</time>
      </trkpt>
      <trkpt lat="43.17144600" lon="-1.86385200">
        <ele>160.00000</ele>
        <time>2010-01-01T00:00:25Z</time>
      </trkpt>
      <trkpt lat="43.17123200" lon="-1.86394300">
        <ele>159.00000</ele>
        <time>2010-01-01T00:00:34Z</time>
      </trkpt>
      <trkpt lat="43.17111200" lon="-1.86416500">
        <ele>159.00000</ele>
        <time>2010-01-01T00:00:42Z</time>
      </trkpt>
      <trkpt lat="43.17096300" lon="-1.86455700">
        <ele>157.00000</ele>
        <time>2010-01-01T00:00:55Z</time>
      </trkpt>
      <trkpt lat="43.17093300" lon="-1.86460900">
        <ele>157.00000</ele>
        <time>2010-01-01T00:00:57Z</time>
      </trkpt>
      <trkpt lat="43.17090000" lon="-1.86465700">
        <ele>157.00000</ele>
        <time>2010-01-01T00:00:59Z</time>
      </trkpt>
      <trkpt lat="43.17087700" lon="-1.86470400">
        <ele>157.00000</ele>
        <time>2010-01-01T00:01:01Z</time>
      </trkpt>
      <trkpt lat="43.17085900" lon="-1.86474300">
        <ele>157.00000</ele>
        <time>2010-01-01T00:01:02Z</time>
      </trkpt>
      <trkpt lat="43.17084400" lon="-1.86477400">
        <ele>157.00000</ele>
        <time>2010-01-01T00:01:03Z</time>
      </trkpt>
      <trkpt lat="43.17083400" lon="-1.86480600">
        <ele>157.00000</ele>
        <time>2010-01-01T00:01:04Z</time>
      </trkpt>
      <trkpt lat="43.17082400" lon="-1.86483400">
        <ele>157.00000</ele>
        <time>2010-01-01T00:01:05Z</time>
      </trkpt>
      <trkpt lat="43.17080800" lon="-1.86486000">
        <ele>157.00000</ele>
        <time>2010-01-01T00:01:06Z</time>
      </trkpt>
      <trkpt lat="43.17077700" lon="-1.86495000">
        <ele>157.00000</ele>
        <time>2010-01-01T00:01:09Z</time>
      </trkpt>
      <trkpt lat="43.17076200" lon="-1.86498800">
        <ele>157.00000</ele>
        <time>2010-01-01T00:01:10Z</time>
      </trkpt>
      <trkpt lat="43.17075200" lon="-1.86503700">
        <ele>157.00000</ele>
        <time>2010-01-01T00:01:12Z</time>
      </trkpt>
      <trkpt lat="43.17075300" lon="-1.86509200">
        <ele>158.00000</ele>
        <time>2010-01-01T00:01:13Z</time>
      </trkpt>
      <trkpt lat="43.17076900" lon="-1.86514400">
        <ele>158.00000</ele>
        <time>2010-01-01T00:01:15Z</time>
      </trkpt>
      <trkpt lat="43.17079400" lon="-1.86518800">
        <ele>158.00000</ele>
        <time>2010-01-01T00:01:17Z</time>
      </trkpt>
      <trkpt lat="43.17116500" lon="-1.86548200">
        <ele>157.00000</ele>
        <time>2010-01-01T00:01:34Z</time>
      </trkpt>
      <trkpt lat="43.17147800" lon="-1.86566900">
        <ele>156.00000</ele>
        <time>2010-01-01T00:01:48Z</time>
      </trkpt>
      <trkpt lat="43.17175300" lon="-1.86583800">
        <ele>154.00000</ele>
        <time>2010-01-01T00:02:00Z</time>
      </trkpt>
      <trkpt lat="43.17180500" lon="-1.86587300">
        <ele>154.00000</ele>
        <time>2010-01-01T00:02:02Z</time>
      </trkpt>
      <trkpt lat="43.17185700" lon="-1.86591300">
        <ele>155.00000</ele>
        <time>2010-01-01T00:02:04Z</time>
      </trkpt>
      <trkpt lat="43.17190500" lon="-1.86596000">
        <ele>155.00000</ele>
        <time>2010-01-01T00:02:07Z</time>
      </trkpt>
      <trkpt lat="43.17194500" lon="-1.86602300">
        <ele>156.00000</ele>
        <time>2010-01-01T00:02:09Z</time>
      </trkpt>
      <trkpt lat="43.17196500" lon="-1.86610000">
        <ele>156.00000</ele>
        <time>2010-01-01T00:02:12Z</time>
      </trkpt>
      <trkpt lat="43.17195900" lon="-1.86618700">
        <ele>158.00000</ele>
        <time>2010-01-01T00:02:14Z</time>
      </trkpt>
      <trkpt lat="43.17193900" lon="-1.86627700">
        <ele>159.00000</ele>
        <time>2010-01-01T00:02:17Z</time>
      </trkpt>
      <trkpt lat="43.17186500" lon="-1.86666600">
        <ele>167.00000</ele>
        <time>2010-01-01T00:02:29Z</time>
      </trkpt>
      <trkpt lat="43.17187600" lon="-1.86710500">
        <ele>172.00000</ele>
        <time>2010-01-01T00:02:41Z</time>
      </trkpt>
      <trkpt lat="43.17189000" lon="-1.86723100">
        <ele>172.00000</ele>
        <time>2010-01-01T00:02:45Z</time>
      </trkpt>
      <trkpt lat="43.17209200" lon="-1.86771800">
        <ele>178.00000</ele>
        <time>2010-01-01T00:03:01Z</time>
      </trkpt>
      <trkpt lat="43.17222700" lon="-1.86786000">
        <ele>180.00000</ele>
        <time>2010-01-01T00:03:08Z</time>
      </trkpt>
      <trkpt lat="43.17237200" lon="-1.86797300">
        <ele>183.00000</ele>
        <time>2010-01-01T00:03:15Z</time>
      </trkpt>
      <trkpt lat="43.17254700" lon="-1.86818400">
        <ele>187.00000</ele>
        <time>2010-01-01T00:03:24Z</time>
      </trkpt>
      <trkpt lat="43.17261300" lon="-1.86828100">
        <ele>190.00000</ele>
        <time>2010-01-01T00:03:28Z</time>
      </trkpt>
      <trkpt lat="43.17283600" lon="-1.86863000">
        <ele>195.00000</ele>
        <time>2010-01-01T00:03:42Z</time>
      </trkpt>
      <trkpt lat="43.17290000" lon="-1.86884500">
        <ele>194.00000</ele>
        <time>2010-01-01T00:03:48Z</time>
      </trkpt>
      <trkpt lat="43.17293900" lon="-1.86912700">
        <ele>189.00000</ele>
        <time>2010-01-01T00:03:57Z</time>
      </trkpt>
      <trkpt lat="43.17309100" lon="-1.86957000">
        <ele>185.00000</ele>
        <time>2010-01-01T00:04:11Z</time>
      </trkpt>
      <trkpt lat="43.17319200" lon="-1.86975400">
        <ele>184.00000</ele>
        <time>2010-01-01T00:04:18Z</time>
      </trkpt>
      <trkpt lat="43.17326500" lon="-1.86983800">
        <ele>184.00000</ele>
        <time>2010-01-01T00:04:22Z</time>
      </trkpt>
      <trkpt lat="43.17339900" lon="-1.86999700">
        <ele>184.00000</ele>
        <time>2010-01-01T00:04:29Z</time>
      </trkpt>
      <trkpt lat="43.17345700" lon="-1.87005700">
        <ele>184.00000</ele>
        <time>2010-01-01T00:04:32Z</time>
      </trkpt>
      <trkpt lat="43.17351900" lon="-1.87008400">
        <ele>184.00000</ele>
        <time>2010-01-01T00:04:34Z</time>
      </trkpt>
      <trkpt lat="43.17368100" lon="-1.87006400">
        <ele>187.00000</ele>
        <time>2010-01-01T00:04:41Z</time>
      </trkpt>
      <trkpt lat="43.17377800" lon="-1.87003000">
        <ele>189.00000</ele>
        <time>2010-01-01T00:04:45Z</time>
      </trkpt>
      <trkpt lat="43.17388000" lon="-1.86998100">
        <ele>193.00000</ele>
        <time>2010-01-01T00:04:49Z</time>
      </trkpt>
      <trkpt lat="43.17398700" lon="-1.86994200">
        <ele>197.00000</ele>
        <time>2010-01-01T00:04:54Z</time>
      </trkpt>
      <trkpt lat="43.17409300" lon="-1.86991500">
        <ele>200.00000</ele>
        <time>2010-01-01T00:04:58Z</time>
      </trkpt>
      <trkpt lat="43.17419700" lon="-1.86988200">
        <ele>203.00000</ele>
        <time>2010-01-01T00:05:02Z</time>
      </trkpt>
      <trkpt lat="43.17430200" lon="-1.86984500">
        <ele>207.00000</ele>
        <time>2010-01-01T00:05:06Z</time>
      </trkpt>
      <trkpt lat="43.17440200" lon="-1.86982900">
        <ele>210.00000</ele>
        <time>2010-01-01T00:05:11Z</time>
      </trkpt>
      <trkpt lat="43.17449900" lon="-1.86984900">
        <ele>213.00000</ele>
        <time>2010-01-01T00:05:14Z</time>
      </trkpt>
      <trkpt lat="43.17458900" lon="-1.86990800">
        <ele>215.00000</ele>
        <time>2010-01-01T00:05:18Z</time>
      </trkpt>
      <trkpt lat="43.17467600" lon="-1.87000100">
        <ele>217.00000</ele>
        <time>2010-01-01T00:05:23Z</time>
      </trkpt>
      <trkpt lat="43.17476200" lon="-1.87012100">
        <ele>218.00000</ele>
        <time>2010-01-01T00:05:28Z</time>
      </trkpt>
      <trkpt lat="43.17483200" lon="-1.87025100">
        <ele>218.00000</ele>
        <time>2010-01-01T00:05:32Z</time>
      </trkpt>
      <trkpt lat="43.17488900" lon="-1.87039400">
        <ele>219.00000</ele>
        <time>2010-01-01T00:05:37Z</time>
      </trkpt>
      <trkpt lat="43.17492100" lon="-1.87053500">
        <ele>219.00000</ele>
        <time>2010-01-01T00:05:42Z</time>
      </trkpt>
      <trkpt lat="43.17493800" lon="-1.87067400">
        <ele>219.00000</ele>
        <time>2010-01-01T00:05:46Z</time>
      </trkpt>
      <trkpt lat="43.17493800" lon="-1.87080900">
        <ele>219.00000</ele>
        <time>2010-01-01T00:05:50Z</time>
      </trkpt>
      <trkpt lat="43.17492900" lon="-1.87094200">
        <ele>220.00000</ele>
        <time>2010-01-01T00:05:54Z</time>
      </trkpt>
      <trkpt lat="43.17490400" lon="-1.87106400">
        <ele>220.00000</ele>
        <time>2010-01-01T00:05:57Z</time>
      </trkpt>
      <trkpt lat="43.17480400" lon="-1.87129600">
        <ele>218.00000</ele>
        <time>2010-01-01T00:06:05Z</time>
      </trkpt>
      <trkpt lat="43.17475300" lon="-1.87142700">
        <ele>216.00000</ele>
        <time>2010-01-01T00:06:09Z</time>
      </trkpt>
      <trkpt lat="43.17471400" lon="-1.87156200">
        <ele>217.00000</ele>
        <time>2010-01-01T00:06:14Z</time>
      </trkpt>
      <trkpt lat="43.17468900" lon="-1.87169800">
        <ele>217.00000</ele>
        <time>2010-01-01T00:06:18Z</time>
      </trkpt>
      <trkpt lat="43.17467300" lon="-1.87182700">
        <ele>214.00000</ele>
        <time>2010-01-01T00:06:22Z</time>
      </trkpt>
      <trkpt lat="43.17466400" lon="-1.87193900">
        <ele>213.00000</ele>
        <time>2010-01-01T00:06:25Z</time>
      </trkpt>
      <trkpt lat="43.17466800" lon="-1.87203600">
        <ele>211.00000</ele>
        <time>2010-01-01T00:06:28Z</time>
      </trkpt>
      <trkpt lat="43.17470200" lon="-1.87211300">
        <ele>211.00000</ele>
        <time>2010-01-01T00:06:30Z</time>
      </trkpt>
      <trkpt lat="43.17475700" lon="-1.87217000">
        <ele>212.00000</ele>
        <time>2010-01-01T00:06:33Z</time>
      </trkpt>
      <trkpt lat="43.17482700" lon="-1.87221900">
        <ele>215.00000</ele>
        <time>2010-01-01T00:06:36Z</time>
      </trkpt>
      <trkpt lat="43.17490700" lon="-1.87226400">
        <ele>217.00000</ele>
        <time>2010-01-01T00:06:40Z</time>
      </trkpt>
      <trkpt lat="43.17499600" lon="-1.87231700">
        <ele>220.00000</ele>
        <time>2010-01-01T00:06:44Z</time>
      </trkpt>
      <trkpt lat="43.17508800" lon="-1.87238600">
        <ele>224.00000</ele>
        <time>2010-01-01T00:06:48Z</time>
      </trkpt>
      <trkpt lat="43.17517800" lon="-1.87248000">
        <ele>228.00000</ele>
        <time>2010-01-01T00:06:52Z</time>
      </trkpt>
      <trkpt lat="43.17526200" lon="-1.87259100">
        <ele>232.00000</ele>
        <time>2010-01-01T00:06:57Z</time>
      </trkpt>
      <trkpt lat="43.17532800" lon="-1.87270800">
        <ele>236.00000</ele>
        <time>2010-01-01T00:07:01Z</time>
      </trkpt>
      <trkpt lat="43.17538200" lon="-1.87282500">
        <ele>238.00000</ele>
        <time>2010-01-01T00:07:05Z</time>
      </trkpt>
      <trkpt lat="43.17542900" lon="-1.87294000">
        <ele>240.00000</ele>
        <time>2010-01-01T00:07:09Z</time>
      </trkpt>
      <trkpt lat="43.17546800" lon="-1.87305700">
        <ele>242.00000</ele>
        <time>2010-01-01T00:07:13Z</time>
      </trkpt>
      <trkpt lat="43.17559000" lon="-1.87346300">
        <ele>239.00000</ele>
        <time>2010-01-01T00:07:26Z</time>
      </trkpt>
      <trkpt lat="43.17571800" lon="-1.87373600">
        <ele>241.00000</ele>
        <time>2010-01-01T00:07:35Z</time>
      </trkpt>
      <trkpt lat="43.17574500" lon="-1.87379500">
        <ele>241.00000</ele>
        <time>2010-01-01T00:07:37Z</time>
      </trkpt>
      <trkpt lat="43.17577300" lon="-1.87385000">
        <ele>242.00000</ele>
        <time>2010-01-01T00:07:39Z</time>
      </trkpt>
      <trkpt lat="43.17580000" lon="-1.87390200">
        <ele>242.00000</ele>
        <time>2010-01-01T00:07:41Z</time>
      </trkpt>
      <trkpt lat="43.17582600" lon="-1.87395600">
        <ele>244.00000</ele>
        <time>2010-01-01T00:07:43Z</time>
      </trkpt>
      <trkpt lat="43.17588100" lon="-1.87419300">
        <ele>248.00000</ele>
        <time>2010-01-01T00:07:50Z</time>
      </trkpt>
      <trkpt lat="43.17591000" lon="-1.87430500">
        <ele>250.00000</ele>
        <time>2010-01-01T00:07:54Z</time>
      </trkpt>
      <trkpt lat="43.17592900" lon="-1.87435700">
        <ele>252.00000</ele>
        <time>2010-01-01T00:07:55Z</time>
      </trkpt>
      <trkpt lat="43.17595100" lon="-1.87440400">
        <ele>253.00000</ele>
        <time>2010-01-01T00:07:57Z</time>
      </trkpt>
      <trkpt lat="43.17606100" lon="-1.87453500">
        <ele>258.00000</ele>
        <time>2010-01-01T00:08:03Z</time>
      </trkpt>
      <trkpt lat="43.17608000" lon="-1.87456100">
        <ele>258.00000</ele>
        <time>2010-01-01T00:08:04Z</time>
      </trkpt>
      <trkpt lat="43.17609200" lon="-1.87458700">
        <ele>259.00000</ele>
        <time>2010-01-01T00:08:05Z</time>
      </trkpt>
      <trkpt lat="43.17610200" lon="-1.87459500">
        <ele>259.00000</ele>
        <time>2010-01-01T00:08:05Z</time>
      </trkpt>
      <trkpt lat="43.17611000" lon="-1.87458000">
        <ele>260.00000</ele>
        <time>2010-01-01T00:08:06Z</time>
      </trkpt>
      <trkpt lat="43.17610800" lon="-1.87455800">
        <ele>260.00000</ele>
        <time>2010-01-01T00:08:06Z</time>
      </trkpt>
      <trkpt lat="43.17610100" lon="-1.87452800">
        <ele>260.00000</ele>
        <time>2010-01-01T00:08:07Z</time>
      </trkpt>
      <trkpt lat="43.17606900" lon="-1.87444900">
        <ele>258.00000</ele>
        <time>2010-01-01T00:08:10Z</time>
      </trkpt>
      <trkpt lat="43.17604500" lon="-1.87438700">
        <ele>258.00000</ele>
        <time>2010-01-01T00:08:12Z</time>
      </trkpt>
      <trkpt lat="43.17602400" lon="-1.87430600">
        <ele>257.00000</ele>
        <time>2010-01-01T00:08:15Z</time>
      </trkpt>
      <trkpt lat="43.17600900" lon="-1.87421200">
        <ele>256.00000</ele>
        <time>2010-01-01T00:08:17Z</time>
      </trkpt>
      <trkpt lat="43.17600300" lon="-1.87410700">
        <ele>256.00000</ele>
        <time>2010-01-01T00:08:20Z</time>
      </trkpt>
      <trkpt lat="43.17599700" lon="-1.87398200">
        <ele>257.00000</ele>
        <time>2010-01-01T00:08:24Z</time>
      </trkpt>
      <trkpt lat="43.17594800" lon="-1.87371200">
        <ele>258.00000</ele>
        <time>2010-01-01T00:08:32Z</time>
      </trkpt>
      <trkpt lat="43.17584500" lon="-1.87307100">
        <ele>269.00000</ele>
        <time>2010-01-01T00:08:51Z</time>
      </trkpt>
      <trkpt lat="43.17582900" lon="-1.87295200">
        <ele>271.00000</ele>
        <time>2010-01-01T00:08:55Z</time>
      </trkpt>
      <trkpt lat="43.17560700" lon="-1.87226600">
        <ele>266.00000</ele>
        <time>2010-01-01T00:09:17Z</time>
      </trkpt>
      <trkpt lat="43.17556900" lon="-1.87217400">
        <ele>265.00000</ele>
        <time>2010-01-01T00:09:20Z</time>
      </trkpt>
      <trkpt lat="43.17552900" lon="-1.87208800">
        <ele>263.00000</ele>
        <time>2010-01-01T00:09:23Z</time>
      </trkpt>
      <trkpt lat="43.17548700" lon="-1.87200600">
        <ele>261.00000</ele>
        <time>2010-01-01T00:09:26Z</time>
      </trkpt>
      <trkpt lat="43.17545200" lon="-1.87192600">
        <ele>260.00000</ele>
        <time>2010-01-01T00:09:29Z</time>
      </trkpt>
      <trkpt lat="43.17543100" lon="-1.87184600">
        <ele>260.00000</ele>
        <time>2010-01-01T00:09:31Z</time>
      </trkpt>
      <trkpt lat="43.17542200" lon="-1.87176400">
        <ele>260.00000</ele>
        <time>2010-01-01T00:09:33Z</time>
      </trkpt>
      <trkpt lat="43.17543000" lon="-1.87168300">
        <ele>261.00000</ele>
        <time>2010-01-01T00:09:36Z</time>
      </trkpt>
      <trkpt lat="43.17545400" lon="-1.87160300">
        <ele>263.00000</ele>
        <time>2010-01-01T00:09:38Z</time>
      </trkpt>
      <trkpt lat="43.17554600" lon="-1.87144600">
        <ele>267.00000</ele>
        <time>2010-01-01T00:09:44Z</time>
      </trkpt>
      <trkpt lat="43.17566900" lon="-1.87117600">
        <ele>272.00000</ele>
        <time>2010-01-01T00:09:54Z</time>
      </trkpt>
      <trkpt lat="43.17571100" lon="-1.87109100">
        <ele>273.00000</ele>
        <time>2010-01-01T00:09:57Z</time>
      </trkpt>
      <trkpt lat="43.17574800" lon="-1.87100700">
        <ele>274.00000</ele>
        <time>2010-01-01T00:09:59Z</time>
      </trkpt>
      <trkpt lat="43.17577400" lon="-1.87091800">
        <ele>275.00000</ele>
        <time>2010-01-01T00:10:02Z</time>
      </trkpt>
      <trkpt lat="43.17579300" lon="-1.87083300">
        <ele>275.00000</ele>
        <time>2010-01-01T00:10:05Z</time>
      </trkpt>
      <trkpt lat="43.17581300" lon="-1.87076600">
        <ele>276.00000</ele>
        <time>2010-01-01T00:10:07Z</time>
      </trkpt>
      <trkpt lat="43.17584100" lon="-1.87073000">
        <ele>277.00000</ele>
        <time>2010-01-01T00:10:08Z</time>
      </trkpt>
      <trkpt lat="43.17587100" lon="-1.87070100">
        <ele>278.00000</ele>
        <time>2010-01-01T00:10:10Z</time>
      </trkpt>
      <trkpt lat="43.17590100" lon="-1.87067400">
        <ele>278.00000</ele>
        <time>2010-01-01T00:10:11Z</time>
      </trkpt>
      <trkpt lat="43.17593200" lon="-1.87066100">
        <ele>278.00000</ele>
        <time>2010-01-01T00:10:13Z</time>
      </trkpt>
      <trkpt lat="43.17612100" lon="-1.87080100">
        <ele>285.00000</ele>
        <time>2010-01-01T00:10:21Z</time>
      </trkpt>
      <trkpt lat="43.17616200" lon="-1.87083500">
        <ele>286.00000</ele>
        <time>2010-01-01T00:10:23Z</time>
      </trkpt>
      <trkpt lat="43.17620500" lon="-1.87088200">
        <ele>288.00000</ele>
        <time>2010-01-01T00:10:25Z</time>
      </trkpt>
      <trkpt lat="43.17623800" lon="-1.87092600">
        <ele>289.00000</ele>
        <time>2010-01-01T00:10:27Z</time>
      </trkpt>
      <trkpt lat="43.17626700" lon="-1.87096100">
        <ele>290.00000</ele>
        <time>2010-01-01T00:10:29Z</time>
      </trkpt>
      <trkpt lat="43.17629900" lon="-1.87097700">
        <ele>292.00000</ele>
        <time>2010-01-01T00:10:30Z</time>
      </trkpt>
      <trkpt lat="43.17633400" lon="-1.87096500">
        <ele>292.00000</ele>
        <time>2010-01-01T00:10:32Z</time>
      </trkpt>
      <trkpt lat="43.17636700" lon="-1.87091700">
        <ele>291.00000</ele>
        <time>2010-01-01T00:10:34Z</time>
      </trkpt>
      <trkpt lat="43.17640300" lon="-1.87083900">
        <ele>289.00000</ele>
        <time>2010-01-01T00:10:36Z</time>
      </trkpt>
      <trkpt lat="43.17648500" lon="-1.87063600">
        <ele>286.00000</ele>
        <time>2010-01-01T00:10:43Z</time>
      </trkpt>
      <trkpt lat="43.17653200" lon="-1.87054300">
        <ele>284.00000</ele>
        <time>2010-01-01T00:10:46Z</time>
      </trkpt>
      <trkpt lat="43.17658300" lon="-1.87046700">
        <ele>284.00000</ele>
        <time>2010-01-01T00:10:49Z</time>
      </trkpt>
      <trkpt lat="43.17670700" lon="-1.87036500">
        <ele>286.00000</ele>
        <time>2010-01-01T00:10:55Z</time>
      </trkpt>
      <trkpt lat="43.17677700" lon="-1.87032400">
        <ele>287.00000</ele>
        <time>2010-01-01T00:10:58Z</time>
      </trkpt>
      <trkpt lat="43.17684800" lon="-1.87028900">
        <ele>287.00000</ele>
        <time>2010-01-01T00:11:01Z</time>
      </trkpt>
      <trkpt lat="43.17691900" lon="-1.87026900">
        <ele>289.00000</ele>
        <time>2010-01-01T00:11:04Z</time>
      </trkpt>
      <trkpt lat="43.17698400" lon="-1.87026000">
        <ele>289.00000</ele>
        <time>2010-01-01T00:11:07Z</time>
      </trkpt>
      <trkpt lat="43.17729600" lon="-1.87027500">
        <ele>292.00000</ele>
        <time>2010-01-01T00:11:19Z</time>
      </trkpt>
      <trkpt lat="43.17766600" lon="-1.87028100">
        <ele>293.00000</ele>
        <time>2010-01-01T00:11:34Z</time>
      </trkpt>
      <trkpt lat="43.17772400" lon="-1.87027700">
        <ele>292.00000</ele>
        <time>2010-01-01T00:11:36Z</time>
      </trkpt>
      <trkpt lat="43.17777800" lon="-1.87027900">
        <ele>293.00000</ele>
        <time>2010-01-01T00:11:38Z</time>
      </trkpt>
      <trkpt lat="43.17783100" lon="-1.87028900">
        <ele>294.00000</ele>
        <time>2010-01-01T00:11:41Z</time>
      </trkpt>
      <trkpt lat="43.17788100" lon="-1.87030700">
        <ele>296.00000</ele>
        <time>2010-01-01T00:11:43Z</time>
      </trkpt>
      <trkpt lat="43.17799700" lon="-1.87037200">
        <ele>300.00000</ele>
        <time>2010-01-01T00:11:48Z</time>
      </trkpt>
      <trkpt lat="43.17803200" lon="-1.87039700">
        <ele>301.00000</ele>
        <time>2010-01-01T00:11:49Z</time>
      </trkpt>
      <trkpt lat="43.17806200" lon="-1.87042100">
        <ele>302.00000</ele>
        <time>2010-01-01T00:11:51Z</time>
      </trkpt>
      <trkpt lat="43.17808900" lon="-1.87044300">
        <ele>303.00000</ele>
        <time>2010-01-01T00:11:52Z</time>
      </trkpt>
      <trkpt lat="43.17812300" lon="-1.87045600">
        <ele>304.00000</ele>
        <time>2010-01-01T00:11:53Z</time>
      </trkpt>
      <trkpt lat="43.17816100" lon="-1.87045800">
        <ele>304.00000</ele>
        <time>2010-01-01T00:11:55Z</time>
      </trkpt>
      <trkpt lat="43.17820100" lon="-1.87044200">
        <ele>304.00000</ele>
        <time>2010-01-01T00:11:57Z</time>
      </trkpt>
      <trkpt lat="43.17823000" lon="-1.87039400">
        <ele>304.00000</ele>
        <time>2010-01-01T00:11:58Z</time>
      </trkpt>
      <trkpt lat="43.17824500" lon="-1.87033200">
        <ele>303.00000</ele>
        <time>2010-01-01T00:12:00Z</time>
      </trkpt>
      <trkpt lat="43.17826000" lon="-1.87026700">
        <ele>302.00000</ele>
        <time>2010-01-01T00:12:02Z</time>
      </trkpt>
      <trkpt lat="43.17828400" lon="-1.87021000">
        <ele>302.00000</ele>
        <time>2010-01-01T00:12:04Z</time>
      </trkpt>
      <trkpt lat="43.17831100" lon="-1.87015300">
        <ele>302.00000</ele>
        <time>2010-01-01T00:12:06Z</time>
      </trkpt>
      <trkpt lat="43.17833500" lon="-1.87008500">
        <ele>302.00000</ele>
        <time>2010-01-01T00:12:08Z</time>
      </trkpt>
      <trkpt lat="43.17833400" lon="-1.87001000">
        <ele>302.00000</ele>
        <time>2010-01-01T00:12:11Z</time>
      </trkpt>
      <trkpt lat="43.17829600" lon="-1.86994000">
        <ele>301.00000</ele>
        <time>2010-01-01T00:12:13Z</time>
      </trkpt>
      <trkpt lat="43.17823600" lon="-1.86987800">
        <ele>300.00000</ele>
        <time>2010-01-01T00:12:16Z</time>
      </trkpt>
      <trkpt lat="43.17817600" lon="-1.86981500">
        <ele>298.00000</ele>
        <time>2010-01-01T00:12:19Z</time>
      </trkpt>
      <trkpt lat="43.17813100" lon="-1.86974700">
        <ele>297.00000</ele>
        <time>2010-01-01T00:12:22Z</time>
      </trkpt>
      <trkpt lat="43.17810200" lon="-1.86968100">
        <ele>297.00000</ele>
        <time>2010-01-01T00:12:24Z</time>
      </trkpt>
      <trkpt lat="43.17808300" lon="-1.86961600">
        <ele>297.00000</ele>
        <time>2010-01-01T00:12:26Z</time>
      </trkpt>
      <trkpt lat="43.17807500" lon="-1.86950500">
        <ele>298.00000</ele>
        <time>2010-01-01T00:12:29Z</time>
      </trkpt>
      <trkpt lat="43.17808100" lon="-1.86945800">
        <ele>298.00000</ele>
        <time>2010-01-01T00:12:31Z</time>
      </trkpt>
      <trkpt lat="43.17808800" lon="-1.86941400">
        <ele>299.00000</ele>
        <time>2010-01-01T00:12:32Z</time>
      </trkpt>
      <trkpt lat="43.17810500" lon="-1.86938300">
        <ele>299.00000</ele>
        <time>2010-01-01T00:12:33Z</time>
      </trkpt>
      <trkpt lat="43.17813300" lon="-1.86937000">
        <ele>300.00000</ele>
        <time>2010-01-01T00:12:34Z</time>
      </trkpt>
      <trkpt lat="43.17816700" lon="-1.86937800">
        <ele>301.00000</ele>
        <time>2010-01-01T00:12:36Z</time>
      </trkpt>
      <trkpt lat="43.17819700" lon="-1.86940100">
        <ele>302.00000</ele>
        <time>2010-01-01T00:12:37Z</time>
      </trkpt>
      <trkpt lat="43.17822700" lon="-1.86942300">
        <ele>303.00000</ele>
        <time>2010-01-01T00:12:38Z</time>
      </trkpt>
      <trkpt lat="43.17826200" lon="-1.86943600">
        <ele>304.00000</ele>
        <time>2010-01-01T00:12:40Z</time>
      </trkpt>
      <trkpt lat="43.17829900" lon="-1.86942900">
        <ele>306.00000</ele>
        <time>2010-01-01T00:12:41Z</time>
      </trkpt>
      <trkpt lat="43.17836200" lon="-1.86934700">
        <ele>308.00000</ele>
        <time>2010-01-01T00:12:45Z</time>
      </trkpt>
      <trkpt lat="43.17839800" lon="-1.86929100">
        <ele>310.00000</ele>
        <time>2010-01-01T00:12:47Z</time>
      </trkpt>
      <trkpt lat="43.17843300" lon="-1.86922700">
        <ele>311.00000</ele>
        <time>2010-01-01T00:12:49Z</time>
      </trkpt>
      <trkpt lat="43.17847000" lon="-1.86916400">
        <ele>312.00000</ele>
        <time>2010-01-01T00:12:52Z</time>
      </trkpt>
      <trkpt lat="43.17851100" lon="-1.86911600">
        <ele>313.00000</ele>
        <time>2010-01-01T00:12:54Z</time>
      </trkpt>
      <trkpt lat="43.17855000" lon="-1.86907900">
        <ele>314.00000</ele>
        <time>2010-01-01T00:12:56Z</time>
      </trkpt>
      <trkpt lat="43.17858700" lon="-1.86904500">
        <ele>315.00000</ele>
        <time>2010-01-01T00:12:58Z</time>
      </trkpt>
      <trkpt lat="43.17862200" lon="-1.86901600">
        <ele>315.00000</ele>
        <time>2010-01-01T00:12:59Z</time>
      </trkpt>
      <trkpt lat="43.17866100" lon="-1.86899800">
        <ele>315.00000</ele>
        <time>2010-01-01T00:13:01Z</time>
      </trkpt>
      <trkpt lat="43.17870100" lon="-1.86898200">
        <ele>314.00000</ele>
        <time>2010-01-01T00:13:03Z</time>
      </trkpt>
      <trkpt lat="43.17873900" lon="-1.86896400">
        <ele>314.00000</ele>
        <time>2010-01-01T00:13:04Z</time>
      </trkpt>
      <trkpt lat="43.17878300" lon="-1.86895000">
        <ele>314.00000</ele>
        <time>2010-01-01T00:13:06Z</time>
      </trkpt>
      <trkpt lat="43.17883500" lon="-1.86894600">
        <ele>313.00000</ele>
        <time>2010-01-01T00:13:08Z</time>
      </trkpt>
      <trkpt lat="43.17889000" lon="-1.86894700">
        <ele>313.00000</ele>
        <time>2010-01-01T00:13:10Z</time>
      </trkpt>
      <trkpt lat="43.17894600" lon="-1.86896000">
        <ele>313.00000</ele>
        <time>2010-01-01T00:13:13Z</time>
      </trkpt>
      <trkpt lat="43.17900000" lon="-1.86898100">
        <ele>313.00000</ele>
        <time>2010-01-01T00:13:15Z</time>
      </trkpt>
      <trkpt lat="43.17905400" lon="-1.86900200">
        <ele>312.00000</ele>
        <time>2010-01-01T00:13:17Z</time>
      </trkpt>
      <trkpt lat="43.17937200" lon="-1.86914100">
        <ele>314.00000</ele>
        <time>2010-01-01T00:13:30Z</time>
      </trkpt>
      <trkpt lat="43.17943800" lon="-1.86917200">
        <ele>316.00000</ele>
        <time>2010-01-01T00:13:33Z</time>
      </trkpt>
      <trkpt lat="43.17950700" lon="-1.86920800">
        <ele>315.00000</ele>
        <time>2010-01-01T00:13:36Z</time>
      </trkpt>
      <trkpt lat="43.17957800" lon="-1.86926000">
        <ele>315.00000</ele>
        <time>2010-01-01T00:13:39Z</time>
      </trkpt>
      <trkpt lat="43.17964000" lon="-1.86933400">
        <ele>316.00000</ele>
        <time>2010-01-01T00:13:43Z</time>
      </trkpt>
      <trkpt lat="43.17969200" lon="-1.86941700">
        <ele>318.00000</ele>
        <time>2010-01-01T00:13:46Z</time>
      </trkpt>
      <trkpt lat="43.17973200" lon="-1.86949500">
        <ele>320.00000</ele>
        <time>2010-01-01T00:13:49Z</time>
      </trkpt>
      <trkpt lat="43.17976000" lon="-1.86957100">
        <ele>323.00000</ele>
        <time>2010-01-01T00:13:51Z</time>
      </trkpt>
      <trkpt lat="43.17977900" lon="-1.86963300">
        <ele>325.00000</ele>
        <time>2010-01-01T00:13:53Z</time>
      </trkpt>
      <trkpt lat="43.17980300" lon="-1.86968700">
        <ele>327.00000</ele>
        <time>2010-01-01T00:13:55Z</time>
      </trkpt>
      <trkpt lat="43.17983100" lon="-1.86972800">
        <ele>329.00000</ele>
        <time>2010-01-01T00:13:57Z</time>
      </trkpt>
      <trkpt lat="43.17986300" lon="-1.86976700">
        <ele>330.00000</ele>
        <time>2010-01-01T00:13:58Z</time>
      </trkpt>
      <trkpt lat="43.17990500" lon="-1.86980400">
        <ele>331.00000</ele>
        <time>2010-01-01T00:14:00Z</time>
      </trkpt>
      <trkpt lat="43.18013200" lon="-1.86990500">
        <ele>334.00000</ele>
        <time>2010-01-01T00:14:10Z</time>
      </trkpt>
      <trkpt lat="43.18024800" lon="-1.86997100">
        <ele>336.00000</ele>
        <time>2010-01-01T00:14:15Z</time>
      </trkpt>
      <trkpt lat="43.18030500" lon="-1.87000900">
        <ele>337.00000</ele>
        <time>2010-01-01T00:14:17Z</time>
      </trkpt>
      <trkpt lat="43.18036500" lon="-1.87004200">
        <ele>338.00000</ele>
        <time>2010-01-01T00:14:20Z</time>
      </trkpt>
      <trkpt lat="43.18042700" lon="-1.87005100">
        <ele>338.00000</ele>
        <time>2010-01-01T00:14:22Z</time>
      </trkpt>
      <trkpt lat="43.18048100" lon="-1.87003400">
        <ele>338.00000</ele>
        <time>2010-01-01T00:14:25Z</time>
      </trkpt>
      <trkpt lat="43.18052500" lon="-1.87000300">
        <ele>337.00000</ele>
        <time>2010-01-01T00:14:27Z</time>
      </trkpt>
      <trkpt lat="43.18056400" lon="-1.86997300">
        <ele>337.00000</ele>
        <time>2010-01-01T00:14:28Z</time>
      </trkpt>
      <trkpt lat="43.18059800" lon="-1.86994300">
        <ele>336.00000</ele>
        <time>2010-01-01T00:14:30Z</time>
      </trkpt>
      <trkpt lat="43.18077600" lon="-1.86976200">
        <ele>334.00000</ele>
        <time>2010-01-01T00:14:39Z</time>
      </trkpt>
      <trkpt lat="43.18079700" lon="-1.86973700">
        <ele>333.00000</ele>
        <time>2010-01-01T00:14:40Z</time>
      </trkpt>
      <trkpt lat="43.18081500" lon="-1.86971000">
        <ele>333.00000</ele>
        <time>2010-01-01T00:14:41Z</time>
      </trkpt>
      <trkpt lat="43.18083100" lon="-1.86968200">
        <ele>332.00000</ele>
        <time>2010-01-01T00:14:42Z</time>
      </trkpt>
      <trkpt lat="43.18085300" lon="-1.86965300">
        <ele>332.00000</ele>
        <time>2010-01-01T00:14:43Z</time>
      </trkpt>
      <trkpt lat="43.18088000" lon="-1.86962400">
        <ele>332.00000</ele>
        <time>2010-01-01T00:14:45Z</time>
      </trkpt>
      <trkpt lat="43.18090900" lon="-1.86960300">
        <ele>332.00000</ele>
        <time>2010-01-01T00:14:46Z</time>
      </trkpt>
      <trkpt lat="43.18094200" lon="-1.86959300">
        <ele>332.00000</ele>
        <time>2010-01-01T00:14:47Z</time>
      </trkpt>
      <trkpt lat="43.18097300" lon="-1.86958300">
        <ele>333.00000</ele>
        <time>2010-01-01T00:14:49Z</time>
      </trkpt>
      <trkpt lat="43.18100300" lon="-1.86956700">
        <ele>333.00000</ele>
        <time>2010-01-01T00:14:50Z</time>
      </trkpt>
      <trkpt lat="43.18103400" lon="-1.86955100">
        <ele>333.00000</ele>
        <time>2010-01-01T00:14:51Z</time>
      </trkpt>
      <trkpt lat="43.18106400" lon="-1.86954300">
        <ele>334.00000</ele>
        <time>2010-01-01T00:14:53Z</time>
      </trkpt>
      <trkpt lat="43.18109400" lon="-1.86954500">
        <ele>335.00000</ele>
        <time>2010-01-01T00:14:54Z</time>
      </trkpt>
      <trkpt lat="43.18112100" lon="-1.86956600">
        <ele>335.00000</ele>
        <time>2010-01-01T00:14:55Z</time>
      </trkpt>
      <trkpt lat="43.18113800" lon="-1.86960800">
        <ele>336.00000</ele>
        <time>2010-01-01T00:14:56Z</time>
      </trkpt>
      <trkpt lat="43.18114200" lon="-1.86966100">
        <ele>336.00000</ele>
        <time>2010-01-01T00:14:58Z</time>
      </trkpt>
      <trkpt lat="43.18108900" lon="-1.86976500">
        <ele>338.00000</ele>
        <time>2010-01-01T00:15:02Z</time>
      </trkpt>
      <trkpt lat="43.18102400" lon="-1.86985000">
        <ele>339.00000</ele>
        <time>2010-01-01T00:15:05Z</time>
      </trkpt>
      <trkpt lat="43.18098300" lon="-1.86989600">
        <ele>339.00000</ele>
        <time>2010-01-01T00:15:07Z</time>
      </trkpt>
      <trkpt lat="43.18093900" lon="-1.86993700">
        <ele>340.00000</ele>
        <time>2010-01-01T00:15:10Z</time>
      </trkpt>
      <trkpt lat="43.18086400" lon="-1.87001500">
        <ele>341.00000</ele>
        <time>2010-01-01T00:15:13Z</time>
      </trkpt>
      <trkpt lat="43.18082900" lon="-1.87004900">
        <ele>342.00000</ele>
        <time>2010-01-01T00:15:15Z</time>
      </trkpt>
      <trkpt lat="43.18076400" lon="-1.87012200">
        <ele>343.00000</ele>
        <time>2010-01-01T00:15:18Z</time>
      </trkpt>
      <trkpt lat="43.18072900" lon="-1.87016800">
        <ele>343.00000</ele>
        <time>2010-01-01T00:15:20Z</time>
      </trkpt>
      <trkpt lat="43.18062400" lon="-1.87031900">
        <ele>345.00000</ele>
        <time>2010-01-01T00:15:26Z</time>
      </trkpt>
      <trkpt lat="43.18052300" lon="-1.87045900">
        <ele>347.00000</ele>
        <time>2010-01-01T00:15:32Z</time>
      </trkpt>
      <trkpt lat="43.18048500" lon="-1.87050500">
        <ele>347.00000</ele>
        <time>2010-01-01T00:15:34Z</time>
      </trkpt>
      <trkpt lat="43.18037900" lon="-1.87058800">
        <ele>349.00000</ele>
        <time>2010-01-01T00:15:39Z</time>
      </trkpt>
      <trkpt lat="43.18031900" lon="-1.87062500">
        <ele>350.00000</ele>
        <time>2010-01-01T00:15:42Z</time>
      </trkpt>
      <trkpt lat="43.18026700" lon="-1.87066100">
        <ele>351.00000</ele>
        <time>2010-01-01T00:15:44Z</time>
      </trkpt>
      <trkpt lat="43.18022300" lon="-1.87069500">
        <ele>351.00000</ele>
        <time>2010-01-01T00:15:46Z</time>
      </trkpt>
      <trkpt lat="43.18018800" lon="-1.87073200">
        <ele>352.00000</ele>
        <time>2010-01-01T00:15:48Z</time>
      </trkpt>
      <trkpt lat="43.18015700" lon="-1.87077300">
        <ele>353.00000</ele>
        <time>2010-01-01T00:15:50Z</time>
      </trkpt>
      <trkpt lat="43.18010300" lon="-1.87088000">
        <ele>356.00000</ele>
        <time>2010-01-01T00:15:53Z</time>
      </trkpt>
      <trkpt lat="43.18007000" lon="-1.87094900">
        <ele>357.00000</ele>
        <time>2010-01-01T00:15:56Z</time>
      </trkpt>
      <trkpt lat="43.18003100" lon="-1.87101800">
        <ele>359.00000</ele>
        <time>2010-01-01T00:15:58Z</time>
      </trkpt>
      <trkpt lat="43.17998800" lon="-1.87108200">
        <ele>361.00000</ele>
        <time>2010-01-01T00:16:01Z</time>
      </trkpt>
      <trkpt lat="43.17994400" lon="-1.87114000">
        <ele>361.00000</ele>
        <time>2010-01-01T00:16:03Z</time>
      </trkpt>
      <trkpt lat="43.17990600" lon="-1.87119300">
        <ele>362.00000</ele>
        <time>2010-01-01T00:16:05Z</time>
      </trkpt>
      <trkpt lat="43.17987500" lon="-1.87123900">
        <ele>363.00000</ele>
        <time>2010-01-01T00:16:07Z</time>
      </trkpt>
      <trkpt lat="43.17984700" lon="-1.87127800">
        <ele>364.00000</ele>
        <time>2010-01-01T00:16:09Z</time>
      </trkpt>
      <trkpt lat="43.17983100" lon="-1.87132400">
        <ele>365.00000</ele>
        <time>2010-01-01T00:16:10Z</time>
      </trkpt>
      <trkpt lat="43.17981900" lon="-1.87137200">
        <ele>367.00000</ele>
        <time>2010-01-01T00:16:12Z</time>
      </trkpt>
      <trkpt lat="43.17980700" lon="-1.87142800">
        <ele>368.00000</ele>
        <time>2010-01-01T00:16:14Z</time>
      </trkpt>
      <trkpt lat="43.17979400" lon="-1.87149300">
        <ele>369.00000</ele>
        <time>2010-01-01T00:16:16Z</time>
      </trkpt>
      <trkpt lat="43.17978400" lon="-1.87155600">
        <ele>370.00000</ele>
        <time>2010-01-01T00:16:17Z</time>
      </trkpt>
      <trkpt lat="43.17973300" lon="-1.87185200">
        <ele>373.00000</ele>
        <time>2010-01-01T00:16:26Z</time>
      </trkpt>
      <trkpt lat="43.17971800" lon="-1.87192100">
        <ele>373.00000</ele>
        <time>2010-01-01T00:16:28Z</time>
      </trkpt>
      <trkpt lat="43.17970400" lon="-1.87199900">
        <ele>374.00000</ele>
        <time>2010-01-01T00:16:31Z</time>
      </trkpt>
      <trkpt lat="43.17969600" lon="-1.87207700">
        <ele>376.00000</ele>
        <time>2010-01-01T00:16:33Z</time>
      </trkpt>
      <trkpt lat="43.17968500" lon="-1.87214700">
        <ele>377.00000</ele>
        <time>2010-01-01T00:16:35Z</time>
      </trkpt>
      <trkpt lat="43.17966500" lon="-1.87221300">
        <ele>379.00000</ele>
        <time>2010-01-01T00:16:37Z</time>
      </trkpt>
      <trkpt lat="43.17964400" lon="-1.87228000">
        <ele>380.00000</ele>
        <time>2010-01-01T00:16:39Z</time>
      </trkpt>
      <trkpt lat="43.17958100" lon="-1.87240600">
        <ele>385.00000</ele>
        <time>2010-01-01T00:16:44Z</time>
      </trkpt>
      <trkpt lat="43.17954200" lon="-1.87246200">
        <ele>387.00000</ele>
        <time>2010-01-01T00:16:46Z</time>
      </trkpt>
      <trkpt lat="43.17950000" lon="-1.87251200">
        <ele>389.00000</ele>
        <time>2010-01-01T00:16:48Z</time>
      </trkpt>
      <trkpt lat="43.17945000" lon="-1.87255900">
        <ele>390.00000</ele>
        <time>2010-01-01T00:16:51Z</time>
      </trkpt>
      <trkpt lat="43.17940000" lon="-1.87260400">
        <ele>390.00000</ele>
        <time>2010-01-01T00:16:53Z</time>
      </trkpt>
      <trkpt lat="43.17936200" lon="-1.87264600">
        <ele>390.00000</ele>
        <time>2010-01-01T00:16:55Z</time>
      </trkpt>
      <trkpt lat="43.17932200" lon="-1.87268600">
        <ele>390.00000</ele>
        <time>2010-01-01T00:16:57Z</time>
      </trkpt>
      <trkpt lat="43.17920200" lon="-1.87282400">
        <ele>391.00000</ele>
        <time>2010-01-01T00:17:03Z</time>
      </trkpt>
      <trkpt lat="43.17913200" lon="-1.87289400">
        <ele>390.00000</ele>
        <time>2010-01-01T00:17:07Z</time>
      </trkpt>
      <trkpt lat="43.17910300" lon="-1.87292300">
        <ele>390.00000</ele>
        <time>2010-01-01T00:17:08Z</time>
      </trkpt>
      <trkpt lat="43.17907500" lon="-1.87296200">
        <ele>390.00000</ele>
        <time>2010-01-01T00:17:10Z</time>
      </trkpt>
      <trkpt lat="43.17904900" lon="-1.87301300">
        <ele>390.00000</ele>
        <time>2010-01-01T00:17:12Z</time>
      </trkpt>
      <trkpt lat="43.17902800" lon="-1.87307700">
        <ele>390.00000</ele>
        <time>2010-01-01T00:17:14Z</time>
      </trkpt>
      <trkpt lat="43.17901600" lon="-1.87314900">
        <ele>391.00000</ele>
        <time>2010-01-01T00:17:16Z</time>
      </trkpt>
      <trkpt lat="43.17902200" lon="-1.87332700">
        <ele>393.00000</ele>
        <time>2010-01-01T00:17:21Z</time>
      </trkpt>
      <trkpt lat="43.17905800" lon="-1.87357900">
        <ele>394.00000</ele>
        <time>2010-01-01T00:17:29Z</time>
      </trkpt>
      <trkpt lat="43.17906800" lon="-1.87366200">
        <ele>394.00000</ele>
        <time>2010-01-01T00:17:31Z</time>
      </trkpt>
      <trkpt lat="43.17907400" lon="-1.87374400">
        <ele>394.00000</ele>
        <time>2010-01-01T00:17:33Z</time>
      </trkpt>
      <trkpt lat="43.17907000" lon="-1.87382000">
        <ele>394.00000</ele>
        <time>2010-01-01T00:17:36Z</time>
      </trkpt>
      <trkpt lat="43.17906100" lon="-1.87389700">
        <ele>393.00000</ele>
        <time>2010-01-01T00:17:38Z</time>
      </trkpt>
      <trkpt lat="43.17905000" lon="-1.87398100">
        <ele>393.00000</ele>
        <time>2010-01-01T00:17:40Z</time>
      </trkpt>
      <trkpt lat="43.17904200" lon="-1.87407300">
        <ele>393.00000</ele>
        <time>2010-01-01T00:17:43Z</time>
      </trkpt>
      <trkpt lat="43.17904500" lon="-1.87417600">
        <ele>393.00000</ele>
        <time>2010-01-01T00:17:46Z</time>
      </trkpt>
      <trkpt lat="43.17906100" lon="-1.87428900">
        <ele>393.00000</ele>
        <time>2010-01-01T00:17:49Z</time>
      </trkpt>
      <trkpt lat="43.17907700" lon="-1.87441000">
        <ele>394.00000</ele>
        <time>2010-01-01T00:17:53Z</time>
      </trkpt>
      <trkpt lat="43.17908700" lon="-1.87463900">
        <ele>398.00000</ele>
        <time>2010-01-01T00:18:00Z</time>
      </trkpt>
      <trkpt lat="43.17906900" lon="-1.87493200">
        <ele>402.00000</ele>
        <time>2010-01-01T00:18:08Z</time>
      </trkpt>
      <trkpt lat="43.17905900" lon="-1.87501600">
        <ele>403.00000</ele>
        <time>2010-01-01T00:18:11Z</time>
      </trkpt>
      <trkpt lat="43.17905200" lon="-1.87509400">
        <ele>403.00000</ele>
        <time>2010-01-01T00:18:13Z</time>
      </trkpt>
      <trkpt lat="43.17905300" lon="-1.87517300">
        <ele>403.00000</ele>
        <time>2010-01-01T00:18:15Z</time>
      </trkpt>
      <trkpt lat="43.17905800" lon="-1.87525800">
        <ele>403.00000</ele>
        <time>2010-01-01T00:18:18Z</time>
      </trkpt>
      <trkpt lat="43.17906000" lon="-1.87551100">
        <ele>405.00000</ele>
        <time>2010-01-01T00:18:25Z</time>
      </trkpt>
      <trkpt lat="43.17904600" lon="-1.87565900">
        <ele>405.00000</ele>
        <time>2010-01-01T00:18:30Z</time>
      </trkpt>
      <trkpt lat="43.17904400" lon="-1.87572600">
        <ele>405.00000</ele>
        <time>2010-01-01T00:18:32Z</time>
      </trkpt>
      <trkpt lat="43.17903400" lon="-1.87600000">
        <ele>407.00000</ele>
        <time>2010-01-01T00:18:40Z</time>
      </trkpt>
      <trkpt lat="43.17902300" lon="-1.87608000">
        <ele>407.00000</ele>
        <time>2010-01-01T00:18:42Z</time>
      </trkpt>
      <trkpt lat="43.17901500" lon="-1.87616500">
        <ele>407.00000</ele>
        <time>2010-01-01T00:18:44Z</time>
      </trkpt>
      <trkpt lat="43.17902700" lon="-1.87633100">
        <ele>407.00000</ele>
        <time>2010-01-01T00:18:49Z</time>
      </trkpt>
      <trkpt lat="43.17904000" lon="-1.87640900">
        <ele>407.00000</ele>
        <time>2010-01-01T00:18:52Z</time>
      </trkpt>
      <trkpt lat="43.17906400" lon="-1.87648200">
        <ele>409.00000</ele>
        <time>2010-01-01T00:18:54Z</time>
      </trkpt>
      <trkpt lat="43.17913200" lon="-1.87661100">
        <ele>411.00000</ele>
        <time>2010-01-01T00:18:59Z</time>
      </trkpt>
      <trkpt lat="43.17916500" lon="-1.87668700">
        <ele>413.00000</ele>
        <time>2010-01-01T00:19:01Z</time>
      </trkpt>
      <trkpt lat="43.17922900" lon="-1.87685900">
        <ele>413.00000</ele>
        <time>2010-01-01T00:19:07Z</time>
      </trkpt>
      <trkpt lat="43.17930100" lon="-1.87703300">
        <ele>415.00000</ele>
        <time>2010-01-01T00:19:13Z</time>
      </trkpt>
      <trkpt lat="43.17933300" lon="-1.87712100">
        <ele>418.00000</ele>
        <time>2010-01-01T00:19:16Z</time>
      </trkpt>
      <trkpt lat="43.17935700" lon="-1.87720400">
        <ele>420.00000</ele>
        <time>2010-01-01T00:19:18Z</time>
      </trkpt>
      <trkpt lat="43.17937000" lon="-1.87727600">
        <ele>422.00000</ele>
        <time>2010-01-01T00:19:20Z</time>
      </trkpt>
      <trkpt lat="43.17937400" lon="-1.87734200">
        <ele>423.00000</ele>
        <time>2010-01-01T00:19:22Z</time>
      </trkpt>
      <trkpt lat="43.17932000" lon="-1.87774700">
        <ele>428.00000</ele>
        <time>2010-01-01T00:19:34Z</time>
      </trkpt>
      <trkpt lat="43.17930700" lon="-1.87781900">
        <ele>428.00000</ele>
        <time>2010-01-01T00:19:36Z</time>
      </trkpt>
      <trkpt lat="43.17928300" lon="-1.87795700">
        <ele>428.00000</ele>
        <time>2010-01-01T00:19:41Z</time>
      </trkpt>
      <trkpt lat="43.17927100" lon="-1.87802700">
        <ele>427.00000</ele>
        <time>2010-01-01T00:19:43Z</time>
      </trkpt>
      <trkpt lat="43.17925800" lon="-1.87810000">
        <ele>428.00000</ele>
        <time>2010-01-01T00:19:45Z</time>
      </trkpt>
      <trkpt lat="43.17925000" lon="-1.87817100">
        <ele>428.00000</ele>
        <time>2010-01-01T00:19:47Z</time>
      </trkpt>
      <trkpt lat="43.17924400" lon="-1.87823400">
        <ele>429.00000</ele>
        <time>2010-01-01T00:19:49Z</time>
      </trkpt>
      <trkpt lat="43.17923800" lon="-1.87829500">
        <ele>429.00000</ele>
        <time>2010-01-01T00:19:51Z</time>
      </trkpt>
      <trkpt lat="43.17923200" lon="-1.87835500">
        <ele>429.00000</ele>
        <time>2010-01-01T00:19:52Z</time>
      </trkpt>
      <trkpt lat="43.17922400" lon="-1.87841600">
        <ele>430.00000</ele>
        <time>2010-01-01T00:19:54Z</time>
      </trkpt>
      <trkpt lat="43.17921500" lon="-1.87847700">
        <ele>430.00000</ele>
        <time>2010-01-01T00:19:56Z</time>
      </trkpt>
      <trkpt lat="43.17920400" lon="-1.87871100">
        <ele>433.00000</ele>
        <time>2010-01-01T00:20:03Z</time>
      </trkpt>
      <trkpt lat="43.17916800" lon="-1.87895400">
        <ele>440.00000</ele>
        <time>2010-01-01T00:20:10Z</time>
      </trkpt>
      <trkpt lat="43.17916200" lon="-1.87898000">
        <ele>441.00000</ele>
        <time>2010-01-01T00:20:11Z</time>
      </trkpt>
      <trkpt lat="43.17915400" lon="-1.87900500">
        <ele>442.00000</ele>
        <time>2010-01-01T00:20:12Z</time>
      </trkpt>
      <trkpt lat="43.17915900" lon="-1.87911000">
        <ele>447.00000</ele>
        <time>2010-01-01T00:20:15Z</time>
      </trkpt>
      <trkpt lat="43.17918900" lon="-1.87911300">
        <ele>447.00000</ele>
        <time>2010-01-01T00:20:16Z</time>
      </trkpt>
      <trkpt lat="43.17921500" lon="-1.87911700">
        <ele>447.00000</ele>
        <time>2010-01-01T00:20:17Z</time>
      </trkpt>
      <trkpt lat="43.17924000" lon="-1.87912000">
        <ele>447.00000</ele>
        <time>2010-01-01T00:20:18Z</time>
      </trkpt>
      <trkpt lat="43.17926200" lon="-1.87912800">
        <ele>447.00000</ele>
        <time>2010-01-01T00:20:19Z</time>
      </trkpt>
      <trkpt lat="43.17927900" lon="-1.87913800">
        <ele>447.00000</ele>
        <time>2010-01-01T00:20:20Z</time>
      </trkpt>
      <trkpt lat="43.17929400" lon="-1.87915400">
        <ele>448.00000</ele>
        <time>2010-01-01T00:20:20Z</time>
      </trkpt>
      <trkpt lat="43.17929800" lon="-1.87918100">
        <ele>448.00000</ele>
        <time>2010-01-01T00:20:21Z</time>
      </trkpt>
      <trkpt lat="43.17929500" lon="-1.87921200">
        <ele>449.00000</ele>
        <time>2010-01-01T00:20:22Z</time>
      </trkpt>
      <trkpt lat="43.17913500" lon="-1.87934100">
        <ele>453.00000</ele>
        <time>2010-01-01T00:20:30Z</time>
      </trkpt>
      <trkpt lat="43.17907200" lon="-1.87938500">
        <ele>453.00000</ele>
        <time>2010-01-01T00:20:32Z</time>
      </trkpt>
      <trkpt lat="43.17900900" lon="-1.87942500">
        <ele>452.00000</ele>
        <time>2010-01-01T00:20:35Z</time>
      </trkpt>
      <trkpt lat="43.17875700" lon="-1.87960700">
        <ele>450.00000</ele>
        <time>2010-01-01T00:20:47Z</time>
      </trkpt>
      <trkpt lat="43.17869800" lon="-1.87966000">
        <ele>450.00000</ele>
        <time>2010-01-01T00:20:49Z</time>
      </trkpt>
      <trkpt lat="43.17864400" lon="-1.87972200">
        <ele>451.00000</ele>
        <time>2010-01-01T00:20:52Z</time>
      </trkpt>
      <trkpt lat="43.17859700" lon="-1.87978500">
        <ele>451.00000</ele>
        <time>2010-01-01T00:20:55Z</time>
      </trkpt>
      <trkpt lat="43.17856000" lon="-1.87984600">
        <ele>452.00000</ele>
        <time>2010-01-01T00:20:57Z</time>
      </trkpt>
      <trkpt lat="43.17853300" lon="-1.87991000">
        <ele>453.00000</ele>
        <time>2010-01-01T00:20:59Z</time>
      </trkpt>
      <trkpt lat="43.17851600" lon="-1.87997600">
        <ele>455.00000</ele>
        <time>2010-01-01T00:21:01Z</time>
      </trkpt>
      <trkpt lat="43.17850700" lon="-1.88004400">
        <ele>457.00000</ele>
        <time>2010-01-01T00:21:03Z</time>
      </trkpt>
      <trkpt lat="43.17851100" lon="-1.88011600">
        <ele>460.00000</ele>
        <time>2010-01-01T00:21:06Z</time>
      </trkpt>
      <trkpt lat="43.17852300" lon="-1.88027800">
        <ele>466.00000</ele>
        <time>2010-01-01T00:21:10Z</time>
      </trkpt>
      <trkpt lat="43.17852100" lon="-1.88036300">
        <ele>467.00000</ele>
        <time>2010-01-01T00:21:13Z</time>
      </trkpt>
      <trkpt lat="43.17851400" lon="-1.88044500">
        <ele>469.00000</ele>
        <time>2010-01-01T00:21:15Z</time>
      </trkpt>
      <trkpt lat="43.17850300" lon="-1.88052000">
        <ele>470.00000</ele>
        <time>2010-01-01T00:21:17Z</time>
      </trkpt>
      <trkpt lat="43.17847900" lon="-1.88059000">
        <ele>471.00000</ele>
        <time>2010-01-01T00:21:20Z</time>
      </trkpt>
      <trkpt lat="43.17845100" lon="-1.88064700">
        <ele>472.00000</ele>
        <time>2010-01-01T00:21:22Z</time>
      </trkpt>
      <trkpt lat="43.17839200" lon="-1.88073100">
        <ele>472.00000</ele>
        <time>2010-01-01T00:21:25Z</time>
      </trkpt>
      <trkpt lat="43.17835600" lon="-1.88076700">
        <ele>472.00000</ele>
        <time>2010-01-01T00:21:27Z</time>
      </trkpt>
      <trkpt lat="43.17819600" lon="-1.88090500">
        <ele>472.00000</ele>
        <time>2010-01-01T00:21:34Z</time>
      </trkpt>
      <trkpt lat="43.17815400" lon="-1.88094900">
        <ele>472.00000</ele>
        <time>2010-01-01T00:21:37Z</time>
      </trkpt>
      <trkpt lat="43.17808000" lon="-1.88104800">
        <ele>473.00000</ele>
        <time>2010-01-01T00:21:41Z</time>
      </trkpt>
      <trkpt lat="43.17793400" lon="-1.88128300">
        <ele>474.00000</ele>
        <time>2010-01-01T00:21:50Z</time>
      </trkpt>
      <trkpt lat="43.17791600" lon="-1.88130600">
        <ele>474.00000</ele>
        <time>2010-01-01T00:21:51Z</time>
      </trkpt>
      <trkpt lat="43.17789900" lon="-1.88133200">
        <ele>474.00000</ele>
        <time>2010-01-01T00:21:52Z</time>
      </trkpt>
      <trkpt lat="43.17788800" lon="-1.88136400">
        <ele>474.00000</ele>
        <time>2010-01-01T00:21:53Z</time>
      </trkpt>
      <trkpt lat="43.17788900" lon="-1.88139800">
        <ele>475.00000</ele>
        <time>2010-01-01T00:21:54Z</time>
      </trkpt>
      <trkpt lat="43.17790600" lon="-1.88142300">
        <ele>476.00000</ele>
        <time>2010-01-01T00:21:55Z</time>
      </trkpt>
      <trkpt lat="43.17793200" lon="-1.88142900">
        <ele>477.00000</ele>
        <time>2010-01-01T00:21:56Z</time>
      </trkpt>
      <trkpt lat="43.17795900" lon="-1.88141300">
        <ele>477.00000</ele>
        <time>2010-01-01T00:21:57Z</time>
      </trkpt>
      <trkpt lat="43.17798700" lon="-1.88137700">
        <ele>477.00000</ele>
        <time>2010-01-01T00:21:59Z</time>
      </trkpt>
      <trkpt lat="43.17801800" lon="-1.88133700">
        <ele>477.00000</ele>
        <time>2010-01-01T00:22:00Z</time>
      </trkpt>
      <trkpt lat="43.17816700" lon="-1.88123200">
        <ele>478.00000</ele>
        <time>2010-01-01T00:22:07Z</time>
      </trkpt>
      <trkpt lat="43.17819800" lon="-1.88121600">
        <ele>479.00000</ele>
        <time>2010-01-01T00:22:08Z</time>
      </trkpt>
      <trkpt lat="43.17827200" lon="-1.88116100">
        <ele>480.00000</ele>
        <time>2010-01-01T00:22:12Z</time>
      </trkpt>
      <trkpt lat="43.17841400" lon="-1.88115200">
        <ele>484.00000</ele>
        <time>2010-01-01T00:22:17Z</time>
      </trkpt>
      <trkpt lat="43.17880200" lon="-1.88105100">
        <ele>489.00000</ele>
        <time>2010-01-01T00:22:33Z</time>
      </trkpt>
      <trkpt lat="43.17884200" lon="-1.88104000">
        <ele>489.00000</ele>
        <time>2010-01-01T00:22:35Z</time>
      </trkpt>
      <trkpt lat="43.17888500" lon="-1.88103400">
        <ele>489.00000</ele>
        <time>2010-01-01T00:22:36Z</time>
      </trkpt>
      <trkpt lat="43.17893000" lon="-1.88103800">
        <ele>489.00000</ele>
        <time>2010-01-01T00:22:38Z</time>
      </trkpt>
      <trkpt lat="43.17897200" lon="-1.88105700">
        <ele>489.00000</ele>
        <time>2010-01-01T00:22:40Z</time>
      </trkpt>
      <trkpt lat="43.17900600" lon="-1.88110000">
        <ele>490.00000</ele>
        <time>2010-01-01T00:22:42Z</time>
      </trkpt>
      <trkpt lat="43.17901900" lon="-1.88116200">
        <ele>489.00000</ele>
        <time>2010-01-01T00:22:44Z</time>
      </trkpt>
      <trkpt lat="43.17900500" lon="-1.88122800">
        <ele>490.00000</ele>
        <time>2010-01-01T00:22:46Z</time>
      </trkpt>
      <trkpt lat="43.17897300" lon="-1.88129200">
        <ele>490.00000</ele>
        <time>2010-01-01T00:22:48Z</time>
      </trkpt>
      <trkpt lat="43.17876200" lon="-1.88160700">
        <ele>491.00000</ele>
        <time>2010-01-01T00:23:01Z</time>
      </trkpt>
      <trkpt lat="43.17859500" lon="-1.88189700">
        <ele>495.00000</ele>
        <time>2010-01-01T00:23:11Z</time>
      </trkpt>
      <trkpt lat="43.17843300" lon="-1.88218600">
        <ele>498.00000</ele>
        <time>2010-01-01T00:23:22Z</time>
      </trkpt>
      <trkpt lat="43.17834500" lon="-1.88238600">
        <ele>500.00000</ele>
        <time>2010-01-01T00:23:29Z</time>
      </trkpt>
      <trkpt lat="43.17830900" lon="-1.88248200">
        <ele>501.00000</ele>
        <time>2010-01-01T00:23:32Z</time>
      </trkpt>
      <trkpt lat="43.17827500" lon="-1.88256900">
        <ele>501.00000</ele>
        <time>2010-01-01T00:23:35Z</time>
      </trkpt>
      <trkpt lat="43.17816200" lon="-1.88279000">
        <ele>499.00000</ele>
        <time>2010-01-01T00:23:43Z</time>
      </trkpt>
      <trkpt lat="43.17796100" lon="-1.88308300">
        <ele>500.00000</ele>
        <time>2010-01-01T00:23:54Z</time>
      </trkpt>
      <trkpt lat="43.17789500" lon="-1.88319200">
        <ele>501.00000</ele>
        <time>2010-01-01T00:23:59Z</time>
      </trkpt>
      <trkpt lat="43.17786700" lon="-1.88325000">
        <ele>502.00000</ele>
        <time>2010-01-01T00:24:01Z</time>
      </trkpt>
      <trkpt lat="43.17783800" lon="-1.88330500">
        <ele>503.00000</ele>
        <time>2010-01-01T00:24:03Z</time>
      </trkpt>
      <trkpt lat="43.17780500" lon="-1.88335200">
        <ele>504.00000</ele>
        <time>2010-01-01T00:24:04Z</time>
      </trkpt>
      <trkpt lat="43.17777000" lon="-1.88339800">
        <ele>504.00000</ele>
        <time>2010-01-01T00:24:06Z</time>
      </trkpt>
      <trkpt lat="43.17774200" lon="-1.88345100">
        <ele>505.00000</ele>
        <time>2010-01-01T00:24:08Z</time>
      </trkpt>
      <trkpt lat="43.17773200" lon="-1.88351500">
        <ele>505.00000</ele>
        <time>2010-01-01T00:24:10Z</time>
      </trkpt>
      <trkpt lat="43.17777600" lon="-1.88381800">
        <ele>511.00000</ele>
        <time>2010-01-01T00:24:19Z</time>
      </trkpt>
      <trkpt lat="43.17784300" lon="-1.88426700">
        <ele>507.00000</ele>
        <time>2010-01-01T00:24:33Z</time>
      </trkpt>
      <trkpt lat="43.17785300" lon="-1.88430900">
        <ele>506.00000</ele>
        <time>2010-01-01T00:24:34Z</time>
      </trkpt>
      <trkpt lat="43.17786000" lon="-1.88434900">
        <ele>506.00000</ele>
        <time>2010-01-01T00:24:35Z</time>
      </trkpt>
      <trkpt lat="43.17786400" lon="-1.88438600">
        <ele>505.00000</ele>
        <time>2010-01-01T00:24:36Z</time>
      </trkpt>
      <trkpt lat="43.17787300" lon="-1.88442000">
        <ele>505.00000</ele>
        <time>2010-01-01T00:24:37Z</time>
      </trkpt>
      <trkpt lat="43.17793100" lon="-1.88484800">
        <ele>503.00000</ele>
        <time>2010-01-01T00:24:50Z</time>
      </trkpt>
      <trkpt lat="43.17796100" lon="-1.88533500">
        <ele>503.00000</ele>
        <time>2010-01-01T00:25:04Z</time>
      </trkpt>
      <trkpt lat="43.17796000" lon="-1.88538200">
        <ele>503.00000</ele>
        <time>2010-01-01T00:25:06Z</time>
      </trkpt>
      <trkpt lat="43.17795400" lon="-1.88541900">
        <ele>502.00000</ele>
        <time>2010-01-01T00:25:07Z</time>
      </trkpt>
      <trkpt lat="43.17807900" lon="-1.88577400">
        <ele>504.00000</ele>
        <time>2010-01-01T00:25:18Z</time>
      </trkpt>
      <trkpt lat="43.17809300" lon="-1.88580600">
        <ele>505.00000</ele>
        <time>2010-01-01T00:25:19Z</time>
      </trkpt>
      <trkpt lat="43.17810800" lon="-1.88583700">
        <ele>505.00000</ele>
        <time>2010-01-01T00:25:20Z</time>
      </trkpt>
      <trkpt lat="43.17812000" lon="-1.88586700">
        <ele>504.00000</ele>
        <time>2010-01-01T00:25:21Z</time>
      </trkpt>
      <trkpt lat="43.17812900" lon="-1.88589400">
        <ele>504.00000</ele>
        <time>2010-01-01T00:25:22Z</time>
      </trkpt>
      <trkpt lat="43.17814200" lon="-1.88591800">
        <ele>504.00000</ele>
        <time>2010-01-01T00:25:23Z</time>
      </trkpt>
      <trkpt lat="43.17815800" lon="-1.88595000">
        <ele>504.00000</ele>
        <time>2010-01-01T00:25:24Z</time>
      </trkpt>
      <trkpt lat="43.17816500" lon="-1.88599100">
        <ele>504.00000</ele>
        <time>2010-01-01T00:25:26Z</time>
      </trkpt>
      <trkpt lat="43.17816400" lon="-1.88603400">
        <ele>504.00000</ele>
        <time>2010-01-01T00:25:27Z</time>
      </trkpt>
      <trkpt lat="43.17816600" lon="-1.88607500">
        <ele>504.00000</ele>
        <time>2010-01-01T00:25:28Z</time>
      </trkpt>
      <trkpt lat="43.17817400" lon="-1.88611800">
        <ele>504.00000</ele>
        <time>2010-01-01T00:25:29Z</time>
      </trkpt>
      <trkpt lat="43.17818000" lon="-1.88616400">
        <ele>503.00000</ele>
        <time>2010-01-01T00:25:31Z</time>
      </trkpt>
      <trkpt lat="43.17818500" lon="-1.88621000">
        <ele>503.00000</ele>
        <time>2010-01-01T00:25:32Z</time>
      </trkpt>
      <trkpt lat="43.17819400" lon="-1.88624700">
        <ele>502.00000</ele>
        <time>2010-01-01T00:25:33Z</time>
      </trkpt>
      <trkpt lat="43.17820900" lon="-1.88628100">
        <ele>502.00000</ele>
        <time>2010-01-01T00:25:34Z</time>
      </trkpt>
      <trkpt lat="43.17823100" lon="-1.88632100">
        <ele>502.00000</ele>
        <time>2010-01-01T00:25:36Z</time>
      </trkpt>
      <trkpt lat="43.17825000" lon="-1.88636600">
        <ele>502.00000</ele>
        <time>2010-01-01T00:25:37Z</time>
      </trkpt>
      <trkpt lat="43.17826800" lon="-1.88641100">
        <ele>502.00000</ele>
        <time>2010-01-01T00:25:39Z</time>
      </trkpt>
      <trkpt lat="43.17828400" lon="-1.88645900">
        <ele>503.00000</ele>
        <time>2010-01-01T00:25:40Z</time>
      </trkpt>
      <trkpt lat="43.17828500" lon="-1.88651300">
        <ele>503.00000</ele>
        <time>2010-01-01T00:25:42Z</time>
      </trkpt>
      <trkpt lat="43.17828500" lon="-1.88657100">
        <ele>504.00000</ele>
        <time>2010-01-01T00:25:44Z</time>
      </trkpt>
      <trkpt lat="43.17827900" lon="-1.88663600">
        <ele>505.00000</ele>
        <time>2010-01-01T00:25:45Z</time>
      </trkpt>
      <trkpt lat="43.17811700" lon="-1.88739500">
        <ele>513.00000</ele>
        <time>2010-01-01T00:26:09Z</time>
      </trkpt>
      <trkpt lat="43.17811000" lon="-1.88745100">
        <ele>514.00000</ele>
        <time>2010-01-01T00:26:10Z</time>
      </trkpt>
      <trkpt lat="43.17810200" lon="-1.88749800">
        <ele>514.00000</ele>
        <time>2010-01-01T00:26:12Z</time>
      </trkpt>
      <trkpt lat="43.17809600" lon="-1.88754200">
        <ele>515.00000</ele>
        <time>2010-01-01T00:26:13Z</time>
      </trkpt>
      <trkpt lat="43.17809200" lon="-1.88758500">
        <ele>516.00000</ele>
        <time>2010-01-01T00:26:14Z</time>
      </trkpt>
      <trkpt lat="43.17808900" lon="-1.88762200">
        <ele>516.00000</ele>
        <time>2010-01-01T00:26:15Z</time>
      </trkpt>
      <trkpt lat="43.17808200" lon="-1.88765200">
        <ele>517.00000</ele>
        <time>2010-01-01T00:26:16Z</time>
      </trkpt>
      <trkpt lat="43.17807300" lon="-1.88767800">
        <ele>517.00000</ele>
        <time>2010-01-01T00:26:17Z</time>
      </trkpt>
      <trkpt lat="43.17806400" lon="-1.88770300">
        <ele>517.00000</ele>
        <time>2010-01-01T00:26:18Z</time>
      </trkpt>
      <trkpt lat="43.17805500" lon="-1.88772800">
        <ele>518.00000</ele>
        <time>2010-01-01T00:26:19Z</time>
      </trkpt>
      <trkpt lat="43.17804700" lon="-1.88775300">
        <ele>518.00000</ele>
        <time>2010-01-01T00:26:19Z</time>
      </trkpt>
      <trkpt lat="43.17804000" lon="-1.88777700">
        <ele>518.00000</ele>
        <time>2010-01-01T00:26:20Z</time>
      </trkpt>
      <trkpt lat="43.17803100" lon="-1.88779900">
        <ele>519.00000</ele>
        <time>2010-01-01T00:26:21Z</time>
      </trkpt>
      <trkpt lat="43.17802000" lon="-1.88782100">
        <ele>519.00000</ele>
        <time>2010-01-01T00:26:22Z</time>
      </trkpt>
      <trkpt lat="43.17800500" lon="-1.88784000">
        <ele>520.00000</ele>
        <time>2010-01-01T00:26:23Z</time>
      </trkpt>
      <trkpt lat="43.17798600" lon="-1.88786200">
        <ele>520.00000</ele>
        <time>2010-01-01T00:26:24Z</time>
      </trkpt>
      <trkpt lat="43.17796200" lon="-1.88788100">
        <ele>521.00000</ele>
        <time>2010-01-01T00:26:25Z</time>
      </trkpt>
      <trkpt lat="43.17792800" lon="-1.88789600">
        <ele>521.00000</ele>
        <time>2010-01-01T00:26:26Z</time>
      </trkpt>
      <trkpt lat="43.17788600" lon="-1.88790400">
        <ele>521.00000</ele>
        <time>2010-01-01T00:26:28Z</time>
      </trkpt>
      <trkpt lat="43.17773300" lon="-1.88790800">
        <ele>521.00000</ele>
        <time>2010-01-01T00:26:34Z</time>
      </trkpt>
      <trkpt lat="43.17722300" lon="-1.88809600">
        <ele>521.00000</ele>
        <time>2010-01-01T00:26:55Z</time>
      </trkpt>
      <trkpt lat="43.17691000" lon="-1.88841500">
        <ele>517.00000</ele>
        <time>2010-01-01T00:27:11Z</time>
      </trkpt>
      <trkpt lat="43.17669900" lon="-1.88865400">
        <ele>514.00000</ele>
        <time>2010-01-01T00:27:22Z</time>
      </trkpt>
      <trkpt lat="43.17668900" lon="-1.88866500">
        <ele>513.00000</ele>
        <time>2010-01-01T00:27:22Z</time>
      </trkpt>
      <trkpt lat="43.17667500" lon="-1.88867800">
        <ele>513.00000</ele>
        <time>2010-01-01T00:27:23Z</time>
      </trkpt>
      <trkpt lat="43.17666000" lon="-1.88869000">
        <ele>513.00000</ele>
        <time>2010-01-01T00:27:24Z</time>
      </trkpt>
      <trkpt lat="43.17664700" lon="-1.88870400">
        <ele>512.00000</ele>
        <time>2010-01-01T00:27:24Z</time>
      </trkpt>
      <trkpt lat="43.17663500" lon="-1.88871800">
        <ele>512.00000</ele>
        <time>2010-01-01T00:27:25Z</time>
      </trkpt>
      <trkpt lat="43.17655000" lon="-1.88887400">
        <ele>510.00000</ele>
        <time>2010-01-01T00:27:31Z</time>
      </trkpt>
      <trkpt lat="43.17654800" lon="-1.88890700">
        <ele>510.00000</ele>
        <time>2010-01-01T00:27:31Z</time>
      </trkpt>
      <trkpt lat="43.17662900" lon="-1.88909900">
        <ele>512.00000</ele>
        <time>2010-01-01T00:27:38Z</time>
      </trkpt>
      <trkpt lat="43.17675500" lon="-1.88937900">
        <ele>517.00000</ele>
        <time>2010-01-01T00:27:48Z</time>
      </trkpt>
      <trkpt lat="43.17688300" lon="-1.88974500">
        <ele>525.00000</ele>
        <time>2010-01-01T00:27:59Z</time>
      </trkpt>
      <trkpt lat="43.17689300" lon="-1.88977200">
        <ele>526.00000</ele>
        <time>2010-01-01T00:28:00Z</time>
      </trkpt>
      <trkpt lat="43.17689400" lon="-1.88979600">
        <ele>526.00000</ele>
        <time>2010-01-01T00:28:01Z</time>
      </trkpt>
      <trkpt lat="43.17689000" lon="-1.88982100">
        <ele>526.00000</ele>
        <time>2010-01-01T00:28:02Z</time>
      </trkpt>
      <trkpt lat="43.17688800" lon="-1.88984300">
        <ele>527.00000</ele>
        <time>2010-01-01T00:28:02Z</time>
      </trkpt>
      <trkpt lat="43.17688900" lon="-1.88986600">
        <ele>527.00000</ele>
        <time>2010-01-01T00:28:03Z</time>
      </trkpt>
      <trkpt lat="43.17688900" lon="-1.88989300">
        <ele>527.00000</ele>
        <time>2010-01-01T00:28:04Z</time>
      </trkpt>
      <trkpt lat="43.17688700" lon="-1.88991700">
        <ele>527.00000</ele>
        <time>2010-01-01T00:28:05Z</time>
      </trkpt>
      <trkpt lat="43.17688400" lon="-1.88994200">
        <ele>528.00000</ele>
        <time>2010-01-01T00:28:05Z</time>
      </trkpt>
      <trkpt lat="43.17687800" lon="-1.88997100">
        <ele>528.00000</ele>
        <time>2010-01-01T00:28:06Z</time>
      </trkpt>
      <trkpt lat="43.17684400" lon="-1.89004100">
        <ele>528.00000</ele>
        <time>2010-01-01T00:28:09Z</time>
      </trkpt>
      <trkpt lat="43.17671200" lon="-1.89022400">
        <ele>528.00000</ele>
        <time>2010-01-01T00:28:16Z</time>
      </trkpt>
      <trkpt lat="43.17670000" lon="-1.89024400">
        <ele>529.00000</ele>
        <time>2010-01-01T00:28:17Z</time>
      </trkpt>
      <trkpt lat="43.17666300" lon="-1.89031200">
        <ele>528.00000</ele>
        <time>2010-01-01T00:28:19Z</time>
      </trkpt>
      <trkpt lat="43.17665600" lon="-1.89032500">
        <ele>528.00000</ele>
        <time>2010-01-01T00:28:20Z</time>
      </trkpt>
      <trkpt lat="43.17664900" lon="-1.89033900">
        <ele>528.00000</ele>
        <time>2010-01-01T00:28:20Z</time>
      </trkpt>
      <trkpt lat="43.17664100" lon="-1.89035200">
        <ele>528.00000</ele>
        <time>2010-01-01T00:28:21Z</time>
      </trkpt>
      <trkpt lat="43.17661800" lon="-1.89037200">
        <ele>527.00000</ele>
        <time>2010-01-01T00:28:22Z</time>
      </trkpt>
      <trkpt lat="43.17659000" lon="-1.89039500">
        <ele>527.00000</ele>
        <time>2010-01-01T00:28:23Z</time>
      </trkpt>
      <trkpt lat="43.17656100" lon="-1.89043100">
        <ele>526.00000</ele>
        <time>2010-01-01T00:28:25Z</time>
      </trkpt>
      <trkpt lat="43.17645000" lon="-1.89061900">
        <ele>524.00000</ele>
        <time>2010-01-01T00:28:32Z</time>
      </trkpt>
      <trkpt lat="43.17624000" lon="-1.89084500">
        <ele>520.00000</ele>
        <time>2010-01-01T00:28:43Z</time>
      </trkpt>
      <trkpt lat="43.17619800" lon="-1.89090900">
        <ele>520.00000</ele>
        <time>2010-01-01T00:28:45Z</time>
      </trkpt>
      <trkpt lat="43.17609100" lon="-1.89103400">
        <ele>520.00000</ele>
        <time>2010-01-01T00:28:51Z</time>
      </trkpt>
      <trkpt lat="43.17603900" lon="-1.89109500">
        <ele>520.00000</ele>
        <time>2010-01-01T00:28:53Z</time>
      </trkpt>
      <trkpt lat="43.17599100" lon="-1.89115900">
        <ele>520.00000</ele>
        <time>2010-01-01T00:28:56Z</time>
      </trkpt>
      <trkpt lat="43.17595700" lon="-1.89123200">
        <ele>520.00000</ele>
        <time>2010-01-01T00:28:59Z</time>
      </trkpt>
      <trkpt lat="43.17594100" lon="-1.89131600">
        <ele>521.00000</ele>
        <time>2010-01-01T00:29:01Z</time>
      </trkpt>
      <trkpt lat="43.17594000" lon="-1.89140100">
        <ele>522.00000</ele>
        <time>2010-01-01T00:29:04Z</time>
      </trkpt>
      <trkpt lat="43.17595000" lon="-1.89148300">
        <ele>522.00000</ele>
        <time>2010-01-01T00:29:06Z</time>
      </trkpt>
      <trkpt lat="43.17597100" lon="-1.89156200">
        <ele>523.00000</ele>
        <time>2010-01-01T00:29:09Z</time>
      </trkpt>
      <trkpt lat="43.17600500" lon="-1.89163500">
        <ele>524.00000</ele>
        <time>2010-01-01T00:29:11Z</time>
      </trkpt>
      <trkpt lat="43.17623500" lon="-1.89192400">
        <ele>529.00000</ele>
        <time>2010-01-01T00:29:24Z</time>
      </trkpt>
      <trkpt lat="43.17647300" lon="-1.89225100">
        <ele>533.00000</ele>
        <time>2010-01-01T00:29:37Z</time>
      </trkpt>
      <trkpt lat="43.17673700" lon="-1.89261200">
        <ele>539.00000</ele>
        <time>2010-01-01T00:29:52Z</time>
      </trkpt>
      <trkpt lat="43.17678500" lon="-1.89267100">
        <ele>540.00000</ele>
        <time>2010-01-01T00:29:55Z</time>
      </trkpt>
      <trkpt lat="43.17682600" lon="-1.89273200">
        <ele>541.00000</ele>
        <time>2010-01-01T00:29:57Z</time>
      </trkpt>
      <trkpt lat="43.17684900" lon="-1.89280200">
        <ele>542.00000</ele>
        <time>2010-01-01T00:29:59Z</time>
      </trkpt>
      <trkpt lat="43.17684700" lon="-1.89287300">
        <ele>543.00000</ele>
        <time>2010-01-01T00:30:01Z</time>
      </trkpt>
      <trkpt lat="43.17682400" lon="-1.89293800">
        <ele>543.00000</ele>
        <time>2010-01-01T00:30:03Z</time>
      </trkpt>
      <trkpt lat="43.17673800" lon="-1.89305800">
        <ele>542.00000</ele>
        <time>2010-01-01T00:30:08Z</time>
      </trkpt>
      <trkpt lat="43.17669200" lon="-1.89310900">
        <ele>542.00000</ele>
        <time>2010-01-01T00:30:11Z</time>
      </trkpt>
      <trkpt lat="43.17664900" lon="-1.89316000">
        <ele>541.00000</ele>
        <time>2010-01-01T00:30:13Z</time>
      </trkpt>
      <trkpt lat="43.17661400" lon="-1.89321500">
        <ele>540.00000</ele>
        <time>2010-01-01T00:30:15Z</time>
      </trkpt>
      <trkpt lat="43.17658100" lon="-1.89325800">
        <ele>540.00000</ele>
        <time>2010-01-01T00:30:17Z</time>
      </trkpt>
      <trkpt lat="43.17654700" lon="-1.89329100">
        <ele>540.00000</ele>
        <time>2010-01-01T00:30:19Z</time>
      </trkpt>
      <trkpt lat="43.17651600" lon="-1.89333300">
        <ele>539.00000</ele>
        <time>2010-01-01T00:30:20Z</time>
      </trkpt>
      <trkpt lat="43.17649300" lon="-1.89338600">
        <ele>539.00000</ele>
        <time>2010-01-01T00:30:22Z</time>
      </trkpt>
      <trkpt lat="43.17648100" lon="-1.89344000">
        <ele>539.00000</ele>
        <time>2010-01-01T00:30:24Z</time>
      </trkpt>
      <trkpt lat="43.17655600" lon="-1.89375300">
        <ele>541.00000</ele>
        <time>2010-01-01T00:30:33Z</time>
      </trkpt>
      <trkpt lat="43.17675200" lon="-1.89402000">
        <ele>544.00000</ele>
        <time>2010-01-01T00:30:44Z</time>
      </trkpt>
      <trkpt lat="43.17677300" lon="-1.89404900">
        <ele>544.00000</ele>
        <time>2010-01-01T00:30:46Z</time>
      </trkpt>
      <trkpt lat="43.17679200" lon="-1.89407700">
        <ele>545.00000</ele>
        <time>2010-01-01T00:30:47Z</time>
      </trkpt>
      <trkpt lat="43.17681300" lon="-1.89411100">
        <ele>545.00000</ele>
        <time>2010-01-01T00:30:48Z</time>
      </trkpt>
      <trkpt lat="43.17683600" lon="-1.89415100">
        <ele>545.00000</ele>
        <time>2010-01-01T00:30:50Z</time>
      </trkpt>
      <trkpt lat="43.17686200" lon="-1.89419500">
        <ele>545.00000</ele>
        <time>2010-01-01T00:30:51Z</time>
      </trkpt>
      <trkpt lat="43.17689100" lon="-1.89424400">
        <ele>546.00000</ele>
        <time>2010-01-01T00:30:53Z</time>
      </trkpt>
      <trkpt lat="43.17691900" lon="-1.89429700">
        <ele>546.00000</ele>
        <time>2010-01-01T00:30:55Z</time>
      </trkpt>
      <trkpt lat="43.17697300" lon="-1.89447500">
        <ele>546.00000</ele>
        <time>2010-01-01T00:31:01Z</time>
      </trkpt>
      <trkpt lat="43.17698300" lon="-1.89453500">
        <ele>546.00000</ele>
        <time>2010-01-01T00:31:02Z</time>
      </trkpt>
      <trkpt lat="43.17705800" lon="-1.89488900">
        <ele>548.00000</ele>
        <time>2010-01-01T00:31:13Z</time>
      </trkpt>
      <trkpt lat="43.17706400" lon="-1.89494700">
        <ele>548.00000</ele>
        <time>2010-01-01T00:31:15Z</time>
      </trkpt>
      <trkpt lat="43.17706400" lon="-1.89501100">
        <ele>548.00000</ele>
        <time>2010-01-01T00:31:17Z</time>
      </trkpt>
      <trkpt lat="43.17704900" lon="-1.89520500">
        <ele>547.00000</ele>
        <time>2010-01-01T00:31:22Z</time>
      </trkpt>
      <trkpt lat="43.17702500" lon="-1.89541800">
        <ele>547.00000</ele>
        <time>2010-01-01T00:31:29Z</time>
      </trkpt>
      <trkpt lat="43.17696900" lon="-1.89565400">
        <ele>547.00000</ele>
        <time>2010-01-01T00:31:36Z</time>
      </trkpt>
      <trkpt lat="43.17696500" lon="-1.89588800">
        <ele>549.00000</ele>
        <time>2010-01-01T00:31:43Z</time>
      </trkpt>
      <trkpt lat="43.17696000" lon="-1.89610000">
        <ele>550.00000</ele>
        <time>2010-01-01T00:31:49Z</time>
      </trkpt>
      <trkpt lat="43.17695600" lon="-1.89618400">
        <ele>550.00000</ele>
        <time>2010-01-01T00:31:51Z</time>
      </trkpt>
      <trkpt lat="43.17693400" lon="-1.89655000">
        <ele>553.00000</ele>
        <time>2010-01-01T00:32:02Z</time>
      </trkpt>
      <trkpt lat="43.17693000" lon="-1.89663800">
        <ele>554.00000</ele>
        <time>2010-01-01T00:32:05Z</time>
      </trkpt>
      <trkpt lat="43.17694000" lon="-1.89683100">
        <ele>558.00000</ele>
        <time>2010-01-01T00:32:10Z</time>
      </trkpt>
      <trkpt lat="43.17695700" lon="-1.89723400">
        <ele>564.00000</ele>
        <time>2010-01-01T00:32:22Z</time>
      </trkpt>
      <trkpt lat="43.17695000" lon="-1.89734300">
        <ele>563.00000</ele>
        <time>2010-01-01T00:32:25Z</time>
      </trkpt>
      <trkpt lat="43.17689900" lon="-1.89774000">
        <ele>561.00000</ele>
        <time>2010-01-01T00:32:37Z</time>
      </trkpt>
      <trkpt lat="43.17688700" lon="-1.89782200">
        <ele>560.00000</ele>
        <time>2010-01-01T00:32:40Z</time>
      </trkpt>
      <trkpt lat="43.17688000" lon="-1.89790400">
        <ele>561.00000</ele>
        <time>2010-01-01T00:32:42Z</time>
      </trkpt>
      <trkpt lat="43.17687700" lon="-1.89798900">
        <ele>561.00000</ele>
        <time>2010-01-01T00:32:44Z</time>
      </trkpt>
      <trkpt lat="43.17687800" lon="-1.89807200">
        <ele>563.00000</ele>
        <time>2010-01-01T00:32:47Z</time>
      </trkpt>
      <trkpt lat="43.17688300" lon="-1.89816100">
        <ele>565.00000</ele>
        <time>2010-01-01T00:32:49Z</time>
      </trkpt>
      <trkpt lat="43.17689600" lon="-1.89825800">
        <ele>567.00000</ele>
        <time>2010-01-01T00:32:52Z</time>
      </trkpt>
      <trkpt lat="43.17690700" lon="-1.89836500">
        <ele>570.00000</ele>
        <time>2010-01-01T00:32:56Z</time>
      </trkpt>
      <trkpt lat="43.17690100" lon="-1.89847600">
        <ele>571.00000</ele>
        <time>2010-01-01T00:32:59Z</time>
      </trkpt>
      <trkpt lat="43.17680900" lon="-1.89879800">
        <ele>571.00000</ele>
        <time>2010-01-01T00:33:09Z</time>
      </trkpt>
      <trkpt lat="43.17677400" lon="-1.89890300">
        <ele>571.00000</ele>
        <time>2010-01-01T00:33:12Z</time>
      </trkpt>
      <trkpt lat="43.17674400" lon="-1.89901100">
        <ele>573.00000</ele>
        <time>2010-01-01T00:33:16Z</time>
      </trkpt>
      <trkpt lat="43.17671200" lon="-1.89911700">
        <ele>574.00000</ele>
        <time>2010-01-01T00:33:19Z</time>
      </trkpt>
      <trkpt lat="43.17667200" lon="-1.89921600">
        <ele>576.00000</ele>
        <time>2010-01-01T00:33:22Z</time>
      </trkpt>
      <trkpt lat="43.17662400" lon="-1.89930800">
        <ele>578.00000</ele>
        <time>2010-01-01T00:33:26Z</time>
      </trkpt>
      <trkpt lat="43.17656300" lon="-1.89938500">
        <ele>579.00000</ele>
        <time>2010-01-01T00:33:29Z</time>
      </trkpt>
      <trkpt lat="43.17640500" lon="-1.89949000">
        <ele>578.00000</ele>
        <time>2010-01-01T00:33:36Z</time>
      </trkpt>
      <trkpt lat="43.17632700" lon="-1.89953500">
        <ele>578.00000</ele>
        <time>2010-01-01T00:33:39Z</time>
      </trkpt>
      <trkpt lat="43.17625300" lon="-1.89957800">
        <ele>578.00000</ele>
        <time>2010-01-01T00:33:42Z</time>
      </trkpt>
      <trkpt lat="43.17618800" lon="-1.89962800">
        <ele>578.00000</ele>
        <time>2010-01-01T00:33:45Z</time>
      </trkpt>
      <trkpt lat="43.17612900" lon="-1.89968600">
        <ele>579.00000</ele>
        <time>2010-01-01T00:33:48Z</time>
      </trkpt>
      <trkpt lat="43.17607700" lon="-1.89975600">
        <ele>580.00000</ele>
        <time>2010-01-01T00:33:51Z</time>
      </trkpt>
      <trkpt lat="43.17602600" lon="-1.89983800">
        <ele>580.00000</ele>
        <time>2010-01-01T00:33:54Z</time>
      </trkpt>
      <trkpt lat="43.17596400" lon="-1.89992300">
        <ele>580.00000</ele>
        <time>2010-01-01T00:33:58Z</time>
      </trkpt>
      <trkpt lat="43.17589300" lon="-1.89999600">
        <ele>580.00000</ele>
        <time>2010-01-01T00:34:02Z</time>
      </trkpt>
      <trkpt lat="43.17582300" lon="-1.90006200">
        <ele>580.00000</ele>
        <time>2010-01-01T00:34:05Z</time>
      </trkpt>
      <trkpt lat="43.17575800" lon="-1.90012600">
        <ele>580.00000</ele>
        <time>2010-01-01T00:34:08Z</time>
      </trkpt>
      <trkpt lat="43.17569400" lon="-1.90019200">
        <ele>581.00000</ele>
        <time>2010-01-01T00:34:11Z</time>
      </trkpt>
      <trkpt lat="43.17558100" lon="-1.90033900">
        <ele>584.00000</ele>
        <time>2010-01-01T00:34:18Z</time>
      </trkpt>
      <trkpt lat="43.17553500" lon="-1.90041200">
        <ele>586.00000</ele>
        <time>2010-01-01T00:34:20Z</time>
      </trkpt>
      <trkpt lat="43.17549500" lon="-1.90048500">
        <ele>588.00000</ele>
        <time>2010-01-01T00:34:23Z</time>
      </trkpt>
      <trkpt lat="43.17543500" lon="-1.90065100">
        <ele>593.00000</ele>
        <time>2010-01-01T00:34:28Z</time>
      </trkpt>
      <trkpt lat="43.17540100" lon="-1.90074500">
        <ele>595.00000</ele>
        <time>2010-01-01T00:34:32Z</time>
      </trkpt>
      <trkpt lat="43.17526100" lon="-1.90100000">
        <ele>600.00000</ele>
        <time>2010-01-01T00:34:41Z</time>
      </trkpt>
      <trkpt lat="43.17521100" lon="-1.90108400">
        <ele>602.00000</ele>
        <time>2010-01-01T00:34:44Z</time>
      </trkpt>
      <trkpt lat="43.17515700" lon="-1.90115600">
        <ele>604.00000</ele>
        <time>2010-01-01T00:34:47Z</time>
      </trkpt>
      <trkpt lat="43.17509600" lon="-1.90121500">
        <ele>605.00000</ele>
        <time>2010-01-01T00:34:50Z</time>
      </trkpt>
      <trkpt lat="43.17502800" lon="-1.90125700">
        <ele>606.00000</ele>
        <time>2010-01-01T00:34:53Z</time>
      </trkpt>
      <trkpt lat="43.17495700" lon="-1.90127700">
        <ele>606.00000</ele>
        <time>2010-01-01T00:34:56Z</time>
      </trkpt>
      <trkpt lat="43.17482000" lon="-1.90126900">
        <ele>604.00000</ele>
        <time>2010-01-01T00:35:01Z</time>
      </trkpt>
      <trkpt lat="43.17475800" lon="-1.90126200">
        <ele>602.00000</ele>
        <time>2010-01-01T00:35:04Z</time>
      </trkpt>
      <trkpt lat="43.17470100" lon="-1.90124700">
        <ele>601.00000</ele>
        <time>2010-01-01T00:35:06Z</time>
      </trkpt>
      <trkpt lat="43.17465200" lon="-1.90122800">
        <ele>599.00000</ele>
        <time>2010-01-01T00:35:08Z</time>
      </trkpt>
      <trkpt lat="43.17460900" lon="-1.90122800">
        <ele>598.00000</ele>
        <time>2010-01-01T00:35:10Z</time>
      </trkpt>
      <trkpt lat="43.17457200" lon="-1.90126000">
        <ele>599.00000</ele>
        <time>2010-01-01T00:35:12Z</time>
      </trkpt>
      <trkpt lat="43.17454000" lon="-1.90131800">
        <ele>600.00000</ele>
        <time>2010-01-01T00:35:14Z</time>
      </trkpt>
      <trkpt lat="43.17452100" lon="-1.90138900">
        <ele>601.00000</ele>
        <time>2010-01-01T00:35:16Z</time>
      </trkpt>
      <trkpt lat="43.17449800" lon="-1.90165100">
        <ele>606.00000</ele>
        <time>2010-01-01T00:35:24Z</time>
      </trkpt>
      <trkpt lat="43.17452900" lon="-1.90210600">
        <ele>620.00000</ele>
        <time>2010-01-01T00:35:37Z</time>
      </trkpt>
      <trkpt lat="43.17452500" lon="-1.90227300">
        <ele>625.00000</ele>
        <time>2010-01-01T00:35:42Z</time>
      </trkpt>
      <trkpt lat="43.17448000" lon="-1.90250900">
        <ele>630.00000</ele>
        <time>2010-01-01T00:35:49Z</time>
      </trkpt>
      <trkpt lat="43.17445800" lon="-1.90259500">
        <ele>631.00000</ele>
        <time>2010-01-01T00:35:52Z</time>
      </trkpt>
      <trkpt lat="43.17436700" lon="-1.90283800">
        <ele>632.00000</ele>
        <time>2010-01-01T00:36:00Z</time>
      </trkpt>
      <trkpt lat="43.17430800" lon="-1.90297800">
        <ele>633.00000</ele>
        <time>2010-01-01T00:36:04Z</time>
      </trkpt>
      <trkpt lat="43.17427700" lon="-1.90304200">
        <ele>633.00000</ele>
        <time>2010-01-01T00:36:07Z</time>
      </trkpt>
      <trkpt lat="43.17415100" lon="-1.90323000">
        <ele>635.00000</ele>
        <time>2010-01-01T00:36:14Z</time>
      </trkpt>
      <trkpt lat="43.17409800" lon="-1.90329400">
        <ele>635.00000</ele>
        <time>2010-01-01T00:36:17Z</time>
      </trkpt>
      <trkpt lat="43.17390800" lon="-1.90348400">
        <ele>638.00000</ele>
        <time>2010-01-01T00:36:26Z</time>
      </trkpt>
      <trkpt lat="43.17358600" lon="-1.90376900">
        <ele>638.00000</ele>
        <time>2010-01-01T00:36:42Z</time>
      </trkpt>
      <trkpt lat="43.17352600" lon="-1.90381900">
        <ele>637.00000</ele>
        <time>2010-01-01T00:36:45Z</time>
      </trkpt>
      <trkpt lat="43.17346800" lon="-1.90386900">
        <ele>637.00000</ele>
        <time>2010-01-01T00:36:47Z</time>
      </trkpt>
      <trkpt lat="43.17341600" lon="-1.90392600">
        <ele>636.00000</ele>
        <time>2010-01-01T00:36:50Z</time>
      </trkpt>
      <trkpt lat="43.17337500" lon="-1.90398700">
        <ele>636.00000</ele>
        <time>2010-01-01T00:36:52Z</time>
      </trkpt>
      <trkpt lat="43.17328000" lon="-1.90419300">
        <ele>638.00000</ele>
        <time>2010-01-01T00:36:59Z</time>
      </trkpt>
      <trkpt lat="43.17320900" lon="-1.90439400">
        <ele>640.00000</ele>
        <time>2010-01-01T00:37:06Z</time>
      </trkpt>
      <trkpt lat="43.17318600" lon="-1.90445300">
        <ele>641.00000</ele>
        <time>2010-01-01T00:37:08Z</time>
      </trkpt>
      <trkpt lat="43.17316400" lon="-1.90450900">
        <ele>642.00000</ele>
        <time>2010-01-01T00:37:10Z</time>
      </trkpt>
      <trkpt lat="43.17314200" lon="-1.90456400">
        <ele>642.00000</ele>
        <time>2010-01-01T00:37:12Z</time>
      </trkpt>
      <trkpt lat="43.17311900" lon="-1.90461300">
        <ele>643.00000</ele>
        <time>2010-01-01T00:37:13Z</time>
      </trkpt>
      <trkpt lat="43.17309400" lon="-1.90466200">
        <ele>643.00000</ele>
        <time>2010-01-01T00:37:15Z</time>
      </trkpt>
      <trkpt lat="43.17306800" lon="-1.90471100">
        <ele>644.00000</ele>
        <time>2010-01-01T00:37:17Z</time>
      </trkpt>
      <trkpt lat="43.17304000" lon="-1.90475900">
        <ele>643.00000</ele>
        <time>2010-01-01T00:37:19Z</time>
      </trkpt>
      <trkpt lat="43.17301200" lon="-1.90480200">
        <ele>643.00000</ele>
        <time>2010-01-01T00:37:20Z</time>
      </trkpt>
      <trkpt lat="43.17298500" lon="-1.90483900">
        <ele>643.00000</ele>
        <time>2010-01-01T00:37:22Z</time>
      </trkpt>
      <trkpt lat="43.17296400" lon="-1.90487700">
        <ele>642.00000</ele>
        <time>2010-01-01T00:37:23Z</time>
      </trkpt>
      <trkpt lat="43.17294400" lon="-1.90491500">
        <ele>642.00000</ele>
        <time>2010-01-01T00:37:25Z</time>
      </trkpt>
      <trkpt lat="43.17291400" lon="-1.90495200">
        <ele>642.00000</ele>
        <time>2010-01-01T00:37:26Z</time>
      </trkpt>
      <trkpt lat="43.17271400" lon="-1.90523100">
        <ele>643.00000</ele>
        <time>2010-01-01T00:37:38Z</time>
      </trkpt>
      <trkpt lat="43.17222400" lon="-1.90575900">
        <ele>645.00000</ele>
        <time>2010-01-01T00:38:03Z</time>
      </trkpt>
      <trkpt lat="43.17218400" lon="-1.90580300">
        <ele>646.00000</ele>
        <time>2010-01-01T00:38:05Z</time>
      </trkpt>
      <trkpt lat="43.17215000" lon="-1.90585000">
        <ele>648.00000</ele>
        <time>2010-01-01T00:38:07Z</time>
      </trkpt>
      <trkpt lat="43.17203200" lon="-1.90594400">
        <ele>649.00000</ele>
        <time>2010-01-01T00:38:12Z</time>
      </trkpt>
      <trkpt lat="43.17199600" lon="-1.90596600">
        <ele>649.00000</ele>
        <time>2010-01-01T00:38:14Z</time>
      </trkpt>
      <trkpt lat="43.17196000" lon="-1.90599000">
        <ele>649.00000</ele>
        <time>2010-01-01T00:38:15Z</time>
      </trkpt>
      <trkpt lat="43.17188900" lon="-1.90605800">
        <ele>651.00000</ele>
        <time>2010-01-01T00:38:19Z</time>
      </trkpt>
      <trkpt lat="43.17171200" lon="-1.90614900">
        <ele>651.00000</ele>
        <time>2010-01-01T00:38:26Z</time>
      </trkpt>
      <trkpt lat="43.17162700" lon="-1.90615400">
        <ele>650.00000</ele>
        <time>2010-01-01T00:38:30Z</time>
      </trkpt>
      <trkpt lat="43.17158100" lon="-1.90615200">
        <ele>650.00000</ele>
        <time>2010-01-01T00:38:31Z</time>
      </trkpt>
      <trkpt lat="43.17153500" lon="-1.90614700">
        <ele>649.00000</ele>
        <time>2010-01-01T00:38:33Z</time>
      </trkpt>
      <trkpt lat="43.17148900" lon="-1.90614100">
        <ele>648.00000</ele>
        <time>2010-01-01T00:38:35Z</time>
      </trkpt>
      <trkpt lat="43.17144200" lon="-1.90614000">
        <ele>648.00000</ele>
        <time>2010-01-01T00:38:37Z</time>
      </trkpt>
      <trkpt lat="43.17139500" lon="-1.90613800">
        <ele>647.00000</ele>
        <time>2010-01-01T00:38:39Z</time>
      </trkpt>
      <trkpt lat="43.17134900" lon="-1.90613600">
        <ele>647.00000</ele>
        <time>2010-01-01T00:38:41Z</time>
      </trkpt>
      <trkpt lat="43.17130600" lon="-1.90613800">
        <ele>646.00000</ele>
        <time>2010-01-01T00:38:43Z</time>
      </trkpt>
      <trkpt lat="43.17126300" lon="-1.90614800">
        <ele>646.00000</ele>
        <time>2010-01-01T00:38:44Z</time>
      </trkpt>
      <trkpt lat="43.17122500" lon="-1.90616700">
        <ele>645.00000</ele>
        <time>2010-01-01T00:38:46Z</time>
      </trkpt>
      <trkpt lat="43.17118900" lon="-1.90619200">
        <ele>645.00000</ele>
        <time>2010-01-01T00:38:47Z</time>
      </trkpt>
      <trkpt lat="43.17115400" lon="-1.90622100">
        <ele>645.00000</ele>
        <time>2010-01-01T00:38:49Z</time>
      </trkpt>
      <trkpt lat="43.17112300" lon="-1.90625400">
        <ele>645.00000</ele>
        <time>2010-01-01T00:38:51Z</time>
      </trkpt>
      <trkpt lat="43.17109500" lon="-1.90629800">
        <ele>646.00000</ele>
        <time>2010-01-01T00:38:52Z</time>
      </trkpt>
      <trkpt lat="43.17103400" lon="-1.90644800">
        <ele>646.00000</ele>
        <time>2010-01-01T00:38:57Z</time>
      </trkpt>
      <trkpt lat="43.17102100" lon="-1.90650300">
        <ele>646.00000</ele>
        <time>2010-01-01T00:38:59Z</time>
      </trkpt>
      <trkpt lat="43.17101600" lon="-1.90656400">
        <ele>646.00000</ele>
        <time>2010-01-01T00:39:01Z</time>
      </trkpt>
      <trkpt lat="43.17104200" lon="-1.90682800">
        <ele>647.00000</ele>
        <time>2010-01-01T00:39:09Z</time>
      </trkpt>
      <trkpt lat="43.17108400" lon="-1.90704300">
        <ele>649.00000</ele>
        <time>2010-01-01T00:39:15Z</time>
      </trkpt>
      <trkpt lat="43.17117900" lon="-1.90750200">
        <ele>653.00000</ele>
        <time>2010-01-01T00:39:29Z</time>
      </trkpt>
      <trkpt lat="43.17120000" lon="-1.90757500">
        <ele>653.00000</ele>
        <time>2010-01-01T00:39:31Z</time>
      </trkpt>
      <trkpt lat="43.17124800" lon="-1.90781000">
        <ele>653.00000</ele>
        <time>2010-01-01T00:39:39Z</time>
      </trkpt>
      <trkpt lat="43.17126800" lon="-1.90796400">
        <ele>652.00000</ele>
        <time>2010-01-01T00:39:43Z</time>
      </trkpt>
      <trkpt lat="43.17137600" lon="-1.90862700">
        <ele>655.00000</ele>
        <time>2010-01-01T00:40:03Z</time>
      </trkpt>
      <trkpt lat="43.17139000" lon="-1.90868500">
        <ele>655.00000</ele>
        <time>2010-01-01T00:40:05Z</time>
      </trkpt>
      <trkpt lat="43.17141600" lon="-1.90879800">
        <ele>654.00000</ele>
        <time>2010-01-01T00:40:08Z</time>
      </trkpt>
      <trkpt lat="43.17143300" lon="-1.90885600">
        <ele>654.00000</ele>
        <time>2010-01-01T00:40:10Z</time>
      </trkpt>
      <trkpt lat="43.17145000" lon="-1.90892400">
        <ele>654.00000</ele>
        <time>2010-01-01T00:40:12Z</time>
      </trkpt>
      <trkpt lat="43.17150000" lon="-1.90914900">
        <ele>654.00000</ele>
        <time>2010-01-01T00:40:19Z</time>
      </trkpt>
      <trkpt lat="43.17153300" lon="-1.90930200">
        <ele>653.00000</ele>
        <time>2010-01-01T00:40:24Z</time>
      </trkpt>
      <trkpt lat="43.17154600" lon="-1.90937700">
        <ele>652.00000</ele>
        <time>2010-01-01T00:40:26Z</time>
      </trkpt>
      <trkpt lat="43.17155600" lon="-1.90945000">
        <ele>651.00000</ele>
        <time>2010-01-01T00:40:28Z</time>
      </trkpt>
      <trkpt lat="43.17155900" lon="-1.90951900">
        <ele>651.00000</ele>
        <time>2010-01-01T00:40:30Z</time>
      </trkpt>
      <trkpt lat="43.17155900" lon="-1.90958300">
        <ele>651.00000</ele>
        <time>2010-01-01T00:40:32Z</time>
      </trkpt>
      <trkpt lat="43.17153300" lon="-1.90980000">
        <ele>651.00000</ele>
        <time>2010-01-01T00:40:38Z</time>
      </trkpt>
      <trkpt lat="43.17152600" lon="-1.90981400">
        <ele>651.00000</ele>
        <time>2010-01-01T00:40:39Z</time>
      </trkpt>
      <trkpt lat="43.17148200" lon="-1.91006400">
        <ele>656.00000</ele>
        <time>2010-01-01T00:40:46Z</time>
      </trkpt>
      <trkpt lat="43.17146600" lon="-1.91011000">
        <ele>657.00000</ele>
        <time>2010-01-01T00:40:48Z</time>
      </trkpt>
      <trkpt lat="43.17145700" lon="-1.91016300">
        <ele>658.00000</ele>
        <time>2010-01-01T00:40:49Z</time>
      </trkpt>
      <trkpt lat="43.17145900" lon="-1.91022900">
        <ele>659.00000</ele>
        <time>2010-01-01T00:40:51Z</time>
      </trkpt>
      <trkpt lat="43.17151300" lon="-1.91045900">
        <ele>663.00000</ele>
        <time>2010-01-01T00:40:58Z</time>
      </trkpt>
      <trkpt lat="43.17152800" lon="-1.91054400">
        <ele>664.00000</ele>
        <time>2010-01-01T00:41:01Z</time>
      </trkpt>
      <trkpt lat="43.17156600" lon="-1.91081700">
        <ele>668.00000</ele>
        <time>2010-01-01T00:41:09Z</time>
      </trkpt>
      <trkpt lat="43.17164900" lon="-1.91118000">
        <ele>671.00000</ele>
        <time>2010-01-01T00:41:20Z</time>
      </trkpt>
      <trkpt lat="43.17171600" lon="-1.91151100">
        <ele>679.00000</ele>
        <time>2010-01-01T00:41:30Z</time>
      </trkpt>
      <trkpt lat="43.17175600" lon="-1.91174500">
        <ele>685.00000</ele>
        <time>2010-01-01T00:41:37Z</time>
      </trkpt>
      <trkpt lat="43.17185000" lon="-1.91216700">
        <ele>689.00000</ele>
        <time>2010-01-01T00:41:50Z</time>
      </trkpt>
      <trkpt lat="43.17188400" lon="-1.91238700">
        <ele>689.00000</ele>
        <time>2010-01-01T00:41:57Z</time>
      </trkpt>
      <trkpt lat="43.17191100" lon="-1.91288200">
        <ele>693.00000</ele>
        <time>2010-01-01T00:42:11Z</time>
      </trkpt>
      <trkpt lat="43.17191400" lon="-1.91300200">
        <ele>694.00000</ele>
        <time>2010-01-01T00:42:15Z</time>
      </trkpt>
      <trkpt lat="43.17191300" lon="-1.91311800">
        <ele>694.00000</ele>
        <time>2010-01-01T00:42:18Z</time>
      </trkpt>
      <trkpt lat="43.17190700" lon="-1.91323700">
        <ele>695.00000</ele>
        <time>2010-01-01T00:42:22Z</time>
      </trkpt>
      <trkpt lat="43.17190200" lon="-1.91335400">
        <ele>696.00000</ele>
        <time>2010-01-01T00:42:25Z</time>
      </trkpt>
      <trkpt lat="43.17190300" lon="-1.91346500">
        <ele>696.00000</ele>
        <time>2010-01-01T00:42:28Z</time>
      </trkpt>
      <trkpt lat="43.17189300" lon="-1.91399600">
        <ele>701.00000</ele>
        <time>2010-01-01T00:42:44Z</time>
      </trkpt>
      <trkpt lat="43.17189000" lon="-1.91407200">
        <ele>702.00000</ele>
        <time>2010-01-01T00:42:46Z</time>
      </trkpt>
      <trkpt lat="43.17188500" lon="-1.91414600">
        <ele>703.00000</ele>
        <time>2010-01-01T00:42:48Z</time>
      </trkpt>
      <trkpt lat="43.17187800" lon="-1.91422500">
        <ele>705.00000</ele>
        <time>2010-01-01T00:42:50Z</time>
      </trkpt>
      <trkpt lat="43.17187900" lon="-1.91429400">
        <ele>706.00000</ele>
        <time>2010-01-01T00:42:52Z</time>
      </trkpt>
      <trkpt lat="43.17189400" lon="-1.91436300">
        <ele>706.00000</ele>
        <time>2010-01-01T00:42:55Z</time>
      </trkpt>
      <trkpt lat="43.17191800" lon="-1.91451300">
        <ele>707.00000</ele>
        <time>2010-01-01T00:42:59Z</time>
      </trkpt>
      <trkpt lat="43.17192700" lon="-1.91459500">
        <ele>709.00000</ele>
        <time>2010-01-01T00:43:01Z</time>
      </trkpt>
      <trkpt lat="43.17193000" lon="-1.91467800">
        <ele>710.00000</ele>
        <time>2010-01-01T00:43:04Z</time>
      </trkpt>
      <trkpt lat="43.17193400" lon="-1.91474400">
        <ele>712.00000</ele>
        <time>2010-01-01T00:43:06Z</time>
      </trkpt>
      <trkpt lat="43.17191300" lon="-1.91503600">
        <ele>718.00000</ele>
        <time>2010-01-01T00:43:14Z</time>
      </trkpt>
      <trkpt lat="43.17191100" lon="-1.91507400">
        <ele>720.00000</ele>
        <time>2010-01-01T00:43:15Z</time>
      </trkpt>
      <trkpt lat="43.17191100" lon="-1.91511200">
        <ele>721.00000</ele>
        <time>2010-01-01T00:43:17Z</time>
      </trkpt>
      <trkpt lat="43.17191800" lon="-1.91514700">
        <ele>722.00000</ele>
        <time>2010-01-01T00:43:18Z</time>
      </trkpt>
      <trkpt lat="43.17193100" lon="-1.91517700">
        <ele>722.00000</ele>
        <time>2010-01-01T00:43:19Z</time>
      </trkpt>
      <trkpt lat="43.17195300" lon="-1.91520200">
        <ele>722.00000</ele>
        <time>2010-01-01T00:43:20Z</time>
      </trkpt>
      <trkpt lat="43.17198500" lon="-1.91522400">
        <ele>721.00000</ele>
        <time>2010-01-01T00:43:21Z</time>
      </trkpt>
      <trkpt lat="43.17202200" lon="-1.91524300">
        <ele>720.00000</ele>
        <time>2010-01-01T00:43:23Z</time>
      </trkpt>
      <trkpt lat="43.17205900" lon="-1.91526500">
        <ele>719.00000</ele>
        <time>2010-01-01T00:43:24Z</time>
      </trkpt>
      <trkpt lat="43.17213100" lon="-1.91537000">
        <ele>719.00000</ele>
        <time>2010-01-01T00:43:29Z</time>
      </trkpt>
      <trkpt lat="43.17217600" lon="-1.91543200">
        <ele>719.00000</ele>
        <time>2010-01-01T00:43:31Z</time>
      </trkpt>
      <trkpt lat="43.17223200" lon="-1.91548800">
        <ele>718.00000</ele>
        <time>2010-01-01T00:43:34Z</time>
      </trkpt>
      <trkpt lat="43.17241200" lon="-1.91562200">
        <ele>718.00000</ele>
        <time>2010-01-01T00:43:42Z</time>
      </trkpt>
      <trkpt lat="43.17253300" lon="-1.91571800">
        <ele>719.00000</ele>
        <time>2010-01-01T00:43:48Z</time>
      </trkpt>
      <trkpt lat="43.17259200" lon="-1.91576400">
        <ele>719.00000</ele>
        <time>2010-01-01T00:43:50Z</time>
      </trkpt>
      <trkpt lat="43.17264200" lon="-1.91582000">
        <ele>719.00000</ele>
        <time>2010-01-01T00:43:53Z</time>
      </trkpt>
      <trkpt lat="43.17267900" lon="-1.91588900">
        <ele>721.00000</ele>
        <time>2010-01-01T00:43:56Z</time>
      </trkpt>
      <trkpt lat="43.17270500" lon="-1.91597000">
        <ele>722.00000</ele>
        <time>2010-01-01T00:43:58Z</time>
      </trkpt>
      <trkpt lat="43.17271600" lon="-1.91606000">
        <ele>725.00000</ele>
        <time>2010-01-01T00:44:01Z</time>
      </trkpt>
      <trkpt lat="43.17270200" lon="-1.91614600">
        <ele>727.00000</ele>
        <time>2010-01-01T00:44:03Z</time>
      </trkpt>
      <trkpt lat="43.17264500" lon="-1.91648200">
        <ele>733.00000</ele>
        <time>2010-01-01T00:44:13Z</time>
      </trkpt>
      <trkpt lat="43.17263100" lon="-1.91660300">
        <ele>734.00000</ele>
        <time>2010-01-01T00:44:17Z</time>
      </trkpt>
      <trkpt lat="43.17263100" lon="-1.91671300">
        <ele>735.00000</ele>
        <time>2010-01-01T00:44:20Z</time>
      </trkpt>
      <trkpt lat="43.17265300" lon="-1.91691200">
        <ele>736.00000</ele>
        <time>2010-01-01T00:44:26Z</time>
      </trkpt>
      <trkpt lat="43.17266400" lon="-1.91700900">
        <ele>737.00000</ele>
        <time>2010-01-01T00:44:29Z</time>
      </trkpt>
      <trkpt lat="43.17266700" lon="-1.91710200">
        <ele>739.00000</ele>
        <time>2010-01-01T00:44:32Z</time>
      </trkpt>
      <trkpt lat="43.17273400" lon="-1.91758100">
        <ele>743.00000</ele>
        <time>2010-01-01T00:44:46Z</time>
      </trkpt>
      <trkpt lat="43.17277800" lon="-1.91795600">
        <ele>745.00000</ele>
        <time>2010-01-01T00:44:57Z</time>
      </trkpt>
      <trkpt lat="43.17278400" lon="-1.91799600">
        <ele>745.00000</ele>
        <time>2010-01-01T00:44:58Z</time>
      </trkpt>
      <trkpt lat="43.17284700" lon="-1.91814700">
        <ele>743.00000</ele>
        <time>2010-01-01T00:45:03Z</time>
      </trkpt>
      <trkpt lat="43.17285200" lon="-1.91815800">
        <ele>743.00000</ele>
        <time>2010-01-01T00:45:04Z</time>
      </trkpt>
      <trkpt lat="43.17286000" lon="-1.91816500">
        <ele>743.00000</ele>
        <time>2010-01-01T00:45:04Z</time>
      </trkpt>
      <trkpt lat="43.17287500" lon="-1.91817500">
        <ele>742.00000</ele>
        <time>2010-01-01T00:45:05Z</time>
      </trkpt>
      <trkpt lat="43.17294300" lon="-1.91833000">
        <ele>740.00000</ele>
        <time>2010-01-01T00:45:10Z</time>
      </trkpt>
      <trkpt lat="43.17293900" lon="-1.91835700">
        <ele>741.00000</ele>
        <time>2010-01-01T00:45:11Z</time>
      </trkpt>
      <trkpt lat="43.17293700" lon="-1.91839100">
        <ele>741.00000</ele>
        <time>2010-01-01T00:45:12Z</time>
      </trkpt>
      <trkpt lat="43.17293400" lon="-1.91842600">
        <ele>742.00000</ele>
        <time>2010-01-01T00:45:13Z</time>
      </trkpt>
      <trkpt lat="43.17293800" lon="-1.91846600">
        <ele>742.00000</ele>
        <time>2010-01-01T00:45:14Z</time>
      </trkpt>
      <trkpt lat="43.17295000" lon="-1.91850600">
        <ele>742.00000</ele>
        <time>2010-01-01T00:45:15Z</time>
      </trkpt>
      <trkpt lat="43.17296500" lon="-1.91854100">
        <ele>742.00000</ele>
        <time>2010-01-01T00:45:16Z</time>
      </trkpt>
      <trkpt lat="43.17298400" lon="-1.91857100">
        <ele>741.00000</ele>
        <time>2010-01-01T00:45:18Z</time>
      </trkpt>
      <trkpt lat="43.17300700" lon="-1.91859900">
        <ele>741.00000</ele>
        <time>2010-01-01T00:45:19Z</time>
      </trkpt>
      <trkpt lat="43.17303500" lon="-1.91861800">
        <ele>740.00000</ele>
        <time>2010-01-01T00:45:20Z</time>
      </trkpt>
      <trkpt lat="43.17306200" lon="-1.91863600">
        <ele>739.00000</ele>
        <time>2010-01-01T00:45:21Z</time>
      </trkpt>
      <trkpt lat="43.17309000" lon="-1.91866500">
        <ele>739.00000</ele>
        <time>2010-01-01T00:45:23Z</time>
      </trkpt>
      <trkpt lat="43.17311900" lon="-1.91869100">
        <ele>740.00000</ele>
        <time>2010-01-01T00:45:24Z</time>
      </trkpt>
      <trkpt lat="43.17315700" lon="-1.91871800">
        <ele>740.00000</ele>
        <time>2010-01-01T00:45:26Z</time>
      </trkpt>
      <trkpt lat="43.17319800" lon="-1.91874300">
        <ele>740.00000</ele>
        <time>2010-01-01T00:45:28Z</time>
      </trkpt>
      <trkpt lat="43.17331400" lon="-1.91876700">
        <ele>739.00000</ele>
        <time>2010-01-01T00:45:32Z</time>
      </trkpt>
      <trkpt lat="43.17374500" lon="-1.91868400">
        <ele>732.00000</ele>
        <time>2010-01-01T00:45:50Z</time>
      </trkpt>
      <trkpt lat="43.17412400" lon="-1.91865300">
        <ele>730.00000</ele>
        <time>2010-01-01T00:46:05Z</time>
      </trkpt>
      <trkpt lat="43.17442100" lon="-1.91861500">
        <ele>730.00000</ele>
        <time>2010-01-01T00:46:17Z</time>
      </trkpt>
      <trkpt lat="43.17459100" lon="-1.91855300">
        <ele>729.00000</ele>
        <time>2010-01-01T00:46:24Z</time>
      </trkpt>
      <trkpt lat="43.17472200" lon="-1.91854600">
        <ele>730.00000</ele>
        <time>2010-01-01T00:46:29Z</time>
      </trkpt>
      <trkpt lat="43.17476700" lon="-1.91854800">
        <ele>730.00000</ele>
        <time>2010-01-01T00:46:31Z</time>
      </trkpt>
      <trkpt lat="43.17481100" lon="-1.91855800">
        <ele>730.00000</ele>
        <time>2010-01-01T00:46:33Z</time>
      </trkpt>
      <trkpt lat="43.17485300" lon="-1.91857900">
        <ele>731.00000</ele>
        <time>2010-01-01T00:46:35Z</time>
      </trkpt>
      <trkpt lat="43.17488700" lon="-1.91860700">
        <ele>732.00000</ele>
        <time>2010-01-01T00:46:36Z</time>
      </trkpt>
      <trkpt lat="43.17491400" lon="-1.91864200">
        <ele>733.00000</ele>
        <time>2010-01-01T00:46:38Z</time>
      </trkpt>
      <trkpt lat="43.17494000" lon="-1.91868100">
        <ele>734.00000</ele>
        <time>2010-01-01T00:46:39Z</time>
      </trkpt>
      <trkpt lat="43.17496500" lon="-1.91872500">
        <ele>736.00000</ele>
        <time>2010-01-01T00:46:41Z</time>
      </trkpt>
      <trkpt lat="43.17498600" lon="-1.91877000">
        <ele>737.00000</ele>
        <time>2010-01-01T00:46:42Z</time>
      </trkpt>
      <trkpt lat="43.17505800" lon="-1.91904000">
        <ele>744.00000</ele>
        <time>2010-01-01T00:46:51Z</time>
      </trkpt>
      <trkpt lat="43.17507000" lon="-1.91910100">
        <ele>745.00000</ele>
        <time>2010-01-01T00:46:53Z</time>
      </trkpt>
      <trkpt lat="43.17508200" lon="-1.91916400">
        <ele>746.00000</ele>
        <time>2010-01-01T00:46:54Z</time>
      </trkpt>
      <trkpt lat="43.17509600" lon="-1.91923200">
        <ele>746.00000</ele>
        <time>2010-01-01T00:46:57Z</time>
      </trkpt>
      <trkpt lat="43.17511000" lon="-1.91930400">
        <ele>746.00000</ele>
        <time>2010-01-01T00:46:59Z</time>
      </trkpt>
      <trkpt lat="43.17518900" lon="-1.91962800">
        <ele>746.00000</ele>
        <time>2010-01-01T00:47:09Z</time>
      </trkpt>
      <trkpt lat="43.17526600" lon="-1.92003000">
        <ele>749.00000</ele>
        <time>2010-01-01T00:47:21Z</time>
      </trkpt>
      <trkpt lat="43.17537600" lon="-1.92035600">
        <ele>752.00000</ele>
        <time>2010-01-01T00:47:31Z</time>
      </trkpt>
      <trkpt lat="43.17539500" lon="-1.92042000">
        <ele>753.00000</ele>
        <time>2010-01-01T00:47:33Z</time>
      </trkpt>
      <trkpt lat="43.17545000" lon="-1.92056500">
        <ele>754.00000</ele>
        <time>2010-01-01T00:47:38Z</time>
      </trkpt>
      <trkpt lat="43.17554800" lon="-1.92080400">
        <ele>755.00000</ele>
        <time>2010-01-01T00:47:46Z</time>
      </trkpt>
      <trkpt lat="43.17555800" lon="-1.92083800">
        <ele>756.00000</ele>
        <time>2010-01-01T00:47:47Z</time>
      </trkpt>
      <trkpt lat="43.17556700" lon="-1.92086900">
        <ele>756.00000</ele>
        <time>2010-01-01T00:47:48Z</time>
      </trkpt>
      <trkpt lat="43.17557500" lon="-1.92089900">
        <ele>756.00000</ele>
        <time>2010-01-01T00:47:49Z</time>
      </trkpt>
      <trkpt lat="43.17557900" lon="-1.92092800">
        <ele>757.00000</ele>
        <time>2010-01-01T00:47:50Z</time>
      </trkpt>
      <trkpt lat="43.17557800" lon="-1.92095100">
        <ele>757.00000</ele>
        <time>2010-01-01T00:47:51Z</time>
      </trkpt>
      <trkpt lat="43.17557900" lon="-1.92096000">
        <ele>758.00000</ele>
        <time>2010-01-01T00:47:51Z</time>
      </trkpt>
      <trkpt lat="43.17559100" lon="-1.92105600">
        <ele>759.00000</ele>
        <time>2010-01-01T00:47:54Z</time>
      </trkpt>
      <trkpt lat="43.17556000" lon="-1.92108900">
        <ele>761.00000</ele>
        <time>2010-01-01T00:47:55Z</time>
      </trkpt>
      <trkpt lat="43.17549100" lon="-1.92117700">
        <ele>763.00000</ele>
        <time>2010-01-01T00:47:59Z</time>
      </trkpt>
      <trkpt lat="43.17544100" lon="-1.92128100">
        <ele>764.00000</ele>
        <time>2010-01-01T00:48:03Z</time>
      </trkpt>
      <trkpt lat="43.17542000" lon="-1.92130400">
        <ele>764.00000</ele>
        <time>2010-01-01T00:48:04Z</time>
      </trkpt>
      <trkpt lat="43.17540000" lon="-1.92133200">
        <ele>765.00000</ele>
        <time>2010-01-01T00:48:05Z</time>
      </trkpt>
      <trkpt lat="43.17537600" lon="-1.92136500">
        <ele>765.00000</ele>
        <time>2010-01-01T00:48:06Z</time>
      </trkpt>
      <trkpt lat="43.17535300" lon="-1.92138900">
        <ele>765.00000</ele>
        <time>2010-01-01T00:48:07Z</time>
      </trkpt>
      <trkpt lat="43.17516100" lon="-1.92165000">
        <ele>767.00000</ele>
        <time>2010-01-01T00:48:18Z</time>
      </trkpt>
      <trkpt lat="43.17495400" lon="-1.92192400">
        <ele>769.00000</ele>
        <time>2010-01-01T00:48:30Z</time>
      </trkpt>
      <trkpt lat="43.17470500" lon="-1.92239000">
        <ele>767.00000</ele>
        <time>2010-01-01T00:48:47Z</time>
      </trkpt>
      <trkpt lat="43.17467800" lon="-1.92243500">
        <ele>767.00000</ele>
        <time>2010-01-01T00:48:48Z</time>
      </trkpt>
      <trkpt lat="43.17464400" lon="-1.92248000">
        <ele>767.00000</ele>
        <time>2010-01-01T00:48:50Z</time>
      </trkpt>
      <trkpt lat="43.17460700" lon="-1.92252400">
        <ele>767.00000</ele>
        <time>2010-01-01T00:48:52Z</time>
      </trkpt>
      <trkpt lat="43.17457100" lon="-1.92256300">
        <ele>768.00000</ele>
        <time>2010-01-01T00:48:54Z</time>
      </trkpt>
      <trkpt lat="43.17453200" lon="-1.92260000">
        <ele>768.00000</ele>
        <time>2010-01-01T00:48:56Z</time>
      </trkpt>
      <trkpt lat="43.17448800" lon="-1.92262800">
        <ele>769.00000</ele>
        <time>2010-01-01T00:48:58Z</time>
      </trkpt>
      <trkpt lat="43.17408600" lon="-1.92293800">
        <ele>768.00000</ele>
        <time>2010-01-01T00:49:16Z</time>
      </trkpt>
      <trkpt lat="43.17394300" lon="-1.92301900">
        <ele>768.00000</ele>
        <time>2010-01-01T00:49:23Z</time>
      </trkpt>
      <trkpt lat="43.17391300" lon="-1.92304000">
        <ele>768.00000</ele>
        <time>2010-01-01T00:49:24Z</time>
      </trkpt>
      <trkpt lat="43.17388200" lon="-1.92305900">
        <ele>769.00000</ele>
        <time>2010-01-01T00:49:25Z</time>
      </trkpt>
      <trkpt lat="43.17384700" lon="-1.92308200">
        <ele>770.00000</ele>
        <time>2010-01-01T00:49:27Z</time>
      </trkpt>
      <trkpt lat="43.17381100" lon="-1.92310900">
        <ele>771.00000</ele>
        <time>2010-01-01T00:49:28Z</time>
      </trkpt>
      <trkpt lat="43.17376900" lon="-1.92313500">
        <ele>772.00000</ele>
        <time>2010-01-01T00:49:30Z</time>
      </trkpt>
      <trkpt lat="43.17372900" lon="-1.92316500">
        <ele>773.00000</ele>
        <time>2010-01-01T00:49:32Z</time>
      </trkpt>
      <trkpt lat="43.17363700" lon="-1.92332700">
        <ele>775.00000</ele>
        <time>2010-01-01T00:49:38Z</time>
      </trkpt>
      <trkpt lat="43.17360700" lon="-1.92339900">
        <ele>775.00000</ele>
        <time>2010-01-01T00:49:41Z</time>
      </trkpt>
      <trkpt lat="43.17358300" lon="-1.92347800">
        <ele>775.00000</ele>
        <time>2010-01-01T00:49:43Z</time>
      </trkpt>
      <trkpt lat="43.17350600" lon="-1.92381600">
        <ele>772.00000</ele>
        <time>2010-01-01T00:49:53Z</time>
      </trkpt>
      <trkpt lat="43.17348300" lon="-1.92389000">
        <ele>772.00000</ele>
        <time>2010-01-01T00:49:56Z</time>
      </trkpt>
      <trkpt lat="43.17335900" lon="-1.92417700">
        <ele>775.00000</ele>
        <time>2010-01-01T00:50:05Z</time>
      </trkpt>
      <trkpt lat="43.17332600" lon="-1.92424100">
        <ele>776.00000</ele>
        <time>2010-01-01T00:50:08Z</time>
      </trkpt>
      <trkpt lat="43.17329300" lon="-1.92429400">
        <ele>776.00000</ele>
        <time>2010-01-01T00:50:10Z</time>
      </trkpt>
      <trkpt lat="43.17314800" lon="-1.92448900">
        <ele>778.00000</ele>
        <time>2010-01-01T00:50:18Z</time>
      </trkpt>
      <trkpt lat="43.17300300" lon="-1.92458300">
        <ele>780.00000</ele>
        <time>2010-01-01T00:50:24Z</time>
      </trkpt>
      <trkpt lat="43.17289200" lon="-1.92486500">
        <ele>779.00000</ele>
        <time>2010-01-01T00:50:34Z</time>
      </trkpt>
      <trkpt lat="43.17288300" lon="-1.92498400">
        <ele>778.00000</ele>
        <time>2010-01-01T00:50:37Z</time>
      </trkpt>
      <trkpt lat="43.17287800" lon="-1.92501000">
        <ele>778.00000</ele>
        <time>2010-01-01T00:50:38Z</time>
      </trkpt>
      <trkpt lat="43.17289000" lon="-1.92543100">
        <ele>775.00000</ele>
        <time>2010-01-01T00:50:50Z</time>
      </trkpt>
      <trkpt lat="43.17288700" lon="-1.92547400">
        <ele>774.00000</ele>
        <time>2010-01-01T00:50:51Z</time>
      </trkpt>
      <trkpt lat="43.17288500" lon="-1.92551700">
        <ele>774.00000</ele>
        <time>2010-01-01T00:50:53Z</time>
      </trkpt>
      <trkpt lat="43.17288700" lon="-1.92555700">
        <ele>773.00000</ele>
        <time>2010-01-01T00:50:54Z</time>
      </trkpt>
      <trkpt lat="43.17289100" lon="-1.92558900">
        <ele>773.00000</ele>
        <time>2010-01-01T00:50:55Z</time>
      </trkpt>
      <trkpt lat="43.17289100" lon="-1.92573400">
        <ele>773.00000</ele>
        <time>2010-01-01T00:50:59Z</time>
      </trkpt>
      <trkpt lat="43.17289600" lon="-1.92576400">
        <ele>773.00000</ele>
        <time>2010-01-01T00:51:00Z</time>
      </trkpt>
      <trkpt lat="43.17292300" lon="-1.92593000">
        <ele>773.00000</ele>
        <time>2010-01-01T00:51:05Z</time>
      </trkpt>
      <trkpt lat="43.17310800" lon="-1.92633500">
        <ele>773.00000</ele>
        <time>2010-01-01T00:51:19Z</time>
      </trkpt>
      <trkpt lat="43.17328000" lon="-1.92672500">
        <ele>774.00000</ele>
        <time>2010-01-01T00:51:32Z</time>
      </trkpt>
      <trkpt lat="43.17329700" lon="-1.92677800">
        <ele>775.00000</ele>
        <time>2010-01-01T00:51:34Z</time>
      </trkpt>
      <trkpt lat="43.17331600" lon="-1.92682400">
        <ele>775.00000</ele>
        <time>2010-01-01T00:51:35Z</time>
      </trkpt>
      <trkpt lat="43.17339600" lon="-1.92731800">
        <ele>775.00000</ele>
        <time>2010-01-01T00:51:50Z</time>
      </trkpt>
      <trkpt lat="43.17351700" lon="-1.92776500">
        <ele>773.00000</ele>
        <time>2010-01-01T00:52:04Z</time>
      </trkpt>
      <trkpt lat="43.17362300" lon="-1.92801900">
        <ele>775.00000</ele>
        <time>2010-01-01T00:52:13Z</time>
      </trkpt>
      <trkpt lat="43.17378400" lon="-1.92845500">
        <ele>777.00000</ele>
        <time>2010-01-01T00:52:27Z</time>
      </trkpt>
      <trkpt lat="43.17380800" lon="-1.92849400">
        <ele>777.00000</ele>
        <time>2010-01-01T00:52:28Z</time>
      </trkpt>
      <trkpt lat="43.17383700" lon="-1.92853400">
        <ele>777.00000</ele>
        <time>2010-01-01T00:52:30Z</time>
      </trkpt>
      <trkpt lat="43.17387000" lon="-1.92857200">
        <ele>777.00000</ele>
        <time>2010-01-01T00:52:32Z</time>
      </trkpt>
      <trkpt lat="43.17390500" lon="-1.92862000">
        <ele>776.00000</ele>
        <time>2010-01-01T00:52:34Z</time>
      </trkpt>
      <trkpt lat="43.17393100" lon="-1.92868600">
        <ele>777.00000</ele>
        <time>2010-01-01T00:52:36Z</time>
      </trkpt>
      <trkpt lat="43.17393000" lon="-1.92891300">
        <ele>779.00000</ele>
        <time>2010-01-01T00:52:43Z</time>
      </trkpt>
      <trkpt lat="43.17391900" lon="-1.92933000">
        <ele>782.00000</ele>
        <time>2010-01-01T00:52:55Z</time>
      </trkpt>
      <trkpt lat="43.17395100" lon="-1.92971800">
        <ele>783.00000</ele>
        <time>2010-01-01T00:53:06Z</time>
      </trkpt>
      <trkpt lat="43.17394400" lon="-1.93000400">
        <ele>781.00000</ele>
        <time>2010-01-01T00:53:15Z</time>
      </trkpt>
      <trkpt lat="43.17394000" lon="-1.93009700">
        <ele>780.00000</ele>
        <time>2010-01-01T00:53:17Z</time>
      </trkpt>
      <trkpt lat="43.17393600" lon="-1.93012200">
        <ele>780.00000</ele>
        <time>2010-01-01T00:53:18Z</time>
      </trkpt>
      <trkpt lat="43.17393400" lon="-1.93014800">
        <ele>780.00000</ele>
        <time>2010-01-01T00:53:19Z</time>
      </trkpt>
      <trkpt lat="43.17393300" lon="-1.93017700">
        <ele>779.00000</ele>
        <time>2010-01-01T00:53:20Z</time>
      </trkpt>
      <trkpt lat="43.17393000" lon="-1.93020400">
        <ele>779.00000</ele>
        <time>2010-01-01T00:53:20Z</time>
      </trkpt>
      <trkpt lat="43.17392800" lon="-1.93023100">
        <ele>779.00000</ele>
        <time>2010-01-01T00:53:21Z</time>
      </trkpt>
      <trkpt lat="43.17389700" lon="-1.93073900">
        <ele>779.00000</ele>
        <time>2010-01-01T00:53:36Z</time>
      </trkpt>
      <trkpt lat="43.17389800" lon="-1.93076900">
        <ele>780.00000</ele>
        <time>2010-01-01T00:53:37Z</time>
      </trkpt>
      <trkpt lat="43.17387500" lon="-1.93103600">
        <ele>779.00000</ele>
        <time>2010-01-01T00:53:45Z</time>
      </trkpt>
      <trkpt lat="43.17384700" lon="-1.93133400">
        <ele>780.00000</ele>
        <time>2010-01-01T00:53:54Z</time>
      </trkpt>
      <trkpt lat="43.17384200" lon="-1.93135900">
        <ele>780.00000</ele>
        <time>2010-01-01T00:53:54Z</time>
      </trkpt>
      <trkpt lat="43.17383700" lon="-1.93138400">
        <ele>780.00000</ele>
        <time>2010-01-01T00:53:55Z</time>
      </trkpt>
      <trkpt lat="43.17382300" lon="-1.93146400">
        <ele>779.00000</ele>
        <time>2010-01-01T00:53:58Z</time>
      </trkpt>
      <trkpt lat="43.17378300" lon="-1.93175500">
        <ele>775.00000</ele>
        <time>2010-01-01T00:54:06Z</time>
      </trkpt>
      <trkpt lat="43.17377800" lon="-1.93178200">
        <ele>775.00000</ele>
        <time>2010-01-01T00:54:07Z</time>
      </trkpt>
      <trkpt lat="43.17377300" lon="-1.93181000">
        <ele>774.00000</ele>
        <time>2010-01-01T00:54:08Z</time>
      </trkpt>
      <trkpt lat="43.17376900" lon="-1.93183800">
        <ele>774.00000</ele>
        <time>2010-01-01T00:54:09Z</time>
      </trkpt>
      <trkpt lat="43.17376100" lon="-1.93186400">
        <ele>773.00000</ele>
        <time>2010-01-01T00:54:09Z</time>
      </trkpt>
      <trkpt lat="43.17375700" lon="-1.93189400">
        <ele>773.00000</ele>
        <time>2010-01-01T00:54:10Z</time>
      </trkpt>
      <trkpt lat="43.17375300" lon="-1.93192400">
        <ele>772.00000</ele>
        <time>2010-01-01T00:54:11Z</time>
      </trkpt>
      <trkpt lat="43.17374600" lon="-1.93195400">
        <ele>772.00000</ele>
        <time>2010-01-01T00:54:12Z</time>
      </trkpt>
      <trkpt lat="43.17374500" lon="-1.93209700">
        <ele>772.00000</ele>
        <time>2010-01-01T00:54:16Z</time>
      </trkpt>
      <trkpt lat="43.17374300" lon="-1.93213000">
        <ele>772.00000</ele>
        <time>2010-01-01T00:54:17Z</time>
      </trkpt>
      <trkpt lat="43.17374500" lon="-1.93215800">
        <ele>772.00000</ele>
        <time>2010-01-01T00:54:18Z</time>
      </trkpt>
      <trkpt lat="43.17374000" lon="-1.93227100">
        <ele>771.00000</ele>
        <time>2010-01-01T00:54:21Z</time>
      </trkpt>
      <trkpt lat="43.17373900" lon="-1.93232500">
        <ele>771.00000</ele>
        <time>2010-01-01T00:54:23Z</time>
      </trkpt>
      <trkpt lat="43.17372700" lon="-1.93246200">
        <ele>771.00000</ele>
        <time>2010-01-01T00:54:27Z</time>
      </trkpt>
      <trkpt lat="43.17373800" lon="-1.93263200">
        <ele>769.00000</ele>
        <time>2010-01-01T00:54:32Z</time>
      </trkpt>
      <trkpt lat="43.17381600" lon="-1.93284000">
        <ele>768.00000</ele>
        <time>2010-01-01T00:54:39Z</time>
      </trkpt>
      <trkpt lat="43.17382500" lon="-1.93286200">
        <ele>768.00000</ele>
        <time>2010-01-01T00:54:40Z</time>
      </trkpt>
      <trkpt lat="43.17384500" lon="-1.93288600">
        <ele>768.00000</ele>
        <time>2010-01-01T00:54:41Z</time>
      </trkpt>
      <trkpt lat="43.17386100" lon="-1.93290000">
        <ele>768.00000</ele>
        <time>2010-01-01T00:54:41Z</time>
      </trkpt>
      <trkpt lat="43.17388600" lon="-1.93291300">
        <ele>769.00000</ele>
        <time>2010-01-01T00:54:42Z</time>
      </trkpt>
      <trkpt lat="43.17391500" lon="-1.93291600">
        <ele>769.00000</ele>
        <time>2010-01-01T00:54:44Z</time>
      </trkpt>
      <trkpt lat="43.17393800" lon="-1.93292000">
        <ele>769.00000</ele>
        <time>2010-01-01T00:54:45Z</time>
      </trkpt>
      <trkpt lat="43.17398200" lon="-1.93293300">
        <ele>769.00000</ele>
        <time>2010-01-01T00:54:46Z</time>
      </trkpt>
      <trkpt lat="43.17400600" lon="-1.93293800">
        <ele>769.00000</ele>
        <time>2010-01-01T00:54:47Z</time>
      </trkpt>
      <trkpt lat="43.17402800" lon="-1.93294300">
        <ele>769.00000</ele>
        <time>2010-01-01T00:54:48Z</time>
      </trkpt>
      <trkpt lat="43.17405400" lon="-1.93294500">
        <ele>769.00000</ele>
        <time>2010-01-01T00:54:49Z</time>
      </trkpt>
      <trkpt lat="43.17407200" lon="-1.93294100">
        <ele>769.00000</ele>
        <time>2010-01-01T00:54:50Z</time>
      </trkpt>
      <trkpt lat="43.17409000" lon="-1.93293700">
        <ele>769.00000</ele>
        <time>2010-01-01T00:54:51Z</time>
      </trkpt>
      <trkpt lat="43.17411500" lon="-1.93293900">
        <ele>770.00000</ele>
        <time>2010-01-01T00:54:52Z</time>
      </trkpt>
      <trkpt lat="43.17414400" lon="-1.93294300">
        <ele>770.00000</ele>
        <time>2010-01-01T00:54:53Z</time>
      </trkpt>
      <trkpt lat="43.17417400" lon="-1.93294700">
        <ele>770.00000</ele>
        <time>2010-01-01T00:54:54Z</time>
      </trkpt>
      <trkpt lat="43.17419900" lon="-1.93294700">
        <ele>770.00000</ele>
        <time>2010-01-01T00:54:55Z</time>
      </trkpt>
      <trkpt lat="43.17422300" lon="-1.93294600">
        <ele>770.00000</ele>
        <time>2010-01-01T00:54:56Z</time>
      </trkpt>
      <trkpt lat="43.17437800" lon="-1.93296700">
        <ele>769.00000</ele>
        <time>2010-01-01T00:55:02Z</time>
      </trkpt>
      <trkpt lat="43.17440500" lon="-1.93297800">
        <ele>769.00000</ele>
        <time>2010-01-01T00:55:03Z</time>
      </trkpt>
      <trkpt lat="43.17443500" lon="-1.93298100">
        <ele>769.00000</ele>
        <time>2010-01-01T00:55:05Z</time>
      </trkpt>
      <trkpt lat="43.17447100" lon="-1.93298300">
        <ele>769.00000</ele>
        <time>2010-01-01T00:55:06Z</time>
      </trkpt>
      <trkpt lat="43.17451200" lon="-1.93299600">
        <ele>769.00000</ele>
        <time>2010-01-01T00:55:08Z</time>
      </trkpt>
      <trkpt lat="43.17465400" lon="-1.93304500">
        <ele>769.00000</ele>
        <time>2010-01-01T00:55:14Z</time>
      </trkpt>
      <trkpt lat="43.17478300" lon="-1.93308300">
        <ele>769.00000</ele>
        <time>2010-01-01T00:55:19Z</time>
      </trkpt>
      <trkpt lat="43.17484700" lon="-1.93310000">
        <ele>769.00000</ele>
        <time>2010-01-01T00:55:22Z</time>
      </trkpt>
      <trkpt lat="43.17500900" lon="-1.93318300">
        <ele>769.00000</ele>
        <time>2010-01-01T00:55:28Z</time>
      </trkpt>
      <trkpt lat="43.17540200" lon="-1.93337600">
        <ele>769.00000</ele>
        <time>2010-01-01T00:55:45Z</time>
      </trkpt>
      <trkpt lat="43.17542800" lon="-1.93338600">
        <ele>769.00000</ele>
        <time>2010-01-01T00:55:46Z</time>
      </trkpt>
      <trkpt lat="43.17545300" lon="-1.93339400">
        <ele>769.00000</ele>
        <time>2010-01-01T00:55:47Z</time>
      </trkpt>
      <trkpt lat="43.17547800" lon="-1.93340400">
        <ele>768.00000</ele>
        <time>2010-01-01T00:55:48Z</time>
      </trkpt>
      <trkpt lat="43.17550200" lon="-1.93341400">
        <ele>768.00000</ele>
        <time>2010-01-01T00:55:49Z</time>
      </trkpt>
      <trkpt lat="43.17552300" lon="-1.93342500">
        <ele>768.00000</ele>
        <time>2010-01-01T00:55:50Z</time>
      </trkpt>
      <trkpt lat="43.17575300" lon="-1.93346700">
        <ele>766.00000</ele>
        <time>2010-01-01T00:56:00Z</time>
      </trkpt>
      <trkpt lat="43.17578900" lon="-1.93348800">
        <ele>765.00000</ele>
        <time>2010-01-01T00:56:01Z</time>
      </trkpt>
      <trkpt lat="43.17580600" lon="-1.93349600">
        <ele>765.00000</ele>
        <time>2010-01-01T00:56:02Z</time>
      </trkpt>
      <trkpt lat="43.17582600" lon="-1.93349600">
        <ele>765.00000</ele>
        <time>2010-01-01T00:56:03Z</time>
      </trkpt>
      <trkpt lat="43.17584400" lon="-1.93349200">
        <ele>765.00000</ele>
        <time>2010-01-01T00:56:03Z</time>
      </trkpt>
      <trkpt lat="43.17586500" lon="-1.93349500">
        <ele>765.00000</ele>
        <time>2010-01-01T00:56:04Z</time>
      </trkpt>
      <trkpt lat="43.17588400" lon="-1.93349800">
        <ele>765.00000</ele>
        <time>2010-01-01T00:56:05Z</time>
      </trkpt>
      <trkpt lat="43.17590400" lon="-1.93349900">
        <ele>765.00000</ele>
        <time>2010-01-01T00:56:06Z</time>
      </trkpt>
      <trkpt lat="43.17591600" lon="-1.93349600">
        <ele>766.00000</ele>
        <time>2010-01-01T00:56:06Z</time>
      </trkpt>
      <trkpt lat="43.17593300" lon="-1.93349100">
        <ele>766.00000</ele>
        <time>2010-01-01T00:56:07Z</time>
      </trkpt>
      <trkpt lat="43.17616300" lon="-1.93352200">
        <ele>766.00000</ele>
        <time>2010-01-01T00:56:16Z</time>
      </trkpt>
      <trkpt lat="43.17639900" lon="-1.93357700">
        <ele>764.00000</ele>
        <time>2010-01-01T00:56:26Z</time>
      </trkpt>
      <trkpt lat="43.17664300" lon="-1.93361400">
        <ele>759.00000</ele>
        <time>2010-01-01T00:56:36Z</time>
      </trkpt>
      <trkpt lat="43.17666500" lon="-1.93362000">
        <ele>758.00000</ele>
        <time>2010-01-01T00:56:36Z</time>
      </trkpt>
      <trkpt lat="43.17668500" lon="-1.93362500">
        <ele>758.00000</ele>
        <time>2010-01-01T00:56:37Z</time>
      </trkpt>
      <trkpt lat="43.17670500" lon="-1.93362900">
        <ele>758.00000</ele>
        <time>2010-01-01T00:56:38Z</time>
      </trkpt>
      <trkpt lat="43.17672500" lon="-1.93363600">
        <ele>757.00000</ele>
        <time>2010-01-01T00:56:39Z</time>
      </trkpt>
      <trkpt lat="43.17674600" lon="-1.93364300">
        <ele>757.00000</ele>
        <time>2010-01-01T00:56:40Z</time>
      </trkpt>
      <trkpt lat="43.17676200" lon="-1.93364900">
        <ele>756.00000</ele>
        <time>2010-01-01T00:56:40Z</time>
      </trkpt>
      <trkpt lat="43.17682100" lon="-1.93369300">
        <ele>755.00000</ele>
        <time>2010-01-01T00:56:43Z</time>
      </trkpt>
      <trkpt lat="43.17695100" lon="-1.93384800">
        <ele>753.00000</ele>
        <time>2010-01-01T00:56:50Z</time>
      </trkpt>
      <trkpt lat="43.17713300" lon="-1.93413100">
        <ele>754.00000</ele>
        <time>2010-01-01T00:57:01Z</time>
      </trkpt>
      <trkpt lat="43.17734800" lon="-1.93435600">
        <ele>750.00000</ele>
        <time>2010-01-01T00:57:12Z</time>
      </trkpt>
      <trkpt lat="43.17752500" lon="-1.93462400">
        <ele>745.00000</ele>
        <time>2010-01-01T00:57:22Z</time>
      </trkpt>
      <trkpt lat="43.17767300" lon="-1.93499800">
        <ele>745.00000</ele>
        <time>2010-01-01T00:57:35Z</time>
      </trkpt>
      <trkpt lat="43.17788700" lon="-1.93528500">
        <ele>748.00000</ele>
        <time>2010-01-01T00:57:47Z</time>
      </trkpt>
      <trkpt lat="43.17803500" lon="-1.93572000">
        <ele>749.00000</ele>
        <time>2010-01-01T00:58:01Z</time>
      </trkpt>
      <trkpt lat="43.17804100" lon="-1.93577400">
        <ele>749.00000</ele>
        <time>2010-01-01T00:58:02Z</time>
      </trkpt>
      <trkpt lat="43.17804600" lon="-1.93582100">
        <ele>749.00000</ele>
        <time>2010-01-01T00:58:04Z</time>
      </trkpt>
      <trkpt lat="43.17804800" lon="-1.93586600">
        <ele>749.00000</ele>
        <time>2010-01-01T00:58:05Z</time>
      </trkpt>
      <trkpt lat="43.17804300" lon="-1.93590200">
        <ele>749.00000</ele>
        <time>2010-01-01T00:58:06Z</time>
      </trkpt>
      <trkpt lat="43.17803500" lon="-1.93628200">
        <ele>748.00000</ele>
        <time>2010-01-01T00:58:17Z</time>
      </trkpt>
      <trkpt lat="43.17799800" lon="-1.93663800">
        <ele>746.00000</ele>
        <time>2010-01-01T00:58:28Z</time>
      </trkpt>
      <trkpt lat="43.17802100" lon="-1.93714400">
        <ele>746.00000</ele>
        <time>2010-01-01T00:58:43Z</time>
      </trkpt>
      <trkpt lat="43.17807600" lon="-1.93758800">
        <ele>747.00000</ele>
        <time>2010-01-01T00:58:56Z</time>
      </trkpt>
      <trkpt lat="43.17818200" lon="-1.93813600">
        <ele>745.00000</ele>
        <time>2010-01-01T00:59:12Z</time>
      </trkpt>
      <trkpt lat="43.17823300" lon="-1.93828000">
        <ele>745.00000</ele>
        <time>2010-01-01T00:59:17Z</time>
      </trkpt>
      <trkpt lat="43.17825300" lon="-1.93833500">
        <ele>745.00000</ele>
        <time>2010-01-01T00:59:19Z</time>
      </trkpt>
      <trkpt lat="43.17835500" lon="-1.93860800">
        <ele>745.00000</ele>
        <time>2010-01-01T00:59:28Z</time>
      </trkpt>
      <trkpt lat="43.17855000" lon="-1.93916100">
        <ele>751.00000</ele>
        <time>2010-01-01T00:59:46Z</time>
      </trkpt>
      <trkpt lat="43.17854900" lon="-1.93954800">
        <ele>751.00000</ele>
        <time>2010-01-01T00:59:57Z</time>
      </trkpt>
      <trkpt lat="43.17850400" lon="-1.93971600">
        <ele>749.00000</ele>
        <time>2010-01-01T01:00:02Z</time>
      </trkpt>
      <trkpt lat="43.17849100" lon="-1.93974700">
        <ele>748.00000</ele>
        <time>2010-01-01T01:00:03Z</time>
      </trkpt>
      <trkpt lat="43.17848300" lon="-1.93978200">
        <ele>748.00000</ele>
        <time>2010-01-01T01:00:04Z</time>
      </trkpt>
      <trkpt lat="43.17843900" lon="-1.94009000">
        <ele>750.00000</ele>
        <time>2010-01-01T01:00:13Z</time>
      </trkpt>
      <trkpt lat="43.17841100" lon="-1.94015100">
        <ele>749.00000</ele>
        <time>2010-01-01T01:00:16Z</time>
      </trkpt>
      <trkpt lat="43.17832200" lon="-1.94042200">
        <ele>749.00000</ele>
        <time>2010-01-01T01:00:24Z</time>
      </trkpt>
      <trkpt lat="43.17831400" lon="-1.94047900">
        <ele>749.00000</ele>
        <time>2010-01-01T01:00:26Z</time>
      </trkpt>
      <trkpt lat="43.17827600" lon="-1.94059600">
        <ele>749.00000</ele>
        <time>2010-01-01T01:00:30Z</time>
      </trkpt>
      <trkpt lat="43.17824300" lon="-1.94071000">
        <ele>748.00000</ele>
        <time>2010-01-01T01:00:33Z</time>
      </trkpt>
      <trkpt lat="43.17820800" lon="-1.94090100">
        <ele>747.00000</ele>
        <time>2010-01-01T01:00:39Z</time>
      </trkpt>
      <trkpt lat="43.17826600" lon="-1.94123800">
        <ele>746.00000</ele>
        <time>2010-01-01T01:00:49Z</time>
      </trkpt>
      <trkpt lat="43.17832400" lon="-1.94133400">
        <ele>747.00000</ele>
        <time>2010-01-01T01:00:53Z</time>
      </trkpt>
      <trkpt lat="43.17852100" lon="-1.94152300">
        <ele>750.00000</ele>
        <time>2010-01-01T01:01:02Z</time>
      </trkpt>
      <trkpt lat="43.17869100" lon="-1.94161900">
        <ele>752.00000</ele>
        <time>2010-01-01T01:01:10Z</time>
      </trkpt>
      <trkpt lat="43.17870800" lon="-1.94162700">
        <ele>752.00000</ele>
        <time>2010-01-01T01:01:10Z</time>
      </trkpt>
      <trkpt lat="43.17873300" lon="-1.94165100">
        <ele>752.00000</ele>
        <time>2010-01-01T01:01:12Z</time>
      </trkpt>
      <trkpt lat="43.17889600" lon="-1.94178100">
        <ele>751.00000</ele>
        <time>2010-01-01T01:01:19Z</time>
      </trkpt>
      <trkpt lat="43.17903300" lon="-1.94193300">
        <ele>748.00000</ele>
        <time>2010-01-01T01:01:26Z</time>
      </trkpt>
      <trkpt lat="43.17910300" lon="-1.94198500">
        <ele>748.00000</ele>
        <time>2010-01-01T01:01:29Z</time>
      </trkpt>
      <trkpt lat="43.17929100" lon="-1.94222400">
        <ele>745.00000</ele>
        <time>2010-01-01T01:01:40Z</time>
      </trkpt>
      <trkpt lat="43.17930500" lon="-1.94224500">
        <ele>745.00000</ele>
        <time>2010-01-01T01:01:41Z</time>
      </trkpt>
      <trkpt lat="43.17937600" lon="-1.94239700">
        <ele>742.00000</ele>
        <time>2010-01-01T01:01:46Z</time>
      </trkpt>
      <trkpt lat="43.17944800" lon="-1.94262700">
        <ele>738.00000</ele>
        <time>2010-01-01T01:01:53Z</time>
      </trkpt>
      <trkpt lat="43.17948300" lon="-1.94285500">
        <ele>736.00000</ele>
        <time>2010-01-01T01:02:00Z</time>
      </trkpt>
      <trkpt lat="43.17949400" lon="-1.94305800">
        <ele>735.00000</ele>
        <time>2010-01-01T01:02:06Z</time>
      </trkpt>
      <trkpt lat="43.17949500" lon="-1.94307500">
        <ele>735.00000</ele>
        <time>2010-01-01T01:02:06Z</time>
      </trkpt>
      <trkpt lat="43.17948900" lon="-1.94316800">
        <ele>733.00000</ele>
        <time>2010-01-01T01:02:09Z</time>
      </trkpt>
      <trkpt lat="43.17950300" lon="-1.94340800">
        <ele>731.00000</ele>
        <time>2010-01-01T01:02:16Z</time>
      </trkpt>
      <trkpt lat="43.17950500" lon="-1.94343000">
        <ele>731.00000</ele>
        <time>2010-01-01T01:02:17Z</time>
      </trkpt>
      <trkpt lat="43.17950600" lon="-1.94345000">
        <ele>731.00000</ele>
        <time>2010-01-01T01:02:17Z</time>
      </trkpt>
      <trkpt lat="43.17950900" lon="-1.94346900">
        <ele>731.00000</ele>
        <time>2010-01-01T01:02:18Z</time>
      </trkpt>
      <trkpt lat="43.17951200" lon="-1.94349000">
        <ele>731.00000</ele>
        <time>2010-01-01T01:02:19Z</time>
      </trkpt>
      <trkpt lat="43.17951200" lon="-1.94351400">
        <ele>730.00000</ele>
        <time>2010-01-01T01:02:19Z</time>
      </trkpt>
      <trkpt lat="43.17951400" lon="-1.94353700">
        <ele>730.00000</ele>
        <time>2010-01-01T01:02:20Z</time>
      </trkpt>
      <trkpt lat="43.17951600" lon="-1.94355700">
        <ele>730.00000</ele>
        <time>2010-01-01T01:02:21Z</time>
      </trkpt>
      <trkpt lat="43.17951900" lon="-1.94357500">
        <ele>730.00000</ele>
        <time>2010-01-01T01:02:21Z</time>
      </trkpt>
      <trkpt lat="43.17952300" lon="-1.94359500">
        <ele>730.00000</ele>
        <time>2010-01-01T01:02:22Z</time>
      </trkpt>
      <trkpt lat="43.17952900" lon="-1.94361200">
        <ele>730.00000</ele>
        <time>2010-01-01T01:02:22Z</time>
      </trkpt>
      <trkpt lat="43.17953800" lon="-1.94363000">
        <ele>730.00000</ele>
        <time>2010-01-01T01:02:23Z</time>
      </trkpt>
      <trkpt lat="43.17954400" lon="-1.94365000">
        <ele>730.00000</ele>
        <time>2010-01-01T01:02:23Z</time>
      </trkpt>
      <trkpt lat="43.17955300" lon="-1.94391400">
        <ele>728.00000</ele>
        <time>2010-01-01T01:02:31Z</time>
      </trkpt>
      <trkpt lat="43.17948700" lon="-1.94426000">
        <ele>722.00000</ele>
        <time>2010-01-01T01:02:42Z</time>
      </trkpt>
      <trkpt lat="43.17948600" lon="-1.94428500">
        <ele>722.00000</ele>
        <time>2010-01-01T01:02:42Z</time>
      </trkpt>
      <trkpt lat="43.17947300" lon="-1.94437300">
        <ele>721.00000</ele>
        <time>2010-01-01T01:02:45Z</time>
      </trkpt>
      <trkpt lat="43.17953000" lon="-1.94466500">
        <ele>719.00000</ele>
        <time>2010-01-01T01:02:54Z</time>
      </trkpt>
      <trkpt lat="43.17963400" lon="-1.94485000">
        <ele>721.00000</ele>
        <time>2010-01-01T01:03:01Z</time>
      </trkpt>
      <trkpt lat="43.17967100" lon="-1.94493400">
        <ele>722.00000</ele>
        <time>2010-01-01T01:03:03Z</time>
      </trkpt>
      <trkpt lat="43.17976900" lon="-1.94513000">
        <ele>723.00000</ele>
        <time>2010-01-01T01:03:10Z</time>
      </trkpt>
      <trkpt lat="43.17983700" lon="-1.94537600">
        <ele>722.00000</ele>
        <time>2010-01-01T01:03:18Z</time>
      </trkpt>
      <trkpt lat="43.17989200" lon="-1.94567600">
        <ele>720.00000</ele>
        <time>2010-01-01T01:03:27Z</time>
      </trkpt>
      <trkpt lat="43.17991300" lon="-1.94596900">
        <ele>716.00000</ele>
        <time>2010-01-01T01:03:36Z</time>
      </trkpt>
      <trkpt lat="43.17991600" lon="-1.94599500">
        <ele>715.00000</ele>
        <time>2010-01-01T01:03:37Z</time>
      </trkpt>
      <trkpt lat="43.17991900" lon="-1.94601700">
        <ele>715.00000</ele>
        <time>2010-01-01T01:03:37Z</time>
      </trkpt>
      <trkpt lat="43.17992000" lon="-1.94603800">
        <ele>715.00000</ele>
        <time>2010-01-01T01:03:38Z</time>
      </trkpt>
      <trkpt lat="43.17992000" lon="-1.94605900">
        <ele>715.00000</ele>
        <time>2010-01-01T01:03:38Z</time>
      </trkpt>
      <trkpt lat="43.17992300" lon="-1.94607700">
        <ele>715.00000</ele>
        <time>2010-01-01T01:03:39Z</time>
      </trkpt>
      <trkpt lat="43.17991500" lon="-1.94622200">
        <ele>712.00000</ele>
        <time>2010-01-01T01:03:43Z</time>
      </trkpt>
      <trkpt lat="43.17991100" lon="-1.94647600">
        <ele>710.00000</ele>
        <time>2010-01-01T01:03:51Z</time>
      </trkpt>
      <trkpt lat="43.17988500" lon="-1.94670500">
        <ele>708.00000</ele>
        <time>2010-01-01T01:03:57Z</time>
      </trkpt>
      <trkpt lat="43.17981700" lon="-1.94700300">
        <ele>706.00000</ele>
        <time>2010-01-01T01:04:06Z</time>
      </trkpt>
      <trkpt lat="43.17981300" lon="-1.94702300">
        <ele>705.00000</ele>
        <time>2010-01-01T01:04:07Z</time>
      </trkpt>
      <trkpt lat="43.17980900" lon="-1.94704200">
        <ele>705.00000</ele>
        <time>2010-01-01T01:04:08Z</time>
      </trkpt>
      <trkpt lat="43.17979700" lon="-1.94708000">
        <ele>705.00000</ele>
        <time>2010-01-01T01:04:09Z</time>
      </trkpt>
      <trkpt lat="43.17979200" lon="-1.94710500">
        <ele>705.00000</ele>
        <time>2010-01-01T01:04:10Z</time>
      </trkpt>
      <trkpt lat="43.17978400" lon="-1.94712600">
        <ele>705.00000</ele>
        <time>2010-01-01T01:04:10Z</time>
      </trkpt>
      <trkpt lat="43.17977300" lon="-1.94714400">
        <ele>704.00000</ele>
        <time>2010-01-01T01:04:11Z</time>
      </trkpt>
      <trkpt lat="43.17976400" lon="-1.94716400">
        <ele>704.00000</ele>
        <time>2010-01-01T01:04:12Z</time>
      </trkpt>
      <trkpt lat="43.17975700" lon="-1.94718200">
        <ele>704.00000</ele>
        <time>2010-01-01T01:04:12Z</time>
      </trkpt>
      <trkpt lat="43.17975000" lon="-1.94720000">
        <ele>703.00000</ele>
        <time>2010-01-01T01:04:13Z</time>
      </trkpt>
      <trkpt lat="43.17974000" lon="-1.94721700">
        <ele>703.00000</ele>
        <time>2010-01-01T01:04:14Z</time>
      </trkpt>
      <trkpt lat="43.17973100" lon="-1.94723000">
        <ele>703.00000</ele>
        <time>2010-01-01T01:04:14Z</time>
      </trkpt>
      <trkpt lat="43.17972400" lon="-1.94724500">
        <ele>703.00000</ele>
        <time>2010-01-01T01:04:15Z</time>
      </trkpt>
      <trkpt lat="43.17971900" lon="-1.94726200">
        <ele>703.00000</ele>
        <time>2010-01-01T01:04:15Z</time>
      </trkpt>
      <trkpt lat="43.17971200" lon="-1.94727700">
        <ele>703.00000</ele>
        <time>2010-01-01T01:04:16Z</time>
      </trkpt>
      <trkpt lat="43.17956900" lon="-1.94751800">
        <ele>699.00000</ele>
        <time>2010-01-01T01:04:25Z</time>
      </trkpt>
      <trkpt lat="43.17956000" lon="-1.94753600">
        <ele>698.00000</ele>
        <time>2010-01-01T01:04:25Z</time>
      </trkpt>
      <trkpt lat="43.17954900" lon="-1.94755200">
        <ele>698.00000</ele>
        <time>2010-01-01T01:04:26Z</time>
      </trkpt>
      <trkpt lat="43.17953900" lon="-1.94757000">
        <ele>698.00000</ele>
        <time>2010-01-01T01:04:27Z</time>
      </trkpt>
      <trkpt lat="43.17953200" lon="-1.94758600">
        <ele>698.00000</ele>
        <time>2010-01-01T01:04:27Z</time>
      </trkpt>
      <trkpt lat="43.17952500" lon="-1.94760200">
        <ele>697.00000</ele>
        <time>2010-01-01T01:04:28Z</time>
      </trkpt>
      <trkpt lat="43.17951600" lon="-1.94761900">
        <ele>697.00000</ele>
        <time>2010-01-01T01:04:28Z</time>
      </trkpt>
      <trkpt lat="43.17939900" lon="-1.94785500">
        <ele>694.00000</ele>
        <time>2010-01-01T01:04:37Z</time>
      </trkpt>
      <trkpt lat="43.17937800" lon="-1.94814900">
        <ele>693.00000</ele>
        <time>2010-01-01T01:04:45Z</time>
      </trkpt>
      <trkpt lat="43.17946700" lon="-1.94840000">
        <ele>691.00000</ele>
        <time>2010-01-01T01:04:53Z</time>
      </trkpt>
      <trkpt lat="43.17948100" lon="-1.94841400">
        <ele>691.00000</ele>
        <time>2010-01-01T01:04:54Z</time>
      </trkpt>
      <trkpt lat="43.17950700" lon="-1.94844300">
        <ele>691.00000</ele>
        <time>2010-01-01T01:04:55Z</time>
      </trkpt>
      <trkpt lat="43.17969700" lon="-1.94857300">
        <ele>691.00000</ele>
        <time>2010-01-01T01:05:04Z</time>
      </trkpt>
      <trkpt lat="43.17993800" lon="-1.94860500">
        <ele>693.00000</ele>
        <time>2010-01-01T01:05:14Z</time>
      </trkpt>
      <trkpt lat="43.18009100" lon="-1.94861100">
        <ele>694.00000</ele>
        <time>2010-01-01T01:05:20Z</time>
      </trkpt>
      <trkpt lat="43.18028400" lon="-1.94867400">
        <ele>692.00000</ele>
        <time>2010-01-01T01:05:28Z</time>
      </trkpt>
      <trkpt lat="43.18047100" lon="-1.94877700">
        <ele>692.00000</ele>
        <time>2010-01-01T01:05:36Z</time>
      </trkpt>
      <trkpt lat="43.18073000" lon="-1.94891700">
        <ele>690.00000</ele>
        <time>2010-01-01T01:05:47Z</time>
      </trkpt>
      <trkpt lat="43.18095000" lon="-1.94914200">
        <ele>685.00000</ele>
        <time>2010-01-01T01:05:58Z</time>
      </trkpt>
      <trkpt lat="43.18107800" lon="-1.94927000">
        <ele>682.00000</ele>
        <time>2010-01-01T01:06:04Z</time>
      </trkpt>
      <trkpt lat="43.18139700" lon="-1.94950500">
        <ele>682.00000</ele>
        <time>2010-01-01T01:06:19Z</time>
      </trkpt>
      <trkpt lat="43.18162500" lon="-1.94963800">
        <ele>683.00000</ele>
        <time>2010-01-01T01:06:29Z</time>
      </trkpt>
      <trkpt lat="43.18182400" lon="-1.94980700">
        <ele>682.00000</ele>
        <time>2010-01-01T01:06:38Z</time>
      </trkpt>
      <trkpt lat="43.18203700" lon="-1.94991200">
        <ele>684.00000</ele>
        <time>2010-01-01T01:06:47Z</time>
      </trkpt>
      <trkpt lat="43.18222800" lon="-1.95006000">
        <ele>684.00000</ele>
        <time>2010-01-01T01:06:56Z</time>
      </trkpt>
      <trkpt lat="43.18241100" lon="-1.95023400">
        <ele>681.00000</ele>
        <time>2010-01-01T01:07:05Z</time>
      </trkpt>
      <trkpt lat="43.18242600" lon="-1.95024700">
        <ele>681.00000</ele>
        <time>2010-01-01T01:07:05Z</time>
      </trkpt>
      <trkpt lat="43.18257400" lon="-1.95040800">
        <ele>679.00000</ele>
        <time>2010-01-01T01:07:13Z</time>
      </trkpt>
      <trkpt lat="43.18258700" lon="-1.95042100">
        <ele>678.00000</ele>
        <time>2010-01-01T01:07:14Z</time>
      </trkpt>
      <trkpt lat="43.18260100" lon="-1.95043300">
        <ele>678.00000</ele>
        <time>2010-01-01T01:07:14Z</time>
      </trkpt>
      <trkpt lat="43.18261800" lon="-1.95044400">
        <ele>678.00000</ele>
        <time>2010-01-01T01:07:15Z</time>
      </trkpt>
      <trkpt lat="43.18263000" lon="-1.95045400">
        <ele>678.00000</ele>
        <time>2010-01-01T01:07:16Z</time>
      </trkpt>
      <trkpt lat="43.18264100" lon="-1.95046400">
        <ele>678.00000</ele>
        <time>2010-01-01T01:07:16Z</time>
      </trkpt>
      <trkpt lat="43.18265300" lon="-1.95047800">
        <ele>678.00000</ele>
        <time>2010-01-01T01:07:17Z</time>
      </trkpt>
      <trkpt lat="43.18266700" lon="-1.95049100">
        <ele>677.00000</ele>
        <time>2010-01-01T01:07:18Z</time>
      </trkpt>
      <trkpt lat="43.18267800" lon="-1.95050500">
        <ele>677.00000</ele>
        <time>2010-01-01T01:07:18Z</time>
      </trkpt>
      <trkpt lat="43.18268800" lon="-1.95052200">
        <ele>677.00000</ele>
        <time>2010-01-01T01:07:19Z</time>
      </trkpt>
      <trkpt lat="43.18270100" lon="-1.95053700">
        <ele>677.00000</ele>
        <time>2010-01-01T01:07:19Z</time>
      </trkpt>
      <trkpt lat="43.18271600" lon="-1.95055100">
        <ele>677.00000</ele>
        <time>2010-01-01T01:07:20Z</time>
      </trkpt>
      <trkpt lat="43.18272700" lon="-1.95057000">
        <ele>676.00000</ele>
        <time>2010-01-01T01:07:21Z</time>
      </trkpt>
      <trkpt lat="43.18273800" lon="-1.95058300">
        <ele>676.00000</ele>
        <time>2010-01-01T01:07:21Z</time>
      </trkpt>
      <trkpt lat="43.18275700" lon="-1.95060900">
        <ele>676.00000</ele>
        <time>2010-01-01T01:07:23Z</time>
      </trkpt>
      <trkpt lat="43.18276700" lon="-1.95062600">
        <ele>676.00000</ele>
        <time>2010-01-01T01:07:23Z</time>
      </trkpt>
      <trkpt lat="43.18283900" lon="-1.95073300">
        <ele>675.00000</ele>
        <time>2010-01-01T01:07:27Z</time>
      </trkpt>
      <trkpt lat="43.18284800" lon="-1.95074900">
        <ele>674.00000</ele>
        <time>2010-01-01T01:07:28Z</time>
      </trkpt>
      <trkpt lat="43.18289600" lon="-1.95082300">
        <ele>673.00000</ele>
        <time>2010-01-01T01:07:31Z</time>
      </trkpt>
      <trkpt lat="43.18305200" lon="-1.95101000">
        <ele>672.00000</ele>
        <time>2010-01-01T01:07:39Z</time>
      </trkpt>
      <trkpt lat="43.18306400" lon="-1.95102300">
        <ele>672.00000</ele>
        <time>2010-01-01T01:07:40Z</time>
      </trkpt>
      <trkpt lat="43.18321400" lon="-1.95112700">
        <ele>674.00000</ele>
        <time>2010-01-01T01:07:47Z</time>
      </trkpt>
      <trkpt lat="43.18338300" lon="-1.95133900">
        <ele>673.00000</ele>
        <time>2010-01-01T01:07:56Z</time>
      </trkpt>
      <trkpt lat="43.18356200" lon="-1.95159500">
        <ele>671.00000</ele>
        <time>2010-01-01T01:08:06Z</time>
      </trkpt>
      <trkpt lat="43.18369300" lon="-1.95186400">
        <ele>668.00000</ele>
        <time>2010-01-01T01:08:15Z</time>
      </trkpt>
      <trkpt lat="43.18376300" lon="-1.95217700">
        <ele>664.00000</ele>
        <time>2010-01-01T01:08:25Z</time>
      </trkpt>
      <trkpt lat="43.18383800" lon="-1.95261000">
        <ele>658.00000</ele>
        <time>2010-01-01T01:08:38Z</time>
      </trkpt>
      <trkpt lat="43.18398500" lon="-1.95288500">
        <ele>658.00000</ele>
        <time>2010-01-01T01:08:48Z</time>
      </trkpt>
      <trkpt lat="43.18407700" lon="-1.95301400">
        <ele>658.00000</ele>
        <time>2010-01-01T01:08:53Z</time>
      </trkpt>
      <trkpt lat="43.18417600" lon="-1.95312600">
        <ele>660.00000</ele>
        <time>2010-01-01T01:08:58Z</time>
      </trkpt>
      <trkpt lat="43.18446900" lon="-1.95330200">
        <ele>668.00000</ele>
        <time>2010-01-01T01:09:11Z</time>
      </trkpt>
      <trkpt lat="43.18449200" lon="-1.95332100">
        <ele>668.00000</ele>
        <time>2010-01-01T01:09:12Z</time>
      </trkpt>
      <trkpt lat="43.18458800" lon="-1.95347600">
        <ele>669.00000</ele>
        <time>2010-01-01T01:09:18Z</time>
      </trkpt>
      <trkpt lat="43.18460200" lon="-1.95349500">
        <ele>669.00000</ele>
        <time>2010-01-01T01:09:19Z</time>
      </trkpt>
      <trkpt lat="43.18462100" lon="-1.95351900">
        <ele>670.00000</ele>
        <time>2010-01-01T01:09:20Z</time>
      </trkpt>
      <trkpt lat="43.18464100" lon="-1.95354600">
        <ele>670.00000</ele>
        <time>2010-01-01T01:09:21Z</time>
      </trkpt>
      <trkpt lat="43.18465800" lon="-1.95357500">
        <ele>670.00000</ele>
        <time>2010-01-01T01:09:22Z</time>
      </trkpt>
      <trkpt lat="43.18467000" lon="-1.95360800">
        <ele>670.00000</ele>
        <time>2010-01-01T01:09:23Z</time>
      </trkpt>
      <trkpt lat="43.18468000" lon="-1.95364100">
        <ele>670.00000</ele>
        <time>2010-01-01T01:09:24Z</time>
      </trkpt>
      <trkpt lat="43.18468600" lon="-1.95367300">
        <ele>670.00000</ele>
        <time>2010-01-01T01:09:25Z</time>
      </trkpt>
      <trkpt lat="43.18469400" lon="-1.95370800">
        <ele>670.00000</ele>
        <time>2010-01-01T01:09:26Z</time>
      </trkpt>
      <trkpt lat="43.18470800" lon="-1.95375500">
        <ele>669.00000</ele>
        <time>2010-01-01T01:09:28Z</time>
      </trkpt>
      <trkpt lat="43.18472000" lon="-1.95379700">
        <ele>669.00000</ele>
        <time>2010-01-01T01:09:29Z</time>
      </trkpt>
      <trkpt lat="43.18473700" lon="-1.95383400">
        <ele>669.00000</ele>
        <time>2010-01-01T01:09:30Z</time>
      </trkpt>
      <trkpt lat="43.18475900" lon="-1.95404300">
        <ele>668.00000</ele>
        <time>2010-01-01T01:09:37Z</time>
      </trkpt>
      <trkpt lat="43.18475400" lon="-1.95408800">
        <ele>668.00000</ele>
        <time>2010-01-01T01:09:38Z</time>
      </trkpt>
      <trkpt lat="43.18475000" lon="-1.95413200">
        <ele>667.00000</ele>
        <time>2010-01-01T01:09:39Z</time>
      </trkpt>
      <trkpt lat="43.18474600" lon="-1.95418200">
        <ele>667.00000</ele>
        <time>2010-01-01T01:09:41Z</time>
      </trkpt>
      <trkpt lat="43.18474400" lon="-1.95423500">
        <ele>667.00000</ele>
        <time>2010-01-01T01:09:42Z</time>
      </trkpt>
      <trkpt lat="43.18474300" lon="-1.95429100">
        <ele>667.00000</ele>
        <time>2010-01-01T01:09:44Z</time>
      </trkpt>
      <trkpt lat="43.18474900" lon="-1.95434800">
        <ele>667.00000</ele>
        <time>2010-01-01T01:09:46Z</time>
      </trkpt>
      <trkpt lat="43.18478500" lon="-1.95446900">
        <ele>667.00000</ele>
        <time>2010-01-01T01:09:49Z</time>
      </trkpt>
      <trkpt lat="43.18492200" lon="-1.95477700">
        <ele>670.00000</ele>
        <time>2010-01-01T01:10:00Z</time>
      </trkpt>
      <trkpt lat="43.18505200" lon="-1.95511200">
        <ele>670.00000</ele>
        <time>2010-01-01T01:10:11Z</time>
      </trkpt>
      <trkpt lat="43.18512600" lon="-1.95538300">
        <ele>668.00000</ele>
        <time>2010-01-01T01:10:19Z</time>
      </trkpt>
      <trkpt lat="43.18513400" lon="-1.95540800">
        <ele>667.00000</ele>
        <time>2010-01-01T01:10:20Z</time>
      </trkpt>
      <trkpt lat="43.18514300" lon="-1.95544000">
        <ele>667.00000</ele>
        <time>2010-01-01T01:10:21Z</time>
      </trkpt>
      <trkpt lat="43.18515100" lon="-1.95546800">
        <ele>667.00000</ele>
        <time>2010-01-01T01:10:22Z</time>
      </trkpt>
      <trkpt lat="43.18516500" lon="-1.95549200">
        <ele>666.00000</ele>
        <time>2010-01-01T01:10:23Z</time>
      </trkpt>
      <trkpt lat="43.18517500" lon="-1.95551800">
        <ele>666.00000</ele>
        <time>2010-01-01T01:10:24Z</time>
      </trkpt>
      <trkpt lat="43.18518500" lon="-1.95555200">
        <ele>666.00000</ele>
        <time>2010-01-01T01:10:25Z</time>
      </trkpt>
      <trkpt lat="43.18519700" lon="-1.95558400">
        <ele>666.00000</ele>
        <time>2010-01-01T01:10:26Z</time>
      </trkpt>
      <trkpt lat="43.18520900" lon="-1.95561100">
        <ele>665.00000</ele>
        <time>2010-01-01T01:10:27Z</time>
      </trkpt>
      <trkpt lat="43.18527900" lon="-1.95567600">
        <ele>666.00000</ele>
        <time>2010-01-01T01:10:30Z</time>
      </trkpt>
      <trkpt lat="43.18555900" lon="-1.95568800">
        <ele>667.00000</ele>
        <time>2010-01-01T01:10:42Z</time>
      </trkpt>
      <trkpt lat="43.18584700" lon="-1.95558400">
        <ele>665.00000</ele>
        <time>2010-01-01T01:10:53Z</time>
      </trkpt>
      <trkpt lat="43.18613100" lon="-1.95561700">
        <ele>664.00000</ele>
        <time>2010-01-01T01:11:05Z</time>
      </trkpt>
      <trkpt lat="43.18640500" lon="-1.95584000">
        <ele>658.00000</ele>
        <time>2010-01-01T01:11:18Z</time>
      </trkpt>
      <trkpt lat="43.18665400" lon="-1.95600500">
        <ele>659.00000</ele>
        <time>2010-01-01T01:11:29Z</time>
      </trkpt>
      <trkpt lat="43.18667000" lon="-1.95601900">
        <ele>659.00000</ele>
        <time>2010-01-01T01:11:29Z</time>
      </trkpt>
      <trkpt lat="43.18670300" lon="-1.95604500">
        <ele>659.00000</ele>
        <time>2010-01-01T01:11:31Z</time>
      </trkpt>
      <trkpt lat="43.18694800" lon="-1.95626700">
        <ele>663.00000</ele>
        <time>2010-01-01T01:11:43Z</time>
      </trkpt>
      <trkpt lat="43.18711000" lon="-1.95654800">
        <ele>661.00000</ele>
        <time>2010-01-01T01:11:53Z</time>
      </trkpt>
      <trkpt lat="43.18715900" lon="-1.95685900">
        <ele>655.00000</ele>
        <time>2010-01-01T01:12:02Z</time>
      </trkpt>
      <trkpt lat="43.18716200" lon="-1.95687800">
        <ele>654.00000</ele>
        <time>2010-01-01T01:12:03Z</time>
      </trkpt>
      <trkpt lat="43.18716200" lon="-1.95691000">
        <ele>654.00000</ele>
        <time>2010-01-01T01:12:04Z</time>
      </trkpt>
      <trkpt lat="43.18719800" lon="-1.95719800">
        <ele>652.00000</ele>
        <time>2010-01-01T01:12:12Z</time>
      </trkpt>
      <trkpt lat="43.18716800" lon="-1.95751500">
        <ele>649.00000</ele>
        <time>2010-01-01T01:12:22Z</time>
      </trkpt>
      <trkpt lat="43.18713900" lon="-1.95777100">
        <ele>646.00000</ele>
        <time>2010-01-01T01:12:29Z</time>
      </trkpt>
      <trkpt lat="43.18713700" lon="-1.95779200">
        <ele>646.00000</ele>
        <time>2010-01-01T01:12:30Z</time>
      </trkpt>
      <trkpt lat="43.18713700" lon="-1.95781400">
        <ele>646.00000</ele>
        <time>2010-01-01T01:12:31Z</time>
      </trkpt>
      <trkpt lat="43.18713400" lon="-1.95783500">
        <ele>646.00000</ele>
        <time>2010-01-01T01:12:31Z</time>
      </trkpt>
      <trkpt lat="43.18713000" lon="-1.95785500">
        <ele>646.00000</ele>
        <time>2010-01-01T01:12:32Z</time>
      </trkpt>
      <trkpt lat="43.18712800" lon="-1.95787600">
        <ele>646.00000</ele>
        <time>2010-01-01T01:12:32Z</time>
      </trkpt>
      <trkpt lat="43.18712900" lon="-1.95789800">
        <ele>646.00000</ele>
        <time>2010-01-01T01:12:33Z</time>
      </trkpt>
      <trkpt lat="43.18713100" lon="-1.95792000">
        <ele>646.00000</ele>
        <time>2010-01-01T01:12:34Z</time>
      </trkpt>
      <trkpt lat="43.18713000" lon="-1.95794200">
        <ele>646.00000</ele>
        <time>2010-01-01T01:12:34Z</time>
      </trkpt>
      <trkpt lat="43.18711600" lon="-1.95824100">
        <ele>646.00000</ele>
        <time>2010-01-01T01:12:43Z</time>
      </trkpt>
      <trkpt lat="43.18711700" lon="-1.95826600">
        <ele>646.00000</ele>
        <time>2010-01-01T01:12:44Z</time>
      </trkpt>
      <trkpt lat="43.18711800" lon="-1.95829400">
        <ele>646.00000</ele>
        <time>2010-01-01T01:12:45Z</time>
      </trkpt>
      <trkpt lat="43.18712800" lon="-1.95835400">
        <ele>646.00000</ele>
        <time>2010-01-01T01:12:47Z</time>
      </trkpt>
      <trkpt lat="43.18716100" lon="-1.95863300">
        <ele>647.00000</ele>
        <time>2010-01-01T01:12:55Z</time>
      </trkpt>
      <trkpt lat="43.18714500" lon="-1.95889600">
        <ele>646.00000</ele>
        <time>2010-01-01T01:13:02Z</time>
      </trkpt>
      <trkpt lat="43.18714100" lon="-1.95892000">
        <ele>646.00000</ele>
        <time>2010-01-01T01:13:03Z</time>
      </trkpt>
      <trkpt lat="43.18713800" lon="-1.95894200">
        <ele>645.00000</ele>
        <time>2010-01-01T01:13:04Z</time>
      </trkpt>
      <trkpt lat="43.18713500" lon="-1.95896800">
        <ele>645.00000</ele>
        <time>2010-01-01T01:13:05Z</time>
      </trkpt>
      <trkpt lat="43.18713200" lon="-1.95899500">
        <ele>645.00000</ele>
        <time>2010-01-01T01:13:05Z</time>
      </trkpt>
      <trkpt lat="43.18710600" lon="-1.95912800">
        <ele>643.00000</ele>
        <time>2010-01-01T01:13:09Z</time>
      </trkpt>
      <trkpt lat="43.18709800" lon="-1.95940600">
        <ele>640.00000</ele>
        <time>2010-01-01T01:13:18Z</time>
      </trkpt>
      <trkpt lat="43.18709300" lon="-1.95942800">
        <ele>640.00000</ele>
        <time>2010-01-01T01:13:18Z</time>
      </trkpt>
      <trkpt lat="43.18707500" lon="-1.95968900">
        <ele>637.00000</ele>
        <time>2010-01-01T01:13:26Z</time>
      </trkpt>
      <trkpt lat="43.18706900" lon="-1.95972600">
        <ele>637.00000</ele>
        <time>2010-01-01T01:13:27Z</time>
      </trkpt>
      <trkpt lat="43.18707200" lon="-1.95991900">
        <ele>636.00000</ele>
        <time>2010-01-01T01:13:33Z</time>
      </trkpt>
      <trkpt lat="43.18708000" lon="-1.95999200">
        <ele>635.00000</ele>
        <time>2010-01-01T01:13:35Z</time>
      </trkpt>
      <trkpt lat="43.18709200" lon="-1.96006800">
        <ele>636.00000</ele>
        <time>2010-01-01T01:13:37Z</time>
      </trkpt>
      <trkpt lat="43.18714000" lon="-1.96060400">
        <ele>641.00000</ele>
        <time>2010-01-01T01:13:53Z</time>
      </trkpt>
      <trkpt lat="43.18712100" lon="-1.96118500">
        <ele>645.00000</ele>
        <time>2010-01-01T01:14:10Z</time>
      </trkpt>
      <trkpt lat="43.18712800" lon="-1.96141100">
        <ele>650.00000</ele>
        <time>2010-01-01T01:14:16Z</time>
      </trkpt>
      <trkpt lat="43.18707200" lon="-1.96183800">
        <ele>656.00000</ele>
        <time>2010-01-01T01:14:29Z</time>
      </trkpt>
      <trkpt lat="43.18698800" lon="-1.96216100">
        <ele>654.00000</ele>
        <time>2010-01-01T01:14:39Z</time>
      </trkpt>
      <trkpt lat="43.18697300" lon="-1.96219500">
        <ele>653.00000</ele>
        <time>2010-01-01T01:14:40Z</time>
      </trkpt>
      <trkpt lat="43.18695800" lon="-1.96223400">
        <ele>653.00000</ele>
        <time>2010-01-01T01:14:41Z</time>
      </trkpt>
      <trkpt lat="43.18694000" lon="-1.96226600">
        <ele>651.00000</ele>
        <time>2010-01-01T01:14:43Z</time>
      </trkpt>
      <trkpt lat="43.18692000" lon="-1.96229500">
        <ele>650.00000</ele>
        <time>2010-01-01T01:14:44Z</time>
      </trkpt>
      <trkpt lat="43.18689900" lon="-1.96232300">
        <ele>649.00000</ele>
        <time>2010-01-01T01:14:45Z</time>
      </trkpt>
      <trkpt lat="43.18687000" lon="-1.96234500">
        <ele>648.00000</ele>
        <time>2010-01-01T01:14:46Z</time>
      </trkpt>
      <trkpt lat="43.18678300" lon="-1.96260000">
        <ele>647.00000</ele>
        <time>2010-01-01T01:14:55Z</time>
      </trkpt>
      <trkpt lat="43.18676700" lon="-1.96266800">
        <ele>648.00000</ele>
        <time>2010-01-01T01:14:57Z</time>
      </trkpt>
      <trkpt lat="43.18676300" lon="-1.96271900">
        <ele>649.00000</ele>
        <time>2010-01-01T01:14:58Z</time>
      </trkpt>
      <trkpt lat="43.18675900" lon="-1.96277200">
        <ele>650.00000</ele>
        <time>2010-01-01T01:15:00Z</time>
      </trkpt>
      <trkpt lat="43.18675600" lon="-1.96282200">
        <ele>650.00000</ele>
        <time>2010-01-01T01:15:01Z</time>
      </trkpt>
      <trkpt lat="43.18675800" lon="-1.96287200">
        <ele>651.00000</ele>
        <time>2010-01-01T01:15:03Z</time>
      </trkpt>
      <trkpt lat="43.18676300" lon="-1.96292600">
        <ele>652.00000</ele>
        <time>2010-01-01T01:15:04Z</time>
      </trkpt>
      <trkpt lat="43.18677800" lon="-1.96317500">
        <ele>656.00000</ele>
        <time>2010-01-01T01:15:11Z</time>
      </trkpt>
      <trkpt lat="43.18672100" lon="-1.96368900">
        <ele>660.00000</ele>
        <time>2010-01-01T01:15:27Z</time>
      </trkpt>
      <trkpt lat="43.18664000" lon="-1.96411600">
        <ele>661.00000</ele>
        <time>2010-01-01T01:15:40Z</time>
      </trkpt>
      <trkpt lat="43.18655000" lon="-1.96442500">
        <ele>657.00000</ele>
        <time>2010-01-01T01:15:49Z</time>
      </trkpt>
      <trkpt lat="43.18639900" lon="-1.96490900">
        <ele>660.00000</ele>
        <time>2010-01-01T01:16:05Z</time>
      </trkpt>
      <trkpt lat="43.18626100" lon="-1.96516400">
        <ele>659.00000</ele>
        <time>2010-01-01T01:16:14Z</time>
      </trkpt>
      <trkpt lat="43.18609000" lon="-1.96553200">
        <ele>661.00000</ele>
        <time>2010-01-01T01:16:27Z</time>
      </trkpt>
      <trkpt lat="43.18600100" lon="-1.96570600">
        <ele>660.00000</ele>
        <time>2010-01-01T01:16:33Z</time>
      </trkpt>
      <trkpt lat="43.18600500" lon="-1.96571700">
        <ele>660.00000</ele>
        <time>2010-01-01T01:16:33Z</time>
      </trkpt>
      <trkpt lat="43.18601600" lon="-1.96573000">
        <ele>660.00000</ele>
        <time>2010-01-01T01:16:34Z</time>
      </trkpt>
      <trkpt lat="43.18609100" lon="-1.96572000">
        <ele>661.00000</ele>
        <time>2010-01-01T01:16:37Z</time>
      </trkpt>
      <trkpt lat="43.18614700" lon="-1.96570100">
        <ele>661.00000</ele>
        <time>2010-01-01T01:16:39Z</time>
      </trkpt>
      <trkpt lat="43.18627400" lon="-1.96565800">
        <ele>660.00000</ele>
        <time>2010-01-01T01:16:44Z</time>
      </trkpt>
      <trkpt lat="43.18628800" lon="-1.96565200">
        <ele>660.00000</ele>
        <time>2010-01-01T01:16:45Z</time>
      </trkpt>
      <trkpt lat="43.18635400" lon="-1.96563500">
        <ele>660.00000</ele>
        <time>2010-01-01T01:16:48Z</time>
      </trkpt>
      <trkpt lat="43.18642500" lon="-1.96559300">
        <ele>660.00000</ele>
        <time>2010-01-01T01:16:51Z</time>
      </trkpt>
      <trkpt lat="43.18644400" lon="-1.96558700">
        <ele>660.00000</ele>
        <time>2010-01-01T01:16:51Z</time>
      </trkpt>
      <trkpt lat="43.18656100" lon="-1.96553200">
        <ele>658.00000</ele>
        <time>2010-01-01T01:16:56Z</time>
      </trkpt>
      <trkpt lat="43.18673900" lon="-1.96537200">
        <ele>656.00000</ele>
        <time>2010-01-01T01:17:05Z</time>
      </trkpt>
      <trkpt lat="43.18689700" lon="-1.96519200">
        <ele>653.00000</ele>
        <time>2010-01-01T01:17:13Z</time>
      </trkpt>
      <trkpt lat="43.18692700" lon="-1.96516300">
        <ele>652.00000</ele>
        <time>2010-01-01T01:17:15Z</time>
      </trkpt>
      <trkpt lat="43.18696500" lon="-1.96513200">
        <ele>651.00000</ele>
        <time>2010-01-01T01:17:16Z</time>
      </trkpt>
      <trkpt lat="43.18700500" lon="-1.96509700">
        <ele>650.00000</ele>
        <time>2010-01-01T01:17:18Z</time>
      </trkpt>
      <trkpt lat="43.18704200" lon="-1.96505400">
        <ele>649.00000</ele>
        <time>2010-01-01T01:17:20Z</time>
      </trkpt>
      <trkpt lat="43.18712900" lon="-1.96489200">
        <ele>651.00000</ele>
        <time>2010-01-01T01:17:26Z</time>
      </trkpt>
      <trkpt lat="43.18715600" lon="-1.96483500">
        <ele>652.00000</ele>
        <time>2010-01-01T01:17:28Z</time>
      </trkpt>
      <trkpt lat="43.18718400" lon="-1.96478700">
        <ele>653.00000</ele>
        <time>2010-01-01T01:17:30Z</time>
      </trkpt>
      <trkpt lat="43.18721400" lon="-1.96474100">
        <ele>654.00000</ele>
        <time>2010-01-01T01:17:32Z</time>
      </trkpt>
      <trkpt lat="43.18724300" lon="-1.96468900">
        <ele>655.00000</ele>
        <time>2010-01-01T01:17:34Z</time>
      </trkpt>
      <trkpt lat="43.18737300" lon="-1.96447700">
        <ele>658.00000</ele>
        <time>2010-01-01T01:17:42Z</time>
      </trkpt>
      <trkpt lat="43.18765900" lon="-1.96410300">
        <ele>658.00000</ele>
        <time>2010-01-01T01:17:58Z</time>
      </trkpt>
      <trkpt lat="43.18768500" lon="-1.96406500">
        <ele>659.00000</ele>
        <time>2010-01-01T01:17:59Z</time>
      </trkpt>
      <trkpt lat="43.18771000" lon="-1.96402400">
        <ele>659.00000</ele>
        <time>2010-01-01T01:18:01Z</time>
      </trkpt>
      <trkpt lat="43.18773600" lon="-1.96398300">
        <ele>660.00000</ele>
        <time>2010-01-01T01:18:02Z</time>
      </trkpt>
      <trkpt lat="43.18777100" lon="-1.96394200">
        <ele>660.00000</ele>
        <time>2010-01-01T01:18:04Z</time>
      </trkpt>
      <trkpt lat="43.18780500" lon="-1.96389900">
        <ele>660.00000</ele>
        <time>2010-01-01T01:18:06Z</time>
      </trkpt>
      <trkpt lat="43.18805500" lon="-1.96354700">
        <ele>658.00000</ele>
        <time>2010-01-01T01:18:20Z</time>
      </trkpt>
      <trkpt lat="43.18812700" lon="-1.96342900">
        <ele>658.00000</ele>
        <time>2010-01-01T01:18:25Z</time>
      </trkpt>
      <trkpt lat="43.18830800" lon="-1.96298800">
        <ele>667.00000</ele>
        <time>2010-01-01T01:18:39Z</time>
      </trkpt>
      <trkpt lat="43.18847400" lon="-1.96263000">
        <ele>670.00000</ele>
        <time>2010-01-01T01:18:52Z</time>
      </trkpt>
      <trkpt lat="43.18850800" lon="-1.96259800">
        <ele>669.00000</ele>
        <time>2010-01-01T01:18:54Z</time>
      </trkpt>
      <trkpt lat="43.18872600" lon="-1.96240000">
        <ele>668.00000</ele>
        <time>2010-01-01T01:19:04Z</time>
      </trkpt>
      <trkpt lat="43.18894400" lon="-1.96227300">
        <ele>669.00000</ele>
        <time>2010-01-01T01:19:13Z</time>
      </trkpt>
      <trkpt lat="43.18907700" lon="-1.96224500">
        <ele>669.00000</ele>
        <time>2010-01-01T01:19:19Z</time>
      </trkpt>
      <trkpt lat="43.18943500" lon="-1.96215500">
        <ele>665.00000</ele>
        <time>2010-01-01T01:19:33Z</time>
      </trkpt>
      <trkpt lat="43.18973400" lon="-1.96222200">
        <ele>665.00000</ele>
        <time>2010-01-01T01:19:46Z</time>
      </trkpt>
      <trkpt lat="43.18997000" lon="-1.96229800">
        <ele>666.00000</ele>
        <time>2010-01-01T01:19:55Z</time>
      </trkpt>
      <trkpt lat="43.19024100" lon="-1.96223600">
        <ele>668.00000</ele>
        <time>2010-01-01T01:20:06Z</time>
      </trkpt>
      <trkpt lat="43.19027000" lon="-1.96222500">
        <ele>668.00000</ele>
        <time>2010-01-01T01:20:07Z</time>
      </trkpt>
      <trkpt lat="43.19030100" lon="-1.96221300">
        <ele>669.00000</ele>
        <time>2010-01-01T01:20:09Z</time>
      </trkpt>
      <trkpt lat="43.19033400" lon="-1.96219900">
        <ele>670.00000</ele>
        <time>2010-01-01T01:20:10Z</time>
      </trkpt>
      <trkpt lat="43.19036300" lon="-1.96218300">
        <ele>670.00000</ele>
        <time>2010-01-01T01:20:11Z</time>
      </trkpt>
      <trkpt lat="43.19039600" lon="-1.96216600">
        <ele>671.00000</ele>
        <time>2010-01-01T01:20:13Z</time>
      </trkpt>
      <trkpt lat="43.19043700" lon="-1.96215300">
        <ele>672.00000</ele>
        <time>2010-01-01T01:20:14Z</time>
      </trkpt>
      <trkpt lat="43.19048300" lon="-1.96214600">
        <ele>672.00000</ele>
        <time>2010-01-01T01:20:16Z</time>
      </trkpt>
      <trkpt lat="43.19052500" lon="-1.96214500">
        <ele>672.00000</ele>
        <time>2010-01-01T01:20:18Z</time>
      </trkpt>
      <trkpt lat="43.19067200" lon="-1.96215700">
        <ele>674.00000</ele>
        <time>2010-01-01T01:20:24Z</time>
      </trkpt>
      <trkpt lat="43.19070500" lon="-1.96216800">
        <ele>674.00000</ele>
        <time>2010-01-01T01:20:25Z</time>
      </trkpt>
      <trkpt lat="43.19073400" lon="-1.96217500">
        <ele>674.00000</ele>
        <time>2010-01-01T01:20:26Z</time>
      </trkpt>
      <trkpt lat="43.19076100" lon="-1.96218000">
        <ele>674.00000</ele>
        <time>2010-01-01T01:20:28Z</time>
      </trkpt>
      <trkpt lat="43.19078500" lon="-1.96218700">
        <ele>675.00000</ele>
        <time>2010-01-01T01:20:29Z</time>
      </trkpt>
      <trkpt lat="43.19080700" lon="-1.96219700">
        <ele>675.00000</ele>
        <time>2010-01-01T01:20:29Z</time>
      </trkpt>
      <trkpt lat="43.19082900" lon="-1.96221600">
        <ele>675.00000</ele>
        <time>2010-01-01T01:20:30Z</time>
      </trkpt>
      <trkpt lat="43.19093500" lon="-1.96248100">
        <ele>671.00000</ele>
        <time>2010-01-01T01:20:39Z</time>
      </trkpt>
      <trkpt lat="43.19112400" lon="-1.96277000">
        <ele>670.00000</ele>
        <time>2010-01-01T01:20:51Z</time>
      </trkpt>
      <trkpt lat="43.19131400" lon="-1.96307200">
        <ele>674.00000</ele>
        <time>2010-01-01T01:21:02Z</time>
      </trkpt>
      <trkpt lat="43.19151300" lon="-1.96343900">
        <ele>676.00000</ele>
        <time>2010-01-01T01:21:16Z</time>
      </trkpt>
      <trkpt lat="43.19178900" lon="-1.96391300">
        <ele>676.00000</ele>
        <time>2010-01-01T01:21:33Z</time>
      </trkpt>
      <trkpt lat="43.19181700" lon="-1.96395100">
        <ele>676.00000</ele>
        <time>2010-01-01T01:21:35Z</time>
      </trkpt>
      <trkpt lat="43.19196000" lon="-1.96413100">
        <ele>677.00000</ele>
        <time>2010-01-01T01:21:43Z</time>
      </trkpt>
      <trkpt lat="43.19214800" lon="-1.96450000">
        <ele>675.00000</ele>
        <time>2010-01-01T01:21:56Z</time>
      </trkpt>
      <trkpt lat="43.19215900" lon="-1.96452800">
        <ele>675.00000</ele>
        <time>2010-01-01T01:21:57Z</time>
      </trkpt>
      <trkpt lat="43.19218300" lon="-1.96457000">
        <ele>675.00000</ele>
        <time>2010-01-01T01:21:58Z</time>
      </trkpt>
      <trkpt lat="43.19254900" lon="-1.96462800">
        <ele>680.00000</ele>
        <time>2010-01-01T01:22:13Z</time>
      </trkpt>
      <trkpt lat="43.19259500" lon="-1.96462300">
        <ele>680.00000</ele>
        <time>2010-01-01T01:22:15Z</time>
      </trkpt>
      <trkpt lat="43.19273200" lon="-1.96461000">
        <ele>681.00000</ele>
        <time>2010-01-01T01:22:20Z</time>
      </trkpt>
      <trkpt lat="43.19277600" lon="-1.96461500">
        <ele>681.00000</ele>
        <time>2010-01-01T01:22:22Z</time>
      </trkpt>
      <trkpt lat="43.19281900" lon="-1.96464200">
        <ele>681.00000</ele>
        <time>2010-01-01T01:22:24Z</time>
      </trkpt>
      <trkpt lat="43.19290700" lon="-1.96474900">
        <ele>682.00000</ele>
        <time>2010-01-01T01:22:29Z</time>
      </trkpt>
      <trkpt lat="43.19295300" lon="-1.96482800">
        <ele>682.00000</ele>
        <time>2010-01-01T01:22:32Z</time>
      </trkpt>
      <trkpt lat="43.19299200" lon="-1.96492000">
        <ele>682.00000</ele>
        <time>2010-01-01T01:22:35Z</time>
      </trkpt>
      <trkpt lat="43.19304700" lon="-1.96510000">
        <ele>682.00000</ele>
        <time>2010-01-01T01:22:41Z</time>
      </trkpt>
      <trkpt lat="43.19312900" lon="-1.96548000">
        <ele>686.00000</ele>
        <time>2010-01-01T01:22:52Z</time>
      </trkpt>
      <trkpt lat="43.19319200" lon="-1.96571100">
        <ele>689.00000</ele>
        <time>2010-01-01T01:22:59Z</time>
      </trkpt>
      <trkpt lat="43.19326300" lon="-1.96599400">
        <ele>691.00000</ele>
        <time>2010-01-01T01:23:08Z</time>
      </trkpt>
      <trkpt lat="43.19331900" lon="-1.96615100">
        <ele>692.00000</ele>
        <time>2010-01-01T01:23:13Z</time>
      </trkpt>
      <trkpt lat="43.19342900" lon="-1.96638200">
        <ele>692.00000</ele>
        <time>2010-01-01T01:23:21Z</time>
      </trkpt>
      <trkpt lat="43.19358600" lon="-1.96671600">
        <ele>695.00000</ele>
        <time>2010-01-01T01:23:33Z</time>
      </trkpt>
      <trkpt lat="43.19369500" lon="-1.96696200">
        <ele>701.00000</ele>
        <time>2010-01-01T01:23:41Z</time>
      </trkpt>
      <trkpt lat="43.19379800" lon="-1.96725200">
        <ele>706.00000</ele>
        <time>2010-01-01T01:23:51Z</time>
      </trkpt>
      <trkpt lat="43.19383100" lon="-1.96734000">
        <ele>709.00000</ele>
        <time>2010-01-01T01:23:53Z</time>
      </trkpt>
      <trkpt lat="43.19385700" lon="-1.96742700">
        <ele>711.00000</ele>
        <time>2010-01-01T01:23:56Z</time>
      </trkpt>
      <trkpt lat="43.19387500" lon="-1.96752100">
        <ele>713.00000</ele>
        <time>2010-01-01T01:23:59Z</time>
      </trkpt>
      <trkpt lat="43.19388400" lon="-1.96761400">
        <ele>714.00000</ele>
        <time>2010-01-01T01:24:02Z</time>
      </trkpt>
      <trkpt lat="43.19385900" lon="-1.96786700">
        <ele>712.00000</ele>
        <time>2010-01-01T01:24:09Z</time>
      </trkpt>
      <trkpt lat="43.19384900" lon="-1.96793700">
        <ele>710.00000</ele>
        <time>2010-01-01T01:24:11Z</time>
      </trkpt>
      <trkpt lat="43.19386400" lon="-1.96811300">
        <ele>709.00000</ele>
        <time>2010-01-01T01:24:16Z</time>
      </trkpt>
      <trkpt lat="43.19387600" lon="-1.96814500">
        <ele>710.00000</ele>
        <time>2010-01-01T01:24:18Z</time>
      </trkpt>
      <trkpt lat="43.19389200" lon="-1.96817600">
        <ele>710.00000</ele>
        <time>2010-01-01T01:24:19Z</time>
      </trkpt>
      <trkpt lat="43.19391100" lon="-1.96820500">
        <ele>710.00000</ele>
        <time>2010-01-01T01:24:20Z</time>
      </trkpt>
      <trkpt lat="43.19393200" lon="-1.96823300">
        <ele>711.00000</ele>
        <time>2010-01-01T01:24:21Z</time>
      </trkpt>
      <trkpt lat="43.19395500" lon="-1.96825300">
        <ele>711.00000</ele>
        <time>2010-01-01T01:24:22Z</time>
      </trkpt>
      <trkpt lat="43.19397600" lon="-1.96826200">
        <ele>712.00000</ele>
        <time>2010-01-01T01:24:23Z</time>
      </trkpt>
      <trkpt lat="43.19399700" lon="-1.96826900">
        <ele>713.00000</ele>
        <time>2010-01-01T01:24:24Z</time>
      </trkpt>
      <trkpt lat="43.19412500" lon="-1.96837600">
        <ele>716.00000</ele>
        <time>2010-01-01T01:24:30Z</time>
      </trkpt>
      <trkpt lat="43.19445700" lon="-1.96858500">
        <ele>719.00000</ele>
        <time>2010-01-01T01:24:44Z</time>
      </trkpt>
      <trkpt lat="43.19453500" lon="-1.96862600">
        <ele>719.00000</ele>
        <time>2010-01-01T01:24:48Z</time>
      </trkpt>
      <trkpt lat="43.19478900" lon="-1.96882900">
        <ele>717.00000</ele>
        <time>2010-01-01T01:25:00Z</time>
      </trkpt>
      <trkpt lat="43.19491100" lon="-1.96897600">
        <ele>717.00000</ele>
        <time>2010-01-01T01:25:06Z</time>
      </trkpt>
      <trkpt lat="43.19495200" lon="-1.96904000">
        <ele>717.00000</ele>
        <time>2010-01-01T01:25:09Z</time>
      </trkpt>
      <trkpt lat="43.19504700" lon="-1.96917500">
        <ele>716.00000</ele>
        <time>2010-01-01T01:25:14Z</time>
      </trkpt>
      <trkpt lat="43.19506400" lon="-1.96920000">
        <ele>716.00000</ele>
        <time>2010-01-01T01:25:15Z</time>
      </trkpt>
      <trkpt lat="43.19512300" lon="-1.96925700">
        <ele>716.00000</ele>
        <time>2010-01-01T01:25:18Z</time>
      </trkpt>
      <trkpt lat="43.19526000" lon="-1.96950900">
        <ele>713.00000</ele>
        <time>2010-01-01T01:25:27Z</time>
      </trkpt>
      <trkpt lat="43.19532600" lon="-1.96971200">
        <ele>711.00000</ele>
        <time>2010-01-01T01:25:34Z</time>
      </trkpt>
      <trkpt lat="43.19537600" lon="-1.96990100">
        <ele>709.00000</ele>
        <time>2010-01-01T01:25:39Z</time>
      </trkpt>
      <trkpt lat="43.19542400" lon="-1.97000100">
        <ele>709.00000</ele>
        <time>2010-01-01T01:25:43Z</time>
      </trkpt>
      <trkpt lat="43.19543100" lon="-1.97001300">
        <ele>709.00000</ele>
        <time>2010-01-01T01:25:43Z</time>
      </trkpt>
      <trkpt lat="43.19551900" lon="-1.97024300">
        <ele>706.00000</ele>
        <time>2010-01-01T01:25:51Z</time>
      </trkpt>
      <trkpt lat="43.19559300" lon="-1.97033000">
        <ele>705.00000</ele>
        <time>2010-01-01T01:25:55Z</time>
      </trkpt>
      <trkpt lat="43.19571300" lon="-1.97043400">
        <ele>703.00000</ele>
        <time>2010-01-01T01:26:01Z</time>
      </trkpt>
      <trkpt lat="43.19582400" lon="-1.97048500">
        <ele>703.00000</ele>
        <time>2010-01-01T01:26:05Z</time>
      </trkpt>
      <trkpt lat="43.19588200" lon="-1.97043700">
        <ele>705.00000</ele>
        <time>2010-01-01T01:26:08Z</time>
      </trkpt>
      <trkpt lat="43.19598600" lon="-1.97040400">
        <ele>708.00000</ele>
        <time>2010-01-01T01:26:12Z</time>
      </trkpt>
      <trkpt lat="43.19607100" lon="-1.97063700">
        <ele>704.00000</ele>
        <time>2010-01-01T01:26:20Z</time>
      </trkpt>
      <trkpt lat="43.19614600" lon="-1.97099100">
        <ele>698.00000</ele>
        <time>2010-01-01T01:26:31Z</time>
      </trkpt>
      <trkpt lat="43.19617900" lon="-1.97111900">
        <ele>696.00000</ele>
        <time>2010-01-01T01:26:35Z</time>
      </trkpt>
      <trkpt lat="43.19609700" lon="-1.97160000">
        <ele>693.00000</ele>
        <time>2010-01-01T01:26:49Z</time>
      </trkpt>
      <trkpt lat="43.19607800" lon="-1.97163700">
        <ele>693.00000</ele>
        <time>2010-01-01T01:26:50Z</time>
      </trkpt>
      <trkpt lat="43.19602100" lon="-1.97182600">
        <ele>692.00000</ele>
        <time>2010-01-01T01:26:56Z</time>
      </trkpt>
      <trkpt lat="43.19610600" lon="-1.97218900">
        <ele>693.00000</ele>
        <time>2010-01-01T01:27:07Z</time>
      </trkpt>
      <trkpt lat="43.19618300" lon="-1.97245100">
        <ele>693.00000</ele>
        <time>2010-01-01T01:27:16Z</time>
      </trkpt>
      <trkpt lat="43.19619600" lon="-1.97250200">
        <ele>693.00000</ele>
        <time>2010-01-01T01:27:17Z</time>
      </trkpt>
      <trkpt lat="43.19619000" lon="-1.97274500">
        <ele>693.00000</ele>
        <time>2010-01-01T01:27:24Z</time>
      </trkpt>
      <trkpt lat="43.19616800" lon="-1.97293200">
        <ele>691.00000</ele>
        <time>2010-01-01T01:27:30Z</time>
      </trkpt>
      <trkpt lat="43.19615600" lon="-1.97295200">
        <ele>691.00000</ele>
        <time>2010-01-01T01:27:31Z</time>
      </trkpt>
      <trkpt lat="43.19608500" lon="-1.97333000">
        <ele>686.00000</ele>
        <time>2010-01-01T01:27:42Z</time>
      </trkpt>
      <trkpt lat="43.19608200" lon="-1.97348700">
        <ele>684.00000</ele>
        <time>2010-01-01T01:27:47Z</time>
      </trkpt>
      <trkpt lat="43.19605100" lon="-1.97360200">
        <ele>683.00000</ele>
        <time>2010-01-01T01:27:50Z</time>
      </trkpt>
      <trkpt lat="43.19605800" lon="-1.97367100">
        <ele>682.00000</ele>
        <time>2010-01-01T01:27:52Z</time>
      </trkpt>
      <trkpt lat="43.19616300" lon="-1.97375300">
        <ele>682.00000</ele>
        <time>2010-01-01T01:27:57Z</time>
      </trkpt>
      <trkpt lat="43.19627400" lon="-1.97378000">
        <ele>682.00000</ele>
        <time>2010-01-01T01:28:01Z</time>
      </trkpt>
      <trkpt lat="43.19636500" lon="-1.97377900">
        <ele>683.00000</ele>
        <time>2010-01-01T01:28:05Z</time>
      </trkpt>
      <trkpt lat="43.19648600" lon="-1.97379200">
        <ele>682.00000</ele>
        <time>2010-01-01T01:28:10Z</time>
      </trkpt>
      <trkpt lat="43.19662200" lon="-1.97380100">
        <ele>681.00000</ele>
        <time>2010-01-01T01:28:15Z</time>
      </trkpt>
      <trkpt lat="43.19695500" lon="-1.97380400">
        <ele>674.00000</ele>
        <time>2010-01-01T01:28:29Z</time>
      </trkpt>
      <trkpt lat="43.19708400" lon="-1.97381500">
        <ele>672.00000</ele>
        <time>2010-01-01T01:28:34Z</time>
      </trkpt>
      <trkpt lat="43.19730800" lon="-1.97381500">
        <ele>669.00000</ele>
        <time>2010-01-01T01:28:43Z</time>
      </trkpt>
      <trkpt lat="43.19754000" lon="-1.97382500">
        <ele>670.00000</ele>
        <time>2010-01-01T01:28:52Z</time>
      </trkpt>
      <trkpt lat="43.19762300" lon="-1.97384300">
        <ele>670.00000</ele>
        <time>2010-01-01T01:28:56Z</time>
      </trkpt>
      <trkpt lat="43.19767200" lon="-1.97384800">
        <ele>670.00000</ele>
        <time>2010-01-01T01:28:58Z</time>
      </trkpt>
      <trkpt lat="43.19789500" lon="-1.97383400">
        <ele>672.00000</ele>
        <time>2010-01-01T01:29:06Z</time>
      </trkpt>
      <trkpt lat="43.19804200" lon="-1.97380400">
        <ele>673.00000</ele>
        <time>2010-01-01T01:29:12Z</time>
      </trkpt>
      <trkpt lat="43.19812000" lon="-1.97378600">
        <ele>673.00000</ele>
        <time>2010-01-01T01:29:16Z</time>
      </trkpt>
      <trkpt lat="43.19821300" lon="-1.97377900">
        <ele>673.00000</ele>
        <time>2010-01-01T01:29:19Z</time>
      </trkpt>
      <trkpt lat="43.19824500" lon="-1.97377600">
        <ele>673.00000</ele>
        <time>2010-01-01T01:29:21Z</time>
      </trkpt>
      <trkpt lat="43.19844300" lon="-1.97368300">
        <ele>672.00000</ele>
        <time>2010-01-01T01:29:29Z</time>
      </trkpt>
      <trkpt lat="43.19852200" lon="-1.97368200">
        <ele>670.00000</ele>
        <time>2010-01-01T01:29:32Z</time>
      </trkpt>
      <trkpt lat="43.19855400" lon="-1.97367500">
        <ele>669.00000</ele>
        <time>2010-01-01T01:29:33Z</time>
      </trkpt>
      <trkpt lat="43.19866300" lon="-1.97365000">
        <ele>667.00000</ele>
        <time>2010-01-01T01:29:38Z</time>
      </trkpt>
      <trkpt lat="43.19881700" lon="-1.97357400">
        <ele>664.00000</ele>
        <time>2010-01-01T01:29:44Z</time>
      </trkpt>
      <trkpt lat="43.19892500" lon="-1.97354300">
        <ele>662.00000</ele>
        <time>2010-01-01T01:29:49Z</time>
      </trkpt>
      <trkpt lat="43.19896300" lon="-1.97350300">
        <ele>661.00000</ele>
        <time>2010-01-01T01:29:51Z</time>
      </trkpt>
      <trkpt lat="43.19907700" lon="-1.97345400">
        <ele>659.00000</ele>
        <time>2010-01-01T01:29:56Z</time>
      </trkpt>
      <trkpt lat="43.19918400" lon="-1.97336500">
        <ele>658.00000</ele>
        <time>2010-01-01T01:30:01Z</time>
      </trkpt>
      <trkpt lat="43.19931500" lon="-1.97325200">
        <ele>657.00000</ele>
        <time>2010-01-01T01:30:07Z</time>
      </trkpt>
      <trkpt lat="43.19944100" lon="-1.97299700">
        <ele>656.00000</ele>
        <time>2010-01-01T01:30:16Z</time>
      </trkpt>
      <trkpt lat="43.19944400" lon="-1.97297700">
        <ele>656.00000</ele>
        <time>2010-01-01T01:30:16Z</time>
      </trkpt>
      <trkpt lat="43.19952900" lon="-1.97301200">
        <ele>653.00000</ele>
        <time>2010-01-01T01:30:20Z</time>
      </trkpt>
      <trkpt lat="43.19953000" lon="-1.97306300">
        <ele>653.00000</ele>
        <time>2010-01-01T01:30:21Z</time>
      </trkpt>
      <trkpt lat="43.19951800" lon="-1.97334300">
        <ele>653.00000</ele>
        <time>2010-01-01T01:30:30Z</time>
      </trkpt>
      <trkpt lat="43.19948300" lon="-1.97361500">
        <ele>650.00000</ele>
        <time>2010-01-01T01:30:38Z</time>
      </trkpt>
      <trkpt lat="43.19948800" lon="-1.97385900">
        <ele>648.00000</ele>
        <time>2010-01-01T01:30:45Z</time>
      </trkpt>
      <trkpt lat="43.19947100" lon="-1.97392300">
        <ele>648.00000</ele>
        <time>2010-01-01T01:30:47Z</time>
      </trkpt>
      <trkpt lat="43.19946200" lon="-1.97400400">
        <ele>647.00000</ele>
        <time>2010-01-01T01:30:49Z</time>
      </trkpt>
      <trkpt lat="43.19945800" lon="-1.97405600">
        <ele>647.00000</ele>
        <time>2010-01-01T01:30:51Z</time>
      </trkpt>
      <trkpt lat="43.19945200" lon="-1.97412900">
        <ele>647.00000</ele>
        <time>2010-01-01T01:30:53Z</time>
      </trkpt>
      <trkpt lat="43.19944300" lon="-1.97422100">
        <ele>646.00000</ele>
        <time>2010-01-01T01:30:55Z</time>
      </trkpt>
      <trkpt lat="43.19940300" lon="-1.97437500">
        <ele>644.00000</ele>
        <time>2010-01-01T01:31:00Z</time>
      </trkpt>
      <trkpt lat="43.19937800" lon="-1.97442000">
        <ele>644.00000</ele>
        <time>2010-01-01T01:31:02Z</time>
      </trkpt>
      <trkpt lat="43.19932900" lon="-1.97451300">
        <ele>643.00000</ele>
        <time>2010-01-01T01:31:05Z</time>
      </trkpt>
      <trkpt lat="43.19926100" lon="-1.97459600">
        <ele>644.00000</ele>
        <time>2010-01-01T01:31:09Z</time>
      </trkpt>
      <trkpt lat="43.19918000" lon="-1.97471900">
        <ele>643.00000</ele>
        <time>2010-01-01T01:31:14Z</time>
      </trkpt>
      <trkpt lat="43.19900000" lon="-1.97494400">
        <ele>644.00000</ele>
        <time>2010-01-01T01:31:23Z</time>
      </trkpt>
      <trkpt lat="43.19890300" lon="-1.97504200">
        <ele>645.00000</ele>
        <time>2010-01-01T01:31:28Z</time>
      </trkpt>
      <trkpt lat="43.19870800" lon="-1.97532700">
        <ele>642.00000</ele>
        <time>2010-01-01T01:31:40Z</time>
      </trkpt>
      <trkpt lat="43.19864600" lon="-1.97544400">
        <ele>641.00000</ele>
        <time>2010-01-01T01:31:44Z</time>
      </trkpt>
      <trkpt lat="43.19850800" lon="-1.97568000">
        <ele>639.00000</ele>
        <time>2010-01-01T01:31:53Z</time>
      </trkpt>
      <trkpt lat="43.19838400" lon="-1.97591900">
        <ele>638.00000</ele>
        <time>2010-01-01T01:32:01Z</time>
      </trkpt>
      <trkpt lat="43.19826900" lon="-1.97619600">
        <ele>634.00000</ele>
        <time>2010-01-01T01:32:11Z</time>
      </trkpt>
      <trkpt lat="43.19815800" lon="-1.97649000">
        <ele>630.00000</ele>
        <time>2010-01-01T01:32:20Z</time>
      </trkpt>
      <trkpt lat="43.19804800" lon="-1.97674800">
        <ele>627.00000</ele>
        <time>2010-01-01T01:32:29Z</time>
      </trkpt>
      <trkpt lat="43.19792300" lon="-1.97701500">
        <ele>624.00000</ele>
        <time>2010-01-01T01:32:38Z</time>
      </trkpt>
      <trkpt lat="43.19789700" lon="-1.97710800">
        <ele>624.00000</ele>
        <time>2010-01-01T01:32:41Z</time>
      </trkpt>
      <trkpt lat="43.19788800" lon="-1.97746000">
        <ele>622.00000</ele>
        <time>2010-01-01T01:32:51Z</time>
      </trkpt>
      <trkpt lat="43.19793100" lon="-1.97782200">
        <ele>620.00000</ele>
        <time>2010-01-01T01:33:02Z</time>
      </trkpt>
      <trkpt lat="43.19794100" lon="-1.97789600">
        <ele>620.00000</ele>
        <time>2010-01-01T01:33:04Z</time>
      </trkpt>
      <trkpt lat="43.19796100" lon="-1.97820400">
        <ele>617.00000</ele>
        <time>2010-01-01T01:33:13Z</time>
      </trkpt>
      <trkpt lat="43.19798500" lon="-1.97839200">
        <ele>616.00000</ele>
        <time>2010-01-01T01:33:19Z</time>
      </trkpt>
      <trkpt lat="43.19799600" lon="-1.97848900">
        <ele>616.00000</ele>
        <time>2010-01-01T01:33:22Z</time>
      </trkpt>
      <trkpt lat="43.19800300" lon="-1.97863100">
        <ele>615.00000</ele>
        <time>2010-01-01T01:33:26Z</time>
      </trkpt>
      <trkpt lat="43.19796900" lon="-1.97875800">
        <ele>614.00000</ele>
        <time>2010-01-01T01:33:30Z</time>
      </trkpt>
      <trkpt lat="43.19772500" lon="-1.97897800">
        <ele>610.00000</ele>
        <time>2010-01-01T01:33:42Z</time>
      </trkpt>
      <trkpt lat="43.19770100" lon="-1.97900400">
        <ele>609.00000</ele>
        <time>2010-01-01T01:33:43Z</time>
      </trkpt>
      <trkpt lat="43.19753900" lon="-1.97915600">
        <ele>606.00000</ele>
        <time>2010-01-01T01:33:51Z</time>
      </trkpt>
      <trkpt lat="43.19738600" lon="-1.97924400">
        <ele>604.00000</ele>
        <time>2010-01-01T01:33:57Z</time>
      </trkpt>
      <trkpt lat="43.19716900" lon="-1.97930000">
        <ele>602.00000</ele>
        <time>2010-01-01T01:34:06Z</time>
      </trkpt>
      <trkpt lat="43.19696500" lon="-1.97931900">
        <ele>600.00000</ele>
        <time>2010-01-01T01:34:14Z</time>
      </trkpt>
      <trkpt lat="43.19688000" lon="-1.97933800">
        <ele>599.00000</ele>
        <time>2010-01-01T01:34:18Z</time>
      </trkpt>
      <trkpt lat="43.19670400" lon="-1.97931100">
        <ele>597.00000</ele>
        <time>2010-01-01T01:34:25Z</time>
      </trkpt>
      <trkpt lat="43.19653500" lon="-1.97925800">
        <ele>596.00000</ele>
        <time>2010-01-01T01:34:32Z</time>
      </trkpt>
      <trkpt lat="43.19636600" lon="-1.97922700">
        <ele>594.00000</ele>
        <time>2010-01-01T01:34:39Z</time>
      </trkpt>
      <trkpt lat="43.19632800" lon="-1.97923800">
        <ele>593.00000</ele>
        <time>2010-01-01T01:34:40Z</time>
      </trkpt>
      <trkpt lat="43.19628000" lon="-1.97919900">
        <ele>593.00000</ele>
        <time>2010-01-01T01:34:42Z</time>
      </trkpt>
      <trkpt lat="43.19616700" lon="-1.97908800">
        <ele>592.00000</ele>
        <time>2010-01-01T01:34:48Z</time>
      </trkpt>
      <trkpt lat="43.19601700" lon="-1.97882700">
        <ele>591.00000</ele>
        <time>2010-01-01T01:34:58Z</time>
      </trkpt>
      <trkpt lat="43.19599200" lon="-1.97862600">
        <ele>590.00000</ele>
        <time>2010-01-01T01:35:04Z</time>
      </trkpt>
      <trkpt lat="43.19598500" lon="-1.97855200">
        <ele>590.00000</ele>
        <time>2010-01-01T01:35:06Z</time>
      </trkpt>
      <trkpt lat="43.19598400" lon="-1.97845500">
        <ele>590.00000</ele>
        <time>2010-01-01T01:35:09Z</time>
      </trkpt>
      <trkpt lat="43.19594900" lon="-1.97825000">
        <ele>588.00000</ele>
        <time>2010-01-01T01:35:15Z</time>
      </trkpt>
      <trkpt lat="43.19594700" lon="-1.97820300">
        <ele>588.00000</ele>
        <time>2010-01-01T01:35:16Z</time>
      </trkpt>
      <trkpt lat="43.19588100" lon="-1.97802200">
        <ele>585.00000</ele>
        <time>2010-01-01T01:35:22Z</time>
      </trkpt>
      <trkpt lat="43.19584400" lon="-1.97804000">
        <ele>583.00000</ele>
        <time>2010-01-01T01:35:24Z</time>
      </trkpt>
      <trkpt lat="43.19578400" lon="-1.97829800">
        <ele>583.00000</ele>
        <time>2010-01-01T01:35:32Z</time>
      </trkpt>
      <trkpt lat="43.19576300" lon="-1.97857800">
        <ele>583.00000</ele>
        <time>2010-01-01T01:35:40Z</time>
      </trkpt>
      <trkpt lat="43.19576100" lon="-1.97863700">
        <ele>584.00000</ele>
        <time>2010-01-01T01:35:41Z</time>
      </trkpt>
      <trkpt lat="43.19575200" lon="-1.97866200">
        <ele>583.00000</ele>
        <time>2010-01-01T01:35:42Z</time>
      </trkpt>
      <trkpt lat="43.19571300" lon="-1.97895000">
        <ele>582.00000</ele>
        <time>2010-01-01T01:35:51Z</time>
      </trkpt>
      <trkpt lat="43.19569400" lon="-1.97907300">
        <ele>581.00000</ele>
        <time>2010-01-01T01:35:55Z</time>
      </trkpt>
      <trkpt lat="43.19569900" lon="-1.97914400">
        <ele>581.00000</ele>
        <time>2010-01-01T01:35:57Z</time>
      </trkpt>
      <trkpt lat="43.19571200" lon="-1.97945200">
        <ele>579.00000</ele>
        <time>2010-01-01T01:36:06Z</time>
      </trkpt>
      <trkpt lat="43.19572400" lon="-1.97954100">
        <ele>579.00000</ele>
        <time>2010-01-01T01:36:08Z</time>
      </trkpt>
      <trkpt lat="43.19576700" lon="-1.97973200">
        <ele>578.00000</ele>
        <time>2010-01-01T01:36:14Z</time>
      </trkpt>
      <trkpt lat="43.19578500" lon="-1.97977600">
        <ele>578.00000</ele>
        <time>2010-01-01T01:36:16Z</time>
      </trkpt>
      <trkpt lat="43.19582100" lon="-1.97982800">
        <ele>578.00000</ele>
        <time>2010-01-01T01:36:18Z</time>
      </trkpt>
      <trkpt lat="43.19588500" lon="-1.97995700">
        <ele>577.00000</ele>
        <time>2010-01-01T01:36:22Z</time>
      </trkpt>
      <trkpt lat="43.19589000" lon="-1.98002600">
        <ele>576.00000</ele>
        <time>2010-01-01T01:36:24Z</time>
      </trkpt>
      <trkpt lat="43.19585300" lon="-1.98025500">
        <ele>571.00000</ele>
        <time>2010-01-01T01:36:31Z</time>
      </trkpt>
      <trkpt lat="43.19587500" lon="-1.98049200">
        <ele>569.00000</ele>
        <time>2010-01-01T01:36:38Z</time>
      </trkpt>
      <trkpt lat="43.19583700" lon="-1.98075900">
        <ele>566.00000</ele>
        <time>2010-01-01T01:36:46Z</time>
      </trkpt>
      <trkpt lat="43.19582700" lon="-1.98090900">
        <ele>565.00000</ele>
        <time>2010-01-01T01:36:50Z</time>
      </trkpt>
      <trkpt lat="43.19582600" lon="-1.98096700">
        <ele>564.00000</ele>
        <time>2010-01-01T01:36:52Z</time>
      </trkpt>
      <trkpt lat="43.19579300" lon="-1.98126300">
        <ele>561.00000</ele>
        <time>2010-01-01T01:37:01Z</time>
      </trkpt>
      <trkpt lat="43.19579400" lon="-1.98130700">
        <ele>561.00000</ele>
        <time>2010-01-01T01:37:02Z</time>
      </trkpt>
      <trkpt lat="43.19578700" lon="-1.98138800">
        <ele>560.00000</ele>
        <time>2010-01-01T01:37:04Z</time>
      </trkpt>
      <trkpt lat="43.19575600" lon="-1.98161900">
        <ele>558.00000</ele>
        <time>2010-01-01T01:37:11Z</time>
      </trkpt>
      <trkpt lat="43.19574400" lon="-1.98176600">
        <ele>558.00000</ele>
        <time>2010-01-01T01:37:16Z</time>
      </trkpt>
      <trkpt lat="43.19569800" lon="-1.98193500">
        <ele>557.00000</ele>
        <time>2010-01-01T01:37:21Z</time>
      </trkpt>
      <trkpt lat="43.19566400" lon="-1.98200800">
        <ele>556.00000</ele>
        <time>2010-01-01T01:37:23Z</time>
      </trkpt>
      <trkpt lat="43.19554700" lon="-1.98230700">
        <ele>553.00000</ele>
        <time>2010-01-01T01:37:33Z</time>
      </trkpt>
      <trkpt lat="43.19539900" lon="-1.98259900">
        <ele>551.00000</ele>
        <time>2010-01-01T01:37:44Z</time>
      </trkpt>
      <trkpt lat="43.19536700" lon="-1.98272600">
        <ele>550.00000</ele>
        <time>2010-01-01T01:37:48Z</time>
      </trkpt>
      <trkpt lat="43.19531700" lon="-1.98303700">
        <ele>547.00000</ele>
        <time>2010-01-01T01:37:57Z</time>
      </trkpt>
      <trkpt lat="43.19527300" lon="-1.98322600">
        <ele>541.00000</ele>
        <time>2010-01-01T01:38:03Z</time>
      </trkpt>
      <trkpt lat="43.19526500" lon="-1.98332300">
        <ele>539.00000</ele>
        <time>2010-01-01T01:38:06Z</time>
      </trkpt>
      <trkpt lat="43.19524000" lon="-1.98338600">
        <ele>538.00000</ele>
        <time>2010-01-01T01:38:08Z</time>
      </trkpt>
      <trkpt lat="43.19521100" lon="-1.98354000">
        <ele>536.00000</ele>
        <time>2010-01-01T01:38:12Z</time>
      </trkpt>
      <trkpt lat="43.19518700" lon="-1.98374500">
        <ele>533.00000</ele>
        <time>2010-01-01T01:38:18Z</time>
      </trkpt>
      <trkpt lat="43.19519800" lon="-1.98399900">
        <ele>530.00000</ele>
        <time>2010-01-01T01:38:26Z</time>
      </trkpt>
      <trkpt lat="43.19523500" lon="-1.98407200">
        <ele>531.00000</ele>
        <time>2010-01-01T01:38:28Z</time>
      </trkpt>
      <trkpt lat="43.19528500" lon="-1.98419100">
        <ele>531.00000</ele>
        <time>2010-01-01T01:38:32Z</time>
      </trkpt>
      <trkpt lat="43.19530600" lon="-1.98421400">
        <ele>532.00000</ele>
        <time>2010-01-01T01:38:33Z</time>
      </trkpt>
      <trkpt lat="43.19540900" lon="-1.98443000">
        <ele>531.00000</ele>
        <time>2010-01-01T01:38:41Z</time>
      </trkpt>
      <trkpt lat="43.19558600" lon="-1.98467900">
        <ele>537.00000</ele>
        <time>2010-01-01T01:38:51Z</time>
      </trkpt>
      <trkpt lat="43.19560000" lon="-1.98477200">
        <ele>538.00000</ele>
        <time>2010-01-01T01:38:54Z</time>
      </trkpt>
      <trkpt lat="43.19556800" lon="-1.98482000">
        <ele>538.00000</ele>
        <time>2010-01-01T01:38:56Z</time>
      </trkpt>
      <trkpt lat="43.19543900" lon="-1.98490000">
        <ele>536.00000</ele>
        <time>2010-01-01T01:39:01Z</time>
      </trkpt>
      <trkpt lat="43.19541000" lon="-1.98490700">
        <ele>535.00000</ele>
        <time>2010-01-01T01:39:03Z</time>
      </trkpt>
      <trkpt lat="43.19513500" lon="-1.98505000">
        <ele>528.00000</ele>
        <time>2010-01-01T01:39:14Z</time>
      </trkpt>
      <trkpt lat="43.19487000" lon="-1.98519200">
        <ele>523.00000</ele>
        <time>2010-01-01T01:39:26Z</time>
      </trkpt>
      <trkpt lat="43.19469400" lon="-1.98536300">
        <ele>522.00000</ele>
        <time>2010-01-01T01:39:34Z</time>
      </trkpt>
      <trkpt lat="43.19453700" lon="-1.98562800">
        <ele>520.00000</ele>
        <time>2010-01-01T01:39:44Z</time>
      </trkpt>
      <trkpt lat="43.19448200" lon="-1.98575400">
        <ele>518.00000</ele>
        <time>2010-01-01T01:39:49Z</time>
      </trkpt>
      <trkpt lat="43.19439600" lon="-1.98595500">
        <ele>516.00000</ele>
        <time>2010-01-01T01:39:56Z</time>
      </trkpt>
      <trkpt lat="43.19433100" lon="-1.98627600">
        <ele>517.00000</ele>
        <time>2010-01-01T01:40:05Z</time>
      </trkpt>
      <trkpt lat="43.19432100" lon="-1.98629800">
        <ele>517.00000</ele>
        <time>2010-01-01T01:40:06Z</time>
      </trkpt>
      <trkpt lat="43.19425100" lon="-1.98661200">
        <ele>516.00000</ele>
        <time>2010-01-01T01:40:16Z</time>
      </trkpt>
      <trkpt lat="43.19421800" lon="-1.98694400">
        <ele>514.00000</ele>
        <time>2010-01-01T01:40:25Z</time>
      </trkpt>
      <trkpt lat="43.19420900" lon="-1.98724400">
        <ele>512.00000</ele>
        <time>2010-01-01T01:40:34Z</time>
      </trkpt>
      <trkpt lat="43.19420500" lon="-1.98757400">
        <ele>511.00000</ele>
        <time>2010-01-01T01:40:44Z</time>
      </trkpt>
      <trkpt lat="43.19418900" lon="-1.98770200">
        <ele>510.00000</ele>
        <time>2010-01-01T01:40:48Z</time>
      </trkpt>
      <trkpt lat="43.19418000" lon="-1.98778500">
        <ele>510.00000</ele>
        <time>2010-01-01T01:40:50Z</time>
      </trkpt>
      <trkpt lat="43.19414100" lon="-1.98807400">
        <ele>510.00000</ele>
        <time>2010-01-01T01:40:59Z</time>
      </trkpt>
      <trkpt lat="43.19409600" lon="-1.98836900">
        <ele>508.00000</ele>
        <time>2010-01-01T01:41:07Z</time>
      </trkpt>
      <trkpt lat="43.19407500" lon="-1.98847000">
        <ele>507.00000</ele>
        <time>2010-01-01T01:41:10Z</time>
      </trkpt>
      <trkpt lat="43.19405500" lon="-1.98861900">
        <ele>506.00000</ele>
        <time>2010-01-01T01:41:15Z</time>
      </trkpt>
      <trkpt lat="43.19406200" lon="-1.98881600">
        <ele>509.00000</ele>
        <time>2010-01-01T01:41:21Z</time>
      </trkpt>
      <trkpt lat="43.19405800" lon="-1.98894600">
        <ele>510.00000</ele>
        <time>2010-01-01T01:41:24Z</time>
      </trkpt>
      <trkpt lat="43.19402600" lon="-1.98913600">
        <ele>509.00000</ele>
        <time>2010-01-01T01:41:30Z</time>
      </trkpt>
      <trkpt lat="43.19400800" lon="-1.98954900">
        <ele>505.00000</ele>
        <time>2010-01-01T01:41:42Z</time>
      </trkpt>
      <trkpt lat="43.19403800" lon="-1.98989300">
        <ele>503.00000</ele>
        <time>2010-01-01T01:41:52Z</time>
      </trkpt>
      <trkpt lat="43.19405000" lon="-1.99021700">
        <ele>503.00000</ele>
        <time>2010-01-01T01:42:02Z</time>
      </trkpt>
      <trkpt lat="43.19401800" lon="-1.99043700">
        <ele>499.00000</ele>
        <time>2010-01-01T01:42:08Z</time>
      </trkpt>
      <trkpt lat="43.19401700" lon="-1.99060600">
        <ele>496.00000</ele>
        <time>2010-01-01T01:42:13Z</time>
      </trkpt>
      <trkpt lat="43.19403900" lon="-1.99086200">
        <ele>493.00000</ele>
        <time>2010-01-01T01:42:21Z</time>
      </trkpt>
      <trkpt lat="43.19417800" lon="-1.99114600">
        <ele>494.00000</ele>
        <time>2010-01-01T01:42:31Z</time>
      </trkpt>
      <trkpt lat="43.19432700" lon="-1.99145100">
        <ele>494.00000</ele>
        <time>2010-01-01T01:42:41Z</time>
      </trkpt>
      <trkpt lat="43.19445300" lon="-1.99170200">
        <ele>494.00000</ele>
        <time>2010-01-01T01:42:50Z</time>
      </trkpt>
      <trkpt lat="43.19459900" lon="-1.99192600">
        <ele>494.00000</ele>
        <time>2010-01-01T01:42:59Z</time>
      </trkpt>
      <trkpt lat="43.19469200" lon="-1.99204000">
        <ele>493.00000</ele>
        <time>2010-01-01T01:43:04Z</time>
      </trkpt>
      <trkpt lat="43.19480400" lon="-1.99220800">
        <ele>491.00000</ele>
        <time>2010-01-01T01:43:11Z</time>
      </trkpt>
      <trkpt lat="43.19488200" lon="-1.99233300">
        <ele>489.00000</ele>
        <time>2010-01-01T01:43:16Z</time>
      </trkpt>
      <trkpt lat="43.19490900" lon="-1.99237500">
        <ele>488.00000</ele>
        <time>2010-01-01T01:43:17Z</time>
      </trkpt>
      <trkpt lat="43.19504400" lon="-1.99263100">
        <ele>483.00000</ele>
        <time>2010-01-01T01:43:26Z</time>
      </trkpt>
      <trkpt lat="43.19518700" lon="-1.99288700">
        <ele>479.00000</ele>
        <time>2010-01-01T01:43:36Z</time>
      </trkpt>
      <trkpt lat="43.19537000" lon="-1.99315100">
        <ele>476.00000</ele>
        <time>2010-01-01T01:43:46Z</time>
      </trkpt>
      <trkpt lat="43.19544700" lon="-1.99319000">
        <ele>475.00000</ele>
        <time>2010-01-01T01:43:50Z</time>
      </trkpt>
      <trkpt lat="43.19561500" lon="-1.99328500">
        <ele>472.00000</ele>
        <time>2010-01-01T01:43:57Z</time>
      </trkpt>
      <trkpt lat="43.19568700" lon="-1.99333200">
        <ele>470.00000</ele>
        <time>2010-01-01T01:44:00Z</time>
      </trkpt>
      <trkpt lat="43.19576800" lon="-1.99336000">
        <ele>468.00000</ele>
        <time>2010-01-01T01:44:04Z</time>
      </trkpt>
      <trkpt lat="43.19605100" lon="-1.99337900">
        <ele>465.00000</ele>
        <time>2010-01-01T01:44:15Z</time>
      </trkpt>
      <trkpt lat="43.19622700" lon="-1.99333400">
        <ele>465.00000</ele>
        <time>2010-01-01T01:44:22Z</time>
      </trkpt>
      <trkpt lat="43.19624600" lon="-1.99332700">
        <ele>465.00000</ele>
        <time>2010-01-01T01:44:23Z</time>
      </trkpt>
      <trkpt lat="43.19648700" lon="-1.99330600">
        <ele>464.00000</ele>
        <time>2010-01-01T01:44:32Z</time>
      </trkpt>
      <trkpt lat="43.19663200" lon="-1.99325200">
        <ele>462.00000</ele>
        <time>2010-01-01T01:44:39Z</time>
      </trkpt>
      <trkpt lat="43.19674200" lon="-1.99320300">
        <ele>462.00000</ele>
        <time>2010-01-01T01:44:43Z</time>
      </trkpt>
      <trkpt lat="43.19696200" lon="-1.99315700">
        <ele>460.00000</ele>
        <time>2010-01-01T01:44:52Z</time>
      </trkpt>
      <trkpt lat="43.19722200" lon="-1.99308900">
        <ele>459.00000</ele>
        <time>2010-01-01T01:45:03Z</time>
      </trkpt>
      <trkpt lat="43.19749800" lon="-1.99306300">
        <ele>457.00000</ele>
        <time>2010-01-01T01:45:14Z</time>
      </trkpt>
      <trkpt lat="43.19778400" lon="-1.99302000">
        <ele>456.00000</ele>
        <time>2010-01-01T01:45:25Z</time>
      </trkpt>
      <trkpt lat="43.19796400" lon="-1.99300900">
        <ele>454.00000</ele>
        <time>2010-01-01T01:45:32Z</time>
      </trkpt>
      <trkpt lat="43.19802200" lon="-1.99300400">
        <ele>454.00000</ele>
        <time>2010-01-01T01:45:35Z</time>
      </trkpt>
      <trkpt lat="43.19806300" lon="-1.99298600">
        <ele>454.00000</ele>
        <time>2010-01-01T01:45:36Z</time>
      </trkpt>
      <trkpt lat="43.19817600" lon="-1.99297100">
        <ele>454.00000</ele>
        <time>2010-01-01T01:45:41Z</time>
      </trkpt>
      <trkpt lat="43.19839500" lon="-1.99296300">
        <ele>454.00000</ele>
        <time>2010-01-01T01:45:50Z</time>
      </trkpt>
      <trkpt lat="43.19850600" lon="-1.99297000">
        <ele>453.00000</ele>
        <time>2010-01-01T01:45:54Z</time>
      </trkpt>
      <trkpt lat="43.19875600" lon="-1.99302900">
        <ele>448.00000</ele>
        <time>2010-01-01T01:46:04Z</time>
      </trkpt>
      <trkpt lat="43.19885600" lon="-1.99302500">
        <ele>447.00000</ele>
        <time>2010-01-01T01:46:08Z</time>
      </trkpt>
      <trkpt lat="43.19898800" lon="-1.99303800">
        <ele>444.00000</ele>
        <time>2010-01-01T01:46:14Z</time>
      </trkpt>
      <trkpt lat="43.19921500" lon="-1.99307100">
        <ele>439.00000</ele>
        <time>2010-01-01T01:46:23Z</time>
      </trkpt>
      <trkpt lat="43.19944300" lon="-1.99308200">
        <ele>437.00000</ele>
        <time>2010-01-01T01:46:32Z</time>
      </trkpt>
      <trkpt lat="43.19946100" lon="-1.99308000">
        <ele>437.00000</ele>
        <time>2010-01-01T01:46:33Z</time>
      </trkpt>
      <trkpt lat="43.19968700" lon="-1.99308400">
        <ele>436.00000</ele>
        <time>2010-01-01T01:46:42Z</time>
      </trkpt>
      <trkpt lat="43.19990800" lon="-1.99313400">
        <ele>431.00000</ele>
        <time>2010-01-01T01:46:51Z</time>
      </trkpt>
      <trkpt lat="43.19993400" lon="-1.99312100">
        <ele>431.00000</ele>
        <time>2010-01-01T01:46:52Z</time>
      </trkpt>
      <trkpt lat="43.20005400" lon="-1.99311500">
        <ele>429.00000</ele>
        <time>2010-01-01T01:46:57Z</time>
      </trkpt>
      <trkpt lat="43.20026300" lon="-1.99308700">
        <ele>426.00000</ele>
        <time>2010-01-01T01:47:05Z</time>
      </trkpt>
      <trkpt lat="43.20045800" lon="-1.99301600">
        <ele>426.00000</ele>
        <time>2010-01-01T01:47:13Z</time>
      </trkpt>
      <trkpt lat="43.20055000" lon="-1.99297300">
        <ele>426.00000</ele>
        <time>2010-01-01T01:47:17Z</time>
      </trkpt>
      <trkpt lat="43.20073100" lon="-1.99288100">
        <ele>427.00000</ele>
        <time>2010-01-01T01:47:25Z</time>
      </trkpt>
      <trkpt lat="43.20091500" lon="-1.99280900">
        <ele>426.00000</ele>
        <time>2010-01-01T01:47:32Z</time>
      </trkpt>
      <trkpt lat="43.20094800" lon="-1.99279200">
        <ele>426.00000</ele>
        <time>2010-01-01T01:47:34Z</time>
      </trkpt>
      <trkpt lat="43.20099800" lon="-1.99276800">
        <ele>425.00000</ele>
        <time>2010-01-01T01:47:36Z</time>
      </trkpt>
      <trkpt lat="43.20104000" lon="-1.99271500">
        <ele>425.00000</ele>
        <time>2010-01-01T01:47:38Z</time>
      </trkpt>
      <trkpt lat="43.20121300" lon="-1.99263800">
        <ele>422.00000</ele>
        <time>2010-01-01T01:47:45Z</time>
      </trkpt>
      <trkpt lat="43.20139000" lon="-1.99255400">
        <ele>421.00000</ele>
        <time>2010-01-01T01:47:53Z</time>
      </trkpt>
      <trkpt lat="43.20162200" lon="-1.99257300">
        <ele>418.00000</ele>
        <time>2010-01-01T01:48:02Z</time>
      </trkpt>
      <trkpt lat="43.20168700" lon="-1.99257900">
        <ele>418.00000</ele>
        <time>2010-01-01T01:48:05Z</time>
      </trkpt>
      <trkpt lat="43.20189800" lon="-1.99262400">
        <ele>417.00000</ele>
        <time>2010-01-01T01:48:13Z</time>
      </trkpt>
      <trkpt lat="43.20197200" lon="-1.99259300">
        <ele>417.00000</ele>
        <time>2010-01-01T01:48:17Z</time>
      </trkpt>
      <trkpt lat="43.20203900" lon="-1.99263300">
        <ele>416.00000</ele>
        <time>2010-01-01T01:48:19Z</time>
      </trkpt>
      <trkpt lat="43.20224800" lon="-1.99270600">
        <ele>414.00000</ele>
        <time>2010-01-01T01:48:28Z</time>
      </trkpt>
      <trkpt lat="43.20244600" lon="-1.99283100">
        <ele>413.00000</ele>
        <time>2010-01-01T01:48:37Z</time>
      </trkpt>
      <trkpt lat="43.20251600" lon="-1.99287700">
        <ele>413.00000</ele>
        <time>2010-01-01T01:48:40Z</time>
      </trkpt>
      <trkpt lat="43.20272300" lon="-1.99297800">
        <ele>413.00000</ele>
        <time>2010-01-01T01:48:49Z</time>
      </trkpt>
      <trkpt lat="43.20292200" lon="-1.99305700">
        <ele>412.00000</ele>
        <time>2010-01-01T01:48:57Z</time>
      </trkpt>
      <trkpt lat="43.20299100" lon="-1.99305400">
        <ele>412.00000</ele>
        <time>2010-01-01T01:49:00Z</time>
      </trkpt>
      <trkpt lat="43.20309400" lon="-1.99296000">
        <ele>412.00000</ele>
        <time>2010-01-01T01:49:05Z</time>
      </trkpt>
      <trkpt lat="43.20310700" lon="-1.99294200">
        <ele>412.00000</ele>
        <time>2010-01-01T01:49:05Z</time>
      </trkpt>
      <trkpt lat="43.20327100" lon="-1.99273700">
        <ele>412.00000</ele>
        <time>2010-01-01T01:49:14Z</time>
      </trkpt>
      <trkpt lat="43.20339300" lon="-1.99259400">
        <ele>412.00000</ele>
        <time>2010-01-01T01:49:21Z</time>
      </trkpt>
      <trkpt lat="43.20357500" lon="-1.99242600">
        <ele>409.00000</ele>
        <time>2010-01-01T01:49:30Z</time>
      </trkpt>
      <trkpt lat="43.20375300" lon="-1.99228500">
        <ele>405.00000</ele>
        <time>2010-01-01T01:49:38Z</time>
      </trkpt>
      <trkpt lat="43.20392800" lon="-1.99218000">
        <ele>401.00000</ele>
        <time>2010-01-01T01:49:45Z</time>
      </trkpt>
      <trkpt lat="43.20398800" lon="-1.99213200">
        <ele>400.00000</ele>
        <time>2010-01-01T01:49:48Z</time>
      </trkpt>
      <trkpt lat="43.20405300" lon="-1.99208600">
        <ele>399.00000</ele>
        <time>2010-01-01T01:49:51Z</time>
      </trkpt>
      <trkpt lat="43.20421400" lon="-1.99197100">
        <ele>398.00000</ele>
        <time>2010-01-01T01:49:58Z</time>
      </trkpt>
      <trkpt lat="43.20429600" lon="-1.99191600">
        <ele>396.00000</ele>
        <time>2010-01-01T01:50:02Z</time>
      </trkpt>
      <trkpt lat="43.20443600" lon="-1.99182900">
        <ele>392.00000</ele>
        <time>2010-01-01T01:50:08Z</time>
      </trkpt>
      <trkpt lat="43.20459800" lon="-1.99168300">
        <ele>389.00000</ele>
        <time>2010-01-01T01:50:16Z</time>
      </trkpt>
      <trkpt lat="43.20468300" lon="-1.99154800">
        <ele>386.00000</ele>
        <time>2010-01-01T01:50:21Z</time>
      </trkpt>
      <trkpt lat="43.20469300" lon="-1.99145400">
        <ele>386.00000</ele>
        <time>2010-01-01T01:50:24Z</time>
      </trkpt>
      <trkpt lat="43.20470900" lon="-1.99138300">
        <ele>385.00000</ele>
        <time>2010-01-01T01:50:26Z</time>
      </trkpt>
      <trkpt lat="43.20478000" lon="-1.99104200">
        <ele>386.00000</ele>
        <time>2010-01-01T01:50:36Z</time>
      </trkpt>
      <trkpt lat="43.20479000" lon="-1.99092400">
        <ele>387.00000</ele>
        <time>2010-01-01T01:50:40Z</time>
      </trkpt>
      <trkpt lat="43.20481200" lon="-1.99086700">
        <ele>387.00000</ele>
        <time>2010-01-01T01:50:42Z</time>
      </trkpt>
      <trkpt lat="43.20493800" lon="-1.99066300">
        <ele>387.00000</ele>
        <time>2010-01-01T01:50:50Z</time>
      </trkpt>
      <trkpt lat="43.20495600" lon="-1.99065200">
        <ele>387.00000</ele>
        <time>2010-01-01T01:50:50Z</time>
      </trkpt>
      <trkpt lat="43.20508100" lon="-1.99060300">
        <ele>384.00000</ele>
        <time>2010-01-01T01:50:56Z</time>
      </trkpt>
      <trkpt lat="43.20518600" lon="-1.99050800">
        <ele>384.00000</ele>
        <time>2010-01-01T01:51:01Z</time>
      </trkpt>
      <trkpt lat="43.20541300" lon="-1.99041800">
        <ele>380.00000</ele>
        <time>2010-01-01T01:51:10Z</time>
      </trkpt>
      <trkpt lat="43.20557900" lon="-1.99038000">
        <ele>376.00000</ele>
        <time>2010-01-01T01:51:17Z</time>
      </trkpt>
      <trkpt lat="43.20586500" lon="-1.99028000">
        <ele>374.00000</ele>
        <time>2010-01-01T01:51:29Z</time>
      </trkpt>
      <trkpt lat="43.20607000" lon="-1.99018900">
        <ele>374.00000</ele>
        <time>2010-01-01T01:51:37Z</time>
      </trkpt>
      <trkpt lat="43.20626500" lon="-1.99000500">
        <ele>373.00000</ele>
        <time>2010-01-01T01:51:47Z</time>
      </trkpt>
      <trkpt lat="43.20634900" lon="-1.98982500">
        <ele>373.00000</ele>
        <time>2010-01-01T01:51:53Z</time>
      </trkpt>
      <trkpt lat="43.20634500" lon="-1.98975000">
        <ele>374.00000</ele>
        <time>2010-01-01T01:51:55Z</time>
      </trkpt>
      <trkpt lat="43.20635200" lon="-1.98968100">
        <ele>374.00000</ele>
        <time>2010-01-01T01:51:57Z</time>
      </trkpt>
      <trkpt lat="43.20632000" lon="-1.98946300">
        <ele>376.00000</ele>
        <time>2010-01-01T01:52:04Z</time>
      </trkpt>
      <trkpt lat="43.20633100" lon="-1.98911500">
        <ele>375.00000</ele>
        <time>2010-01-01T01:52:14Z</time>
      </trkpt>
      <trkpt lat="43.20635100" lon="-1.98895000">
        <ele>375.00000</ele>
        <time>2010-01-01T01:52:19Z</time>
      </trkpt>
      <trkpt lat="43.20641400" lon="-1.98879800">
        <ele>374.00000</ele>
        <time>2010-01-01T01:52:24Z</time>
      </trkpt>
      <trkpt lat="43.20645000" lon="-1.98872000">
        <ele>374.00000</ele>
        <time>2010-01-01T01:52:27Z</time>
      </trkpt>
      <trkpt lat="43.20660000" lon="-1.98837900">
        <ele>375.00000</ele>
        <time>2010-01-01T01:52:38Z</time>
      </trkpt>
      <trkpt lat="43.20671000" lon="-1.98829200">
        <ele>373.00000</ele>
        <time>2010-01-01T01:52:43Z</time>
      </trkpt>
      <trkpt lat="43.20692700" lon="-1.98815700">
        <ele>372.00000</ele>
        <time>2010-01-01T01:52:53Z</time>
      </trkpt>
      <trkpt lat="43.20714700" lon="-1.98802200">
        <ele>370.00000</ele>
        <time>2010-01-01T01:53:02Z</time>
      </trkpt>
      <trkpt lat="43.20729600" lon="-1.98793500">
        <ele>367.00000</ele>
        <time>2010-01-01T01:53:09Z</time>
      </trkpt>
      <trkpt lat="43.20735700" lon="-1.98788900">
        <ele>367.00000</ele>
        <time>2010-01-01T01:53:12Z</time>
      </trkpt>
      <trkpt lat="43.20754900" lon="-1.98775200">
        <ele>366.00000</ele>
        <time>2010-01-01T01:53:20Z</time>
      </trkpt>
      <trkpt lat="43.20788200" lon="-1.98764000">
        <ele>367.00000</ele>
        <time>2010-01-01T01:53:34Z</time>
      </trkpt>
      <trkpt lat="43.20807600" lon="-1.98761300">
        <ele>365.00000</ele>
        <time>2010-01-01T01:53:42Z</time>
      </trkpt>
      <trkpt lat="43.20822200" lon="-1.98759400">
        <ele>362.00000</ele>
        <time>2010-01-01T01:53:48Z</time>
      </trkpt>
      <trkpt lat="43.20831000" lon="-1.98760900">
        <ele>359.00000</ele>
        <time>2010-01-01T01:53:51Z</time>
      </trkpt>
      <trkpt lat="43.20848100" lon="-1.98753000">
        <ele>357.00000</ele>
        <time>2010-01-01T01:53:59Z</time>
      </trkpt>
      <trkpt lat="43.20863800" lon="-1.98736700">
        <ele>358.00000</ele>
        <time>2010-01-01T01:54:06Z</time>
      </trkpt>
      <trkpt lat="43.20875200" lon="-1.98721800">
        <ele>360.00000</ele>
        <time>2010-01-01T01:54:13Z</time>
      </trkpt>
      <trkpt lat="43.20881900" lon="-1.98714200">
        <ele>360.00000</ele>
        <time>2010-01-01T01:54:16Z</time>
      </trkpt>
      <trkpt lat="43.20896400" lon="-1.98704000">
        <ele>358.00000</ele>
        <time>2010-01-01T01:54:23Z</time>
      </trkpt>
      <trkpt lat="43.20897500" lon="-1.98702300">
        <ele>358.00000</ele>
        <time>2010-01-01T01:54:23Z</time>
      </trkpt>
      <trkpt lat="43.20907000" lon="-1.98690900">
        <ele>357.00000</ele>
        <time>2010-01-01T01:54:28Z</time>
      </trkpt>
      <trkpt lat="43.20909600" lon="-1.98686700">
        <ele>357.00000</ele>
        <time>2010-01-01T01:54:30Z</time>
      </trkpt>
      <trkpt lat="43.20923600" lon="-1.98667800">
        <ele>357.00000</ele>
        <time>2010-01-01T01:54:38Z</time>
      </trkpt>
      <trkpt lat="43.20938200" lon="-1.98640700">
        <ele>360.00000</ele>
        <time>2010-01-01T01:54:48Z</time>
      </trkpt>
      <trkpt lat="43.20957200" lon="-1.98616000">
        <ele>360.00000</ele>
        <time>2010-01-01T01:54:58Z</time>
      </trkpt>
      <trkpt lat="43.20976300" lon="-1.98598400">
        <ele>357.00000</ele>
        <time>2010-01-01T01:55:07Z</time>
      </trkpt>
      <trkpt lat="43.20989100" lon="-1.98583400">
        <ele>354.00000</ele>
        <time>2010-01-01T01:55:14Z</time>
      </trkpt>
      <trkpt lat="43.21002400" lon="-1.98556500">
        <ele>351.00000</ele>
        <time>2010-01-01T01:55:24Z</time>
      </trkpt>
      <trkpt lat="43.21003800" lon="-1.98551900">
        <ele>350.00000</ele>
        <time>2010-01-01T01:55:25Z</time>
      </trkpt>
      <trkpt lat="43.21009700" lon="-1.98532400">
        <ele>347.00000</ele>
        <time>2010-01-01T01:55:31Z</time>
      </trkpt>
      <trkpt lat="43.21007300" lon="-1.98515200">
        <ele>351.00000</ele>
        <time>2010-01-01T01:55:36Z</time>
      </trkpt>
      <trkpt lat="43.21006300" lon="-1.98510900">
        <ele>352.00000</ele>
        <time>2010-01-01T01:55:38Z</time>
      </trkpt>
      <trkpt lat="43.21006700" lon="-1.98502200">
        <ele>353.00000</ele>
        <time>2010-01-01T01:55:40Z</time>
      </trkpt>
      <trkpt lat="43.21011700" lon="-1.98487700">
        <ele>350.00000</ele>
        <time>2010-01-01T01:55:45Z</time>
      </trkpt>
      <trkpt lat="43.21012100" lon="-1.98473500">
        <ele>351.00000</ele>
        <time>2010-01-01T01:55:49Z</time>
      </trkpt>
      <trkpt lat="43.21014700" lon="-1.98467500">
        <ele>349.00000</ele>
        <time>2010-01-01T01:55:51Z</time>
      </trkpt>
      <trkpt lat="43.21015800" lon="-1.98457100">
        <ele>349.00000</ele>
        <time>2010-01-01T01:55:54Z</time>
      </trkpt>
      <trkpt lat="43.21016200" lon="-1.98454600">
        <ele>349.00000</ele>
        <time>2010-01-01T01:55:55Z</time>
      </trkpt>
      <trkpt lat="43.21018100" lon="-1.98443900">
        <ele>348.00000</ele>
        <time>2010-01-01T01:55:58Z</time>
      </trkpt>
      <trkpt lat="43.21019600" lon="-1.98437600">
        <ele>348.00000</ele>
        <time>2010-01-01T01:56:00Z</time>
      </trkpt>
      <trkpt lat="43.21024100" lon="-1.98426600">
        <ele>346.00000</ele>
        <time>2010-01-01T01:56:04Z</time>
      </trkpt>
      <trkpt lat="43.21025700" lon="-1.98414500">
        <ele>346.00000</ele>
        <time>2010-01-01T01:56:07Z</time>
      </trkpt>
      <trkpt lat="43.21034200" lon="-1.98382900">
        <ele>339.00000</ele>
        <time>2010-01-01T01:56:17Z</time>
      </trkpt>
      <trkpt lat="43.21040100" lon="-1.98352600">
        <ele>333.00000</ele>
        <time>2010-01-01T01:56:26Z</time>
      </trkpt>
      <trkpt lat="43.21040800" lon="-1.98335400">
        <ele>331.00000</ele>
        <time>2010-01-01T01:56:31Z</time>
      </trkpt>
      <trkpt lat="43.21041000" lon="-1.98321700">
        <ele>330.00000</ele>
        <time>2010-01-01T01:56:35Z</time>
      </trkpt>
      <trkpt lat="43.21036400" lon="-1.98306400">
        <ele>331.00000</ele>
        <time>2010-01-01T01:56:40Z</time>
      </trkpt>
      <trkpt lat="43.21025700" lon="-1.98282900">
        <ele>333.00000</ele>
        <time>2010-01-01T01:56:48Z</time>
      </trkpt>
      <trkpt lat="43.21011500" lon="-1.98257600">
        <ele>334.00000</ele>
        <time>2010-01-01T01:56:58Z</time>
      </trkpt>
      <trkpt lat="43.20996800" lon="-1.98240300">
        <ele>334.00000</ele>
        <time>2010-01-01T01:57:05Z</time>
      </trkpt>
      <trkpt lat="43.20985800" lon="-1.98227000">
        <ele>336.00000</ele>
        <time>2010-01-01T01:57:11Z</time>
      </trkpt>
      <trkpt lat="43.20983700" lon="-1.98223500">
        <ele>336.00000</ele>
        <time>2010-01-01T01:57:13Z</time>
      </trkpt>
      <trkpt lat="43.20980000" lon="-1.98214400">
        <ele>335.00000</ele>
        <time>2010-01-01T01:57:16Z</time>
      </trkpt>
      <trkpt lat="43.20980200" lon="-1.98208100">
        <ele>332.00000</ele>
        <time>2010-01-01T01:57:17Z</time>
      </trkpt>
      <trkpt lat="43.20981400" lon="-1.98202200">
        <ele>330.00000</ele>
        <time>2010-01-01T01:57:19Z</time>
      </trkpt>
      <trkpt lat="43.20980800" lon="-1.98198100">
        <ele>329.00000</ele>
        <time>2010-01-01T01:57:20Z</time>
      </trkpt>
      <trkpt lat="43.20978200" lon="-1.98188300">
        <ele>328.00000</ele>
        <time>2010-01-01T01:57:23Z</time>
      </trkpt>
      <trkpt lat="43.20967900" lon="-1.98160900">
        <ele>328.00000</ele>
        <time>2010-01-01T01:57:32Z</time>
      </trkpt>
      <trkpt lat="43.20976000" lon="-1.98146900">
        <ele>323.00000</ele>
        <time>2010-01-01T01:57:38Z</time>
      </trkpt>
      <trkpt lat="43.20981600" lon="-1.98131100">
        <ele>318.00000</ele>
        <time>2010-01-01T01:57:43Z</time>
      </trkpt>
      <trkpt lat="43.20983200" lon="-1.98121900">
        <ele>316.00000</ele>
        <time>2010-01-01T01:57:46Z</time>
      </trkpt>
      <trkpt lat="43.20980100" lon="-1.98109200">
        <ele>315.00000</ele>
        <time>2010-01-01T01:57:49Z</time>
      </trkpt>
      <trkpt lat="43.20979900" lon="-1.98107500">
        <ele>314.00000</ele>
        <time>2010-01-01T01:57:50Z</time>
      </trkpt>
      <trkpt lat="43.20973800" lon="-1.98081100">
        <ele>312.00000</ele>
        <time>2010-01-01T01:57:58Z</time>
      </trkpt>
      <trkpt lat="43.20971100" lon="-1.98073600">
        <ele>312.00000</ele>
        <time>2010-01-01T01:58:00Z</time>
      </trkpt>
      <trkpt lat="43.20971200" lon="-1.98069500">
        <ele>312.00000</ele>
        <time>2010-01-01T01:58:02Z</time>
      </trkpt>
      <trkpt lat="43.20968000" lon="-1.98061300">
        <ele>313.00000</ele>
        <time>2010-01-01T01:58:04Z</time>
      </trkpt>
      <trkpt lat="43.20963900" lon="-1.98049800">
        <ele>314.00000</ele>
        <time>2010-01-01T01:58:08Z</time>
      </trkpt>
      <trkpt lat="43.20961800" lon="-1.98044700">
        <ele>314.00000</ele>
        <time>2010-01-01T01:58:10Z</time>
      </trkpt>
      <trkpt lat="43.20958500" lon="-1.98017300">
        <ele>313.00000</ele>
        <time>2010-01-01T01:58:18Z</time>
      </trkpt>
      <trkpt lat="43.20961200" lon="-1.98014500">
        <ele>311.00000</ele>
        <time>2010-01-01T01:58:19Z</time>
      </trkpt>
      <trkpt lat="43.20970700" lon="-1.98011600">
        <ele>305.00000</ele>
        <time>2010-01-01T01:58:23Z</time>
      </trkpt>
      <trkpt lat="43.20976700" lon="-1.98017200">
        <ele>303.00000</ele>
        <time>2010-01-01T01:58:26Z</time>
      </trkpt>
      <trkpt lat="43.20978400" lon="-1.98020600">
        <ele>302.00000</ele>
        <time>2010-01-01T01:58:27Z</time>
      </trkpt>
      <trkpt lat="43.20982100" lon="-1.98038000">
        <ele>303.00000</ele>
        <time>2010-01-01T01:58:33Z</time>
      </trkpt>
      <trkpt lat="43.20983800" lon="-1.98041100">
        <ele>303.00000</ele>
        <time>2010-01-01T01:58:34Z</time>
      </trkpt>
      <trkpt lat="43.20989200" lon="-1.98052000">
        <ele>302.00000</ele>
        <time>2010-01-01T01:58:38Z</time>
      </trkpt>
      <trkpt lat="43.20995100" lon="-1.98060900">
        <ele>302.00000</ele>
        <time>2010-01-01T01:58:41Z</time>
      </trkpt>
      <trkpt lat="43.21001700" lon="-1.98067100">
        <ele>301.00000</ele>
        <time>2010-01-01T01:58:44Z</time>
      </trkpt>
      <trkpt lat="43.21003100" lon="-1.98069000">
        <ele>301.00000</ele>
        <time>2010-01-01T01:58:45Z</time>
      </trkpt>
      <trkpt lat="43.21018900" lon="-1.98082000">
        <ele>299.00000</ele>
        <time>2010-01-01T01:58:52Z</time>
      </trkpt>
      <trkpt lat="43.21032700" lon="-1.98093100">
        <ele>297.00000</ele>
        <time>2010-01-01T01:58:59Z</time>
      </trkpt>
      <trkpt lat="43.21051200" lon="-1.98106700">
        <ele>294.00000</ele>
        <time>2010-01-01T01:59:07Z</time>
      </trkpt>
      <trkpt lat="43.21062200" lon="-1.98116700">
        <ele>292.00000</ele>
        <time>2010-01-01T01:59:13Z</time>
      </trkpt>
      <trkpt lat="43.21070900" lon="-1.98127400">
        <ele>289.00000</ele>
        <time>2010-01-01T01:59:17Z</time>
      </trkpt>
      <trkpt lat="43.21073700" lon="-1.98132800">
        <ele>289.00000</ele>
        <time>2010-01-01T01:59:19Z</time>
      </trkpt>
      <trkpt lat="43.21075700" lon="-1.98139600">
        <ele>289.00000</ele>
        <time>2010-01-01T01:59:21Z</time>
      </trkpt>
      <trkpt lat="43.21089700" lon="-1.98162500">
        <ele>286.00000</ele>
        <time>2010-01-01T01:59:30Z</time>
      </trkpt>
      <trkpt lat="43.21093900" lon="-1.98176000">
        <ele>286.00000</ele>
        <time>2010-01-01T01:59:34Z</time>
      </trkpt>
      <trkpt lat="43.21097100" lon="-1.98185400">
        <ele>286.00000</ele>
        <time>2010-01-01T01:59:37Z</time>
      </trkpt>
      <trkpt lat="43.21109600" lon="-1.98205800">
        <ele>286.00000</ele>
        <time>2010-01-01T01:59:45Z</time>
      </trkpt>
      <trkpt lat="43.21122700" lon="-1.98220900">
        <ele>284.00000</ele>
        <time>2010-01-01T01:59:52Z</time>
      </trkpt>
      <trkpt lat="43.21136400" lon="-1.98251500">
        <ele>284.00000</ele>
        <time>2010-01-01T02:00:02Z</time>
      </trkpt>
      <trkpt lat="43.21142600" lon="-1.98268600">
        <ele>284.00000</ele>
        <time>2010-01-01T02:00:08Z</time>
      </trkpt>
      <trkpt lat="43.21146500" lon="-1.98289400">
        <ele>283.00000</ele>
        <time>2010-01-01T02:00:14Z</time>
      </trkpt>
      <trkpt lat="43.21146400" lon="-1.98295500">
        <ele>283.00000</ele>
        <time>2010-01-01T02:00:16Z</time>
      </trkpt>
      <trkpt lat="43.21151500" lon="-1.98320400">
        <ele>280.00000</ele>
        <time>2010-01-01T02:00:24Z</time>
      </trkpt>
      <trkpt lat="43.21156500" lon="-1.98338500">
        <ele>278.00000</ele>
        <time>2010-01-01T02:00:29Z</time>
      </trkpt>
      <trkpt lat="43.21159300" lon="-1.98349300">
        <ele>276.00000</ele>
        <time>2010-01-01T02:00:33Z</time>
      </trkpt>
      <trkpt lat="43.21162600" lon="-1.98353200">
        <ele>274.00000</ele>
        <time>2010-01-01T02:00:34Z</time>
      </trkpt>
      <trkpt lat="43.21163400" lon="-1.98355800">
        <ele>273.00000</ele>
        <time>2010-01-01T02:00:35Z</time>
      </trkpt>
      <trkpt lat="43.21169200" lon="-1.98376500">
        <ele>269.00000</ele>
        <time>2010-01-01T02:00:42Z</time>
      </trkpt>
      <trkpt lat="43.21169800" lon="-1.98380200">
        <ele>268.00000</ele>
        <time>2010-01-01T02:00:43Z</time>
      </trkpt>
      <trkpt lat="43.21168400" lon="-1.98388800">
        <ele>268.00000</ele>
        <time>2010-01-01T02:00:45Z</time>
      </trkpt>
      <trkpt lat="43.21174200" lon="-1.98408400">
        <ele>267.00000</ele>
        <time>2010-01-01T02:00:51Z</time>
      </trkpt>
      <trkpt lat="43.21183300" lon="-1.98425500">
        <ele>264.00000</ele>
        <time>2010-01-01T02:00:58Z</time>
      </trkpt>
      <trkpt lat="43.21189500" lon="-1.98447900">
        <ele>262.00000</ele>
        <time>2010-01-01T02:01:05Z</time>
      </trkpt>
      <trkpt lat="43.21193300" lon="-1.98459300">
        <ele>261.00000</ele>
        <time>2010-01-01T02:01:08Z</time>
      </trkpt>
      <trkpt lat="43.21204000" lon="-1.98472700">
        <ele>255.00000</ele>
        <time>2010-01-01T02:01:14Z</time>
      </trkpt>
      <trkpt lat="43.21205000" lon="-1.98476000">
        <ele>254.00000</ele>
        <time>2010-01-01T02:01:15Z</time>
      </trkpt>
      <trkpt lat="43.21214200" lon="-1.98500400">
        <ele>247.00000</ele>
        <time>2010-01-01T02:01:23Z</time>
      </trkpt>
      <trkpt lat="43.21214600" lon="-1.98531100">
        <ele>247.00000</ele>
        <time>2010-01-01T02:01:32Z</time>
      </trkpt>
      <trkpt lat="43.21211100" lon="-1.98560600">
        <ele>247.00000</ele>
        <time>2010-01-01T02:01:41Z</time>
      </trkpt>
      <trkpt lat="43.21193900" lon="-1.98585000">
        <ele>255.00000</ele>
        <time>2010-01-01T02:01:51Z</time>
      </trkpt>
      <trkpt lat="43.21193400" lon="-1.98603700">
        <ele>255.00000</ele>
        <time>2010-01-01T02:01:56Z</time>
      </trkpt>
      <trkpt lat="43.21196000" lon="-1.98618300">
        <ele>253.00000</ele>
        <time>2010-01-01T02:02:01Z</time>
      </trkpt>
      <trkpt lat="43.21203400" lon="-1.98635300">
        <ele>247.00000</ele>
        <time>2010-01-01T02:02:06Z</time>
      </trkpt>
      <trkpt lat="43.21203500" lon="-1.98642000">
        <ele>246.00000</ele>
        <time>2010-01-01T02:02:08Z</time>
      </trkpt>
      <trkpt lat="43.21197400" lon="-1.98660600">
        <ele>246.00000</ele>
        <time>2010-01-01T02:02:14Z</time>
      </trkpt>
      <trkpt lat="43.21189700" lon="-1.98671600">
        <ele>248.00000</ele>
        <time>2010-01-01T02:02:19Z</time>
      </trkpt>
      <trkpt lat="43.21180900" lon="-1.98681200">
        <ele>252.00000</ele>
        <time>2010-01-01T02:02:23Z</time>
      </trkpt>
      <trkpt lat="43.21177200" lon="-1.98688100">
        <ele>252.00000</ele>
        <time>2010-01-01T02:02:26Z</time>
      </trkpt>
      <trkpt lat="43.21163400" lon="-1.98707400">
        <ele>253.00000</ele>
        <time>2010-01-01T02:02:34Z</time>
      </trkpt>
      <trkpt lat="43.21157800" lon="-1.98714800">
        <ele>253.00000</ele>
        <time>2010-01-01T02:02:37Z</time>
      </trkpt>
      <trkpt lat="43.21145900" lon="-1.98731900">
        <ele>251.00000</ele>
        <time>2010-01-01T02:02:44Z</time>
      </trkpt>
      <trkpt lat="43.21145700" lon="-1.98734400">
        <ele>250.00000</ele>
        <time>2010-01-01T02:02:44Z</time>
      </trkpt>
      <trkpt lat="43.21130700" lon="-1.98756700">
        <ele>245.00000</ele>
        <time>2010-01-01T02:02:53Z</time>
      </trkpt>
      <trkpt lat="43.21128200" lon="-1.98760200">
        <ele>243.00000</ele>
        <time>2010-01-01T02:02:55Z</time>
      </trkpt>
      <trkpt lat="43.21113600" lon="-1.98773200">
        <ele>239.00000</ele>
        <time>2010-01-01T02:03:02Z</time>
      </trkpt>
      <trkpt lat="43.21099300" lon="-1.98781400">
        <ele>242.00000</ele>
        <time>2010-01-01T02:03:08Z</time>
      </trkpt>
      <trkpt lat="43.21098600" lon="-1.98784100">
        <ele>242.00000</ele>
        <time>2010-01-01T02:03:09Z</time>
      </trkpt>
      <trkpt lat="43.21081600" lon="-1.98791800">
        <ele>249.00000</ele>
        <time>2010-01-01T02:03:16Z</time>
      </trkpt>
      <trkpt lat="43.21076200" lon="-1.98801900">
        <ele>250.00000</ele>
        <time>2010-01-01T02:03:19Z</time>
      </trkpt>
      <trkpt lat="43.21076500" lon="-1.98809900">
        <ele>249.00000</ele>
        <time>2010-01-01T02:03:22Z</time>
      </trkpt>
      <trkpt lat="43.21085500" lon="-1.98836200">
        <ele>242.00000</ele>
        <time>2010-01-01T02:03:30Z</time>
      </trkpt>
      <trkpt lat="43.21094500" lon="-1.98857500">
        <ele>238.00000</ele>
        <time>2010-01-01T02:03:37Z</time>
      </trkpt>
      <trkpt lat="43.21095700" lon="-1.98862200">
        <ele>238.00000</ele>
        <time>2010-01-01T02:03:39Z</time>
      </trkpt>
      <trkpt lat="43.21099800" lon="-1.98876300">
        <ele>235.00000</ele>
        <time>2010-01-01T02:03:43Z</time>
      </trkpt>
      <trkpt lat="43.21103200" lon="-1.98892800">
        <ele>231.00000</ele>
        <time>2010-01-01T02:03:48Z</time>
      </trkpt>
      <trkpt lat="43.21097200" lon="-1.98929600">
        <ele>231.00000</ele>
        <time>2010-01-01T02:03:59Z</time>
      </trkpt>
      <trkpt lat="43.21084400" lon="-1.98958400">
        <ele>229.00000</ele>
        <time>2010-01-01T02:04:09Z</time>
      </trkpt>
      <trkpt lat="43.21081400" lon="-1.98966200">
        <ele>227.00000</ele>
        <time>2010-01-01T02:04:12Z</time>
      </trkpt>
      <trkpt lat="43.21061900" lon="-1.98987800">
        <ele>223.00000</ele>
        <time>2010-01-01T02:04:22Z</time>
      </trkpt>
      <trkpt lat="43.21034500" lon="-1.98994600">
        <ele>225.00000</ele>
        <time>2010-01-01T02:04:33Z</time>
      </trkpt>
      <trkpt lat="43.21005600" lon="-1.98993100">
        <ele>226.00000</ele>
        <time>2010-01-01T02:04:44Z</time>
      </trkpt>
      <trkpt lat="43.21001500" lon="-1.98990800">
        <ele>227.00000</ele>
        <time>2010-01-01T02:04:46Z</time>
      </trkpt>
      <trkpt lat="43.20986900" lon="-1.98989300">
        <ele>231.00000</ele>
        <time>2010-01-01T02:04:52Z</time>
      </trkpt>
      <trkpt lat="43.20969800" lon="-1.98980400">
        <ele>239.00000</ele>
        <time>2010-01-01T02:04:59Z</time>
      </trkpt>
      <trkpt lat="43.20963400" lon="-1.98975000">
        <ele>243.00000</ele>
        <time>2010-01-01T02:05:02Z</time>
      </trkpt>
      <trkpt lat="43.20953000" lon="-1.98975400">
        <ele>246.00000</ele>
        <time>2010-01-01T02:05:07Z</time>
      </trkpt>
      <trkpt lat="43.20934900" lon="-1.98998100">
        <ele>243.00000</ele>
        <time>2010-01-01T02:05:16Z</time>
      </trkpt>
      <trkpt lat="43.20934700" lon="-1.99007600">
        <ele>241.00000</ele>
        <time>2010-01-01T02:05:19Z</time>
      </trkpt>
      <trkpt lat="43.20942600" lon="-1.99034900">
        <ele>232.00000</ele>
        <time>2010-01-01T02:05:28Z</time>
      </trkpt>
      <trkpt lat="43.20942600" lon="-1.99036900">
        <ele>232.00000</ele>
        <time>2010-01-01T02:05:28Z</time>
      </trkpt>
      <trkpt lat="43.20943200" lon="-1.99040100">
        <ele>232.00000</ele>
        <time>2010-01-01T02:05:29Z</time>
      </trkpt>
      <trkpt lat="43.20943500" lon="-1.99041700">
        <ele>232.00000</ele>
        <time>2010-01-01T02:05:30Z</time>
      </trkpt>
      <trkpt lat="43.20949000" lon="-1.99060100">
        <ele>228.00000</ele>
        <time>2010-01-01T02:05:36Z</time>
      </trkpt>
      <trkpt lat="43.20951000" lon="-1.99064200">
        <ele>227.00000</ele>
        <time>2010-01-01T02:05:37Z</time>
      </trkpt>
      <trkpt lat="43.20960700" lon="-1.99093900">
        <ele>222.00000</ele>
        <time>2010-01-01T02:05:47Z</time>
      </trkpt>
      <trkpt lat="43.20961100" lon="-1.99096100">
        <ele>221.00000</ele>
        <time>2010-01-01T02:05:47Z</time>
      </trkpt>
      <trkpt lat="43.20961600" lon="-1.99098400">
        <ele>221.00000</ele>
        <time>2010-01-01T02:05:48Z</time>
      </trkpt>
      <trkpt lat="43.20961900" lon="-1.99100900">
        <ele>221.00000</ele>
        <time>2010-01-01T02:05:49Z</time>
      </trkpt>
      <trkpt lat="43.20962500" lon="-1.99103400">
        <ele>220.00000</ele>
        <time>2010-01-01T02:05:49Z</time>
      </trkpt>
      <trkpt lat="43.20962300" lon="-1.99106200">
        <ele>220.00000</ele>
        <time>2010-01-01T02:05:50Z</time>
      </trkpt>
      <trkpt lat="43.20962300" lon="-1.99108800">
        <ele>220.00000</ele>
        <time>2010-01-01T02:05:51Z</time>
      </trkpt>
      <trkpt lat="43.20962100" lon="-1.99111100">
        <ele>220.00000</ele>
        <time>2010-01-01T02:05:52Z</time>
      </trkpt>
      <trkpt lat="43.20961800" lon="-1.99113400">
        <ele>220.00000</ele>
        <time>2010-01-01T02:05:52Z</time>
      </trkpt>
      <trkpt lat="43.20961300" lon="-1.99115500">
        <ele>220.00000</ele>
        <time>2010-01-01T02:05:53Z</time>
      </trkpt>
      <trkpt lat="43.20955400" lon="-1.99137500">
        <ele>220.00000</ele>
        <time>2010-01-01T02:06:00Z</time>
      </trkpt>
      <trkpt lat="43.20950100" lon="-1.99149500">
        <ele>222.00000</ele>
        <time>2010-01-01T02:06:04Z</time>
      </trkpt>
      <trkpt lat="43.20948500" lon="-1.99155900">
        <ele>222.00000</ele>
        <time>2010-01-01T02:06:06Z</time>
      </trkpt>
      <trkpt lat="43.20947100" lon="-1.99157900">
        <ele>222.00000</ele>
        <time>2010-01-01T02:06:07Z</time>
      </trkpt>
      <trkpt lat="43.20936400" lon="-1.99174700">
        <ele>224.00000</ele>
        <time>2010-01-01T02:06:13Z</time>
      </trkpt>
      <trkpt lat="43.20935800" lon="-1.99175600">
        <ele>224.00000</ele>
        <time>2010-01-01T02:06:14Z</time>
      </trkpt>
      <trkpt lat="43.20935000" lon="-1.99177800">
        <ele>224.00000</ele>
        <time>2010-01-01T02:06:14Z</time>
      </trkpt>
      <trkpt lat="43.20933900" lon="-1.99180100">
        <ele>224.00000</ele>
        <time>2010-01-01T02:06:15Z</time>
      </trkpt>
      <trkpt lat="43.20933400" lon="-1.99182100">
        <ele>223.00000</ele>
        <time>2010-01-01T02:06:16Z</time>
      </trkpt>
      <trkpt lat="43.20932500" lon="-1.99184500">
        <ele>223.00000</ele>
        <time>2010-01-01T02:06:16Z</time>
      </trkpt>
      <trkpt lat="43.20931500" lon="-1.99191400">
        <ele>222.00000</ele>
        <time>2010-01-01T02:06:19Z</time>
      </trkpt>
      <trkpt lat="43.20922000" lon="-1.99208500">
        <ele>222.00000</ele>
        <time>2010-01-01T02:06:25Z</time>
      </trkpt>
      <trkpt lat="43.20914900" lon="-1.99227900">
        <ele>220.00000</ele>
        <time>2010-01-01T02:06:31Z</time>
      </trkpt>
      <trkpt lat="43.20901900" lon="-1.99251600">
        <ele>220.00000</ele>
        <time>2010-01-01T02:06:40Z</time>
      </trkpt>
      <trkpt lat="43.20896700" lon="-1.99272700">
        <ele>215.00000</ele>
        <time>2010-01-01T02:06:46Z</time>
      </trkpt>
      <trkpt lat="43.20887700" lon="-1.99289600">
        <ele>213.00000</ele>
        <time>2010-01-01T02:06:52Z</time>
      </trkpt>
      <trkpt lat="43.20880500" lon="-1.99300700">
        <ele>211.00000</ele>
        <time>2010-01-01T02:06:57Z</time>
      </trkpt>
      <trkpt lat="43.20879100" lon="-1.99303000">
        <ele>210.00000</ele>
        <time>2010-01-01T02:06:58Z</time>
      </trkpt>
      <trkpt lat="43.20874600" lon="-1.99307500">
        <ele>210.00000</ele>
        <time>2010-01-01T02:07:00Z</time>
      </trkpt>
      <trkpt lat="43.20873500" lon="-1.99308700">
        <ele>209.00000</ele>
        <time>2010-01-01T02:07:00Z</time>
      </trkpt>
      <trkpt lat="43.20869500" lon="-1.99313700">
        <ele>208.00000</ele>
        <time>2010-01-01T02:07:03Z</time>
      </trkpt>
      <trkpt lat="43.20869000" lon="-1.99315300">
        <ele>208.00000</ele>
        <time>2010-01-01T02:07:03Z</time>
      </trkpt>
      <trkpt lat="43.20855400" lon="-1.99327200">
        <ele>205.00000</ele>
        <time>2010-01-01T02:07:10Z</time>
      </trkpt>
      <trkpt lat="43.20853600" lon="-1.99330300">
        <ele>204.00000</ele>
        <time>2010-01-01T02:07:11Z</time>
      </trkpt>
      <trkpt lat="43.20852400" lon="-1.99331300">
        <ele>204.00000</ele>
        <time>2010-01-01T02:07:11Z</time>
      </trkpt>
      <trkpt lat="43.20849900" lon="-1.99333000">
        <ele>204.00000</ele>
        <time>2010-01-01T02:07:12Z</time>
      </trkpt>
      <trkpt lat="43.20834000" lon="-1.99344300">
        <ele>202.00000</ele>
        <time>2010-01-01T02:07:20Z</time>
      </trkpt>
      <trkpt lat="43.20819300" lon="-1.99353300">
        <ele>201.00000</ele>
        <time>2010-01-01T02:07:26Z</time>
      </trkpt>
      <trkpt lat="43.20804800" lon="-1.99362400">
        <ele>201.00000</ele>
        <time>2010-01-01T02:07:32Z</time>
      </trkpt>
      <trkpt lat="43.20788900" lon="-1.99369800">
        <ele>204.00000</ele>
        <time>2010-01-01T02:07:39Z</time>
      </trkpt>
      <trkpt lat="43.20782100" lon="-1.99372300">
        <ele>206.00000</ele>
        <time>2010-01-01T02:07:42Z</time>
      </trkpt>
      <trkpt lat="43.20778900" lon="-1.99376500">
        <ele>206.00000</ele>
        <time>2010-01-01T02:07:44Z</time>
      </trkpt>
      <trkpt lat="43.20778000" lon="-1.99379900">
        <ele>205.00000</ele>
        <time>2010-01-01T02:07:45Z</time>
      </trkpt>
      <trkpt lat="43.20777700" lon="-1.99381700">
        <ele>205.00000</ele>
        <time>2010-01-01T02:07:45Z</time>
      </trkpt>
      <trkpt lat="43.20774000" lon="-1.99399600">
        <ele>201.00000</ele>
        <time>2010-01-01T02:07:51Z</time>
      </trkpt>
      <trkpt lat="43.20769400" lon="-1.99433900">
        <ele>196.00000</ele>
        <time>2010-01-01T02:08:01Z</time>
      </trkpt>
      <trkpt lat="43.20770100" lon="-1.99437800">
        <ele>195.00000</ele>
        <time>2010-01-01T02:08:02Z</time>
      </trkpt>
      <trkpt lat="43.20765400" lon="-1.99460000">
        <ele>195.00000</ele>
        <time>2010-01-01T02:08:09Z</time>
      </trkpt>
      <trkpt lat="43.20763700" lon="-1.99462800">
        <ele>195.00000</ele>
        <time>2010-01-01T02:08:10Z</time>
      </trkpt>
      <trkpt lat="43.20762800" lon="-1.99465600">
        <ele>196.00000</ele>
        <time>2010-01-01T02:08:11Z</time>
      </trkpt>
      <trkpt lat="43.20762800" lon="-1.99469200">
        <ele>195.00000</ele>
        <time>2010-01-01T02:08:12Z</time>
      </trkpt>
      <trkpt lat="43.20762600" lon="-1.99472900">
        <ele>195.00000</ele>
        <time>2010-01-01T02:08:13Z</time>
      </trkpt>
      <trkpt lat="43.20762400" lon="-1.99476800">
        <ele>194.00000</ele>
        <time>2010-01-01T02:08:14Z</time>
      </trkpt>
      <trkpt lat="43.20762100" lon="-1.99479900">
        <ele>194.00000</ele>
        <time>2010-01-01T02:08:15Z</time>
      </trkpt>
      <trkpt lat="43.20761000" lon="-1.99482700">
        <ele>194.00000</ele>
        <time>2010-01-01T02:08:16Z</time>
      </trkpt>
      <trkpt lat="43.20760200" lon="-1.99486000">
        <ele>194.00000</ele>
        <time>2010-01-01T02:08:17Z</time>
      </trkpt>
      <trkpt lat="43.20759700" lon="-1.99493400">
        <ele>194.00000</ele>
        <time>2010-01-01T02:08:19Z</time>
      </trkpt>
      <trkpt lat="43.20758800" lon="-1.99497000">
        <ele>194.00000</ele>
        <time>2010-01-01T02:08:20Z</time>
      </trkpt>
      <trkpt lat="43.20757800" lon="-1.99507800">
        <ele>192.00000</ele>
        <time>2010-01-01T02:08:23Z</time>
      </trkpt>
      <trkpt lat="43.20757000" lon="-1.99511800">
        <ele>192.00000</ele>
        <time>2010-01-01T02:08:25Z</time>
      </trkpt>
      <trkpt lat="43.20756000" lon="-1.99515500">
        <ele>192.00000</ele>
        <time>2010-01-01T02:08:26Z</time>
      </trkpt>
      <trkpt lat="43.20754600" lon="-1.99519300">
        <ele>192.00000</ele>
        <time>2010-01-01T02:08:27Z</time>
      </trkpt>
      <trkpt lat="43.20753300" lon="-1.99522700">
        <ele>192.00000</ele>
        <time>2010-01-01T02:08:28Z</time>
      </trkpt>
      <trkpt lat="43.20752400" lon="-1.99526100">
        <ele>192.00000</ele>
        <time>2010-01-01T02:08:29Z</time>
      </trkpt>
      <trkpt lat="43.20750200" lon="-1.99535500">
        <ele>191.00000</ele>
        <time>2010-01-01T02:08:32Z</time>
      </trkpt>
      <trkpt lat="43.20749000" lon="-1.99537900">
        <ele>192.00000</ele>
        <time>2010-01-01T02:08:33Z</time>
      </trkpt>
      <trkpt lat="43.20748600" lon="-1.99540000">
        <ele>191.00000</ele>
        <time>2010-01-01T02:08:33Z</time>
      </trkpt>
      <trkpt lat="43.20744200" lon="-1.99561700">
        <ele>190.00000</ele>
        <time>2010-01-01T02:08:40Z</time>
      </trkpt>
      <trkpt lat="43.20730300" lon="-1.99572500">
        <ele>192.00000</ele>
        <time>2010-01-01T02:08:46Z</time>
      </trkpt>
      <trkpt lat="43.20728200" lon="-1.99573700">
        <ele>192.00000</ele>
        <time>2010-01-01T02:08:47Z</time>
      </trkpt>
      <trkpt lat="43.20716700" lon="-1.99577100">
        <ele>194.00000</ele>
        <time>2010-01-01T02:08:52Z</time>
      </trkpt>
      <trkpt lat="43.20705300" lon="-1.99574800">
        <ele>197.00000</ele>
        <time>2010-01-01T02:08:57Z</time>
      </trkpt>
      <trkpt lat="43.20701600" lon="-1.99574100">
        <ele>198.00000</ele>
        <time>2010-01-01T02:08:58Z</time>
      </trkpt>
      <trkpt lat="43.20697700" lon="-1.99575500">
        <ele>199.00000</ele>
        <time>2010-01-01T02:09:00Z</time>
      </trkpt>
      <trkpt lat="43.20693800" lon="-1.99578600">
        <ele>199.00000</ele>
        <time>2010-01-01T02:09:02Z</time>
      </trkpt>
      <trkpt lat="43.20688000" lon="-1.99588700">
        <ele>199.00000</ele>
        <time>2010-01-01T02:09:05Z</time>
      </trkpt>
      <trkpt lat="43.20685700" lon="-1.99594400">
        <ele>198.00000</ele>
        <time>2010-01-01T02:09:07Z</time>
      </trkpt>
      <trkpt lat="43.20676700" lon="-1.99614200">
        <ele>199.00000</ele>
        <time>2010-01-01T02:09:14Z</time>
      </trkpt>
      <trkpt lat="43.20673900" lon="-1.99620900">
        <ele>200.00000</ele>
        <time>2010-01-01T02:09:16Z</time>
      </trkpt>
      <trkpt lat="43.20672300" lon="-1.99635000">
        <ele>199.00000</ele>
        <time>2010-01-01T02:09:20Z</time>
      </trkpt>
      <trkpt lat="43.20671800" lon="-1.99641400">
        <ele>198.00000</ele>
        <time>2010-01-01T02:09:22Z</time>
      </trkpt>
      <trkpt lat="43.20670100" lon="-1.99665700">
        <ele>196.00000</ele>
        <time>2010-01-01T02:09:29Z</time>
      </trkpt>
      <trkpt lat="43.20667000" lon="-1.99691800">
        <ele>194.00000</ele>
        <time>2010-01-01T02:09:37Z</time>
      </trkpt>
      <trkpt lat="43.20651500" lon="-1.99722800">
        <ele>194.00000</ele>
        <time>2010-01-01T02:09:48Z</time>
      </trkpt>
      <trkpt lat="43.20632200" lon="-1.99744900">
        <ele>194.00000</ele>
        <time>2010-01-01T02:09:58Z</time>
      </trkpt>
      <trkpt lat="43.20620300" lon="-1.99754700">
        <ele>195.00000</ele>
        <time>2010-01-01T02:10:04Z</time>
      </trkpt>
      <trkpt lat="43.20600800" lon="-1.99770700">
        <ele>197.00000</ele>
        <time>2010-01-01T02:10:13Z</time>
      </trkpt>
      <trkpt lat="43.20595400" lon="-1.99774900">
        <ele>197.00000</ele>
        <time>2010-01-01T02:10:15Z</time>
      </trkpt>
      <trkpt lat="43.20588100" lon="-1.99780500">
        <ele>197.00000</ele>
        <time>2010-01-01T02:10:19Z</time>
      </trkpt>
      <trkpt lat="43.20584700" lon="-1.99788500">
        <ele>197.00000</ele>
        <time>2010-01-01T02:10:21Z</time>
      </trkpt>
      <trkpt lat="43.20584000" lon="-1.99790700">
        <ele>196.00000</ele>
        <time>2010-01-01T02:10:22Z</time>
      </trkpt>
      <trkpt lat="43.20583300" lon="-1.99794100">
        <ele>196.00000</ele>
        <time>2010-01-01T02:10:23Z</time>
      </trkpt>
      <trkpt lat="43.20580000" lon="-1.99819400">
        <ele>194.00000</ele>
        <time>2010-01-01T02:10:31Z</time>
      </trkpt>
      <trkpt lat="43.20580000" lon="-1.99823000">
        <ele>194.00000</ele>
        <time>2010-01-01T02:10:32Z</time>
      </trkpt>
      <trkpt lat="43.20580200" lon="-1.99825900">
        <ele>194.00000</ele>
        <time>2010-01-01T02:10:33Z</time>
      </trkpt>
      <trkpt lat="43.20580600" lon="-1.99828900">
        <ele>194.00000</ele>
        <time>2010-01-01T02:10:33Z</time>
      </trkpt>
      <trkpt lat="43.20581000" lon="-1.99832000">
        <ele>193.00000</ele>
        <time>2010-01-01T02:10:34Z</time>
      </trkpt>
      <trkpt lat="43.20583200" lon="-1.99855100">
        <ele>192.00000</ele>
        <time>2010-01-01T02:10:41Z</time>
      </trkpt>
      <trkpt lat="43.20592500" lon="-1.99872200">
        <ele>190.00000</ele>
        <time>2010-01-01T02:10:47Z</time>
      </trkpt>
      <trkpt lat="43.20594100" lon="-1.99904500">
        <ele>190.00000</ele>
        <time>2010-01-01T02:10:57Z</time>
      </trkpt>
      <trkpt lat="43.20593700" lon="-1.99913300">
        <ele>190.00000</ele>
        <time>2010-01-01T02:10:59Z</time>
      </trkpt>
      <trkpt lat="43.20592700" lon="-1.99920700">
        <ele>190.00000</ele>
        <time>2010-01-01T02:11:02Z</time>
      </trkpt>
      <trkpt lat="43.20592100" lon="-1.99948200">
        <ele>188.00000</ele>
        <time>2010-01-01T02:11:10Z</time>
      </trkpt>
      <trkpt lat="43.20593400" lon="-1.99959600">
        <ele>186.00000</ele>
        <time>2010-01-01T02:11:13Z</time>
      </trkpt>
      <trkpt lat="43.20594900" lon="-1.99964300">
        <ele>185.00000</ele>
        <time>2010-01-01T02:11:14Z</time>
      </trkpt>
      <trkpt lat="43.20600500" lon="-2.00000900">
        <ele>180.00000</ele>
        <time>2010-01-01T02:11:25Z</time>
      </trkpt>
      <trkpt lat="43.20602200" lon="-2.00014800">
        <ele>179.00000</ele>
        <time>2010-01-01T02:11:29Z</time>
      </trkpt>
      <trkpt lat="43.20598900" lon="-2.00037500">
        <ele>178.00000</ele>
        <time>2010-01-01T02:11:36Z</time>
      </trkpt>
      <trkpt lat="43.20588900" lon="-2.00073100">
        <ele>176.00000</ele>
        <time>2010-01-01T02:11:47Z</time>
      </trkpt>
      <trkpt lat="43.20573000" lon="-2.00090500">
        <ele>175.00000</ele>
        <time>2010-01-01T02:11:56Z</time>
      </trkpt>
      <trkpt lat="43.20552400" lon="-2.00110900">
        <ele>171.00000</ele>
        <time>2010-01-01T02:12:06Z</time>
      </trkpt>
      <trkpt lat="43.20533100" lon="-2.00133200">
        <ele>167.00000</ele>
        <time>2010-01-01T02:12:16Z</time>
      </trkpt>
      <trkpt lat="43.20519300" lon="-2.00160100">
        <ele>166.00000</ele>
        <time>2010-01-01T02:12:25Z</time>
      </trkpt>
      <trkpt lat="43.20506200" lon="-2.00184500">
        <ele>164.00000</ele>
        <time>2010-01-01T02:12:34Z</time>
      </trkpt>
      <trkpt lat="43.20493000" lon="-2.00210600">
        <ele>162.00000</ele>
        <time>2010-01-01T02:12:43Z</time>
      </trkpt>
      <trkpt lat="43.20477700" lon="-2.00236300">
        <ele>159.00000</ele>
        <time>2010-01-01T02:12:53Z</time>
      </trkpt>
      <trkpt lat="43.20456700" lon="-2.00259300">
        <ele>154.00000</ele>
        <time>2010-01-01T02:13:04Z</time>
      </trkpt>
      <trkpt lat="43.20438600" lon="-2.00277500">
        <ele>150.00000</ele>
        <time>2010-01-01T02:13:13Z</time>
      </trkpt>
      <trkpt lat="43.20419900" lon="-2.00295500">
        <ele>146.00000</ele>
        <time>2010-01-01T02:13:22Z</time>
      </trkpt>
      <trkpt lat="43.20398100" lon="-2.00317700">
        <ele>144.00000</ele>
        <time>2010-01-01T02:13:33Z</time>
      </trkpt>
      <trkpt lat="43.20382500" lon="-2.00334600">
        <ele>143.00000</ele>
        <time>2010-01-01T02:13:41Z</time>
      </trkpt>
      <trkpt lat="43.20363300" lon="-2.00353700">
        <ele>141.00000</ele>
        <time>2010-01-01T02:13:50Z</time>
      </trkpt>
      <trkpt lat="43.20354800" lon="-2.00361900">
        <ele>140.00000</ele>
        <time>2010-01-01T02:13:55Z</time>
      </trkpt>
      <trkpt lat="43.20339400" lon="-2.00380700">
        <ele>136.00000</ele>
        <time>2010-01-01T02:14:03Z</time>
      </trkpt>
      <trkpt lat="43.20332300" lon="-2.00396200">
        <ele>133.00000</ele>
        <time>2010-01-01T02:14:08Z</time>
      </trkpt>
      <trkpt lat="43.20327100" lon="-2.00427600">
        <ele>131.00000</ele>
        <time>2010-01-01T02:14:18Z</time>
      </trkpt>
      <trkpt lat="43.20327800" lon="-2.00437000">
        <ele>130.00000</ele>
        <time>2010-01-01T02:14:20Z</time>
      </trkpt>
      <trkpt lat="43.20328000" lon="-2.00450000">
        <ele>130.00000</ele>
        <time>2010-01-01T02:14:24Z</time>
      </trkpt>
      <trkpt lat="43.20328500" lon="-2.00478800">
        <ele>129.00000</ele>
        <time>2010-01-01T02:14:32Z</time>
      </trkpt>
      <trkpt lat="43.20320700" lon="-2.00513100">
        <ele>126.00000</ele>
        <time>2010-01-01T02:14:43Z</time>
      </trkpt>
      <trkpt lat="43.20311900" lon="-2.00543600">
        <ele>119.00000</ele>
        <time>2010-01-01T02:14:53Z</time>
      </trkpt>
      <trkpt lat="43.20311500" lon="-2.00554400">
        <ele>117.00000</ele>
        <time>2010-01-01T02:14:56Z</time>
      </trkpt>
      <trkpt lat="43.20312000" lon="-2.00562700">
        <ele>117.00000</ele>
        <time>2010-01-01T02:14:58Z</time>
      </trkpt>
      <trkpt lat="43.20315000" lon="-2.00598600">
        <ele>117.00000</ele>
        <time>2010-01-01T02:15:09Z</time>
      </trkpt>
      <trkpt lat="43.20309300" lon="-2.00613800">
        <ele>116.00000</ele>
        <time>2010-01-01T02:15:14Z</time>
      </trkpt>
      <trkpt lat="43.20305700" lon="-2.00623200">
        <ele>115.00000</ele>
        <time>2010-01-01T02:15:17Z</time>
      </trkpt>
      <trkpt lat="43.20296900" lon="-2.00656100">
        <ele>114.00000</ele>
        <time>2010-01-01T02:15:27Z</time>
      </trkpt>
      <trkpt lat="43.20298300" lon="-2.00677700">
        <ele>113.00000</ele>
        <time>2010-01-01T02:15:33Z</time>
      </trkpt>
      <trkpt lat="43.20303800" lon="-2.00690300">
        <ele>111.00000</ele>
        <time>2010-01-01T02:15:38Z</time>
      </trkpt>
      <trkpt lat="43.20308000" lon="-2.00696600">
        <ele>111.00000</ele>
        <time>2010-01-01T02:15:40Z</time>
      </trkpt>
      <trkpt lat="43.20313400" lon="-2.00736000">
        <ele>109.00000</ele>
        <time>2010-01-01T02:15:52Z</time>
      </trkpt>
      <trkpt lat="43.20311700" lon="-2.00743400">
        <ele>108.00000</ele>
        <time>2010-01-01T02:15:54Z</time>
      </trkpt>
      <trkpt lat="43.20308000" lon="-2.00773000">
        <ele>105.00000</ele>
        <time>2010-01-01T02:16:03Z</time>
      </trkpt>
      <trkpt lat="43.20311200" lon="-2.00774600">
        <ele>106.00000</ele>
        <time>2010-01-01T02:16:04Z</time>
      </trkpt>
      <trkpt lat="43.20501200" lon="-2.00771400">
        <ele>156.00000</ele>
        <time>2010-01-01T02:17:20Z</time>
      </trkpt>
      <trkpt lat="43.20539900" lon="-2.00789000">
        <ele>133.00000</ele>
        <time>2010-01-01T02:17:37Z</time>
      </trkpt>
      <trkpt lat="43.20585300" lon="-2.00809300">
        <ele>112.00000</ele>
        <time>2010-01-01T02:17:56Z</time>
      </trkpt>
      <trkpt lat="43.20589100" lon="-2.00812600">
        <ele>110.00000</ele>
        <time>2010-01-01T02:17:57Z</time>
      </trkpt>
      <trkpt lat="43.20604400" lon="-2.00820900">
        <ele>102.00000</ele>
        <time>2010-01-01T02:18:04Z</time>
      </trkpt>
      <trkpt lat="43.20613700" lon="-2.00830700">
        <ele>96.000000</ele>
        <time>2010-01-01T02:18:09Z</time>
      </trkpt>
      <trkpt lat="43.20624900" lon="-2.00843000">
        <ele>89.000000</ele>
        <time>2010-01-01T02:18:15Z</time>
      </trkpt>
      <trkpt lat="43.20684000" lon="-2.00906600">
        <ele>86.000000</ele>
        <time>2010-01-01T02:18:45Z</time>
      </trkpt>
      <trkpt lat="43.20720000" lon="-2.00940500">
        <ele>91.000000</ele>
        <time>2010-01-01T02:19:02Z</time>
      </trkpt>
      <trkpt lat="43.20750600" lon="-2.00977400">
        <ele>90.000000</ele>
        <time>2010-01-01T02:19:18Z</time>
      </trkpt>
      <trkpt lat="43.20787300" lon="-2.01012300">
        <ele>94.000000</ele>
        <time>2010-01-01T02:19:36Z</time>
      </trkpt>
      <trkpt lat="43.20812700" lon="-2.01045100">
        <ele>93.000000</ele>
        <time>2010-01-01T02:19:50Z</time>
      </trkpt>
      <trkpt lat="43.20838700" lon="-2.01076000">
        <ele>93.000000</ele>
        <time>2010-01-01T02:20:04Z</time>
      </trkpt>
      <trkpt lat="43.20863500" lon="-2.01111200">
        <ele>90.000000</ele>
        <time>2010-01-01T02:20:18Z</time>
      </trkpt>
      <trkpt lat="43.20885900" lon="-2.01159000">
        <ele>86.000000</ele>
        <time>2010-01-01T02:20:35Z</time>
      </trkpt>
      <trkpt lat="43.20906800" lon="-2.01198300">
        <ele>84.000000</ele>
        <time>2010-01-01T02:20:49Z</time>
      </trkpt>
      <trkpt lat="43.20956000" lon="-2.01242300">
        <ele>84.000000</ele>
        <time>2010-01-01T02:21:13Z</time>
      </trkpt>
      <trkpt lat="43.21010800" lon="-2.01277600">
        <ele>86.000000</ele>
        <time>2010-01-01T02:21:37Z</time>
      </trkpt>
      <trkpt lat="43.21043800" lon="-2.01293200">
        <ele>85.000000</ele>
        <time>2010-01-01T02:21:51Z</time>
      </trkpt>
      <trkpt lat="43.21103500" lon="-2.01292400">
        <ele>87.000000</ele>
        <time>2010-01-01T02:22:15Z</time>
      </trkpt>
      <trkpt lat="43.21151600" lon="-2.01266300">
        <ele>92.000000</ele>
        <time>2010-01-01T02:22:35Z</time>
      </trkpt>
      <trkpt lat="43.21184900" lon="-2.01251400">
        <ele>94.000000</ele>
        <time>2010-01-01T02:22:49Z</time>
      </trkpt>
      <trkpt lat="43.21191800" lon="-2.01251100">
        <ele>93.000000</ele>
        <time>2010-01-01T02:22:52Z</time>
      </trkpt>
      <trkpt lat="43.21227100" lon="-2.01264400">
        <ele>91.000000</ele>
        <time>2010-01-01T02:23:07Z</time>
      </trkpt>
      <trkpt lat="43.21275100" lon="-2.01307600">
        <ele>103.00000</ele>
        <time>2010-01-01T02:23:30Z</time>
      </trkpt>
      <trkpt lat="43.21286600" lon="-2.01386300">
        <ele>94.000000</ele>
        <time>2010-01-01T02:23:53Z</time>
      </trkpt>
      <trkpt lat="43.21293400" lon="-2.01419000">
        <ele>85.000000</ele>
        <time>2010-01-01T02:24:03Z</time>
      </trkpt>
      <trkpt lat="43.21304200" lon="-2.01456700">
        <ele>84.000000</ele>
        <time>2010-01-01T02:24:15Z</time>
      </trkpt>
      <trkpt lat="43.21298700" lon="-2.01507100">
        <ele>84.000000</ele>
        <time>2010-01-01T02:24:30Z</time>
      </trkpt>
      <trkpt lat="43.21292600" lon="-2.01558500">
        <ele>85.000000</ele>
        <time>2010-01-01T02:24:45Z</time>
      </trkpt>
      <trkpt lat="43.21289600" lon="-2.01596900">
        <ele>82.000000</ele>
        <time>2010-01-01T02:24:56Z</time>
      </trkpt>
      <trkpt lat="43.21299300" lon="-2.01644200">
        <ele>83.000000</ele>
        <time>2010-01-01T02:25:11Z</time>
      </trkpt>
      <trkpt lat="43.21309700" lon="-2.01700600">
        <ele>79.000000</ele>
        <time>2010-01-01T02:25:28Z</time>
      </trkpt>
      <trkpt lat="43.21318500" lon="-2.01736700">
        <ele>81.000000</ele>
        <time>2010-01-01T02:25:39Z</time>
      </trkpt>
      <trkpt lat="43.21331200" lon="-2.01776100">
        <ele>83.000000</ele>
        <time>2010-01-01T02:25:51Z</time>
      </trkpt>
      <trkpt lat="43.21331300" lon="-2.01777900">
        <ele>83.000000</ele>
        <time>2010-01-01T02:25:52Z</time>
      </trkpt>
      <trkpt lat="43.21335000" lon="-2.01793900">
        <ele>82.000000</ele>
        <time>2010-01-01T02:25:57Z</time>
      </trkpt>
      <trkpt lat="43.21336800" lon="-2.01833800">
        <ele>75.000000</ele>
        <time>2010-01-01T02:26:08Z</time>
      </trkpt>
      <trkpt lat="43.21338900" lon="-2.01866800">
        <ele>70.000000</ele>
        <time>2010-01-01T02:26:18Z</time>
      </trkpt>
      <trkpt lat="43.21346800" lon="-2.01898700">
        <ele>69.000000</ele>
        <time>2010-01-01T02:26:28Z</time>
      </trkpt>
      <trkpt lat="43.21354200" lon="-2.01912400">
        <ele>70.000000</ele>
        <time>2010-01-01T02:26:33Z</time>
      </trkpt>
      <trkpt lat="43.21366200" lon="-2.01913600">
        <ele>71.000000</ele>
        <time>2010-01-01T02:26:38Z</time>
      </trkpt>
      <trkpt lat="43.21368700" lon="-2.01913600">
        <ele>72.000000</ele>
        <time>2010-01-01T02:26:39Z</time>
      </trkpt>
      <trkpt lat="43.21371400" lon="-2.01928300">
        <ele>70.000000</ele>
        <time>2010-01-01T02:26:43Z</time>
      </trkpt>
      <trkpt lat="43.21355800" lon="-2.01928500">
        <ele>68.000000</ele>
        <time>2010-01-01T02:26:49Z</time>
      </trkpt>
      <trkpt lat="43.21340700" lon="-2.01932600">
        <ele>66.000000</ele>
        <time>2010-01-01T02:26:55Z</time>
      </trkpt>
      <trkpt lat="43.21328700" lon="-2.01945700">
        <ele>64.000000</ele>
        <time>2010-01-01T02:27:02Z</time>
      </trkpt>
      <trkpt lat="43.21328500" lon="-2.01951000">
        <ele>64.000000</ele>
        <time>2010-01-01T02:27:03Z</time>
      </trkpt>
      <trkpt lat="43.21328300" lon="-2.01965300">
        <ele>62.000000</ele>
        <time>2010-01-01T02:27:07Z</time>
      </trkpt>
      <trkpt lat="43.21332300" lon="-2.01976200">
        <ele>61.000000</ele>
        <time>2010-01-01T02:27:11Z</time>
      </trkpt>
      <trkpt lat="43.21339000" lon="-2.01987200">
        <ele>60.000000</ele>
        <time>2010-01-01T02:27:15Z</time>
      </trkpt>
      <trkpt lat="43.21348000" lon="-2.01991100">
        <ele>61.000000</ele>
        <time>2010-01-01T02:27:19Z</time>
      </trkpt>
      <trkpt lat="43.21356500" lon="-2.01993800">
        <ele>61.000000</ele>
        <time>2010-01-01T02:27:22Z</time>
      </trkpt>
      <trkpt lat="43.21361600" lon="-2.01998100">
        <ele>61.000000</ele>
        <time>2010-01-01T02:27:25Z</time>
      </trkpt>
      <trkpt lat="43.21368000" lon="-2.02001700">
        <ele>61.000000</ele>
        <time>2010-01-01T02:27:27Z</time>
      </trkpt>
      <trkpt lat="43.21377365" lon="-2.02008426">
        <ele>61.000000</ele>
        <time>2010-01-01T02:27:32Z</time>
      </trkpt>
      <trkpt lat="43.21391049" lon="-2.02017009">
        <ele>61.000000</ele>
        <time>2010-01-01T02:27:38Z</time>
      </trkpt>
      <trkpt lat="43.21402777" lon="-2.02023446">
        <ele>60.000000</ele>
        <time>2010-01-01T02:27:43Z</time>
      </trkpt>
      <trkpt lat="43.21410597" lon="-2.02035248">
        <ele>59.000000</ele>
        <time>2010-01-01T02:27:47Z</time>
      </trkpt>
      <trkpt lat="43.21393785" lon="-2.02039003">
        <ele>58.000000</ele>
        <time>2010-01-01T02:27:54Z</time>
      </trkpt>
      <trkpt lat="43.21378147" lon="-2.02043831">
        <ele>56.000000</ele>
        <time>2010-01-01T02:28:01Z</time>
      </trkpt>
      <trkpt lat="43.21348043" lon="-2.02051341">
        <ele>53.000000</ele>
        <time>2010-01-01T02:28:13Z</time>
      </trkpt>
      <trkpt lat="43.21324585" lon="-2.02058851">
        <ele>51.000000</ele>
        <time>2010-01-01T02:28:23Z</time>
      </trkpt>
      <trkpt lat="43.21328495" lon="-2.02068507">
        <ele>50.000000</ele>
        <time>2010-01-01T02:28:26Z</time>
      </trkpt>
      <trkpt lat="43.21335141" lon="-2.02084064">
        <ele>49.000000</ele>
        <time>2010-01-01T02:28:31Z</time>
      </trkpt>
      <trkpt lat="43.21342178" lon="-2.02094793">
        <ele>48.000000</ele>
        <time>2010-01-01T02:28:35Z</time>
      </trkpt>
      <trkpt lat="43.21352343" lon="-2.02107667">
        <ele>47.000000</ele>
        <time>2010-01-01T02:28:41Z</time>
      </trkpt>
      <trkpt lat="43.21367591" lon="-2.02109813">
        <ele>47.000000</ele>
        <time>2010-01-01T02:28:47Z</time>
      </trkpt>
      <trkpt lat="43.21393394" lon="-2.02110350">
        <ele>48.000000</ele>
        <time>2010-01-01T02:28:57Z</time>
      </trkpt>
      <trkpt lat="43.21792400" lon="-2.02234000">
        <ele>44.000000</ele>
        <time>2010-01-01T00:00:00Z</time>
      </trkpt>
      <trkpt lat="43.21753800" lon="-2.02193700">
        <ele>42.000000</ele>
        <time>2010-01-01T00:00:19Z</time>
      </trkpt>
      <trkpt lat="43.21730600" lon="-2.02151300">
        <ele>46.000000</ele>
        <time>2010-01-01T00:00:34Z</time>
      </trkpt>
      <trkpt lat="43.21704700" lon="-2.02112600">
        <ele>52.000000</ele>
        <time>2010-01-01T00:00:50Z</time>
      </trkpt>
      <trkpt lat="43.21679900" lon="-2.02093900">
        <ele>53.000000</ele>
        <time>2010-01-01T00:01:01Z</time>
      </trkpt>
      <trkpt lat="43.21646100" lon="-2.02090900">
        <ele>54.000000</ele>
        <time>2010-01-01T00:01:15Z</time>
      </trkpt>
      <trkpt lat="43.21584200" lon="-2.02087200">
        <ele>57.000000</ele>
        <time>2010-01-01T00:01:39Z</time>
      </trkpt>
      <trkpt lat="43.21507900" lon="-2.02083900">
        <ele>53.000000</ele>
        <time>2010-01-01T00:02:10Z</time>
      </trkpt>
      <trkpt lat="43.21432900" lon="-2.02087200">
        <ele>53.000000</ele>
        <time>2010-01-01T00:02:40Z</time>
      </trkpt>
      <trkpt lat="43.21423300" lon="-2.02089200">
        <ele>52.000000</ele>
        <time>2010-01-01T00:02:44Z</time>
      </trkpt>
      <trkpt lat="43.21391100" lon="-2.02132100">
        <ele>46.000000</ele>
        <time>2010-01-01T00:03:02Z</time>
      </trkpt>
      <trkpt lat="43.21380700" lon="-2.02209400">
        <ele>46.000000</ele>
        <time>2010-01-01T00:03:25Z</time>
      </trkpt>
      <trkpt lat="43.21372500" lon="-2.02278600">
        <ele>47.000000</ele>
        <time>2010-01-01T00:03:45Z</time>
      </trkpt>
      <trkpt lat="43.21365500" lon="-2.02306400">
        <ele>45.000000</ele>
        <time>2010-01-01T00:03:54Z</time>
      </trkpt>
      <trkpt lat="43.21356700" lon="-2.02324700">
        <ele>46.000000</ele>
        <time>2010-01-01T00:04:00Z</time>
      </trkpt>
      <trkpt lat="43.21330700" lon="-2.02352800">
        <ele>45.000000</ele>
        <time>2010-01-01T00:04:13Z</time>
      </trkpt>
      <trkpt lat="43.21283600" lon="-2.02427100">
        <ele>44.000000</ele>
        <time>2010-01-01T00:04:42Z</time>
      </trkpt>
      <trkpt lat="43.21253000" lon="-2.02465300">
        <ele>45.000000</ele>
        <time>2010-01-01T00:04:59Z</time>
      </trkpt>
      <trkpt lat="43.21235400" lon="-2.02501800">
        <ele>47.000000</ele>
        <time>2010-01-01T00:05:12Z</time>
      </trkpt>
      <trkpt lat="43.21220400" lon="-2.02510100">
        <ele>48.000000</ele>
        <time>2010-01-01T00:05:18Z</time>
      </trkpt>
      <trkpt lat="43.21212200" lon="-2.02523300">
        <ele>48.000000</ele>
        <time>2010-01-01T00:05:23Z</time>
      </trkpt>
      <trkpt lat="43.21194200" lon="-2.02546600">
        <ele>47.000000</ele>
        <time>2010-01-01T00:05:33Z</time>
      </trkpt>
      <trkpt lat="43.21161700" lon="-2.02597500">
        <ele>49.000000</ele>
        <time>2010-01-01T00:05:53Z</time>
      </trkpt>
      <trkpt lat="43.21119800" lon="-2.02699900">
        <ele>50.000000</ele>
        <time>2010-01-01T00:06:27Z</time>
      </trkpt>
      <trkpt lat="43.21115400" lon="-2.02711000">
        <ele>50.000000</ele>
        <time>2010-01-01T00:06:31Z</time>
      </trkpt>
      <trkpt lat="43.21078100" lon="-2.02798300">
        <ele>51.000000</ele>
        <time>2010-01-01T00:07:00Z</time>
      </trkpt>
      <trkpt lat="43.21075600" lon="-2.02803200">
        <ele>52.000000</ele>
        <time>2010-01-01T00:07:02Z</time>
      </trkpt>
      <trkpt lat="43.21021900" lon="-2.02893700">
        <ele>57.000000</ele>
        <time>2010-01-01T00:07:36Z</time>
      </trkpt>
      <trkpt lat="43.20967900" lon="-2.02975300">
        <ele>54.000000</ele>
        <time>2010-01-01T00:08:08Z</time>
      </trkpt>
      <trkpt lat="43.20936400" lon="-2.03020400">
        <ele>54.000000</ele>
        <time>2010-01-01T00:08:26Z</time>
      </trkpt>
      <trkpt lat="43.20944600" lon="-2.03052500">
        <ele>51.000000</ele>
        <time>2010-01-01T00:08:36Z</time>
      </trkpt>
      <trkpt lat="43.20953900" lon="-2.03063600">
        <ele>49.000000</ele>
        <time>2010-01-01T00:08:41Z</time>
      </trkpt>
      <trkpt lat="43.20955000" lon="-2.03098200">
        <ele>47.000000</ele>
        <time>2010-01-01T00:08:51Z</time>
      </trkpt>
      <trkpt lat="43.20926000" lon="-2.03167200">
        <ele>48.000000</ele>
        <time>2010-01-01T00:09:15Z</time>
      </trkpt>
      <trkpt lat="43.20920400" lon="-2.03176900">
        <ele>48.000000</ele>
        <time>2010-01-01T00:09:18Z</time>
      </trkpt>
      <trkpt lat="43.20880100" lon="-2.03265100">
        <ele>48.000000</ele>
        <time>2010-01-01T00:09:49Z</time>
      </trkpt>
      <trkpt lat="43.20868900" lon="-2.03293300">
        <ele>48.000000</ele>
        <time>2010-01-01T00:09:58Z</time>
      </trkpt>
      <trkpt lat="43.20876100" lon="-2.03309500">
        <ele>47.000000</ele>
        <time>2010-01-01T00:10:03Z</time>
      </trkpt>
      <trkpt lat="43.20939500" lon="-2.03392000">
        <ele>47.000000</ele>
        <time>2010-01-01T00:10:38Z</time>
      </trkpt>
      <trkpt lat="43.20946200" lon="-2.03402600">
        <ele>47.000000</ele>
        <time>2010-01-01T00:10:43Z</time>
      </trkpt>
      <trkpt lat="43.20954600" lon="-2.03421100">
        <ele>48.000000</ele>
        <time>2010-01-01T00:10:49Z</time>
      </trkpt>
      <trkpt lat="43.20971400" lon="-2.03466100">
        <ele>48.000000</ele>
        <time>2010-01-01T00:11:04Z</time>
      </trkpt>
      <trkpt lat="43.20987000" lon="-2.03530300">
        <ele>48.000000</ele>
        <time>2010-01-01T00:11:23Z</time>
      </trkpt>
      <trkpt lat="43.20984900" lon="-2.03561400">
        <ele>49.000000</ele>
        <time>2010-01-01T00:11:32Z</time>
      </trkpt>
      <trkpt lat="43.20983600" lon="-2.03566900">
        <ele>49.000000</ele>
        <time>2010-01-01T00:11:34Z</time>
      </trkpt>
      <trkpt lat="43.20980800" lon="-2.03577700">
        <ele>50.000000</ele>
        <time>2010-01-01T00:11:38Z</time>
      </trkpt>
      <trkpt lat="43.20978900" lon="-2.03590300">
        <ele>50.000000</ele>
        <time>2010-01-01T00:11:41Z</time>
      </trkpt>
      <trkpt lat="43.20961000" lon="-2.03649300">
        <ele>51.000000</ele>
        <time>2010-01-01T00:12:00Z</time>
      </trkpt>
      <trkpt lat="43.20952200" lon="-2.03663100">
        <ele>51.000000</ele>
        <time>2010-01-01T00:12:05Z</time>
      </trkpt>
      <trkpt lat="43.20926800" lon="-2.03688500">
        <ele>51.000000</ele>
        <time>2010-01-01T00:12:18Z</time>
      </trkpt>
      <trkpt lat="43.20867800" lon="-2.03754500">
        <ele>51.000000</ele>
        <time>2010-01-01T00:12:48Z</time>
      </trkpt>
      <trkpt lat="43.20826400" lon="-2.03852100">
        <ele>54.000000</ele>
        <time>2010-01-01T00:13:21Z</time>
      </trkpt>
      <trkpt lat="43.20778300" lon="-2.03927300">
        <ele>55.000000</ele>
        <time>2010-01-01T00:13:50Z</time>
      </trkpt>
      <trkpt lat="43.20720300" lon="-2.03992500">
        <ele>59.000000</ele>
        <time>2010-01-01T00:14:20Z</time>
      </trkpt>
      <trkpt lat="43.20709200" lon="-2.04001500">
        <ele>61.000000</ele>
        <time>2010-01-01T00:14:26Z</time>
      </trkpt>
      <trkpt lat="43.20705400" lon="-2.04004200">
        <ele>61.000000</ele>
        <time>2010-01-01T00:14:27Z</time>
      </trkpt>
      <trkpt lat="43.20697700" lon="-2.04011000">
        <ele>63.000000</ele>
        <time>2010-01-01T00:14:31Z</time>
      </trkpt>
      <trkpt lat="43.20686200" lon="-2.04021400">
        <ele>65.000000</ele>
        <time>2010-01-01T00:14:37Z</time>
      </trkpt>
      <trkpt lat="43.20665500" lon="-2.04035300">
        <ele>64.000000</ele>
        <time>2010-01-01T00:14:46Z</time>
      </trkpt>
      <trkpt lat="43.20650800" lon="-2.04040200">
        <ele>61.000000</ele>
        <time>2010-01-01T00:14:52Z</time>
      </trkpt>
      <trkpt lat="43.20645700" lon="-2.04041400">
        <ele>60.000000</ele>
        <time>2010-01-01T00:14:54Z</time>
      </trkpt>
      <trkpt lat="43.20640500" lon="-2.04043100">
        <ele>59.000000</ele>
        <time>2010-01-01T00:14:56Z</time>
      </trkpt>
      <trkpt lat="43.20602000" lon="-2.04061700">
        <ele>55.000000</ele>
        <time>2010-01-01T00:15:12Z</time>
      </trkpt>
      <trkpt lat="43.20546000" lon="-2.04140100">
        <ele>55.000000</ele>
        <time>2010-01-01T00:15:44Z</time>
      </trkpt>
      <trkpt lat="43.20507700" lon="-2.04194600">
        <ele>60.000000</ele>
        <time>2010-01-01T00:16:06Z</time>
      </trkpt>
      <trkpt lat="43.20512700" lon="-2.04224300">
        <ele>63.000000</ele>
        <time>2010-01-01T00:16:15Z</time>
      </trkpt>
      <trkpt lat="43.20545800" lon="-2.04283600">
        <ele>65.000000</ele>
        <time>2010-01-01T00:16:37Z</time>
      </trkpt>
      <trkpt lat="43.20569800" lon="-2.04330800">
        <ele>63.000000</ele>
        <time>2010-01-01T00:16:54Z</time>
      </trkpt>
      <trkpt lat="43.20592200" lon="-2.04379000">
        <ele>65.000000</ele>
        <time>2010-01-01T00:17:11Z</time>
      </trkpt>
      <trkpt lat="43.20582800" lon="-2.04418800">
        <ele>69.000000</ele>
        <time>2010-01-01T00:17:23Z</time>
      </trkpt>
      <trkpt lat="43.20571300" lon="-2.04439100">
        <ele>72.000000</ele>
        <time>2010-01-01T00:17:30Z</time>
      </trkpt>
      <trkpt lat="43.20560200" lon="-2.04460700">
        <ele>76.000000</ele>
        <time>2010-01-01T00:17:38Z</time>
      </trkpt>
      <trkpt lat="43.20550400" lon="-2.04479600">
        <ele>77.000000</ele>
        <time>2010-01-01T00:17:45Z</time>
      </trkpt>
      <trkpt lat="43.20542400" lon="-2.04498200">
        <ele>77.000000</ele>
        <time>2010-01-01T00:17:51Z</time>
      </trkpt>
      <trkpt lat="43.20535900" lon="-2.04511100">
        <ele>78.000000</ele>
        <time>2010-01-01T00:17:56Z</time>
      </trkpt>
      <trkpt lat="43.20533500" lon="-2.04527900">
        <ele>79.000000</ele>
        <time>2010-01-01T00:18:01Z</time>
      </trkpt>
      <trkpt lat="43.20532600" lon="-2.04536300">
        <ele>79.000000</ele>
        <time>2010-01-01T00:18:03Z</time>
      </trkpt>
      <trkpt lat="43.20531900" lon="-2.04551700">
        <ele>80.000000</ele>
        <time>2010-01-01T00:18:08Z</time>
      </trkpt>
      <trkpt lat="43.20536400" lon="-2.04581700">
        <ele>82.000000</ele>
        <time>2010-01-01T00:18:17Z</time>
      </trkpt>
      <trkpt lat="43.20542400" lon="-2.04602100">
        <ele>83.000000</ele>
        <time>2010-01-01T00:18:23Z</time>
      </trkpt>
      <trkpt lat="43.20549800" lon="-2.04624600">
        <ele>86.000000</ele>
        <time>2010-01-01T00:18:30Z</time>
      </trkpt>
      <trkpt lat="43.20556700" lon="-2.04648600">
        <ele>89.000000</ele>
        <time>2010-01-01T00:18:38Z</time>
      </trkpt>
      <trkpt lat="43.20560800" lon="-2.04670600">
        <ele>91.000000</ele>
        <time>2010-01-01T00:18:44Z</time>
      </trkpt>
      <trkpt lat="43.20560600" lon="-2.04698600">
        <ele>92.000000</ele>
        <time>2010-01-01T00:18:53Z</time>
      </trkpt>
      <trkpt lat="43.20560300" lon="-2.04723100">
        <ele>94.000000</ele>
        <time>2010-01-01T00:19:00Z</time>
      </trkpt>
      <trkpt lat="43.20559900" lon="-2.04749900">
        <ele>96.000000</ele>
        <time>2010-01-01T00:19:08Z</time>
      </trkpt>
      <trkpt lat="43.20558000" lon="-2.04775500">
        <ele>98.000000</ele>
        <time>2010-01-01T00:19:15Z</time>
      </trkpt>
      <trkpt lat="43.20559300" lon="-2.04801200">
        <ele>101.00000</ele>
        <time>2010-01-01T00:19:23Z</time>
      </trkpt>
      <trkpt lat="43.20563300" lon="-2.04827800">
        <ele>106.00000</ele>
        <time>2010-01-01T00:19:30Z</time>
      </trkpt>
      <trkpt lat="43.20566200" lon="-2.04842500">
        <ele>107.00000</ele>
        <time>2010-01-01T00:19:35Z</time>
      </trkpt>
      <trkpt lat="43.20572600" lon="-2.04849200">
        <ele>107.00000</ele>
        <time>2010-01-01T00:19:38Z</time>
      </trkpt>
      <trkpt lat="43.20583000" lon="-2.04856000">
        <ele>106.00000</ele>
        <time>2010-01-01T00:19:43Z</time>
      </trkpt>
      <trkpt lat="43.20596900" lon="-2.04879300">
        <ele>103.00000</ele>
        <time>2010-01-01T00:19:52Z</time>
      </trkpt>
      <trkpt lat="43.20610900" lon="-2.04903500">
        <ele>100.00000</ele>
        <time>2010-01-01T00:20:01Z</time>
      </trkpt>
      <trkpt lat="43.20630200" lon="-2.04938500">
        <ele>94.000000</ele>
        <time>2010-01-01T00:20:13Z</time>
      </trkpt>
      <trkpt lat="43.20645400" lon="-2.04957400">
        <ele>90.000000</ele>
        <time>2010-01-01T00:20:22Z</time>
      </trkpt>
      <trkpt lat="43.20659700" lon="-2.04953100">
        <ele>89.000000</ele>
        <time>2010-01-01T00:20:27Z</time>
      </trkpt>
      <trkpt lat="43.20681000" lon="-2.04946800">
        <ele>88.000000</ele>
        <time>2010-01-01T00:20:36Z</time>
      </trkpt>
      <trkpt lat="43.20691500" lon="-2.04959600">
        <ele>89.000000</ele>
        <time>2010-01-01T00:20:42Z</time>
      </trkpt>
      <trkpt lat="43.20692700" lon="-2.04974200">
        <ele>90.000000</ele>
        <time>2010-01-01T00:20:46Z</time>
      </trkpt>
      <trkpt lat="43.20694800" lon="-2.04991800">
        <ele>91.000000</ele>
        <time>2010-01-01T00:20:51Z</time>
      </trkpt>
      <trkpt lat="43.20700000" lon="-2.05009000">
        <ele>94.000000</ele>
        <time>2010-01-01T00:20:57Z</time>
      </trkpt>
      <trkpt lat="43.20700600" lon="-2.05013700">
        <ele>95.000000</ele>
        <time>2010-01-01T00:20:58Z</time>
      </trkpt>
      <trkpt lat="43.20702900" lon="-2.05018400">
        <ele>96.000000</ele>
        <time>2010-01-01T00:21:00Z</time>
      </trkpt>
      <trkpt lat="43.20712000" lon="-2.05040200">
        <ele>99.000000</ele>
        <time>2010-01-01T00:21:07Z</time>
      </trkpt>
      <trkpt lat="43.20714200" lon="-2.05044900">
        <ele>99.000000</ele>
        <time>2010-01-01T00:21:09Z</time>
      </trkpt>
      <trkpt lat="43.20725100" lon="-2.05068000">
        <ele>100.00000</ele>
        <time>2010-01-01T00:21:17Z</time>
      </trkpt>
      <trkpt lat="43.20726600" lon="-2.05070700">
        <ele>100.00000</ele>
        <time>2010-01-01T00:21:18Z</time>
      </trkpt>
      <trkpt lat="43.20728200" lon="-2.05074500">
        <ele>100.00000</ele>
        <time>2010-01-01T00:21:19Z</time>
      </trkpt>
      <trkpt lat="43.20738800" lon="-2.05087800">
        <ele>101.00000</ele>
        <time>2010-01-01T00:21:25Z</time>
      </trkpt>
      <trkpt lat="43.20754200" lon="-2.05110700">
        <ele>103.00000</ele>
        <time>2010-01-01T00:21:34Z</time>
      </trkpt>
      <trkpt lat="43.20767700" lon="-2.05132400">
        <ele>107.00000</ele>
        <time>2010-01-01T00:21:42Z</time>
      </trkpt>
      <trkpt lat="43.20777300" lon="-2.05145600">
        <ele>109.00000</ele>
        <time>2010-01-01T00:21:48Z</time>
      </trkpt>
      <trkpt lat="43.20786000" lon="-2.05157300">
        <ele>113.00000</ele>
        <time>2010-01-01T00:21:52Z</time>
      </trkpt>
      <trkpt lat="43.20805200" lon="-2.05187100">
        <ele>120.00000</ele>
        <time>2010-01-01T00:22:04Z</time>
      </trkpt>
      <trkpt lat="43.20805900" lon="-2.05191800">
        <ele>120.00000</ele>
        <time>2010-01-01T00:22:05Z</time>
      </trkpt>
      <trkpt lat="43.20808400" lon="-2.05200600">
        <ele>122.00000</ele>
        <time>2010-01-01T00:22:08Z</time>
      </trkpt>
      <trkpt lat="43.20820900" lon="-2.05219200">
        <ele>127.00000</ele>
        <time>2010-01-01T00:22:16Z</time>
      </trkpt>
      <trkpt lat="43.20829100" lon="-2.05229100">
        <ele>130.00000</ele>
        <time>2010-01-01T00:22:20Z</time>
      </trkpt>
      <trkpt lat="43.20839100" lon="-2.05245100">
        <ele>133.00000</ele>
        <time>2010-01-01T00:22:26Z</time>
      </trkpt>
      <trkpt lat="43.20840800" lon="-2.05247600">
        <ele>134.00000</ele>
        <time>2010-01-01T00:22:27Z</time>
      </trkpt>
      <trkpt lat="43.20843300" lon="-2.05251800">
        <ele>134.00000</ele>
        <time>2010-01-01T00:22:29Z</time>
      </trkpt>
      <trkpt lat="43.20856000" lon="-2.05271200">
        <ele>137.00000</ele>
        <time>2010-01-01T00:22:36Z</time>
      </trkpt>
      <trkpt lat="43.20870300" lon="-2.05278500">
        <ele>138.00000</ele>
        <time>2010-01-01T00:22:42Z</time>
      </trkpt>
      <trkpt lat="43.20873900" lon="-2.05280400">
        <ele>138.00000</ele>
        <time>2010-01-01T00:22:44Z</time>
      </trkpt>
      <trkpt lat="43.20890300" lon="-2.05295500">
        <ele>139.00000</ele>
        <time>2010-01-01T00:22:52Z</time>
      </trkpt>
      <trkpt lat="43.20891600" lon="-2.05297800">
        <ele>139.00000</ele>
        <time>2010-01-01T00:22:53Z</time>
      </trkpt>
      <trkpt lat="43.20908200" lon="-2.05316500">
        <ele>142.00000</ele>
        <time>2010-01-01T00:23:01Z</time>
      </trkpt>
      <trkpt lat="43.20922300" lon="-2.05320200">
        <ele>145.00000</ele>
        <time>2010-01-01T00:23:07Z</time>
      </trkpt>
      <trkpt lat="43.20925700" lon="-2.05321100">
        <ele>145.00000</ele>
        <time>2010-01-01T00:23:08Z</time>
      </trkpt>
      <trkpt lat="43.20933000" lon="-2.05321600">
        <ele>146.00000</ele>
        <time>2010-01-01T00:23:11Z</time>
      </trkpt>
      <trkpt lat="43.20947000" lon="-2.05326300">
        <ele>147.00000</ele>
        <time>2010-01-01T00:23:17Z</time>
      </trkpt>
      <trkpt lat="43.20949400" lon="-2.05333300">
        <ele>147.00000</ele>
        <time>2010-01-01T00:23:19Z</time>
      </trkpt>
      <trkpt lat="43.20950600" lon="-2.05336900">
        <ele>147.00000</ele>
        <time>2010-01-01T00:23:21Z</time>
      </trkpt>
      <trkpt lat="43.20955500" lon="-2.05351000">
        <ele>148.00000</ele>
        <time>2010-01-01T00:23:25Z</time>
      </trkpt>
      <trkpt lat="43.20973300" lon="-2.05361500">
        <ele>146.00000</ele>
        <time>2010-01-01T00:23:33Z</time>
      </trkpt>
      <trkpt lat="43.20992300" lon="-2.05369300">
        <ele>148.00000</ele>
        <time>2010-01-01T00:23:41Z</time>
      </trkpt>
      <trkpt lat="43.21002600" lon="-2.05377400">
        <ele>149.00000</ele>
        <time>2010-01-01T00:23:46Z</time>
      </trkpt>
      <trkpt lat="43.21008000" lon="-2.05381300">
        <ele>150.00000</ele>
        <time>2010-01-01T00:23:48Z</time>
      </trkpt>
      <trkpt lat="43.21022000" lon="-2.05399800">
        <ele>153.00000</ele>
        <time>2010-01-01T00:23:56Z</time>
      </trkpt>
      <trkpt lat="43.21023300" lon="-2.05401600">
        <ele>154.00000</ele>
        <time>2010-01-01T00:23:57Z</time>
      </trkpt>
      <trkpt lat="43.21035100" lon="-2.05421500">
        <ele>157.00000</ele>
        <time>2010-01-01T00:24:04Z</time>
      </trkpt>
      <trkpt lat="43.21042800" lon="-2.05431500">
        <ele>160.00000</ele>
        <time>2010-01-01T00:24:08Z</time>
      </trkpt>
      <trkpt lat="43.21052700" lon="-2.05453400">
        <ele>160.00000</ele>
        <time>2010-01-01T00:24:16Z</time>
      </trkpt>
      <trkpt lat="43.21058200" lon="-2.05465300">
        <ele>159.00000</ele>
        <time>2010-01-01T00:24:20Z</time>
      </trkpt>
      <trkpt lat="43.21060400" lon="-2.05471600">
        <ele>159.00000</ele>
        <time>2010-01-01T00:24:22Z</time>
      </trkpt>
      <trkpt lat="43.21073700" lon="-2.05479200">
        <ele>161.00000</ele>
        <time>2010-01-01T00:24:28Z</time>
      </trkpt>
      <trkpt lat="43.21089200" lon="-2.05480700">
        <ele>164.00000</ele>
        <time>2010-01-01T00:24:34Z</time>
      </trkpt>
      <trkpt lat="43.21094300" lon="-2.05479500">
        <ele>165.00000</ele>
        <time>2010-01-01T00:24:36Z</time>
      </trkpt>
      <trkpt lat="43.21103700" lon="-2.05474300">
        <ele>167.00000</ele>
        <time>2010-01-01T00:24:40Z</time>
      </trkpt>
      <trkpt lat="43.21112300" lon="-2.05473000">
        <ele>168.00000</ele>
        <time>2010-01-01T00:24:44Z</time>
      </trkpt>
      <trkpt lat="43.21120600" lon="-2.05470800">
        <ele>170.00000</ele>
        <time>2010-01-01T00:24:47Z</time>
      </trkpt>
      <trkpt lat="43.21132500" lon="-2.05471800">
        <ele>171.00000</ele>
        <time>2010-01-01T00:24:52Z</time>
      </trkpt>
      <trkpt lat="43.21140600" lon="-2.05474500">
        <ele>172.00000</ele>
        <time>2010-01-01T00:24:55Z</time>
      </trkpt>
      <trkpt lat="43.21159200" lon="-2.05478700">
        <ele>178.00000</ele>
        <time>2010-01-01T00:25:03Z</time>
      </trkpt>
      <trkpt lat="43.21175900" lon="-2.05486700">
        <ele>182.00000</ele>
        <time>2010-01-01T00:25:10Z</time>
      </trkpt>
      <trkpt lat="43.21182500" lon="-2.05492200">
        <ele>183.00000</ele>
        <time>2010-01-01T00:25:13Z</time>
      </trkpt>
      <trkpt lat="43.21194800" lon="-2.05493000">
        <ele>186.00000</ele>
        <time>2010-01-01T00:25:18Z</time>
      </trkpt>
      <trkpt lat="43.21195900" lon="-2.05493000">
        <ele>186.00000</ele>
        <time>2010-01-01T00:25:18Z</time>
      </trkpt>
      <trkpt lat="43.21198700" lon="-2.05493900">
        <ele>187.00000</ele>
        <time>2010-01-01T00:25:19Z</time>
      </trkpt>
      <trkpt lat="43.21216700" lon="-2.05505300">
        <ele>190.00000</ele>
        <time>2010-01-01T00:25:27Z</time>
      </trkpt>
      <trkpt lat="43.21225900" lon="-2.05509100">
        <ele>193.00000</ele>
        <time>2010-01-01T00:25:31Z</time>
      </trkpt>
      <trkpt lat="43.21241400" lon="-2.05517500">
        <ele>198.00000</ele>
        <time>2010-01-01T00:25:38Z</time>
      </trkpt>
      <trkpt lat="43.21264600" lon="-2.05532600">
        <ele>199.00000</ele>
        <time>2010-01-01T00:25:48Z</time>
      </trkpt>
      <trkpt lat="43.21298000" lon="-2.05545200">
        <ele>198.00000</ele>
        <time>2010-01-01T00:26:02Z</time>
      </trkpt>
      <trkpt lat="43.21302400" lon="-2.05547200">
        <ele>197.00000</ele>
        <time>2010-01-01T00:26:04Z</time>
      </trkpt>
      <trkpt lat="43.21311500" lon="-2.05552600">
        <ele>196.00000</ele>
        <time>2010-01-01T00:26:08Z</time>
      </trkpt>
      <trkpt lat="43.21326200" lon="-2.05558800">
        <ele>197.00000</ele>
        <time>2010-01-01T00:26:14Z</time>
      </trkpt>
      <trkpt lat="43.21333800" lon="-2.05547700">
        <ele>197.00000</ele>
        <time>2010-01-01T00:26:18Z</time>
      </trkpt>
      <trkpt lat="43.21337400" lon="-2.05544900">
        <ele>197.00000</ele>
        <time>2010-01-01T00:26:20Z</time>
      </trkpt>
      <trkpt lat="43.21341000" lon="-2.05542400">
        <ele>198.00000</ele>
        <time>2010-01-01T00:26:22Z</time>
      </trkpt>
      <trkpt lat="43.21341700" lon="-2.05540500">
        <ele>198.00000</ele>
        <time>2010-01-01T00:26:22Z</time>
      </trkpt>
      <trkpt lat="43.21358700" lon="-2.05513800">
        <ele>202.00000</ele>
        <time>2010-01-01T00:26:33Z</time>
      </trkpt>
      <trkpt lat="43.21362400" lon="-2.05504000">
        <ele>203.00000</ele>
        <time>2010-01-01T00:26:36Z</time>
      </trkpt>
      <trkpt lat="43.21373100" lon="-2.05474300">
        <ele>206.00000</ele>
        <time>2010-01-01T00:26:45Z</time>
      </trkpt>
      <trkpt lat="43.21382100" lon="-2.05449100">
        <ele>209.00000</ele>
        <time>2010-01-01T00:26:54Z</time>
      </trkpt>
      <trkpt lat="43.21388600" lon="-2.05422100">
        <ele>210.00000</ele>
        <time>2010-01-01T00:27:02Z</time>
      </trkpt>
      <trkpt lat="43.21392900" lon="-2.05403700">
        <ele>214.00000</ele>
        <time>2010-01-01T00:27:08Z</time>
      </trkpt>
      <trkpt lat="43.21397900" lon="-2.05390900">
        <ele>217.00000</ele>
        <time>2010-01-01T00:27:12Z</time>
      </trkpt>
      <trkpt lat="43.21398700" lon="-2.05386000">
        <ele>217.00000</ele>
        <time>2010-01-01T00:27:13Z</time>
      </trkpt>
      <trkpt lat="43.21400800" lon="-2.05378900">
        <ele>219.00000</ele>
        <time>2010-01-01T00:27:15Z</time>
      </trkpt>
      <trkpt lat="43.21403200" lon="-2.05369600">
        <ele>220.00000</ele>
        <time>2010-01-01T00:27:18Z</time>
      </trkpt>
      <trkpt lat="43.21411100" lon="-2.05351300">
        <ele>221.00000</ele>
        <time>2010-01-01T00:27:25Z</time>
      </trkpt>
      <trkpt lat="43.21414000" lon="-2.05351200">
        <ele>221.00000</ele>
        <time>2010-01-01T00:27:26Z</time>
      </trkpt>
      <trkpt lat="43.21422700" lon="-2.05370500">
        <ele>222.00000</ele>
        <time>2010-01-01T00:27:32Z</time>
      </trkpt>
      <trkpt lat="43.21424900" lon="-2.05371800">
        <ele>222.00000</ele>
        <time>2010-01-01T00:27:33Z</time>
      </trkpt>
      <trkpt lat="43.21428600" lon="-2.05369200">
        <ele>224.00000</ele>
        <time>2010-01-01T00:27:35Z</time>
      </trkpt>
      <trkpt lat="43.21430700" lon="-2.05362000">
        <ele>225.00000</ele>
        <time>2010-01-01T00:27:37Z</time>
      </trkpt>
      <trkpt lat="43.21429800" lon="-2.05344100">
        <ele>225.00000</ele>
        <time>2010-01-01T00:27:42Z</time>
      </trkpt>
      <trkpt lat="43.21426200" lon="-2.05327000">
        <ele>224.00000</ele>
        <time>2010-01-01T00:27:48Z</time>
      </trkpt>
      <trkpt lat="43.21426500" lon="-2.05320000">
        <ele>224.00000</ele>
        <time>2010-01-01T00:27:50Z</time>
      </trkpt>
      <trkpt lat="43.21425100" lon="-2.05309600">
        <ele>225.00000</ele>
        <time>2010-01-01T00:27:53Z</time>
      </trkpt>
      <trkpt lat="43.21424800" lon="-2.05303100">
        <ele>225.00000</ele>
        <time>2010-01-01T00:27:55Z</time>
      </trkpt>
      <trkpt lat="43.21426600" lon="-2.05286800">
        <ele>226.00000</ele>
        <time>2010-01-01T00:27:59Z</time>
      </trkpt>
      <trkpt lat="43.21429900" lon="-2.05283000">
        <ele>227.00000</ele>
        <time>2010-01-01T00:28:01Z</time>
      </trkpt>
      <trkpt lat="43.21431700" lon="-2.05280800">
        <ele>228.00000</ele>
        <time>2010-01-01T00:28:02Z</time>
      </trkpt>
      <trkpt lat="43.21436100" lon="-2.05271200">
        <ele>229.00000</ele>
        <time>2010-01-01T00:28:05Z</time>
      </trkpt>
      <trkpt lat="43.21436100" lon="-2.05259000">
        <ele>230.00000</ele>
        <time>2010-01-01T00:28:09Z</time>
      </trkpt>
      <trkpt lat="43.21439000" lon="-2.05248800">
        <ele>231.00000</ele>
        <time>2010-01-01T00:28:12Z</time>
      </trkpt>
      <trkpt lat="43.21442300" lon="-2.05239600">
        <ele>232.00000</ele>
        <time>2010-01-01T00:28:15Z</time>
      </trkpt>
      <trkpt lat="43.21442600" lon="-2.05234700">
        <ele>233.00000</ele>
        <time>2010-01-01T00:28:17Z</time>
      </trkpt>
      <trkpt lat="43.21446400" lon="-2.05212500">
        <ele>236.00000</ele>
        <time>2010-01-01T00:28:23Z</time>
      </trkpt>
      <trkpt lat="43.21449600" lon="-2.05206900">
        <ele>239.00000</ele>
        <time>2010-01-01T00:28:25Z</time>
      </trkpt>
      <trkpt lat="43.21454000" lon="-2.05191500">
        <ele>243.00000</ele>
        <time>2010-01-01T00:28:30Z</time>
      </trkpt>
      <trkpt lat="43.21455100" lon="-2.05183100">
        <ele>244.00000</ele>
        <time>2010-01-01T00:28:33Z</time>
      </trkpt>
      <trkpt lat="43.21455100" lon="-2.05178900">
        <ele>245.00000</ele>
        <time>2010-01-01T00:28:34Z</time>
      </trkpt>
      <trkpt lat="43.21457600" lon="-2.05160500">
        <ele>248.00000</ele>
        <time>2010-01-01T00:28:39Z</time>
      </trkpt>
      <trkpt lat="43.21462100" lon="-2.05155200">
        <ele>249.00000</ele>
        <time>2010-01-01T00:28:42Z</time>
      </trkpt>
      <trkpt lat="43.21467000" lon="-2.05147400">
        <ele>249.00000</ele>
        <time>2010-01-01T00:28:45Z</time>
      </trkpt>
      <trkpt lat="43.21467700" lon="-2.05143300">
        <ele>250.00000</ele>
        <time>2010-01-01T00:28:46Z</time>
      </trkpt>
      <trkpt lat="43.21471700" lon="-2.05140900">
        <ele>250.00000</ele>
        <time>2010-01-01T00:28:48Z</time>
      </trkpt>
      <trkpt lat="43.21472100" lon="-2.05132700">
        <ele>250.00000</ele>
        <time>2010-01-01T00:28:50Z</time>
      </trkpt>
      <trkpt lat="43.21474700" lon="-2.05128100">
        <ele>251.00000</ele>
        <time>2010-01-01T00:28:52Z</time>
      </trkpt>
      <trkpt lat="43.21485500" lon="-2.05108200">
        <ele>253.00000</ele>
        <time>2010-01-01T00:28:59Z</time>
      </trkpt>
      <trkpt lat="43.21491800" lon="-2.05099500">
        <ele>254.00000</ele>
        <time>2010-01-01T00:29:03Z</time>
      </trkpt>
      <trkpt lat="43.21492600" lon="-2.05091100">
        <ele>254.00000</ele>
        <time>2010-01-01T00:29:05Z</time>
      </trkpt>
      <trkpt lat="43.21493000" lon="-2.05085700">
        <ele>254.00000</ele>
        <time>2010-01-01T00:29:07Z</time>
      </trkpt>
      <trkpt lat="43.21505400" lon="-2.05076000">
        <ele>255.00000</ele>
        <time>2010-01-01T00:29:12Z</time>
      </trkpt>
      <trkpt lat="43.21515200" lon="-2.05068600">
        <ele>258.00000</ele>
        <time>2010-01-01T00:29:17Z</time>
      </trkpt>
      <trkpt lat="43.21522200" lon="-2.05071800">
        <ele>259.00000</ele>
        <time>2010-01-01T00:29:20Z</time>
      </trkpt>
      <trkpt lat="43.21537100" lon="-2.05077800">
        <ele>263.00000</ele>
        <time>2010-01-01T00:29:26Z</time>
      </trkpt>
      <trkpt lat="43.21545500" lon="-2.05065400">
        <ele>263.00000</ele>
        <time>2010-01-01T00:29:31Z</time>
      </trkpt>
      <trkpt lat="43.21549400" lon="-2.05063600">
        <ele>264.00000</ele>
        <time>2010-01-01T00:29:33Z</time>
      </trkpt>
      <trkpt lat="43.21544700" lon="-2.05052900">
        <ele>262.00000</ele>
        <time>2010-01-01T00:29:36Z</time>
      </trkpt>
      <trkpt lat="43.21546800" lon="-2.05033300">
        <ele>263.00000</ele>
        <time>2010-01-01T00:29:42Z</time>
      </trkpt>
      <trkpt lat="43.21548700" lon="-2.05024600">
        <ele>264.00000</ele>
        <time>2010-01-01T00:29:45Z</time>
      </trkpt>
      <trkpt lat="43.21542800" lon="-2.05003000">
        <ele>265.00000</ele>
        <time>2010-01-01T00:29:51Z</time>
      </trkpt>
      <trkpt lat="43.21522800" lon="-2.04959200">
        <ele>268.00000</ele>
        <time>2010-01-01T00:30:07Z</time>
      </trkpt>
      <trkpt lat="43.21520200" lon="-2.04953100">
        <ele>269.00000</ele>
        <time>2010-01-01T00:30:09Z</time>
      </trkpt>
      <trkpt lat="43.21516300" lon="-2.04947900">
        <ele>270.00000</ele>
        <time>2010-01-01T00:30:11Z</time>
      </trkpt>
      <trkpt lat="43.21512500" lon="-2.04934200">
        <ele>273.00000</ele>
        <time>2010-01-01T00:30:15Z</time>
      </trkpt>
      <trkpt lat="43.21508700" lon="-2.04925600">
        <ele>274.00000</ele>
        <time>2010-01-01T00:30:18Z</time>
      </trkpt>
      <trkpt lat="43.21506600" lon="-2.04917400">
        <ele>276.00000</ele>
        <time>2010-01-01T00:30:21Z</time>
      </trkpt>
      <trkpt lat="43.21507000" lon="-2.04907800">
        <ele>277.00000</ele>
        <time>2010-01-01T00:30:23Z</time>
      </trkpt>
      <trkpt lat="43.21509200" lon="-2.04902200">
        <ele>277.00000</ele>
        <time>2010-01-01T00:30:25Z</time>
      </trkpt>
      <trkpt lat="43.21517200" lon="-2.04879400">
        <ele>278.00000</ele>
        <time>2010-01-01T00:30:33Z</time>
      </trkpt>
      <trkpt lat="43.21523000" lon="-2.04862300">
        <ele>279.00000</ele>
        <time>2010-01-01T00:30:38Z</time>
      </trkpt>
      <trkpt lat="43.21534400" lon="-2.04847800">
        <ele>278.00000</ele>
        <time>2010-01-01T00:30:44Z</time>
      </trkpt>
      <trkpt lat="43.21540400" lon="-2.04839900">
        <ele>278.00000</ele>
        <time>2010-01-01T00:30:48Z</time>
      </trkpt>
      <trkpt lat="43.21562300" lon="-2.04824300">
        <ele>275.00000</ele>
        <time>2010-01-01T00:30:57Z</time>
      </trkpt>
      <trkpt lat="43.21564800" lon="-2.04821800">
        <ele>275.00000</ele>
        <time>2010-01-01T00:30:59Z</time>
      </trkpt>
      <trkpt lat="43.21572600" lon="-2.04818100">
        <ele>274.00000</ele>
        <time>2010-01-01T00:31:02Z</time>
      </trkpt>
      <trkpt lat="43.21579000" lon="-2.04824000">
        <ele>274.00000</ele>
        <time>2010-01-01T00:31:05Z</time>
      </trkpt>
      <trkpt lat="43.21585500" lon="-2.04830500">
        <ele>274.00000</ele>
        <time>2010-01-01T00:31:08Z</time>
      </trkpt>
      <trkpt lat="43.21595200" lon="-2.04844900">
        <ele>277.00000</ele>
        <time>2010-01-01T00:31:14Z</time>
      </trkpt>
      <trkpt lat="43.21610000" lon="-2.04856700">
        <ele>280.00000</ele>
        <time>2010-01-01T00:31:21Z</time>
      </trkpt>
      <trkpt lat="43.21622900" lon="-2.04865900">
        <ele>282.00000</ele>
        <time>2010-01-01T00:31:27Z</time>
      </trkpt>
      <trkpt lat="43.21625400" lon="-2.04865800">
        <ele>283.00000</ele>
        <time>2010-01-01T00:31:28Z</time>
      </trkpt>
      <trkpt lat="43.21634400" lon="-2.04869300">
        <ele>284.00000</ele>
        <time>2010-01-01T00:31:31Z</time>
      </trkpt>
      <trkpt lat="43.21639400" lon="-2.04872200">
        <ele>285.00000</ele>
        <time>2010-01-01T00:31:34Z</time>
      </trkpt>
      <trkpt lat="43.21660900" lon="-2.04882700">
        <ele>288.00000</ele>
        <time>2010-01-01T00:31:43Z</time>
      </trkpt>
      <trkpt lat="43.21663600" lon="-2.04885800">
        <ele>289.00000</ele>
        <time>2010-01-01T00:31:44Z</time>
      </trkpt>
      <trkpt lat="43.21669100" lon="-2.04906500">
        <ele>294.00000</ele>
        <time>2010-01-01T00:31:51Z</time>
      </trkpt>
      <trkpt lat="43.21669300" lon="-2.04908100">
        <ele>294.00000</ele>
        <time>2010-01-01T00:31:51Z</time>
      </trkpt>
      <trkpt lat="43.21679400" lon="-2.04902100">
        <ele>296.00000</ele>
        <time>2010-01-01T00:31:56Z</time>
      </trkpt>
      <trkpt lat="43.21681000" lon="-2.04897200">
        <ele>296.00000</ele>
        <time>2010-01-01T00:31:57Z</time>
      </trkpt>
      <trkpt lat="43.21680600" lon="-2.04888700">
        <ele>294.00000</ele>
        <time>2010-01-01T00:32:00Z</time>
      </trkpt>
      <trkpt lat="43.21680300" lon="-2.04879000">
        <ele>293.00000</ele>
        <time>2010-01-01T00:32:02Z</time>
      </trkpt>
      <trkpt lat="43.21679300" lon="-2.04867300">
        <ele>292.00000</ele>
        <time>2010-01-01T00:32:06Z</time>
      </trkpt>
      <trkpt lat="43.21683100" lon="-2.04860300">
        <ele>293.00000</ele>
        <time>2010-01-01T00:32:08Z</time>
      </trkpt>
      <trkpt lat="43.21686000" lon="-2.04857800">
        <ele>294.00000</ele>
        <time>2010-01-01T00:32:10Z</time>
      </trkpt>
      <trkpt lat="43.21692900" lon="-2.04857500">
        <ele>295.00000</ele>
        <time>2010-01-01T00:32:13Z</time>
      </trkpt>
      <trkpt lat="43.21694300" lon="-2.04860000">
        <ele>296.00000</ele>
        <time>2010-01-01T00:32:13Z</time>
      </trkpt>
      <trkpt lat="43.21694600" lon="-2.04863500">
        <ele>296.00000</ele>
        <time>2010-01-01T00:32:14Z</time>
      </trkpt>
      <trkpt lat="43.21695100" lon="-2.04873100">
        <ele>297.00000</ele>
        <time>2010-01-01T00:32:17Z</time>
      </trkpt>
      <trkpt lat="43.21698800" lon="-2.04896800">
        <ele>302.00000</ele>
        <time>2010-01-01T00:32:24Z</time>
      </trkpt>
      <trkpt lat="43.21700400" lon="-2.04899100">
        <ele>303.00000</ele>
        <time>2010-01-01T00:32:25Z</time>
      </trkpt>
      <trkpt lat="43.21702400" lon="-2.04918000">
        <ele>307.00000</ele>
        <time>2010-01-01T00:32:31Z</time>
      </trkpt>
      <trkpt lat="43.21700900" lon="-2.04921800">
        <ele>306.00000</ele>
        <time>2010-01-01T00:32:32Z</time>
      </trkpt>
      <trkpt lat="43.21692400" lon="-2.04942500">
        <ele>306.00000</ele>
        <time>2010-01-01T00:32:39Z</time>
      </trkpt>
      <trkpt lat="43.21688200" lon="-2.04956900">
        <ele>306.00000</ele>
        <time>2010-01-01T00:32:44Z</time>
      </trkpt>
      <trkpt lat="43.21688700" lon="-2.04960700">
        <ele>307.00000</ele>
        <time>2010-01-01T00:32:45Z</time>
      </trkpt>
      <trkpt lat="43.21686200" lon="-2.04982100">
        <ele>308.00000</ele>
        <time>2010-01-01T00:32:51Z</time>
      </trkpt>
      <trkpt lat="43.21686100" lon="-2.04983400">
        <ele>309.00000</ele>
        <time>2010-01-01T00:32:51Z</time>
      </trkpt>
      <trkpt lat="43.21689700" lon="-2.05000000">
        <ele>313.00000</ele>
        <time>2010-01-01T00:32:56Z</time>
      </trkpt>
      <trkpt lat="43.21689800" lon="-2.05015300">
        <ele>314.00000</ele>
        <time>2010-01-01T00:33:01Z</time>
      </trkpt>
      <trkpt lat="43.21693700" lon="-2.05027700">
        <ele>316.00000</ele>
        <time>2010-01-01T00:33:05Z</time>
      </trkpt>
      <trkpt lat="43.21697800" lon="-2.05035200">
        <ele>317.00000</ele>
        <time>2010-01-01T00:33:08Z</time>
      </trkpt>
      <trkpt lat="43.21703700" lon="-2.05049800">
        <ele>319.00000</ele>
        <time>2010-01-01T00:33:12Z</time>
      </trkpt>
      <trkpt lat="43.21711100" lon="-2.05062300">
        <ele>321.00000</ele>
        <time>2010-01-01T00:33:17Z</time>
      </trkpt>
      <trkpt lat="43.21713500" lon="-2.05063900">
        <ele>321.00000</ele>
        <time>2010-01-01T00:33:18Z</time>
      </trkpt>
      <trkpt lat="43.21718600" lon="-2.05064200">
        <ele>323.00000</ele>
        <time>2010-01-01T00:33:20Z</time>
      </trkpt>
      <trkpt lat="43.21734500" lon="-2.05071200">
        <ele>330.00000</ele>
        <time>2010-01-01T00:33:27Z</time>
      </trkpt>
      <trkpt lat="43.21743600" lon="-2.05079900">
        <ele>333.00000</ele>
        <time>2010-01-01T00:33:31Z</time>
      </trkpt>
      <trkpt lat="43.21744700" lon="-2.05080900">
        <ele>334.00000</ele>
        <time>2010-01-01T00:33:32Z</time>
      </trkpt>
      <trkpt lat="43.21747200" lon="-2.05089800">
        <ele>335.00000</ele>
        <time>2010-01-01T00:33:35Z</time>
      </trkpt>
      <trkpt lat="43.21747600" lon="-2.05110400">
        <ele>333.00000</ele>
        <time>2010-01-01T00:33:41Z</time>
      </trkpt>
      <trkpt lat="43.21752000" lon="-2.05123700">
        <ele>335.00000</ele>
        <time>2010-01-01T00:33:45Z</time>
      </trkpt>
      <trkpt lat="43.21760400" lon="-2.05135700">
        <ele>339.00000</ele>
        <time>2010-01-01T00:33:50Z</time>
      </trkpt>
      <trkpt lat="43.21764400" lon="-2.05158800">
        <ele>340.00000</ele>
        <time>2010-01-01T00:33:57Z</time>
      </trkpt>
      <trkpt lat="43.21771800" lon="-2.05173700">
        <ele>343.00000</ele>
        <time>2010-01-01T00:34:02Z</time>
      </trkpt>
      <trkpt lat="43.21776200" lon="-2.05179400">
        <ele>345.00000</ele>
        <time>2010-01-01T00:34:04Z</time>
      </trkpt>
      <trkpt lat="43.21777200" lon="-2.05188700">
        <ele>345.00000</ele>
        <time>2010-01-01T00:34:07Z</time>
      </trkpt>
      <trkpt lat="43.21775900" lon="-2.05197100">
        <ele>345.00000</ele>
        <time>2010-01-01T00:34:10Z</time>
      </trkpt>
      <trkpt lat="43.21773100" lon="-2.05203900">
        <ele>344.00000</ele>
        <time>2010-01-01T00:34:12Z</time>
      </trkpt>
      <trkpt lat="43.21773200" lon="-2.05219700">
        <ele>344.00000</ele>
        <time>2010-01-01T00:34:17Z</time>
      </trkpt>
      <trkpt lat="43.21774700" lon="-2.05233500">
        <ele>346.00000</ele>
        <time>2010-01-01T00:34:21Z</time>
      </trkpt>
      <trkpt lat="43.21774400" lon="-2.05247900">
        <ele>347.00000</ele>
        <time>2010-01-01T00:34:25Z</time>
      </trkpt>
      <trkpt lat="43.21774900" lon="-2.05251100">
        <ele>348.00000</ele>
        <time>2010-01-01T00:34:26Z</time>
      </trkpt>
      <trkpt lat="43.21773800" lon="-2.05274400">
        <ele>350.00000</ele>
        <time>2010-01-01T00:34:33Z</time>
      </trkpt>
      <trkpt lat="43.21771200" lon="-2.05285900">
        <ele>350.00000</ele>
        <time>2010-01-01T00:34:36Z</time>
      </trkpt>
      <trkpt lat="43.21768100" lon="-2.05290300">
        <ele>349.00000</ele>
        <time>2010-01-01T00:34:38Z</time>
      </trkpt>
      <trkpt lat="43.21750900" lon="-2.05315100">
        <ele>345.00000</ele>
        <time>2010-01-01T00:34:48Z</time>
      </trkpt>
      <trkpt lat="43.21748100" lon="-2.05318000">
        <ele>345.00000</ele>
        <time>2010-01-01T00:34:49Z</time>
      </trkpt>
      <trkpt lat="43.21737300" lon="-2.05333200">
        <ele>346.00000</ele>
        <time>2010-01-01T00:34:55Z</time>
      </trkpt>
      <trkpt lat="43.21727500" lon="-2.05358300">
        <ele>353.00000</ele>
        <time>2010-01-01T00:35:04Z</time>
      </trkpt>
      <trkpt lat="43.21715700" lon="-2.05381300">
        <ele>357.00000</ele>
        <time>2010-01-01T00:35:12Z</time>
      </trkpt>
      <trkpt lat="43.21708800" lon="-2.05395500">
        <ele>359.00000</ele>
        <time>2010-01-01T00:35:17Z</time>
      </trkpt>
      <trkpt lat="43.21706900" lon="-2.05410900">
        <ele>361.00000</ele>
        <time>2010-01-01T00:35:22Z</time>
      </trkpt>
      <trkpt lat="43.21707400" lon="-2.05425300">
        <ele>362.00000</ele>
        <time>2010-01-01T00:35:26Z</time>
      </trkpt>
      <trkpt lat="43.21709500" lon="-2.05434900">
        <ele>362.00000</ele>
        <time>2010-01-01T00:35:29Z</time>
      </trkpt>
      <trkpt lat="43.21720200" lon="-2.05467600">
        <ele>364.00000</ele>
        <time>2010-01-01T00:35:39Z</time>
      </trkpt>
      <trkpt lat="43.21724900" lon="-2.05477200">
        <ele>364.00000</ele>
        <time>2010-01-01T00:35:42Z</time>
      </trkpt>
      <trkpt lat="43.21729600" lon="-2.05489500">
        <ele>363.00000</ele>
        <time>2010-01-01T00:35:47Z</time>
      </trkpt>
      <trkpt lat="43.21733800" lon="-2.05494900">
        <ele>364.00000</ele>
        <time>2010-01-01T00:35:49Z</time>
      </trkpt>
      <trkpt lat="43.21746200" lon="-2.05512800">
        <ele>366.00000</ele>
        <time>2010-01-01T00:35:56Z</time>
      </trkpt>
      <trkpt lat="43.21755600" lon="-2.05522000">
        <ele>368.00000</ele>
        <time>2010-01-01T00:36:01Z</time>
      </trkpt>
      <trkpt lat="43.21776400" lon="-2.05540400">
        <ele>372.00000</ele>
        <time>2010-01-01T00:36:11Z</time>
      </trkpt>
      <trkpt lat="43.21795900" lon="-2.05538500">
        <ele>377.00000</ele>
        <time>2010-01-01T00:36:18Z</time>
      </trkpt>
      <trkpt lat="43.21799900" lon="-2.05536500">
        <ele>378.00000</ele>
        <time>2010-01-01T00:36:20Z</time>
      </trkpt>
      <trkpt lat="43.21806200" lon="-2.05535300">
        <ele>380.00000</ele>
        <time>2010-01-01T00:36:23Z</time>
      </trkpt>
      <trkpt lat="43.21816100" lon="-2.05532300">
        <ele>382.00000</ele>
        <time>2010-01-01T00:36:27Z</time>
      </trkpt>
      <trkpt lat="43.21836900" lon="-2.05527400">
        <ele>387.00000</ele>
        <time>2010-01-01T00:36:35Z</time>
      </trkpt>
      <trkpt lat="43.21837900" lon="-2.05527100">
        <ele>388.00000</ele>
        <time>2010-01-01T00:36:36Z</time>
      </trkpt>
      <trkpt lat="43.21860500" lon="-2.05529000">
        <ele>391.00000</ele>
        <time>2010-01-01T00:36:45Z</time>
      </trkpt>
      <trkpt lat="43.21864600" lon="-2.05529400">
        <ele>392.00000</ele>
        <time>2010-01-01T00:36:46Z</time>
      </trkpt>
      <trkpt lat="43.21887400" lon="-2.05552400">
        <ele>392.00000</ele>
        <time>2010-01-01T00:36:58Z</time>
      </trkpt>
      <trkpt lat="43.21908300" lon="-2.05571200">
        <ele>392.00000</ele>
        <time>2010-01-01T00:37:08Z</time>
      </trkpt>
      <trkpt lat="43.21935500" lon="-2.05595500">
        <ele>397.00000</ele>
        <time>2010-01-01T00:37:21Z</time>
      </trkpt>
      <trkpt lat="43.21951600" lon="-2.05620900">
        <ele>397.00000</ele>
        <time>2010-01-01T00:37:30Z</time>
      </trkpt>
      <trkpt lat="43.21962000" lon="-2.05654700">
        <ele>394.00000</ele>
        <time>2010-01-01T00:37:41Z</time>
      </trkpt>
      <trkpt lat="43.21966100" lon="-2.05663500">
        <ele>394.00000</ele>
        <time>2010-01-01T00:37:44Z</time>
      </trkpt>
      <trkpt lat="43.21972500" lon="-2.05676100">
        <ele>394.00000</ele>
        <time>2010-01-01T00:37:49Z</time>
      </trkpt>
      <trkpt lat="43.21982800" lon="-2.05714100">
        <ele>395.00000</ele>
        <time>2010-01-01T00:38:00Z</time>
      </trkpt>
      <trkpt lat="43.21984300" lon="-2.05746300">
        <ele>397.00000</ele>
        <time>2010-01-01T00:38:10Z</time>
      </trkpt>
      <trkpt lat="43.21986100" lon="-2.05765000">
        <ele>400.00000</ele>
        <time>2010-01-01T00:38:15Z</time>
      </trkpt>
      <trkpt lat="43.21985500" lon="-2.05769100">
        <ele>400.00000</ele>
        <time>2010-01-01T00:38:17Z</time>
      </trkpt>
      <trkpt lat="43.21984200" lon="-2.05775800">
        <ele>400.00000</ele>
        <time>2010-01-01T00:38:19Z</time>
      </trkpt>
      <trkpt lat="43.21984100" lon="-2.05775900">
        <ele>400.00000</ele>
        <time>2010-01-01T00:38:19Z</time>
      </trkpt>
      <trkpt lat="43.21984000" lon="-2.05776000">
        <ele>400.00000</ele>
        <time>2010-01-01T00:38:19Z</time>
      </trkpt>
      <trkpt lat="43.21984100" lon="-2.05776100">
        <ele>400.00000</ele>
        <time>2010-01-01T00:38:19Z</time>
      </trkpt>
      <trkpt lat="43.21984900" lon="-2.05776400">
        <ele>401.00000</ele>
        <time>2010-01-01T00:38:19Z</time>
      </trkpt>
      <trkpt lat="43.21984900" lon="-2.05776000">
        <ele>400.00000</ele>
        <time>2010-01-01T00:38:19Z</time>
      </trkpt>
      <trkpt lat="43.21985600" lon="-2.05776800">
        <ele>401.00000</ele>
        <time>2010-01-01T00:38:20Z</time>
      </trkpt>
      <trkpt lat="43.21985700" lon="-2.05776900">
        <ele>401.00000</ele>
        <time>2010-01-01T00:38:20Z</time>
      </trkpt>
      <trkpt lat="43.21985700" lon="-2.05777000">
        <ele>401.00000</ele>
        <time>2010-01-01T00:38:20Z</time>
      </trkpt>
      <trkpt lat="43.21985700" lon="-2.05777100">
        <ele>401.00000</ele>
        <time>2010-01-01T00:38:20Z</time>
      </trkpt>
      <trkpt lat="43.21986100" lon="-2.05777500">
        <ele>401.00000</ele>
        <time>2010-01-01T00:38:20Z</time>
      </trkpt>
      <trkpt lat="43.21986000" lon="-2.05777100">
        <ele>401.00000</ele>
        <time>2010-01-01T00:38:20Z</time>
      </trkpt>
      <trkpt lat="43.21985700" lon="-2.05776400">
        <ele>401.00000</ele>
        <time>2010-01-01T00:38:20Z</time>
      </trkpt>
      <trkpt lat="43.21985600" lon="-2.05776400">
        <ele>401.00000</ele>
        <time>2010-01-01T00:38:20Z</time>
      </trkpt>
      <trkpt lat="43.21985600" lon="-2.05776300">
        <ele>401.00000</ele>
        <time>2010-01-01T00:38:20Z</time>
      </trkpt>
      <trkpt lat="43.21985600" lon="-2.05776200">
        <ele>401.00000</ele>
        <time>2010-01-01T00:38:20Z</time>
      </trkpt>
      <trkpt lat="43.21985700" lon="-2.05776200">
        <ele>401.00000</ele>
        <time>2010-01-01T00:38:20Z</time>
      </trkpt>
      <trkpt lat="43.21985700" lon="-2.05776300">
        <ele>401.00000</ele>
        <time>2010-01-01T00:38:20Z</time>
      </trkpt>
      <trkpt lat="43.21985300" lon="-2.05776100">
        <ele>401.00000</ele>
        <time>2010-01-01T00:38:20Z</time>
      </trkpt>
      <trkpt lat="43.21985200" lon="-2.05776000">
        <ele>401.00000</ele>
        <time>2010-01-01T00:38:20Z</time>
      </trkpt>
      <trkpt lat="43.21985200" lon="-2.05775900">
        <ele>401.00000</ele>
        <time>2010-01-01T00:38:20Z</time>
      </trkpt>
      <trkpt lat="43.21984500" lon="-2.05777100">
        <ele>401.00000</ele>
        <time>2010-01-01T00:38:21Z</time>
      </trkpt>
      <trkpt lat="43.21985100" lon="-2.05777100">
        <ele>401.00000</ele>
        <time>2010-01-01T00:38:21Z</time>
      </trkpt>
      <trkpt lat="43.21984700" lon="-2.05776100">
        <ele>400.00000</ele>
        <time>2010-01-01T00:38:22Z</time>
      </trkpt>
      <trkpt lat="43.21989700" lon="-2.05807100">
        <ele>402.00000</ele>
        <time>2010-01-01T00:38:31Z</time>
      </trkpt>
      <trkpt lat="43.21988600" lon="-2.05823700">
        <ele>402.00000</ele>
        <time>2010-01-01T00:38:36Z</time>
      </trkpt>
      <trkpt lat="43.21985300" lon="-2.05861700">
        <ele>403.00000</ele>
        <time>2010-01-01T00:38:47Z</time>
      </trkpt>
      <trkpt lat="43.21988600" lon="-2.05905500">
        <ele>407.00000</ele>
        <time>2010-01-01T00:39:00Z</time>
      </trkpt>
      <trkpt lat="43.21999800" lon="-2.05926800">
        <ele>410.00000</ele>
        <time>2010-01-01T00:39:07Z</time>
      </trkpt>
      <trkpt lat="43.22019400" lon="-2.05953700">
        <ele>412.00000</ele>
        <time>2010-01-01T00:39:18Z</time>
      </trkpt>
      <trkpt lat="43.22021200" lon="-2.05956300">
        <ele>412.00000</ele>
        <time>2010-01-01T00:39:19Z</time>
      </trkpt>
      <trkpt lat="43.22035500" lon="-2.06000400">
        <ele>414.00000</ele>
        <time>2010-01-01T00:39:34Z</time>
      </trkpt>
      <trkpt lat="43.22049500" lon="-2.06040000">
        <ele>416.00000</ele>
        <time>2010-01-01T00:39:46Z</time>
      </trkpt>
      <trkpt lat="43.22059200" lon="-2.06064900">
        <ele>416.00000</ele>
        <time>2010-01-01T00:39:55Z</time>
      </trkpt>
      <trkpt lat="43.22073500" lon="-2.06103800">
        <ele>413.00000</ele>
        <time>2010-01-01T00:40:07Z</time>
      </trkpt>
      <trkpt lat="43.22089800" lon="-2.06145200">
        <ele>411.00000</ele>
        <time>2010-01-01T00:40:21Z</time>
      </trkpt>
      <trkpt lat="43.22096700" lon="-2.06165600">
        <ele>412.00000</ele>
        <time>2010-01-01T00:40:28Z</time>
      </trkpt>
      <trkpt lat="43.22106200" lon="-2.06175900">
        <ele>412.00000</ele>
        <time>2010-01-01T00:40:32Z</time>
      </trkpt>
      <trkpt lat="43.22114500" lon="-2.06179100">
        <ele>412.00000</ele>
        <time>2010-01-01T00:40:36Z</time>
      </trkpt>
      <trkpt lat="43.22148800" lon="-2.06194100">
        <ele>410.00000</ele>
        <time>2010-01-01T00:40:50Z</time>
      </trkpt>
      <trkpt lat="43.22157100" lon="-2.06197100">
        <ele>409.00000</ele>
        <time>2010-01-01T00:40:54Z</time>
      </trkpt>
      <trkpt lat="43.22165100" lon="-2.06202900">
        <ele>408.00000</ele>
        <time>2010-01-01T00:40:57Z</time>
      </trkpt>
      <trkpt lat="43.22186200" lon="-2.06229400">
        <ele>404.00000</ele>
        <time>2010-01-01T00:41:09Z</time>
      </trkpt>
      <trkpt lat="43.22203100" lon="-2.06254500">
        <ele>402.00000</ele>
        <time>2010-01-01T00:41:19Z</time>
      </trkpt>
      <trkpt lat="43.22210900" lon="-2.06268600">
        <ele>402.00000</ele>
        <time>2010-01-01T00:41:24Z</time>
      </trkpt>
      <trkpt lat="43.22221600" lon="-2.06290100">
        <ele>402.00000</ele>
        <time>2010-01-01T00:41:32Z</time>
      </trkpt>
      <trkpt lat="43.22238500" lon="-2.06317400">
        <ele>399.00000</ele>
        <time>2010-01-01T00:41:42Z</time>
      </trkpt>
      <trkpt lat="43.22253200" lon="-2.06342300">
        <ele>396.00000</ele>
        <time>2010-01-01T00:41:51Z</time>
      </trkpt>
      <trkpt lat="43.22270800" lon="-2.06367500">
        <ele>391.00000</ele>
        <time>2010-01-01T00:42:02Z</time>
      </trkpt>
      <trkpt lat="43.22303200" lon="-2.06412400">
        <ele>386.00000</ele>
        <time>2010-01-01T00:42:20Z</time>
      </trkpt>
      <trkpt lat="43.22321500" lon="-2.06433600">
        <ele>383.00000</ele>
        <time>2010-01-01T00:42:30Z</time>
      </trkpt>
      <trkpt lat="43.22325800" lon="-2.06437700">
        <ele>383.00000</ele>
        <time>2010-01-01T00:42:32Z</time>
      </trkpt>
      <trkpt lat="43.22344400" lon="-2.06446100">
        <ele>380.00000</ele>
        <time>2010-01-01T00:42:39Z</time>
      </trkpt>
      <trkpt lat="43.22349600" lon="-2.06447400">
        <ele>379.00000</ele>
        <time>2010-01-01T00:42:42Z</time>
      </trkpt>
      <trkpt lat="43.22365300" lon="-2.06447900">
        <ele>377.00000</ele>
        <time>2010-01-01T00:42:48Z</time>
      </trkpt>
      <trkpt lat="43.22368200" lon="-2.06449500">
        <ele>376.00000</ele>
        <time>2010-01-01T00:42:49Z</time>
      </trkpt>
      <trkpt lat="43.22351800" lon="-2.06460400">
        <ele>376.00000</ele>
        <time>2010-01-01T00:42:56Z</time>
      </trkpt>
      <trkpt lat="43.22306300" lon="-2.06467000">
        <ele>378.00000</ele>
        <time>2010-01-01T00:43:15Z</time>
      </trkpt>
      <trkpt lat="43.22277800" lon="-2.06458200">
        <ele>378.00000</ele>
        <time>2010-01-01T00:43:26Z</time>
      </trkpt>
      <trkpt lat="43.22262400" lon="-2.06451700">
        <ele>377.00000</ele>
        <time>2010-01-01T00:43:33Z</time>
      </trkpt>
      <trkpt lat="43.22239300" lon="-2.06434300">
        <ele>377.00000</ele>
        <time>2010-01-01T00:43:43Z</time>
      </trkpt>
      <trkpt lat="43.22226800" lon="-2.06417500">
        <ele>378.00000</ele>
        <time>2010-01-01T00:43:50Z</time>
      </trkpt>
      <trkpt lat="43.22192300" lon="-2.06382500">
        <ele>379.00000</ele>
        <time>2010-01-01T00:44:08Z</time>
      </trkpt>
      <trkpt lat="43.22173600" lon="-2.06369900">
        <ele>377.00000</ele>
        <time>2010-01-01T00:44:16Z</time>
      </trkpt>
      <trkpt lat="43.22156500" lon="-2.06363000">
        <ele>376.00000</ele>
        <time>2010-01-01T00:44:23Z</time>
      </trkpt>
      <trkpt lat="43.22118500" lon="-2.06342100">
        <ele>378.00000</ele>
        <time>2010-01-01T00:44:39Z</time>
      </trkpt>
      <trkpt lat="43.22063200" lon="-2.06336100">
        <ele>367.00000</ele>
        <time>2010-01-01T00:45:02Z</time>
      </trkpt>
      <trkpt lat="43.22025400" lon="-2.06321400">
        <ele>365.00000</ele>
        <time>2010-01-01T00:45:17Z</time>
      </trkpt>
      <trkpt lat="43.22004600" lon="-2.06305100">
        <ele>362.00000</ele>
        <time>2010-01-01T00:45:27Z</time>
      </trkpt>
      <trkpt lat="43.22006800" lon="-2.06318600">
        <ele>361.00000</ele>
        <time>2010-01-01T00:45:31Z</time>
      </trkpt>
      <trkpt lat="43.22008300" lon="-2.06322900">
        <ele>361.00000</ele>
        <time>2010-01-01T00:45:32Z</time>
      </trkpt>
      <trkpt lat="43.22044700" lon="-2.06378100">
        <ele>355.00000</ele>
        <time>2010-01-01T00:45:54Z</time>
      </trkpt>
      <trkpt lat="43.22062000" lon="-2.06409100">
        <ele>354.00000</ele>
        <time>2010-01-01T00:46:06Z</time>
      </trkpt>
      <trkpt lat="43.22075700" lon="-2.06431900">
        <ele>355.00000</ele>
        <time>2010-01-01T00:46:14Z</time>
      </trkpt>
      <trkpt lat="43.22086000" lon="-2.06443300">
        <ele>356.00000</ele>
        <time>2010-01-01T00:46:19Z</time>
      </trkpt>
      <trkpt lat="43.22101600" lon="-2.06449000">
        <ele>356.00000</ele>
        <time>2010-01-01T00:46:26Z</time>
      </trkpt>
      <trkpt lat="43.22120200" lon="-2.06452300">
        <ele>358.00000</ele>
        <time>2010-01-01T00:46:33Z</time>
      </trkpt>
      <trkpt lat="43.22155500" lon="-2.06450900">
        <ele>364.00000</ele>
        <time>2010-01-01T00:46:48Z</time>
      </trkpt>
      <trkpt lat="43.22163500" lon="-2.06452100">
        <ele>365.00000</ele>
        <time>2010-01-01T00:46:51Z</time>
      </trkpt>
      <trkpt lat="43.22172000" lon="-2.06455600">
        <ele>366.00000</ele>
        <time>2010-01-01T00:46:54Z</time>
      </trkpt>
      <trkpt lat="43.22204900" lon="-2.06484700">
        <ele>364.00000</ele>
        <time>2010-01-01T00:47:10Z</time>
      </trkpt>
      <trkpt lat="43.22208000" lon="-2.06489000">
        <ele>364.00000</ele>
        <time>2010-01-01T00:47:12Z</time>
      </trkpt>
      <trkpt lat="43.22215100" lon="-2.06495400">
        <ele>364.00000</ele>
        <time>2010-01-01T00:47:15Z</time>
      </trkpt>
      <trkpt lat="43.22235500" lon="-2.06507000">
        <ele>363.00000</ele>
        <time>2010-01-01T00:47:24Z</time>
      </trkpt>
      <trkpt lat="43.22259000" lon="-2.06510300">
        <ele>364.00000</ele>
        <time>2010-01-01T00:47:33Z</time>
      </trkpt>
      <trkpt lat="43.22286300" lon="-2.06515400">
        <ele>364.00000</ele>
        <time>2010-01-01T00:47:44Z</time>
      </trkpt>
      <trkpt lat="43.22300900" lon="-2.06518800">
        <ele>363.00000</ele>
        <time>2010-01-01T00:47:50Z</time>
      </trkpt>
      <trkpt lat="43.22311400" lon="-2.06522500">
        <ele>362.00000</ele>
        <time>2010-01-01T00:47:55Z</time>
      </trkpt>
      <trkpt lat="43.22340700" lon="-2.06527300">
        <ele>362.00000</ele>
        <time>2010-01-01T00:48:07Z</time>
      </trkpt>
      <trkpt lat="43.22348600" lon="-2.06531400">
        <ele>362.00000</ele>
        <time>2010-01-01T00:48:10Z</time>
      </trkpt>
      <trkpt lat="43.22364500" lon="-2.06541900">
        <ele>361.00000</ele>
        <time>2010-01-01T00:48:17Z</time>
      </trkpt>
      <trkpt lat="43.22390900" lon="-2.06568400">
        <ele>357.00000</ele>
        <time>2010-01-01T00:48:30Z</time>
      </trkpt>
      <trkpt lat="43.22409200" lon="-2.06594900">
        <ele>353.00000</ele>
        <time>2010-01-01T00:48:41Z</time>
      </trkpt>
      <trkpt lat="43.22419400" lon="-2.06608800">
        <ele>351.00000</ele>
        <time>2010-01-01T00:48:47Z</time>
      </trkpt>
      <trkpt lat="43.22437400" lon="-2.06630900">
        <ele>348.00000</ele>
        <time>2010-01-01T00:48:56Z</time>
      </trkpt>
      <trkpt lat="43.22473900" lon="-2.06650100">
        <ele>347.00000</ele>
        <time>2010-01-01T00:49:12Z</time>
      </trkpt>
      <trkpt lat="43.22494700" lon="-2.06651600">
        <ele>347.00000</ele>
        <time>2010-01-01T00:49:20Z</time>
      </trkpt>
      <trkpt lat="43.22509300" lon="-2.06661300">
        <ele>348.00000</ele>
        <time>2010-01-01T00:49:27Z</time>
      </trkpt>
      <trkpt lat="43.22525300" lon="-2.06708500">
        <ele>347.00000</ele>
        <time>2010-01-01T00:49:42Z</time>
      </trkpt>
      <trkpt lat="43.22527000" lon="-2.06712500">
        <ele>346.00000</ele>
        <time>2010-01-01T00:49:43Z</time>
      </trkpt>
      <trkpt lat="43.22543100" lon="-2.06736800">
        <ele>347.00000</ele>
        <time>2010-01-01T00:49:53Z</time>
      </trkpt>
      <trkpt lat="43.22557600" lon="-2.06761600">
        <ele>346.00000</ele>
        <time>2010-01-01T00:50:02Z</time>
      </trkpt>
      <trkpt lat="43.22569000" lon="-2.06774200">
        <ele>344.00000</ele>
        <time>2010-01-01T00:50:08Z</time>
      </trkpt>
      <trkpt lat="43.22578800" lon="-2.06782900">
        <ele>344.00000</ele>
        <time>2010-01-01T00:50:13Z</time>
      </trkpt>
      <trkpt lat="43.22595400" lon="-2.06805600">
        <ele>343.00000</ele>
        <time>2010-01-01T00:50:22Z</time>
      </trkpt>
      <trkpt lat="43.22602700" lon="-2.06822300">
        <ele>344.00000</ele>
        <time>2010-01-01T00:50:28Z</time>
      </trkpt>
      <trkpt lat="43.22616600" lon="-2.06857200">
        <ele>346.00000</ele>
        <time>2010-01-01T00:50:39Z</time>
      </trkpt>
      <trkpt lat="43.22625800" lon="-2.06898700">
        <ele>349.00000</ele>
        <time>2010-01-01T00:50:52Z</time>
      </trkpt>
      <trkpt lat="43.22629200" lon="-2.06926200">
        <ele>351.00000</ele>
        <time>2010-01-01T00:51:00Z</time>
      </trkpt>
      <trkpt lat="43.22645200" lon="-2.06956500">
        <ele>354.00000</ele>
        <time>2010-01-01T00:51:11Z</time>
      </trkpt>
      <trkpt lat="43.22662100" lon="-2.06988000">
        <ele>355.00000</ele>
        <time>2010-01-01T00:51:22Z</time>
      </trkpt>
      <trkpt lat="43.22663900" lon="-2.06992000">
        <ele>355.00000</ele>
        <time>2010-01-01T00:51:24Z</time>
      </trkpt>
      <trkpt lat="43.22696800" lon="-2.07035700">
        <ele>353.00000</ele>
        <time>2010-01-01T00:51:42Z</time>
      </trkpt>
      <trkpt lat="43.22720700" lon="-2.07072000">
        <ele>349.00000</ele>
        <time>2010-01-01T00:51:56Z</time>
      </trkpt>
      <trkpt lat="43.22742600" lon="-2.07113000">
        <ele>345.00000</ele>
        <time>2010-01-01T00:52:11Z</time>
      </trkpt>
      <trkpt lat="43.22749100" lon="-2.07143700">
        <ele>342.00000</ele>
        <time>2010-01-01T00:52:20Z</time>
      </trkpt>
      <trkpt lat="43.22750900" lon="-2.07158900">
        <ele>342.00000</ele>
        <time>2010-01-01T00:52:25Z</time>
      </trkpt>
      <trkpt lat="43.22753400" lon="-2.07171200">
        <ele>342.00000</ele>
        <time>2010-01-01T00:52:29Z</time>
      </trkpt>
      <trkpt lat="43.22765700" lon="-2.07214000">
        <ele>343.00000</ele>
        <time>2010-01-01T00:52:42Z</time>
      </trkpt>
      <trkpt lat="43.22778700" lon="-2.07251500">
        <ele>345.00000</ele>
        <time>2010-01-01T00:52:54Z</time>
      </trkpt>
      <trkpt lat="43.22782800" lon="-2.07286200">
        <ele>347.00000</ele>
        <time>2010-01-01T00:53:04Z</time>
      </trkpt>
      <trkpt lat="43.22784600" lon="-2.07325000">
        <ele>348.00000</ele>
        <time>2010-01-01T00:53:16Z</time>
      </trkpt>
      <trkpt lat="43.22788400" lon="-2.07343600">
        <ele>349.00000</ele>
        <time>2010-01-01T00:53:21Z</time>
      </trkpt>
      <trkpt lat="43.22794500" lon="-2.07371000">
        <ele>351.00000</ele>
        <time>2010-01-01T00:53:30Z</time>
      </trkpt>
      <trkpt lat="43.22803600" lon="-2.07395900">
        <ele>351.00000</ele>
        <time>2010-01-01T00:53:38Z</time>
      </trkpt>
      <trkpt lat="43.22807800" lon="-2.07424900">
        <ele>352.00000</ele>
        <time>2010-01-01T00:53:47Z</time>
      </trkpt>
      <trkpt lat="43.22810000" lon="-2.07439000">
        <ele>351.00000</ele>
        <time>2010-01-01T00:53:51Z</time>
      </trkpt>
      <trkpt lat="43.22819500" lon="-2.07464200">
        <ele>349.00000</ele>
        <time>2010-01-01T00:53:59Z</time>
      </trkpt>
      <trkpt lat="43.22821100" lon="-2.07473600">
        <ele>349.00000</ele>
        <time>2010-01-01T00:54:02Z</time>
      </trkpt>
      <trkpt lat="43.22816200" lon="-2.07507600">
        <ele>349.00000</ele>
        <time>2010-01-01T00:54:12Z</time>
      </trkpt>
      <trkpt lat="43.22812500" lon="-2.07531700">
        <ele>351.00000</ele>
        <time>2010-01-01T00:54:19Z</time>
      </trkpt>
      <trkpt lat="43.22813100" lon="-2.07571900">
        <ele>355.00000</ele>
        <time>2010-01-01T00:54:31Z</time>
      </trkpt>
      <trkpt lat="43.22815800" lon="-2.07584700">
        <ele>357.00000</ele>
        <time>2010-01-01T00:54:35Z</time>
      </trkpt>
      <trkpt lat="43.22817000" lon="-2.07599400">
        <ele>358.00000</ele>
        <time>2010-01-01T00:54:39Z</time>
      </trkpt>
      <trkpt lat="43.22816400" lon="-2.07609700">
        <ele>359.00000</ele>
        <time>2010-01-01T00:54:42Z</time>
      </trkpt>
      <trkpt lat="43.22809200" lon="-2.07628100">
        <ele>361.00000</ele>
        <time>2010-01-01T00:54:48Z</time>
      </trkpt>
      <trkpt lat="43.22799900" lon="-2.07651500">
        <ele>361.00000</ele>
        <time>2010-01-01T00:54:56Z</time>
      </trkpt>
      <trkpt lat="43.22791500" lon="-2.07668700">
        <ele>360.00000</ele>
        <time>2010-01-01T00:55:02Z</time>
      </trkpt>
      <trkpt lat="43.22791200" lon="-2.07675800">
        <ele>360.00000</ele>
        <time>2010-01-01T00:55:04Z</time>
      </trkpt>
      <trkpt lat="43.22790900" lon="-2.07689700">
        <ele>359.00000</ele>
        <time>2010-01-01T00:55:08Z</time>
      </trkpt>
      <trkpt lat="43.22778900" lon="-2.07751500">
        <ele>354.00000</ele>
        <time>2010-01-01T00:55:27Z</time>
      </trkpt>
      <trkpt lat="43.22779100" lon="-2.07823600">
        <ele>354.00000</ele>
        <time>2010-01-01T00:55:48Z</time>
      </trkpt>
      <trkpt lat="43.22781600" lon="-2.07838000">
        <ele>354.00000</ele>
        <time>2010-01-01T00:55:52Z</time>
      </trkpt>
      <trkpt lat="43.22785700" lon="-2.07852200">
        <ele>353.00000</ele>
        <time>2010-01-01T00:55:57Z</time>
      </trkpt>
      <trkpt lat="43.22811400" lon="-2.07929800">
        <ele>351.00000</ele>
        <time>2010-01-01T00:56:21Z</time>
      </trkpt>
      <trkpt lat="43.22824400" lon="-2.07951600">
        <ele>349.00000</ele>
        <time>2010-01-01T00:56:30Z</time>
      </trkpt>
      <trkpt lat="43.22841100" lon="-2.07970400">
        <ele>349.00000</ele>
        <time>2010-01-01T00:56:38Z</time>
      </trkpt>
      <trkpt lat="43.22840600" lon="-2.07978300">
        <ele>349.00000</ele>
        <time>2010-01-01T00:56:41Z</time>
      </trkpt>
      <trkpt lat="43.22839600" lon="-2.07978700">
        <ele>349.00000</ele>
        <time>2010-01-01T00:56:41Z</time>
      </trkpt>
      <trkpt lat="43.22847600" lon="-2.07988500">
        <ele>349.00000</ele>
        <time>2010-01-01T00:56:45Z</time>
      </trkpt>
      <trkpt lat="43.22850900" lon="-2.07993200">
        <ele>350.00000</ele>
        <time>2010-01-01T00:56:47Z</time>
      </trkpt>
      <trkpt lat="43.22855100" lon="-2.08020700">
        <ele>352.00000</ele>
        <time>2010-01-01T00:56:55Z</time>
      </trkpt>
      <trkpt lat="43.22851800" lon="-2.08041000">
        <ele>354.00000</ele>
        <time>2010-01-01T00:57:01Z</time>
      </trkpt>
      <trkpt lat="43.22848100" lon="-2.08058300">
        <ele>356.00000</ele>
        <time>2010-01-01T00:57:07Z</time>
      </trkpt>
      <trkpt lat="43.22844100" lon="-2.08076900">
        <ele>359.00000</ele>
        <time>2010-01-01T00:57:12Z</time>
      </trkpt>
      <trkpt lat="43.22842600" lon="-2.08095400">
        <ele>362.00000</ele>
        <time>2010-01-01T00:57:18Z</time>
      </trkpt>
      <trkpt lat="43.22847100" lon="-2.08122700">
        <ele>367.00000</ele>
        <time>2010-01-01T00:57:26Z</time>
      </trkpt>
      <trkpt lat="43.22847900" lon="-2.08125100">
        <ele>368.00000</ele>
        <time>2010-01-01T00:57:27Z</time>
      </trkpt>
      <trkpt lat="43.22851000" lon="-2.08136400">
        <ele>370.00000</ele>
        <time>2010-01-01T00:57:30Z</time>
      </trkpt>
      <trkpt lat="43.22858500" lon="-2.08151500">
        <ele>375.00000</ele>
        <time>2010-01-01T00:57:36Z</time>
      </trkpt>
      <trkpt lat="43.22864400" lon="-2.08166800">
        <ele>379.00000</ele>
        <time>2010-01-01T00:57:41Z</time>
      </trkpt>
      <trkpt lat="43.22868400" lon="-2.08180200">
        <ele>382.00000</ele>
        <time>2010-01-01T00:57:45Z</time>
      </trkpt>
      <trkpt lat="43.22868300" lon="-2.08197900">
        <ele>383.00000</ele>
        <time>2010-01-01T00:57:50Z</time>
      </trkpt>
      <trkpt lat="43.22864200" lon="-2.08212600">
        <ele>382.00000</ele>
        <time>2010-01-01T00:57:55Z</time>
      </trkpt>
      <trkpt lat="43.22864200" lon="-2.08221300">
        <ele>383.00000</ele>
        <time>2010-01-01T00:57:57Z</time>
      </trkpt>
      <trkpt lat="43.22862000" lon="-2.08230000">
        <ele>382.00000</ele>
        <time>2010-01-01T00:58:00Z</time>
      </trkpt>
      <trkpt lat="43.22858600" lon="-2.08241200">
        <ele>380.00000</ele>
        <time>2010-01-01T00:58:03Z</time>
      </trkpt>
      <trkpt lat="43.22856900" lon="-2.08253200">
        <ele>380.00000</ele>
        <time>2010-01-01T00:58:07Z</time>
      </trkpt>
      <trkpt lat="43.22856200" lon="-2.08254500">
        <ele>380.00000</ele>
        <time>2010-01-01T00:58:07Z</time>
      </trkpt>
      <trkpt lat="43.22853800" lon="-2.08272100">
        <ele>382.00000</ele>
        <time>2010-01-01T00:58:13Z</time>
      </trkpt>
      <trkpt lat="43.22851500" lon="-2.08284800">
        <ele>383.00000</ele>
        <time>2010-01-01T00:58:16Z</time>
      </trkpt>
      <trkpt lat="43.22847800" lon="-2.08300800">
        <ele>386.00000</ele>
        <time>2010-01-01T00:58:21Z</time>
      </trkpt>
      <trkpt lat="43.22842800" lon="-2.08319100">
        <ele>387.00000</ele>
        <time>2010-01-01T00:58:27Z</time>
      </trkpt>
      <trkpt lat="43.22841900" lon="-2.08327400">
        <ele>388.00000</ele>
        <time>2010-01-01T00:58:30Z</time>
      </trkpt>
      <trkpt lat="43.22843500" lon="-2.08338300">
        <ele>390.00000</ele>
        <time>2010-01-01T00:58:33Z</time>
      </trkpt>
      <trkpt lat="43.22843800" lon="-2.08347000">
        <ele>391.00000</ele>
        <time>2010-01-01T00:58:35Z</time>
      </trkpt>
      <trkpt lat="43.22843600" lon="-2.08351600">
        <ele>391.00000</ele>
        <time>2010-01-01T00:58:37Z</time>
      </trkpt>
      <trkpt lat="43.22843100" lon="-2.08364600">
        <ele>391.00000</ele>
        <time>2010-01-01T00:58:40Z</time>
      </trkpt>
      <trkpt lat="43.22844400" lon="-2.08381900">
        <ele>394.00000</ele>
        <time>2010-01-01T00:58:46Z</time>
      </trkpt>
      <trkpt lat="43.22846200" lon="-2.08413400">
        <ele>397.00000</ele>
        <time>2010-01-01T00:58:55Z</time>
      </trkpt>
      <trkpt lat="43.22849800" lon="-2.08438100">
        <ele>401.00000</ele>
        <time>2010-01-01T00:59:02Z</time>
      </trkpt>
      <trkpt lat="43.22850400" lon="-2.08451500">
        <ele>402.00000</ele>
        <time>2010-01-01T00:59:06Z</time>
      </trkpt>
      <trkpt lat="43.22849500" lon="-2.08465800">
        <ele>403.00000</ele>
        <time>2010-01-01T00:59:10Z</time>
      </trkpt>
      <trkpt lat="43.22847200" lon="-2.08504100">
        <ele>405.00000</ele>
        <time>2010-01-01T00:59:21Z</time>
      </trkpt>
      <trkpt lat="43.22846000" lon="-2.08513100">
        <ele>406.00000</ele>
        <time>2010-01-01T00:59:24Z</time>
      </trkpt>
      <trkpt lat="43.22844700" lon="-2.08528100">
        <ele>407.00000</ele>
        <time>2010-01-01T00:59:28Z</time>
      </trkpt>
      <trkpt lat="43.22840100" lon="-2.08558300">
        <ele>407.00000</ele>
        <time>2010-01-01T00:59:37Z</time>
      </trkpt>
      <trkpt lat="43.22838400" lon="-2.08582300">
        <ele>408.00000</ele>
        <time>2010-01-01T00:59:45Z</time>
      </trkpt>
      <trkpt lat="43.22838100" lon="-2.08599500">
        <ele>410.00000</ele>
        <time>2010-01-01T00:59:50Z</time>
      </trkpt>
      <trkpt lat="43.22845900" lon="-2.08649800">
        <ele>415.00000</ele>
        <time>2010-01-01T01:00:05Z</time>
      </trkpt>
      <trkpt lat="43.22857100" lon="-2.08697200">
        <ele>417.00000</ele>
        <time>2010-01-01T01:00:19Z</time>
      </trkpt>
      <trkpt lat="43.22860400" lon="-2.08710000">
        <ele>417.00000</ele>
        <time>2010-01-01T01:00:23Z</time>
      </trkpt>
      <trkpt lat="43.22879600" lon="-2.08781100">
        <ele>413.00000</ele>
        <time>2010-01-01T01:00:45Z</time>
      </trkpt>
      <trkpt lat="43.22888500" lon="-2.08812900">
        <ele>411.00000</ele>
        <time>2010-01-01T01:00:55Z</time>
      </trkpt>
      <trkpt lat="43.22893600" lon="-2.08830900">
        <ele>411.00000</ele>
        <time>2010-01-01T01:01:01Z</time>
      </trkpt>
      <trkpt lat="43.22898800" lon="-2.08846000">
        <ele>412.00000</ele>
        <time>2010-01-01T01:01:06Z</time>
      </trkpt>
      <trkpt lat="43.22918000" lon="-2.08896100">
        <ele>416.00000</ele>
        <time>2010-01-01T01:01:22Z</time>
      </trkpt>
      <trkpt lat="43.22928400" lon="-2.08917400">
        <ele>420.00000</ele>
        <time>2010-01-01T01:01:30Z</time>
      </trkpt>
      <trkpt lat="43.22938200" lon="-2.08959200">
        <ele>423.00000</ele>
        <time>2010-01-01T01:01:42Z</time>
      </trkpt>
      <trkpt lat="43.22936800" lon="-2.08962500">
        <ele>423.00000</ele>
        <time>2010-01-01T01:01:43Z</time>
      </trkpt>
      <trkpt lat="43.22936900" lon="-2.08971300">
        <ele>423.00000</ele>
        <time>2010-01-01T01:01:46Z</time>
      </trkpt>
      <trkpt lat="43.22937100" lon="-2.08975900">
        <ele>423.00000</ele>
        <time>2010-01-01T01:01:47Z</time>
      </trkpt>
      <trkpt lat="43.22932700" lon="-2.08991800">
        <ele>422.00000</ele>
        <time>2010-01-01T01:01:52Z</time>
      </trkpt>
      <trkpt lat="43.22918700" lon="-2.09030100">
        <ele>418.00000</ele>
        <time>2010-01-01T01:02:05Z</time>
      </trkpt>
      <trkpt lat="43.22902200" lon="-2.09054500">
        <ele>415.00000</ele>
        <time>2010-01-01T01:02:15Z</time>
      </trkpt>
      <trkpt lat="43.22886400" lon="-2.09077300">
        <ele>414.00000</ele>
        <time>2010-01-01T01:02:24Z</time>
      </trkpt>
      <trkpt lat="43.22882400" lon="-2.09086400">
        <ele>414.00000</ele>
        <time>2010-01-01T01:02:27Z</time>
      </trkpt>
      <trkpt lat="43.22875700" lon="-2.09124900">
        <ele>417.00000</ele>
        <time>2010-01-01T01:02:38Z</time>
      </trkpt>
      <trkpt lat="43.22875200" lon="-2.09160900">
        <ele>418.00000</ele>
        <time>2010-01-01T01:02:49Z</time>
      </trkpt>
      <trkpt lat="43.22874400" lon="-2.09200600">
        <ele>417.00000</ele>
        <time>2010-01-01T01:03:00Z</time>
      </trkpt>
      <trkpt lat="43.22871400" lon="-2.09219000">
        <ele>415.00000</ele>
        <time>2010-01-01T01:03:06Z</time>
      </trkpt>
      <trkpt lat="43.22870300" lon="-2.09260800">
        <ele>417.00000</ele>
        <time>2010-01-01T01:03:18Z</time>
      </trkpt>
      <trkpt lat="43.22859400" lon="-2.09296700">
        <ele>418.00000</ele>
        <time>2010-01-01T01:03:30Z</time>
      </trkpt>
      <trkpt lat="43.22854800" lon="-2.09304100">
        <ele>418.00000</ele>
        <time>2010-01-01T01:03:32Z</time>
      </trkpt>
      <trkpt lat="43.22838800" lon="-2.09321900">
        <ele>417.00000</ele>
        <time>2010-01-01T01:03:41Z</time>
      </trkpt>
      <trkpt lat="43.22823200" lon="-2.09333600">
        <ele>416.00000</ele>
        <time>2010-01-01T01:03:48Z</time>
      </trkpt>
      <trkpt lat="43.22802900" lon="-2.09350800">
        <ele>415.00000</ele>
        <time>2010-01-01T01:03:57Z</time>
      </trkpt>
      <trkpt lat="43.22734600" lon="-2.09388700">
        <ele>408.00000</ele>
        <time>2010-01-01T01:04:27Z</time>
      </trkpt>
      <trkpt lat="43.22713100" lon="-2.09400700">
        <ele>406.00000</ele>
        <time>2010-01-01T01:04:36Z</time>
      </trkpt>
      <trkpt lat="43.22698700" lon="-2.09408500">
        <ele>404.00000</ele>
        <time>2010-01-01T01:04:42Z</time>
      </trkpt>
      <trkpt lat="43.22670100" lon="-2.09436700">
        <ele>398.00000</ele>
        <time>2010-01-01T01:04:56Z</time>
      </trkpt>
      <trkpt lat="43.22662500" lon="-2.09451700">
        <ele>398.00000</ele>
        <time>2010-01-01T01:05:02Z</time>
      </trkpt>
      <trkpt lat="43.22653600" lon="-2.09475000">
        <ele>398.00000</ele>
        <time>2010-01-01T01:05:09Z</time>
      </trkpt>
      <trkpt lat="43.22636200" lon="-2.09510400">
        <ele>392.00000</ele>
        <time>2010-01-01T01:05:22Z</time>
      </trkpt>
      <trkpt lat="43.22634100" lon="-2.09516200">
        <ele>392.00000</ele>
        <time>2010-01-01T01:05:24Z</time>
      </trkpt>
      <trkpt lat="43.22634000" lon="-2.09516900">
        <ele>392.00000</ele>
        <time>2010-01-01T01:05:24Z</time>
      </trkpt>
      <trkpt lat="43.22603800" lon="-2.09548300">
        <ele>389.00000</ele>
        <time>2010-01-01T01:05:39Z</time>
      </trkpt>
      <trkpt lat="43.22600700" lon="-2.09550700">
        <ele>390.00000</ele>
        <time>2010-01-01T01:05:40Z</time>
      </trkpt>
      <trkpt lat="43.22567700" lon="-2.09574900">
        <ele>391.00000</ele>
        <time>2010-01-01T01:05:55Z</time>
      </trkpt>
      <trkpt lat="43.22532100" lon="-2.09574500">
        <ele>392.00000</ele>
        <time>2010-01-01T01:06:10Z</time>
      </trkpt>
      <trkpt lat="43.22500700" lon="-2.09576500">
        <ele>395.00000</ele>
        <time>2010-01-01T01:06:22Z</time>
      </trkpt>
      <trkpt lat="43.22497800" lon="-2.09575600">
        <ele>395.00000</ele>
        <time>2010-01-01T01:06:23Z</time>
      </trkpt>
      <trkpt lat="43.22498300" lon="-2.09577300">
        <ele>395.00000</ele>
        <time>2010-01-01T01:06:24Z</time>
      </trkpt>
      <trkpt lat="43.22497200" lon="-2.09577900">
        <ele>395.00000</ele>
        <time>2010-01-01T01:06:25Z</time>
      </trkpt>
      <trkpt lat="43.22497100" lon="-2.09578000">
        <ele>395.00000</ele>
        <time>2010-01-01T01:06:25Z</time>
      </trkpt>
      <trkpt lat="43.22497000" lon="-2.09578100">
        <ele>395.00000</ele>
        <time>2010-01-01T01:06:25Z</time>
      </trkpt>
      <trkpt lat="43.22496900" lon="-2.09578200">
        <ele>395.00000</ele>
        <time>2010-01-01T01:06:25Z</time>
      </trkpt>
      <trkpt lat="43.22496700" lon="-2.09578100">
        <ele>395.00000</ele>
        <time>2010-01-01T01:06:25Z</time>
      </trkpt>
      <trkpt lat="43.22496700" lon="-2.09577800">
        <ele>395.00000</ele>
        <time>2010-01-01T01:06:25Z</time>
      </trkpt>
      <trkpt lat="43.22496700" lon="-2.09577700">
        <ele>395.00000</ele>
        <time>2010-01-01T01:06:25Z</time>
      </trkpt>
      <trkpt lat="43.22496700" lon="-2.09577600">
        <ele>395.00000</ele>
        <time>2010-01-01T01:06:25Z</time>
      </trkpt>
      <trkpt lat="43.22496600" lon="-2.09576700">
        <ele>395.00000</ele>
        <time>2010-01-01T01:06:25Z</time>
      </trkpt>
      <trkpt lat="43.22496500" lon="-2.09576500">
        <ele>395.00000</ele>
        <time>2010-01-01T01:06:25Z</time>
      </trkpt>
      <trkpt lat="43.22496500" lon="-2.09576400">
        <ele>395.00000</ele>
        <time>2010-01-01T01:06:25Z</time>
      </trkpt>
      <trkpt lat="43.22494600" lon="-2.09575900">
        <ele>396.00000</ele>
        <time>2010-01-01T01:06:26Z</time>
      </trkpt>
      <trkpt lat="43.22475500" lon="-2.09581400">
        <ele>396.00000</ele>
        <time>2010-01-01T01:06:34Z</time>
      </trkpt>
      <trkpt lat="43.22458600" lon="-2.09588400">
        <ele>392.00000</ele>
        <time>2010-01-01T01:06:41Z</time>
      </trkpt>
      <trkpt lat="43.22445700" lon="-2.09591300">
        <ele>390.00000</ele>
        <time>2010-01-01T01:06:46Z</time>
      </trkpt>
      <trkpt lat="43.22441600" lon="-2.09592700">
        <ele>389.00000</ele>
        <time>2010-01-01T01:06:48Z</time>
      </trkpt>
      <trkpt lat="43.22422100" lon="-2.09594800">
        <ele>386.00000</ele>
        <time>2010-01-01T01:06:56Z</time>
      </trkpt>
      <trkpt lat="43.22398500" lon="-2.09607300">
        <ele>380.00000</ele>
        <time>2010-01-01T01:07:06Z</time>
      </trkpt>
      <trkpt lat="43.22378300" lon="-2.09612200">
        <ele>377.00000</ele>
        <time>2010-01-01T01:07:14Z</time>
      </trkpt>
      <trkpt lat="43.22358300" lon="-2.09615500">
        <ele>376.00000</ele>
        <time>2010-01-01T01:07:22Z</time>
      </trkpt>
      <trkpt lat="43.22318400" lon="-2.09637500">
        <ele>371.00000</ele>
        <time>2010-01-01T01:07:39Z</time>
      </trkpt>
      <trkpt lat="43.22296400" lon="-2.09659000">
        <ele>373.00000</ele>
        <time>2010-01-01T01:07:50Z</time>
      </trkpt>
      <trkpt lat="43.22272500" lon="-2.09680700">
        <ele>377.00000</ele>
        <time>2010-01-01T01:08:02Z</time>
      </trkpt>
      <trkpt lat="43.22259800" lon="-2.09711300">
        <ele>376.00000</ele>
        <time>2010-01-01T01:08:12Z</time>
      </trkpt>
      <trkpt lat="43.22257000" lon="-2.09721600">
        <ele>375.00000</ele>
        <time>2010-01-01T01:08:15Z</time>
      </trkpt>
      <trkpt lat="43.22256300" lon="-2.09728300">
        <ele>375.00000</ele>
        <time>2010-01-01T01:08:17Z</time>
      </trkpt>
      <trkpt lat="43.22259500" lon="-2.09734700">
        <ele>373.00000</ele>
        <time>2010-01-01T01:08:19Z</time>
      </trkpt>
      <trkpt lat="43.22258900" lon="-2.09739600">
        <ele>373.00000</ele>
        <time>2010-01-01T01:08:21Z</time>
      </trkpt>
      <trkpt lat="43.22242100" lon="-2.09763200">
        <ele>376.00000</ele>
        <time>2010-01-01T01:08:30Z</time>
      </trkpt>
      <trkpt lat="43.22240700" lon="-2.09765700">
        <ele>376.00000</ele>
        <time>2010-01-01T01:08:31Z</time>
      </trkpt>
      <trkpt lat="43.22240900" lon="-2.09770600">
        <ele>375.00000</ele>
        <time>2010-01-01T01:08:33Z</time>
      </trkpt>
      <trkpt lat="43.22240000" lon="-2.09773200">
        <ele>375.00000</ele>
        <time>2010-01-01T01:08:34Z</time>
      </trkpt>
      <trkpt lat="43.22229600" lon="-2.09803100">
        <ele>370.00000</ele>
        <time>2010-01-01T01:08:43Z</time>
      </trkpt>
      <trkpt lat="43.22226000" lon="-2.09811300">
        <ele>369.00000</ele>
        <time>2010-01-01T01:08:46Z</time>
      </trkpt>
      <trkpt lat="43.22223400" lon="-2.09821600">
        <ele>367.00000</ele>
        <time>2010-01-01T01:08:49Z</time>
      </trkpt>
      <trkpt lat="43.22223700" lon="-2.09823600">
        <ele>366.00000</ele>
        <time>2010-01-01T01:08:50Z</time>
      </trkpt>
      <trkpt lat="43.22236300" lon="-2.09837500">
        <ele>355.00000</ele>
        <time>2010-01-01T01:08:56Z</time>
      </trkpt>
      <trkpt lat="43.22245100" lon="-2.09840400">
        <ele>350.00000</ele>
        <time>2010-01-01T01:09:00Z</time>
      </trkpt>
      <trkpt lat="43.22248600" lon="-2.09842800">
        <ele>347.00000</ele>
        <time>2010-01-01T01:09:01Z</time>
      </trkpt>
      <trkpt lat="43.22231700" lon="-2.09860800">
        <ele>349.00000</ele>
        <time>2010-01-01T01:09:10Z</time>
      </trkpt>
      <trkpt lat="43.22228300" lon="-2.09871400">
        <ele>348.00000</ele>
        <time>2010-01-01T01:09:13Z</time>
      </trkpt>
      <trkpt lat="43.22211100" lon="-2.09900300">
        <ele>351.00000</ele>
        <time>2010-01-01T01:09:24Z</time>
      </trkpt>
      <trkpt lat="43.22209700" lon="-2.09906700">
        <ele>351.00000</ele>
        <time>2010-01-01T01:09:26Z</time>
      </trkpt>
      <trkpt lat="43.22205700" lon="-2.09922800">
        <ele>352.00000</ele>
        <time>2010-01-01T01:09:31Z</time>
      </trkpt>
      <trkpt lat="43.22181800" lon="-2.09955100">
        <ele>365.00000</ele>
        <time>2010-01-01T01:09:45Z</time>
      </trkpt>
      <trkpt lat="43.22170100" lon="-2.09978400">
        <ele>368.00000</ele>
        <time>2010-01-01T01:09:53Z</time>
      </trkpt>
      <trkpt lat="43.22153200" lon="-2.10000900">
        <ele>377.00000</ele>
        <time>2010-01-01T01:10:02Z</time>
      </trkpt>
      <trkpt lat="43.22147300" lon="-2.10003400">
        <ele>380.00000</ele>
        <time>2010-01-01T01:10:05Z</time>
      </trkpt>
      <trkpt lat="43.22146600" lon="-2.10003500">
        <ele>380.00000</ele>
        <time>2010-01-01T01:10:05Z</time>
      </trkpt>
      <trkpt lat="43.22145900" lon="-2.10003700">
        <ele>381.00000</ele>
        <time>2010-01-01T01:10:05Z</time>
      </trkpt>
      <trkpt lat="43.22145300" lon="-2.10003800">
        <ele>381.00000</ele>
        <time>2010-01-01T01:10:06Z</time>
      </trkpt>
      <trkpt lat="43.22144400" lon="-2.10004100">
        <ele>381.00000</ele>
        <time>2010-01-01T01:10:06Z</time>
      </trkpt>
      <trkpt lat="43.22136700" lon="-2.10008100">
        <ele>386.00000</ele>
        <time>2010-01-01T01:10:09Z</time>
      </trkpt>
      <trkpt lat="43.22135800" lon="-2.10010300">
        <ele>386.00000</ele>
        <time>2010-01-01T01:10:10Z</time>
      </trkpt>
      <trkpt lat="43.22133700" lon="-2.10011400">
        <ele>387.00000</ele>
        <time>2010-01-01T01:10:11Z</time>
      </trkpt>
      <trkpt lat="43.22131200" lon="-2.10011100">
        <ele>389.00000</ele>
        <time>2010-01-01T01:10:12Z</time>
      </trkpt>
      <trkpt lat="43.22131300" lon="-2.10009800">
        <ele>389.00000</ele>
        <time>2010-01-01T01:10:12Z</time>
      </trkpt>
      <trkpt lat="43.22132000" lon="-2.10010100">
        <ele>388.00000</ele>
        <time>2010-01-01T01:10:13Z</time>
      </trkpt>
      <trkpt lat="43.22131200" lon="-2.10010100">
        <ele>389.00000</ele>
        <time>2010-01-01T01:10:13Z</time>
      </trkpt>
      <trkpt lat="43.22132800" lon="-2.10012800">
        <ele>387.00000</ele>
        <time>2010-01-01T01:10:14Z</time>
      </trkpt>
      <trkpt lat="43.22131200" lon="-2.10013300">
        <ele>388.00000</ele>
        <time>2010-01-01T01:10:15Z</time>
      </trkpt>
      <trkpt lat="43.22129200" lon="-2.10035500">
        <ele>384.00000</ele>
        <time>2010-01-01T01:10:21Z</time>
      </trkpt>
      <trkpt lat="43.22123900" lon="-2.10055800">
        <ele>381.00000</ele>
        <time>2010-01-01T01:10:27Z</time>
      </trkpt>
      <trkpt lat="43.22113700" lon="-2.10081000">
        <ele>376.00000</ele>
        <time>2010-01-01T01:10:36Z</time>
      </trkpt>
      <trkpt lat="43.22109900" lon="-2.10097600">
        <ele>373.00000</ele>
        <time>2010-01-01T01:10:41Z</time>
      </trkpt>
      <trkpt lat="43.22112100" lon="-2.10142500">
        <ele>358.00000</ele>
        <time>2010-01-01T01:10:54Z</time>
      </trkpt>
      <trkpt lat="43.22109100" lon="-2.10153600">
        <ele>356.00000</ele>
        <time>2010-01-01T01:10:57Z</time>
      </trkpt>
      <trkpt lat="43.22091300" lon="-2.10200700">
        <ele>358.00000</ele>
        <time>2010-01-01T01:11:13Z</time>
      </trkpt>
      <trkpt lat="43.22038300" lon="-2.10227900">
        <ele>383.00000</ele>
        <time>2010-01-01T01:11:36Z</time>
      </trkpt>
      <trkpt lat="43.22031700" lon="-2.10235900">
        <ele>384.00000</ele>
        <time>2010-01-01T01:11:39Z</time>
      </trkpt>
      <trkpt lat="43.22022100" lon="-2.10247500">
        <ele>386.00000</ele>
        <time>2010-01-01T01:11:44Z</time>
      </trkpt>
      <trkpt lat="43.22013500" lon="-2.10259700">
        <ele>387.00000</ele>
        <time>2010-01-01T01:11:49Z</time>
      </trkpt>
      <trkpt lat="43.22007800" lon="-2.10263000">
        <ele>389.00000</ele>
        <time>2010-01-01T01:11:52Z</time>
      </trkpt>
      <trkpt lat="43.22001100" lon="-2.10265200">
        <ele>390.00000</ele>
        <time>2010-01-01T01:11:54Z</time>
      </trkpt>
      <trkpt lat="43.21992900" lon="-2.10266800">
        <ele>392.00000</ele>
        <time>2010-01-01T01:11:58Z</time>
      </trkpt>
      <trkpt lat="43.21977200" lon="-2.10269700">
        <ele>396.00000</ele>
        <time>2010-01-01T01:12:04Z</time>
      </trkpt>
      <trkpt lat="43.21956800" lon="-2.10271600">
        <ele>399.00000</ele>
        <time>2010-01-01T01:12:12Z</time>
      </trkpt>
      <trkpt lat="43.21941100" lon="-2.10268500">
        <ele>401.00000</ele>
        <time>2010-01-01T01:12:19Z</time>
      </trkpt>
      <trkpt lat="43.21936000" lon="-2.10264100">
        <ele>402.00000</ele>
        <time>2010-01-01T01:12:21Z</time>
      </trkpt>
      <trkpt lat="43.21933200" lon="-2.10263200">
        <ele>402.00000</ele>
        <time>2010-01-01T01:12:22Z</time>
      </trkpt>
      <trkpt lat="43.21918700" lon="-2.10261500">
        <ele>405.00000</ele>
        <time>2010-01-01T01:12:28Z</time>
      </trkpt>
      <trkpt lat="43.21912500" lon="-2.10261300">
        <ele>405.00000</ele>
        <time>2010-01-01T01:12:30Z</time>
      </trkpt>
      <trkpt lat="43.21905800" lon="-2.10258900">
        <ele>406.00000</ele>
        <time>2010-01-01T01:12:33Z</time>
      </trkpt>
      <trkpt lat="43.21903300" lon="-2.10260300">
        <ele>406.00000</ele>
        <time>2010-01-01T01:12:34Z</time>
      </trkpt>
      <trkpt lat="43.21902900" lon="-2.10260100">
        <ele>406.00000</ele>
        <time>2010-01-01T01:12:34Z</time>
      </trkpt>
      <trkpt lat="43.21898100" lon="-2.10258800">
        <ele>407.00000</ele>
        <time>2010-01-01T01:12:36Z</time>
      </trkpt>
      <trkpt lat="43.21876400" lon="-2.10256400">
        <ele>406.00000</ele>
        <time>2010-01-01T01:12:45Z</time>
      </trkpt>
      <trkpt lat="43.21850800" lon="-2.10252700">
        <ele>405.00000</ele>
        <time>2010-01-01T01:12:55Z</time>
      </trkpt>
      <trkpt lat="43.21817300" lon="-2.10239300">
        <ele>401.00000</ele>
        <time>2010-01-01T01:13:09Z</time>
      </trkpt>
      <trkpt lat="43.21814900" lon="-2.10237300">
        <ele>401.00000</ele>
        <time>2010-01-01T01:13:11Z</time>
      </trkpt>
      <trkpt lat="43.21803800" lon="-2.10217700">
        <ele>400.00000</ele>
        <time>2010-01-01T01:13:18Z</time>
      </trkpt>
      <trkpt lat="43.21788100" lon="-2.10198300">
        <ele>400.00000</ele>
        <time>2010-01-01T01:13:26Z</time>
      </trkpt>
      <trkpt lat="43.21784500" lon="-2.10196100">
        <ele>399.00000</ele>
        <time>2010-01-01T01:13:28Z</time>
      </trkpt>
      <trkpt lat="43.21764900" lon="-2.10186700">
        <ele>395.00000</ele>
        <time>2010-01-01T01:13:36Z</time>
      </trkpt>
      <trkpt lat="43.21757000" lon="-2.10183700">
        <ele>394.00000</ele>
        <time>2010-01-01T01:13:39Z</time>
      </trkpt>
      <trkpt lat="43.21728700" lon="-2.10178900">
        <ele>386.00000</ele>
        <time>2010-01-01T01:13:51Z</time>
      </trkpt>
      <trkpt lat="43.21725600" lon="-2.10178900">
        <ele>385.00000</ele>
        <time>2010-01-01T01:13:52Z</time>
      </trkpt>
      <trkpt lat="43.21722700" lon="-2.10178600">
        <ele>385.00000</ele>
        <time>2010-01-01T01:13:53Z</time>
      </trkpt>
      <trkpt lat="43.21712600" lon="-2.10177900">
        <ele>382.00000</ele>
        <time>2010-01-01T01:13:57Z</time>
      </trkpt>
      <trkpt lat="43.21698800" lon="-2.10170800">
        <ele>379.00000</ele>
        <time>2010-01-01T01:14:03Z</time>
      </trkpt>
      <trkpt lat="43.21664300" lon="-2.10149100">
        <ele>377.00000</ele>
        <time>2010-01-01T01:14:18Z</time>
      </trkpt>
      <trkpt lat="43.21654000" lon="-2.10143500">
        <ele>375.00000</ele>
        <time>2010-01-01T01:14:23Z</time>
      </trkpt>
      <trkpt lat="43.21643800" lon="-2.10135400">
        <ele>374.00000</ele>
        <time>2010-01-01T01:14:28Z</time>
      </trkpt>
      <trkpt lat="43.21629500" lon="-2.10116600">
        <ele>373.00000</ele>
        <time>2010-01-01T01:14:35Z</time>
      </trkpt>
      <trkpt lat="43.21610500" lon="-2.10084600">
        <ele>371.00000</ele>
        <time>2010-01-01T01:14:48Z</time>
      </trkpt>
      <trkpt lat="43.21603900" lon="-2.10075700">
        <ele>370.00000</ele>
        <time>2010-01-01T01:14:51Z</time>
      </trkpt>
      <trkpt lat="43.21597600" lon="-2.10071400">
        <ele>368.00000</ele>
        <time>2010-01-01T01:14:54Z</time>
      </trkpt>
      <trkpt lat="43.21584200" lon="-2.10062800">
        <ele>365.00000</ele>
        <time>2010-01-01T01:15:00Z</time>
      </trkpt>
      <trkpt lat="43.21574700" lon="-2.10056200">
        <ele>362.00000</ele>
        <time>2010-01-01T01:15:04Z</time>
      </trkpt>
      <trkpt lat="43.21571800" lon="-2.10053300">
        <ele>361.00000</ele>
        <time>2010-01-01T01:15:06Z</time>
      </trkpt>
      <trkpt lat="43.21559800" lon="-2.10039000">
        <ele>357.00000</ele>
        <time>2010-01-01T01:15:12Z</time>
      </trkpt>
      <trkpt lat="43.21557200" lon="-2.10035700">
        <ele>356.00000</ele>
        <time>2010-01-01T01:15:13Z</time>
      </trkpt>
      <trkpt lat="43.21549100" lon="-2.10021400">
        <ele>353.00000</ele>
        <time>2010-01-01T01:15:19Z</time>
      </trkpt>
      <trkpt lat="43.21543500" lon="-2.10001100">
        <ele>351.00000</ele>
        <time>2010-01-01T01:15:25Z</time>
      </trkpt>
      <trkpt lat="43.21541100" lon="-2.09987500">
        <ele>350.00000</ele>
        <time>2010-01-01T01:15:29Z</time>
      </trkpt>
      <trkpt lat="43.21537700" lon="-2.09968800">
        <ele>348.00000</ele>
        <time>2010-01-01T01:15:35Z</time>
      </trkpt>
      <trkpt lat="43.21537300" lon="-2.09962900">
        <ele>347.00000</ele>
        <time>2010-01-01T01:15:36Z</time>
      </trkpt>
      <trkpt lat="43.21535500" lon="-2.09933400">
        <ele>344.00000</ele>
        <time>2010-01-01T01:15:45Z</time>
      </trkpt>
      <trkpt lat="43.21529400" lon="-2.09907500">
        <ele>339.00000</ele>
        <time>2010-01-01T01:15:53Z</time>
      </trkpt>
      <trkpt lat="43.21523600" lon="-2.09884400">
        <ele>335.00000</ele>
        <time>2010-01-01T01:16:00Z</time>
      </trkpt>
      <trkpt lat="43.21522200" lon="-2.09876900">
        <ele>333.00000</ele>
        <time>2010-01-01T01:16:02Z</time>
      </trkpt>
      <trkpt lat="43.21513200" lon="-2.09884700">
        <ele>329.00000</ele>
        <time>2010-01-01T01:16:07Z</time>
      </trkpt>
      <trkpt lat="43.21509300" lon="-2.09891900">
        <ele>328.00000</ele>
        <time>2010-01-01T01:16:09Z</time>
      </trkpt>
      <trkpt lat="43.21500100" lon="-2.09905700">
        <ele>325.00000</ele>
        <time>2010-01-01T01:16:15Z</time>
      </trkpt>
      <trkpt lat="43.21492300" lon="-2.09921100">
        <ele>324.00000</ele>
        <time>2010-01-01T01:16:20Z</time>
      </trkpt>
      <trkpt lat="43.21489200" lon="-2.09929000">
        <ele>323.00000</ele>
        <time>2010-01-01T01:16:23Z</time>
      </trkpt>
      <trkpt lat="43.21474400" lon="-2.09939900">
        <ele>317.00000</ele>
        <time>2010-01-01T01:16:30Z</time>
      </trkpt>
      <trkpt lat="43.21456600" lon="-2.09944600">
        <ele>307.00000</ele>
        <time>2010-01-01T01:16:37Z</time>
      </trkpt>
      <trkpt lat="43.21440500" lon="-2.09950600">
        <ele>298.00000</ele>
        <time>2010-01-01T01:16:44Z</time>
      </trkpt>
      <trkpt lat="43.21426900" lon="-2.09969700">
        <ele>291.00000</ele>
        <time>2010-01-01T01:16:51Z</time>
      </trkpt>
      <trkpt lat="43.21423100" lon="-2.09999600">
        <ele>290.00000</ele>
        <time>2010-01-01T01:17:00Z</time>
      </trkpt>
      <trkpt lat="43.21423500" lon="-2.10028600">
        <ele>290.00000</ele>
        <time>2010-01-01T01:17:09Z</time>
      </trkpt>
      <trkpt lat="43.21418500" lon="-2.10028500">
        <ele>288.00000</ele>
        <time>2010-01-01T01:17:11Z</time>
      </trkpt>
      <trkpt lat="43.21394800" lon="-2.09992800">
        <ele>277.00000</ele>
        <time>2010-01-01T01:17:25Z</time>
      </trkpt>
      <trkpt lat="43.21377300" lon="-2.09971600">
        <ele>272.00000</ele>
        <time>2010-01-01T01:17:34Z</time>
      </trkpt>
      <trkpt lat="43.21353800" lon="-2.09954400">
        <ele>266.00000</ele>
        <time>2010-01-01T01:17:45Z</time>
      </trkpt>
      <trkpt lat="43.21342400" lon="-2.09947400">
        <ele>263.00000</ele>
        <time>2010-01-01T01:17:50Z</time>
      </trkpt>
      <trkpt lat="43.21327000" lon="-2.09936400">
        <ele>260.00000</ele>
        <time>2010-01-01T01:17:57Z</time>
      </trkpt>
      <trkpt lat="43.21313600" lon="-2.09940900">
        <ele>257.00000</ele>
        <time>2010-01-01T01:18:02Z</time>
      </trkpt>
      <trkpt lat="43.21285100" lon="-2.09964100">
        <ele>249.00000</ele>
        <time>2010-01-01T01:18:15Z</time>
      </trkpt>
      <trkpt lat="43.21259500" lon="-2.09988300">
        <ele>242.00000</ele>
        <time>2010-01-01T01:18:28Z</time>
      </trkpt>
      <trkpt lat="43.21253300" lon="-2.09994000">
        <ele>241.00000</ele>
        <time>2010-01-01T01:18:31Z</time>
      </trkpt>
      <trkpt lat="43.21247700" lon="-2.10023200">
        <ele>237.00000</ele>
        <time>2010-01-01T01:18:40Z</time>
      </trkpt>
      <trkpt lat="43.21248500" lon="-2.10031600">
        <ele>235.00000</ele>
        <time>2010-01-01T01:18:42Z</time>
      </trkpt>
      <trkpt lat="43.21224800" lon="-2.10030800">
        <ele>231.00000</ele>
        <time>2010-01-01T01:18:52Z</time>
      </trkpt>
      <trkpt lat="43.21214900" lon="-2.10029800">
        <ele>229.00000</ele>
        <time>2010-01-01T01:18:56Z</time>
      </trkpt>
      <trkpt lat="43.21184900" lon="-2.10018000">
        <ele>224.00000</ele>
        <time>2010-01-01T01:19:08Z</time>
      </trkpt>
      <trkpt lat="43.21175500" lon="-2.10010400">
        <ele>223.00000</ele>
        <time>2010-01-01T01:19:13Z</time>
      </trkpt>
      <trkpt lat="43.21144800" lon="-2.09981500">
        <ele>216.00000</ele>
        <time>2010-01-01T01:19:27Z</time>
      </trkpt>
      <trkpt lat="43.21115300" lon="-2.09970700">
        <ele>210.00000</ele>
        <time>2010-01-01T01:19:40Z</time>
      </trkpt>
      <trkpt lat="43.21090100" lon="-2.09974500">
        <ele>207.00000</ele>
        <time>2010-01-01T01:19:50Z</time>
      </trkpt>
      <trkpt lat="43.21066300" lon="-2.09968300">
        <ele>203.00000</ele>
        <time>2010-01-01T01:19:59Z</time>
      </trkpt>
      <trkpt lat="43.21031800" lon="-2.09970100">
        <ele>197.00000</ele>
        <time>2010-01-01T01:20:13Z</time>
      </trkpt>
      <trkpt lat="43.21022800" lon="-2.09969200">
        <ele>196.00000</ele>
        <time>2010-01-01T01:20:17Z</time>
      </trkpt>
      <trkpt lat="43.21000000" lon="-2.09960600">
        <ele>193.00000</ele>
        <time>2010-01-01T01:20:26Z</time>
      </trkpt>
      <trkpt lat="43.20987600" lon="-2.09953600">
        <ele>192.00000</ele>
        <time>2010-01-01T01:20:32Z</time>
      </trkpt>
      <trkpt lat="43.20969200" lon="-2.09941400">
        <ele>191.00000</ele>
        <time>2010-01-01T01:20:40Z</time>
      </trkpt>
      <trkpt lat="43.20938300" lon="-2.09940000">
        <ele>184.00000</ele>
        <time>2010-01-01T01:20:52Z</time>
      </trkpt>
      <trkpt lat="43.20921700" lon="-2.09934700">
        <ele>181.00000</ele>
        <time>2010-01-01T01:20:59Z</time>
      </trkpt>
      <trkpt lat="43.20912400" lon="-2.09929100">
        <ele>180.00000</ele>
        <time>2010-01-01T01:21:03Z</time>
      </trkpt>
      <trkpt lat="43.20878200" lon="-2.09901800">
        <ele>172.00000</ele>
        <time>2010-01-01T01:21:19Z</time>
      </trkpt>
      <trkpt lat="43.20856700" lon="-2.09899500">
        <ele>166.00000</ele>
        <time>2010-01-01T01:21:28Z</time>
      </trkpt>
      <trkpt lat="43.20854300" lon="-2.09900500">
        <ele>165.00000</ele>
        <time>2010-01-01T01:21:29Z</time>
      </trkpt>
      <trkpt lat="43.20863800" lon="-2.09931400">
        <ele>166.00000</ele>
        <time>2010-01-01T01:21:38Z</time>
      </trkpt>
      <trkpt lat="43.20876500" lon="-2.09959300">
        <ele>165.00000</ele>
        <time>2010-01-01T01:21:48Z</time>
      </trkpt>
      <trkpt lat="43.20897500" lon="-2.09987200">
        <ele>166.00000</ele>
        <time>2010-01-01T01:22:00Z</time>
      </trkpt>
      <trkpt lat="43.20902600" lon="-2.09992100">
        <ele>166.00000</ele>
        <time>2010-01-01T01:22:02Z</time>
      </trkpt>
      <trkpt lat="43.20908700" lon="-2.10001900">
        <ele>165.00000</ele>
        <time>2010-01-01T01:22:06Z</time>
      </trkpt>
      <trkpt lat="43.20918100" lon="-2.10019000">
        <ele>163.00000</ele>
        <time>2010-01-01T01:22:12Z</time>
      </trkpt>
      <trkpt lat="43.20921900" lon="-2.10025100">
        <ele>162.00000</ele>
        <time>2010-01-01T01:22:15Z</time>
      </trkpt>
      <trkpt lat="43.20924700" lon="-2.10029700">
        <ele>162.00000</ele>
        <time>2010-01-01T01:22:16Z</time>
      </trkpt>
      <trkpt lat="43.20925400" lon="-2.10032000">
        <ele>162.00000</ele>
        <time>2010-01-01T01:22:17Z</time>
      </trkpt>
      <trkpt lat="43.20924900" lon="-2.10032400">
        <ele>161.00000</ele>
        <time>2010-01-01T01:22:17Z</time>
      </trkpt>
      <trkpt lat="43.20922600" lon="-2.10032300">
        <ele>161.00000</ele>
        <time>2010-01-01T01:22:18Z</time>
      </trkpt>
      <trkpt lat="43.20876400" lon="-2.10053800">
        <ele>153.00000</ele>
        <time>2010-01-01T01:22:38Z</time>
      </trkpt>
      <trkpt lat="43.20854000" lon="-2.10060600">
        <ele>149.00000</ele>
        <time>2010-01-01T01:22:47Z</time>
      </trkpt>
      <trkpt lat="43.20759500" lon="-2.10059400">
        <ele>149.00000</ele>
        <time>2010-01-01T01:23:25Z</time>
      </trkpt>
      <trkpt lat="43.20750400" lon="-2.10056500">
        <ele>150.00000</ele>
        <time>2010-01-01T01:23:28Z</time>
      </trkpt>
      <trkpt lat="43.20735500" lon="-2.10035000">
        <ele>150.00000</ele>
        <time>2010-01-01T01:23:37Z</time>
      </trkpt>
      <trkpt lat="43.20725200" lon="-2.10008100">
        <ele>152.00000</ele>
        <time>2010-01-01T01:23:46Z</time>
      </trkpt>
      <trkpt lat="43.20718500" lon="-2.09990600">
        <ele>154.00000</ele>
        <time>2010-01-01T01:23:52Z</time>
      </trkpt>
      <trkpt lat="43.20715700" lon="-2.09969100">
        <ele>155.00000</ele>
        <time>2010-01-01T01:23:58Z</time>
      </trkpt>
      <trkpt lat="43.20707000" lon="-2.09953700">
        <ele>157.00000</ele>
        <time>2010-01-01T01:24:04Z</time>
      </trkpt>
      <trkpt lat="43.20703700" lon="-2.09950200">
        <ele>158.00000</ele>
        <time>2010-01-01T01:24:06Z</time>
      </trkpt>
      <trkpt lat="43.20693000" lon="-2.09940300">
        <ele>160.00000</ele>
        <time>2010-01-01T01:24:11Z</time>
      </trkpt>
      <trkpt lat="43.20676332" lon="-2.09944009">
        <ele>162.00000</ele>
        <time>2010-01-01T01:24:17Z</time>
      </trkpt>
      <trkpt lat="43.20660691" lon="-2.09946155">
        <ele>164.00000</ele>
        <time>2010-01-01T01:24:24Z</time>
      </trkpt>
      <trkpt lat="43.20635667" lon="-2.09927916">
        <ele>165.00000</ele>
        <time>2010-01-01T01:24:35Z</time>
      </trkpt>
      <trkpt lat="43.20623937" lon="-2.09930062">
        <ele>165.00000</ele>
        <time>2010-01-01T01:24:40Z</time>
      </trkpt>
      <trkpt lat="43.20627065" lon="-2.09955811">
        <ele>165.00000</ele>
        <time>2010-01-01T01:24:47Z</time>
      </trkpt>
      <trkpt lat="43.20637231" lon="-2.09978342">
        <ele>167.00000</ele>
        <time>2010-01-01T01:24:55Z</time>
      </trkpt>
      <trkpt lat="43.20648179" lon="-2.10029840">
        <ele>169.00000</ele>
        <time>2010-01-01T01:25:11Z</time>
      </trkpt>
      <trkpt lat="43.20651307" lon="-2.10043787">
        <ele>169.00000</ele>
        <time>2010-01-01T01:25:15Z</time>
      </trkpt>
      <trkpt lat="43.20652089" lon="-2.10063099">
        <ele>169.00000</ele>
        <time>2010-01-01T01:25:21Z</time>
      </trkpt>
    </trkseg>
  </trk>
</gpx>
